<?xml version="1.0" encoding="UTF-8" standalone="no" ?>
<gpx xmlns="http://www.topografix.com/GPX/1/1" xmlns:xsi="http://www.w3.org/2001/XMLSchema-instance" xsi:schemaLocation="http://www.topografix.com/GPX/1/1 http://www.topografix.com/GPX/1/1/gpx.xsd" version="1.1" creator="VisuGPX - https://www.visugpx.com">
  <metadata>
    <name>Chorges VTT </name>
    <desc><![CDATA[chorges vincent, lionel, christian, ]]></desc>
  </metadata>
  <trk>
    <name><![CDATA[Chorges VTT électrique]]></name>
    <trkseg>
      <trkpt lat="44.54341" lon="6.27795">
        <ele>850.79998779297</ele>
        <time>2022-04-23T07:59:04.000Z</time>
      </trkpt>
      <trkpt lat="44.54341" lon="6.27795">
        <ele>850.79998779297</ele>
        <time>2022-04-23T07:59:04.000Z</time>
      </trkpt>
      <trkpt lat="44.54336" lon="6.27801">
        <ele>850.40002441406</ele>
        <time>2022-04-23T07:59:04.002Z</time>
      </trkpt>
      <trkpt lat="44.54334" lon="6.27805">
        <ele>850.40002441406</ele>
        <time>2022-04-23T07:59:04.006Z</time>
      </trkpt>
      <trkpt lat="44.54328" lon="6.27818">
        <ele>850.59997558594</ele>
        <time>2022-04-23T07:59:04.013Z</time>
      </trkpt>
      <trkpt lat="44.54332" lon="6.27821">
        <ele>851.40002441406</ele>
        <time>2022-04-23T07:59:04.022Z</time>
      </trkpt>
      <trkpt lat="44.54334" lon="6.27821">
        <ele>851.59997558594</ele>
        <time>2022-04-23T07:59:04.031Z</time>
      </trkpt>
      <trkpt lat="44.54336" lon="6.27821">
        <ele>851.79998779297</ele>
        <time>2022-04-23T07:59:04.041Z</time>
      </trkpt>
      <trkpt lat="44.54342" lon="6.2782">
        <ele>852.20001220703</ele>
        <time>2022-04-23T07:59:04.053Z</time>
      </trkpt>
      <trkpt lat="44.54346" lon="6.27818">
        <ele>852.40002441406</ele>
        <time>2022-04-23T07:59:04.066Z</time>
      </trkpt>
      <trkpt lat="44.54352" lon="6.27812">
        <ele>852.59997558594</ele>
        <time>2022-04-23T07:59:04.082Z</time>
      </trkpt>
      <trkpt lat="44.54357" lon="6.27808">
        <ele>852.59997558594</ele>
        <time>2022-04-23T07:59:04.100Z</time>
      </trkpt>
      <trkpt lat="44.54363" lon="6.27808">
        <ele>852.59997558594</ele>
        <time>2022-04-23T07:59:04.119Z</time>
      </trkpt>
      <trkpt lat="44.54371" lon="6.27807">
        <ele>853</ele>
        <time>2022-04-23T07:59:04.141Z</time>
      </trkpt>
      <trkpt lat="44.54374" lon="6.27805">
        <ele>853.20001220703</ele>
        <time>2022-04-23T07:59:04.164Z</time>
      </trkpt>
      <trkpt lat="44.54381" lon="6.27804">
        <ele>853.40002441406</ele>
        <time>2022-04-23T07:59:04.190Z</time>
      </trkpt>
      <trkpt lat="44.5439" lon="6.27801">
        <ele>853.79998779297</ele>
        <time>2022-04-23T07:59:04.219Z</time>
      </trkpt>
      <trkpt lat="44.54394" lon="6.27798">
        <ele>854</ele>
        <time>2022-04-23T07:59:04.249Z</time>
      </trkpt>
      <trkpt lat="44.54402" lon="6.27795">
        <ele>854.40002441406</ele>
        <time>2022-04-23T07:59:04.282Z</time>
      </trkpt>
      <trkpt lat="44.54416" lon="6.27791">
        <ele>855</ele>
        <time>2022-04-23T07:59:04.320Z</time>
      </trkpt>
      <trkpt lat="44.54421" lon="6.27789">
        <ele>855.20001220703</ele>
        <time>2022-04-23T07:59:04.359Z</time>
      </trkpt>
      <trkpt lat="44.54439" lon="6.27781">
        <ele>855.79998779297</ele>
        <time>2022-04-23T07:59:04.405Z</time>
      </trkpt>
      <trkpt lat="44.5444" lon="6.27779">
        <ele>856</ele>
        <time>2022-04-23T07:59:04.451Z</time>
      </trkpt>
      <trkpt lat="44.54442" lon="6.27771">
        <ele>856.20001220703</ele>
        <time>2022-04-23T07:59:04.499Z</time>
      </trkpt>
      <trkpt lat="44.54443" lon="6.27769">
        <ele>856.20001220703</ele>
        <time>2022-04-23T07:59:04.548Z</time>
      </trkpt>
      <trkpt lat="44.54444" lon="6.27756">
        <ele>856.40002441406</ele>
        <time>2022-04-23T07:59:04.600Z</time>
      </trkpt>
      <trkpt lat="44.54442" lon="6.27754">
        <ele>856.40002441406</ele>
        <time>2022-04-23T07:59:04.653Z</time>
      </trkpt>
      <trkpt lat="44.5444" lon="6.27756">
        <ele>856.40002441406</ele>
        <time>2022-04-23T07:59:04.707Z</time>
      </trkpt>
      <trkpt lat="44.54442" lon="6.27764">
        <ele>856.40002441406</ele>
        <time>2022-04-23T07:59:04.762Z</time>
      </trkpt>
      <trkpt lat="44.54443" lon="6.27769">
        <ele>856.20001220703</ele>
        <time>2022-04-23T07:59:04.819Z</time>
      </trkpt>
      <trkpt lat="44.54443" lon="6.27781">
        <ele>856.20001220703</ele>
        <time>2022-04-23T07:59:04.879Z</time>
      </trkpt>
      <trkpt lat="44.54438" lon="6.27793">
        <ele>856</ele>
        <time>2022-04-23T07:59:04.942Z</time>
      </trkpt>
      <trkpt lat="44.54434" lon="6.27798">
        <ele>855.79998779297</ele>
        <time>2022-04-23T07:59:05.007Z</time>
      </trkpt>
      <trkpt lat="44.5443" lon="6.27798">
        <ele>855.59997558594</ele>
        <time>2022-04-23T07:59:05.073Z</time>
      </trkpt>
      <trkpt lat="44.54424" lon="6.27797">
        <ele>855.59997558594</ele>
        <time>2022-04-23T07:59:05.141Z</time>
      </trkpt>
      <trkpt lat="44.54415" lon="6.27796">
        <ele>855.40002441406</ele>
        <time>2022-04-23T07:59:05.212Z</time>
      </trkpt>
      <trkpt lat="44.54405" lon="6.27795">
        <ele>854.79998779297</ele>
        <time>2022-04-23T07:59:05.286Z</time>
      </trkpt>
      <trkpt lat="44.54403" lon="6.27794">
        <ele>854.79998779297</ele>
        <time>2022-04-23T07:59:05.361Z</time>
      </trkpt>
      <trkpt lat="44.54396" lon="6.27793">
        <ele>854.20001220703</ele>
        <time>2022-04-23T07:59:05.438Z</time>
      </trkpt>
      <trkpt lat="44.54388" lon="6.27795">
        <ele>854.20001220703</ele>
        <time>2022-04-23T07:59:05.518Z</time>
      </trkpt>
      <trkpt lat="44.54374" lon="6.27799">
        <ele>853.79998779297</ele>
        <time>2022-04-23T07:59:05.603Z</time>
      </trkpt>
      <trkpt lat="44.5437" lon="6.278">
        <ele>853.40002441406</ele>
        <time>2022-04-23T07:59:05.689Z</time>
      </trkpt>
      <trkpt lat="44.54367" lon="6.27799">
        <ele>853.20001220703</ele>
        <time>2022-04-23T07:59:05.776Z</time>
      </trkpt>
      <trkpt lat="44.54364" lon="6.27791">
        <ele>853</ele>
        <time>2022-04-23T07:59:05.865Z</time>
      </trkpt>
      <trkpt lat="44.54359" lon="6.27776">
        <ele>852.59997558594</ele>
        <time>2022-04-23T07:59:05.958Z</time>
      </trkpt>
      <trkpt lat="44.54357" lon="6.27767">
        <ele>852.20001220703</ele>
        <time>2022-04-23T07:59:06.053Z</time>
      </trkpt>
      <trkpt lat="44.54355" lon="6.27747">
        <ele>852.40002441406</ele>
        <time>2022-04-23T07:59:06.153Z</time>
      </trkpt>
      <trkpt lat="44.54354" lon="6.27744">
        <ele>852.40002441406</ele>
        <time>2022-04-23T07:59:06.254Z</time>
      </trkpt>
      <trkpt lat="44.54356" lon="6.27732">
        <ele>852.40002441406</ele>
        <time>2022-04-23T07:59:06.358Z</time>
      </trkpt>
      <trkpt lat="44.54359" lon="6.27725">
        <ele>852.40002441406</ele>
        <time>2022-04-23T07:59:06.464Z</time>
      </trkpt>
      <trkpt lat="44.54365" lon="6.27712">
        <ele>853</ele>
        <time>2022-04-23T07:59:06.574Z</time>
      </trkpt>
      <trkpt lat="44.54376" lon="6.27698">
        <ele>853.59997558594</ele>
        <time>2022-04-23T07:59:06.688Z</time>
      </trkpt>
      <trkpt lat="44.54383" lon="6.27688">
        <ele>854.59997558594</ele>
        <time>2022-04-23T07:59:06.806Z</time>
      </trkpt>
      <trkpt lat="44.54384" lon="6.27687">
        <ele>854.79998779297</ele>
        <time>2022-04-23T07:59:06.924Z</time>
      </trkpt>
      <trkpt lat="44.54393" lon="6.27673">
        <ele>855.40002441406</ele>
        <time>2022-04-23T07:59:07.047Z</time>
      </trkpt>
      <trkpt lat="44.54398" lon="6.27668">
        <ele>855.79998779297</ele>
        <time>2022-04-23T07:59:07.172Z</time>
      </trkpt>
      <trkpt lat="44.54404" lon="6.27659">
        <ele>856.40002441406</ele>
        <time>2022-04-23T07:59:07.299Z</time>
      </trkpt>
      <trkpt lat="44.54404" lon="6.27657">
        <ele>856.59997558594</ele>
        <time>2022-04-23T07:59:07.427Z</time>
      </trkpt>
      <trkpt lat="44.54404" lon="6.27649">
        <ele>856.79998779297</ele>
        <time>2022-04-23T07:59:07.557Z</time>
      </trkpt>
      <trkpt lat="44.54401" lon="6.27644">
        <ele>857</ele>
        <time>2022-04-23T07:59:07.688Z</time>
      </trkpt>
      <trkpt lat="44.54395" lon="6.27635">
        <ele>857</ele>
        <time>2022-04-23T07:59:07.822Z</time>
      </trkpt>
      <trkpt lat="44.54386" lon="6.27621">
        <ele>856.40002441406</ele>
        <time>2022-04-23T07:59:07.961Z</time>
      </trkpt>
      <trkpt lat="44.54377" lon="6.27611">
        <ele>855.59997558594</ele>
        <time>2022-04-23T07:59:08.104Z</time>
      </trkpt>
      <trkpt lat="44.54366" lon="6.27601">
        <ele>854.79998779297</ele>
        <time>2022-04-23T07:59:08.251Z</time>
      </trkpt>
      <trkpt lat="44.54361" lon="6.27597">
        <ele>854.40002441406</ele>
        <time>2022-04-23T07:59:08.400Z</time>
      </trkpt>
      <trkpt lat="44.54344" lon="6.27584">
        <ele>853.20001220703</ele>
        <time>2022-04-23T07:59:08.555Z</time>
      </trkpt>
      <trkpt lat="44.54334" lon="6.27577">
        <ele>852.40002441406</ele>
        <time>2022-04-23T07:59:08.714Z</time>
      </trkpt>
      <trkpt lat="44.54329" lon="6.27574">
        <ele>852</ele>
        <time>2022-04-23T07:59:08.875Z</time>
      </trkpt>
      <trkpt lat="44.54313" lon="6.27566">
        <ele>850.79998779297</ele>
        <time>2022-04-23T07:59:09.041Z</time>
      </trkpt>
      <trkpt lat="44.54301" lon="6.27567">
        <ele>850.20001220703</ele>
        <time>2022-04-23T07:59:09.211Z</time>
      </trkpt>
      <trkpt lat="44.54285" lon="6.27583">
        <ele>849.59997558594</ele>
        <time>2022-04-23T07:59:09.388Z</time>
      </trkpt>
      <trkpt lat="44.54262" lon="6.27609">
        <ele>848</ele>
        <time>2022-04-23T07:59:09.575Z</time>
      </trkpt>
      <trkpt lat="44.54249" lon="6.27625">
        <ele>847</ele>
        <time>2022-04-23T07:59:09.767Z</time>
      </trkpt>
      <trkpt lat="44.54232" lon="6.2765">
        <ele>845.40002441406</ele>
        <time>2022-04-23T07:59:09.968Z</time>
      </trkpt>
      <trkpt lat="44.54226" lon="6.27656">
        <ele>844.79998779297</ele>
        <time>2022-04-23T07:59:10.171Z</time>
      </trkpt>
      <trkpt lat="44.54221" lon="6.27657">
        <ele>844.20001220703</ele>
        <time>2022-04-23T07:59:10.376Z</time>
      </trkpt>
      <trkpt lat="44.54215" lon="6.27657">
        <ele>844</ele>
        <time>2022-04-23T07:59:10.583Z</time>
      </trkpt>
      <trkpt lat="44.54211" lon="6.27651">
        <ele>843.79998779297</ele>
        <time>2022-04-23T07:59:10.792Z</time>
      </trkpt>
      <trkpt lat="44.54211" lon="6.27643">
        <ele>843.59997558594</ele>
        <time>2022-04-23T07:59:11.003Z</time>
      </trkpt>
      <trkpt lat="44.54211" lon="6.27622">
        <ele>844.59997558594</ele>
        <time>2022-04-23T07:59:11.219Z</time>
      </trkpt>
      <trkpt lat="44.54216" lon="6.27612">
        <ele>845.40002441406</ele>
        <time>2022-04-23T07:59:11.437Z</time>
      </trkpt>
      <trkpt lat="44.54225" lon="6.27601">
        <ele>846</ele>
        <time>2022-04-23T07:59:11.659Z</time>
      </trkpt>
      <trkpt lat="44.54231" lon="6.27594">
        <ele>846.59997558594</ele>
        <time>2022-04-23T07:59:11.884Z</time>
      </trkpt>
      <trkpt lat="44.54246" lon="6.27579">
        <ele>847.59997558594</ele>
        <time>2022-04-23T07:59:12.115Z</time>
      </trkpt>
      <trkpt lat="44.54254" lon="6.27568">
        <ele>848.59997558594</ele>
        <time>2022-04-23T07:59:12.350Z</time>
      </trkpt>
      <trkpt lat="44.5426" lon="6.27555">
        <ele>849.40002441406</ele>
        <time>2022-04-23T07:59:12.588Z</time>
      </trkpt>
      <trkpt lat="44.5426" lon="6.27545">
        <ele>849.59997558594</ele>
        <time>2022-04-23T07:59:12.829Z</time>
      </trkpt>
      <trkpt lat="44.54258" lon="6.27537">
        <ele>850</ele>
        <time>2022-04-23T07:59:13.072Z</time>
      </trkpt>
      <trkpt lat="44.54262" lon="6.27519">
        <ele>850.20001220703</ele>
        <time>2022-04-23T07:59:13.319Z</time>
      </trkpt>
      <trkpt lat="44.54275" lon="6.2751">
        <ele>850.40002441406</ele>
        <time>2022-04-23T07:59:13.571Z</time>
      </trkpt>
      <trkpt lat="44.54288" lon="6.27501">
        <ele>850.40002441406</ele>
        <time>2022-04-23T07:59:13.828Z</time>
      </trkpt>
      <trkpt lat="44.54303" lon="6.27488">
        <ele>851</ele>
        <time>2022-04-23T07:59:14.091Z</time>
      </trkpt>
      <trkpt lat="44.54325" lon="6.27467">
        <ele>851.40002441406</ele>
        <time>2022-04-23T07:59:14.363Z</time>
      </trkpt>
      <trkpt lat="44.54333" lon="6.27458">
        <ele>851.59997558594</ele>
        <time>2022-04-23T07:59:14.638Z</time>
      </trkpt>
      <trkpt lat="44.54341" lon="6.27448">
        <ele>851.79998779297</ele>
        <time>2022-04-23T07:59:14.916Z</time>
      </trkpt>
      <trkpt lat="44.54358" lon="6.27426">
        <ele>852.20001220703</ele>
        <time>2022-04-23T07:59:15.202Z</time>
      </trkpt>
      <trkpt lat="44.54368" lon="6.27413">
        <ele>852.59997558594</ele>
        <time>2022-04-23T07:59:15.493Z</time>
      </trkpt>
      <trkpt lat="44.54381" lon="6.27401">
        <ele>853</ele>
        <time>2022-04-23T07:59:15.789Z</time>
      </trkpt>
      <trkpt lat="44.54404" lon="6.27378">
        <ele>853</ele>
        <time>2022-04-23T07:59:16.094Z</time>
      </trkpt>
      <trkpt lat="44.54426" lon="6.27354">
        <ele>852.79998779297</ele>
        <time>2022-04-23T07:59:16.408Z</time>
      </trkpt>
      <trkpt lat="44.5445" lon="6.27328">
        <ele>852.59997558594</ele>
        <time>2022-04-23T07:59:16.733Z</time>
      </trkpt>
      <trkpt lat="44.54475" lon="6.27297">
        <ele>852.59997558594</ele>
        <time>2022-04-23T07:59:17.069Z</time>
      </trkpt>
      <trkpt lat="44.54478" lon="6.27293">
        <ele>852.59997558594</ele>
        <time>2022-04-23T07:59:17.406Z</time>
      </trkpt>
      <trkpt lat="44.5449" lon="6.27277">
        <ele>852.79998779297</ele>
        <time>2022-04-23T07:59:17.748Z</time>
      </trkpt>
      <trkpt lat="44.54507" lon="6.27249">
        <ele>852.79998779297</ele>
        <time>2022-04-23T07:59:18.099Z</time>
      </trkpt>
      <trkpt lat="44.54521" lon="6.2722">
        <ele>852.40002441406</ele>
        <time>2022-04-23T07:59:18.458Z</time>
      </trkpt>
      <trkpt lat="44.54528" lon="6.27207">
        <ele>852.59997558594</ele>
        <time>2022-04-23T07:59:18.821Z</time>
      </trkpt>
      <trkpt lat="44.54539" lon="6.27184">
        <ele>852.79998779297</ele>
        <time>2022-04-23T07:59:19.191Z</time>
      </trkpt>
      <trkpt lat="44.54551" lon="6.2716">
        <ele>852.79998779297</ele>
        <time>2022-04-23T07:59:19.568Z</time>
      </trkpt>
      <trkpt lat="44.54564" lon="6.27131">
        <ele>852.59997558594</ele>
        <time>2022-04-23T07:59:19.953Z</time>
      </trkpt>
      <trkpt lat="44.54573" lon="6.27103">
        <ele>852.20001220703</ele>
        <time>2022-04-23T07:59:20.345Z</time>
      </trkpt>
      <trkpt lat="44.54588" lon="6.27061">
        <ele>851.79998779297</ele>
        <time>2022-04-23T07:59:20.748Z</time>
      </trkpt>
      <trkpt lat="44.54609" lon="6.27017">
        <ele>851.40002441406</ele>
        <time>2022-04-23T07:59:21.164Z</time>
      </trkpt>
      <trkpt lat="44.54611" lon="6.27011">
        <ele>851.40002441406</ele>
        <time>2022-04-23T07:59:21.581Z</time>
      </trkpt>
      <trkpt lat="44.54621" lon="6.26987">
        <ele>851.40002441406</ele>
        <time>2022-04-23T07:59:22.005Z</time>
      </trkpt>
      <trkpt lat="44.54627" lon="6.26969">
        <ele>851</ele>
        <time>2022-04-23T07:59:22.433Z</time>
      </trkpt>
      <trkpt lat="44.54635" lon="6.26941">
        <ele>850.59997558594</ele>
        <time>2022-04-23T07:59:22.869Z</time>
      </trkpt>
      <trkpt lat="44.54637" lon="6.26933">
        <ele>850.20001220703</ele>
        <time>2022-04-23T07:59:23.307Z</time>
      </trkpt>
      <trkpt lat="44.54643" lon="6.269">
        <ele>849</ele>
        <time>2022-04-23T07:59:23.753Z</time>
      </trkpt>
      <trkpt lat="44.54645" lon="6.26882">
        <ele>848.59997558594</ele>
        <time>2022-04-23T07:59:24.203Z</time>
      </trkpt>
      <trkpt lat="44.54651" lon="6.26839">
        <ele>848</ele>
        <time>2022-04-23T07:59:24.663Z</time>
      </trkpt>
      <trkpt lat="44.54655" lon="6.26805">
        <ele>847.79998779297</ele>
        <time>2022-04-23T07:59:25.132Z</time>
      </trkpt>
      <trkpt lat="44.54656" lon="6.26772">
        <ele>847.40002441406</ele>
        <time>2022-04-23T07:59:25.608Z</time>
      </trkpt>
      <trkpt lat="44.54652" lon="6.26758">
        <ele>847.40002441406</ele>
        <time>2022-04-23T07:59:26.088Z</time>
      </trkpt>
      <trkpt lat="44.54638" lon="6.26745">
        <ele>847.20001220703</ele>
        <time>2022-04-23T07:59:26.574Z</time>
      </trkpt>
      <trkpt lat="44.54632" lon="6.26743">
        <ele>847.20001220703</ele>
        <time>2022-04-23T07:59:27.061Z</time>
      </trkpt>
      <trkpt lat="44.54594" lon="6.2673">
        <ele>847.20001220703</ele>
        <time>2022-04-23T07:59:27.562Z</time>
      </trkpt>
      <trkpt lat="44.54566" lon="6.26719">
        <ele>847.79998779297</ele>
        <time>2022-04-23T07:59:28.072Z</time>
      </trkpt>
      <trkpt lat="44.54561" lon="6.26715">
        <ele>847.79998779297</ele>
        <time>2022-04-23T07:59:28.584Z</time>
      </trkpt>
      <trkpt lat="44.54559" lon="6.26701">
        <ele>847.40002441406</ele>
        <time>2022-04-23T07:59:29.099Z</time>
      </trkpt>
      <trkpt lat="44.54561" lon="6.26686">
        <ele>847.20001220703</ele>
        <time>2022-04-23T07:59:29.618Z</time>
      </trkpt>
      <trkpt lat="44.54566" lon="6.26664">
        <ele>847.40002441406</ele>
        <time>2022-04-23T07:59:30.142Z</time>
      </trkpt>
      <trkpt lat="44.54581" lon="6.26605">
        <ele>847.79998779297</ele>
        <time>2022-04-23T07:59:30.681Z</time>
      </trkpt>
      <trkpt lat="44.54587" lon="6.26592">
        <ele>848.20001220703</ele>
        <time>2022-04-23T07:59:31.224Z</time>
      </trkpt>
      <trkpt lat="44.54598" lon="6.26575">
        <ele>848.40002441406</ele>
        <time>2022-04-23T07:59:31.772Z</time>
      </trkpt>
      <trkpt lat="44.54619" lon="6.26535">
        <ele>848.79998779297</ele>
        <time>2022-04-23T07:59:32.332Z</time>
      </trkpt>
      <trkpt lat="44.54634" lon="6.26496">
        <ele>849.20001220703</ele>
        <time>2022-04-23T07:59:32.903Z</time>
      </trkpt>
      <trkpt lat="44.54636" lon="6.2649">
        <ele>849.20001220703</ele>
        <time>2022-04-23T07:59:33.475Z</time>
      </trkpt>
      <trkpt lat="44.54643" lon="6.26469">
        <ele>849.59997558594</ele>
        <time>2022-04-23T07:59:34.053Z</time>
      </trkpt>
      <trkpt lat="44.54652" lon="6.26435">
        <ele>850.20001220703</ele>
        <time>2022-04-23T07:59:34.639Z</time>
      </trkpt>
      <trkpt lat="44.54653" lon="6.26429">
        <ele>850.40002441406</ele>
        <time>2022-04-23T07:59:35.227Z</time>
      </trkpt>
      <trkpt lat="44.54655" lon="6.26417">
        <ele>850.59997558594</ele>
        <time>2022-04-23T07:59:35.818Z</time>
      </trkpt>
      <trkpt lat="44.54659" lon="6.2639">
        <ele>851.40002441406</ele>
        <time>2022-04-23T07:59:36.415Z</time>
      </trkpt>
      <trkpt lat="44.54662" lon="6.26375">
        <ele>852.59997558594</ele>
        <time>2022-04-23T07:59:37.016Z</time>
      </trkpt>
      <trkpt lat="44.54668" lon="6.26349">
        <ele>853</ele>
        <time>2022-04-23T07:59:37.623Z</time>
      </trkpt>
      <trkpt lat="44.54681" lon="6.26305">
        <ele>852.40002441406</ele>
        <time>2022-04-23T07:59:38.242Z</time>
      </trkpt>
      <trkpt lat="44.54685" lon="6.26289">
        <ele>851.40002441406</ele>
        <time>2022-04-23T07:59:38.865Z</time>
      </trkpt>
      <trkpt lat="44.54691" lon="6.26257">
        <ele>850.40002441406</ele>
        <time>2022-04-23T07:59:39.495Z</time>
      </trkpt>
      <trkpt lat="44.54696" lon="6.26211">
        <ele>849.79998779297</ele>
        <time>2022-04-23T07:59:40.136Z</time>
      </trkpt>
      <trkpt lat="44.54702" lon="6.26175">
        <ele>850.20001220703</ele>
        <time>2022-04-23T07:59:40.786Z</time>
      </trkpt>
      <trkpt lat="44.547" lon="6.26161">
        <ele>850.20001220703</ele>
        <time>2022-04-23T07:59:41.440Z</time>
      </trkpt>
      <trkpt lat="44.54688" lon="6.26147">
        <ele>850.20001220703</ele>
        <time>2022-04-23T07:59:42.099Z</time>
      </trkpt>
      <trkpt lat="44.54679" lon="6.26143">
        <ele>850.40002441406</ele>
        <time>2022-04-23T07:59:42.761Z</time>
      </trkpt>
      <trkpt lat="44.54671" lon="6.26138">
        <ele>850.79998779297</ele>
        <time>2022-04-23T07:59:43.426Z</time>
      </trkpt>
      <trkpt lat="44.54667" lon="6.26135">
        <ele>851</ele>
        <time>2022-04-23T07:59:44.092Z</time>
      </trkpt>
      <trkpt lat="44.54664" lon="6.26132">
        <ele>851.20001220703</ele>
        <time>2022-04-23T07:59:44.760Z</time>
      </trkpt>
      <trkpt lat="44.54661" lon="6.26128">
        <ele>851.40002441406</ele>
        <time>2022-04-23T07:59:45.429Z</time>
      </trkpt>
      <trkpt lat="44.54654" lon="6.26116">
        <ele>852</ele>
        <time>2022-04-23T07:59:46.101Z</time>
      </trkpt>
      <trkpt lat="44.54652" lon="6.26112">
        <ele>852.40002441406</ele>
        <time>2022-04-23T07:59:46.775Z</time>
      </trkpt>
      <trkpt lat="44.54645" lon="6.26101">
        <ele>853.59997558594</ele>
        <time>2022-04-23T07:59:47.452Z</time>
      </trkpt>
      <trkpt lat="44.5464" lon="6.26096">
        <ele>854.20001220703</ele>
        <time>2022-04-23T07:59:48.131Z</time>
      </trkpt>
      <trkpt lat="44.54635" lon="6.26093">
        <ele>854.79998779297</ele>
        <time>2022-04-23T07:59:48.812Z</time>
      </trkpt>
      <trkpt lat="44.54628" lon="6.26091">
        <ele>856.20001220703</ele>
        <time>2022-04-23T07:59:49.495Z</time>
      </trkpt>
      <trkpt lat="44.5462" lon="6.26091">
        <ele>857.40002441406</ele>
        <time>2022-04-23T07:59:50.181Z</time>
      </trkpt>
      <trkpt lat="44.54612" lon="6.2609">
        <ele>858.40002441406</ele>
        <time>2022-04-23T07:59:50.870Z</time>
      </trkpt>
      <trkpt lat="44.54604" lon="6.26088">
        <ele>859.59997558594</ele>
        <time>2022-04-23T07:59:51.561Z</time>
      </trkpt>
      <trkpt lat="44.54597" lon="6.26088">
        <ele>860.40002441406</ele>
        <time>2022-04-23T07:59:52.255Z</time>
      </trkpt>
      <trkpt lat="44.54593" lon="6.26088">
        <ele>860.79998779297</ele>
        <time>2022-04-23T07:59:52.950Z</time>
      </trkpt>
      <trkpt lat="44.54585" lon="6.26092">
        <ele>861.79998779297</ele>
        <time>2022-04-23T07:59:53.648Z</time>
      </trkpt>
      <trkpt lat="44.54582" lon="6.26092">
        <ele>862.20001220703</ele>
        <time>2022-04-23T07:59:54.347Z</time>
      </trkpt>
      <trkpt lat="44.54575" lon="6.26095">
        <ele>863.59997558594</ele>
        <time>2022-04-23T07:59:55.048Z</time>
      </trkpt>
      <trkpt lat="44.54571" lon="6.26097">
        <ele>864</ele>
        <time>2022-04-23T07:59:55.751Z</time>
      </trkpt>
      <trkpt lat="44.54567" lon="6.26098">
        <ele>864.59997558594</ele>
        <time>2022-04-23T07:59:56.455Z</time>
      </trkpt>
      <trkpt lat="44.54563" lon="6.26098">
        <ele>865</ele>
        <time>2022-04-23T07:59:57.160Z</time>
      </trkpt>
      <trkpt lat="44.54559" lon="6.26098">
        <ele>865.59997558594</ele>
        <time>2022-04-23T07:59:57.867Z</time>
      </trkpt>
      <trkpt lat="44.54557" lon="6.26099">
        <ele>865.79998779297</ele>
        <time>2022-04-23T07:59:58.574Z</time>
      </trkpt>
      <trkpt lat="44.54547" lon="6.26101">
        <ele>867</ele>
        <time>2022-04-23T07:59:59.285Z</time>
      </trkpt>
      <trkpt lat="44.54545" lon="6.26101">
        <ele>867.20001220703</ele>
        <time>2022-04-23T07:59:59.996Z</time>
      </trkpt>
      <trkpt lat="44.54536" lon="6.26101">
        <ele>868</ele>
        <time>2022-04-23T08:00:00.710Z</time>
      </trkpt>
      <trkpt lat="44.5453" lon="6.26103">
        <ele>868.79998779297</ele>
        <time>2022-04-23T08:00:01.426Z</time>
      </trkpt>
      <trkpt lat="44.54525" lon="6.26105">
        <ele>869</ele>
        <time>2022-04-23T08:00:02.144Z</time>
      </trkpt>
      <trkpt lat="44.54517" lon="6.26108">
        <ele>870</ele>
        <time>2022-04-23T08:00:02.865Z</time>
      </trkpt>
      <trkpt lat="44.54515" lon="6.26108">
        <ele>870.40002441406</ele>
        <time>2022-04-23T08:00:03.586Z</time>
      </trkpt>
      <trkpt lat="44.5451" lon="6.26109">
        <ele>871</ele>
        <time>2022-04-23T08:00:04.309Z</time>
      </trkpt>
      <trkpt lat="44.54508" lon="6.26109">
        <ele>871.40002441406</ele>
        <time>2022-04-23T08:00:05.033Z</time>
      </trkpt>
      <trkpt lat="44.54506" lon="6.26109">
        <ele>871.79998779297</ele>
        <time>2022-04-23T08:00:05.757Z</time>
      </trkpt>
      <trkpt lat="44.54498" lon="6.26108">
        <ele>872.79998779297</ele>
        <time>2022-04-23T08:00:06.484Z</time>
      </trkpt>
      <trkpt lat="44.54497" lon="6.26108">
        <ele>873</ele>
        <time>2022-04-23T08:00:07.212Z</time>
      </trkpt>
      <trkpt lat="44.54489" lon="6.26106">
        <ele>873.79998779297</ele>
        <time>2022-04-23T08:00:07.942Z</time>
      </trkpt>
      <trkpt lat="44.54485" lon="6.26104">
        <ele>874.40002441406</ele>
        <time>2022-04-23T08:00:08.674Z</time>
      </trkpt>
      <trkpt lat="44.5448" lon="6.26102">
        <ele>875</ele>
        <time>2022-04-23T08:00:09.407Z</time>
      </trkpt>
      <trkpt lat="44.54474" lon="6.26096">
        <ele>875.79998779297</ele>
        <time>2022-04-23T08:00:10.143Z</time>
      </trkpt>
      <trkpt lat="44.54473" lon="6.26093">
        <ele>876.20001220703</ele>
        <time>2022-04-23T08:00:10.879Z</time>
      </trkpt>
      <trkpt lat="44.54466" lon="6.26079">
        <ele>877.20001220703</ele>
        <time>2022-04-23T08:00:11.619Z</time>
      </trkpt>
      <trkpt lat="44.5446" lon="6.26065">
        <ele>877.79998779297</ele>
        <time>2022-04-23T08:00:12.363Z</time>
      </trkpt>
      <trkpt lat="44.54458" lon="6.2606">
        <ele>878.20001220703</ele>
        <time>2022-04-23T08:00:13.109Z</time>
      </trkpt>
      <trkpt lat="44.54454" lon="6.26049">
        <ele>879.20001220703</ele>
        <time>2022-04-23T08:00:13.858Z</time>
      </trkpt>
      <trkpt lat="44.54454" lon="6.26047">
        <ele>879.20001220703</ele>
        <time>2022-04-23T08:00:14.607Z</time>
      </trkpt>
      <trkpt lat="44.54454" lon="6.26045">
        <ele>879.59997558594</ele>
        <time>2022-04-23T08:00:15.356Z</time>
      </trkpt>
      <trkpt lat="44.54457" lon="6.26042">
        <ele>880</ele>
        <time>2022-04-23T08:00:16.107Z</time>
      </trkpt>
      <trkpt lat="44.54462" lon="6.2604">
        <ele>880.79998779297</ele>
        <time>2022-04-23T08:00:16.859Z</time>
      </trkpt>
      <trkpt lat="44.54468" lon="6.2604">
        <ele>881.40002441406</ele>
        <time>2022-04-23T08:00:17.613Z</time>
      </trkpt>
      <trkpt lat="44.54471" lon="6.26039">
        <ele>881.79998779297</ele>
        <time>2022-04-23T08:00:18.368Z</time>
      </trkpt>
      <trkpt lat="44.5448" lon="6.26037">
        <ele>882.79998779297</ele>
        <time>2022-04-23T08:00:19.126Z</time>
      </trkpt>
      <trkpt lat="44.54485" lon="6.26034">
        <ele>883.79998779297</ele>
        <time>2022-04-23T08:00:19.886Z</time>
      </trkpt>
      <trkpt lat="44.54487" lon="6.26032">
        <ele>884</ele>
        <time>2022-04-23T08:00:20.647Z</time>
      </trkpt>
      <trkpt lat="44.54493" lon="6.26024">
        <ele>885</ele>
        <time>2022-04-23T08:00:21.411Z</time>
      </trkpt>
      <trkpt lat="44.54494" lon="6.26022">
        <ele>885.20001220703</ele>
        <time>2022-04-23T08:00:22.175Z</time>
      </trkpt>
      <trkpt lat="44.54498" lon="6.26014">
        <ele>886</ele>
        <time>2022-04-23T08:00:22.942Z</time>
      </trkpt>
      <trkpt lat="44.54503" lon="6.26004">
        <ele>887.20001220703</ele>
        <time>2022-04-23T08:00:23.711Z</time>
      </trkpt>
      <trkpt lat="44.54504" lon="6.26001">
        <ele>887.59997558594</ele>
        <time>2022-04-23T08:00:24.481Z</time>
      </trkpt>
      <trkpt lat="44.54507" lon="6.25995">
        <ele>888.20001220703</ele>
        <time>2022-04-23T08:00:25.253Z</time>
      </trkpt>
      <trkpt lat="44.54512" lon="6.25985">
        <ele>889.40002441406</ele>
        <time>2022-04-23T08:00:26.028Z</time>
      </trkpt>
      <trkpt lat="44.54516" lon="6.25978">
        <ele>889.59997558594</ele>
        <time>2022-04-23T08:00:26.805Z</time>
      </trkpt>
      <trkpt lat="44.54524" lon="6.25962">
        <ele>890.40002441406</ele>
        <time>2022-04-23T08:00:27.587Z</time>
      </trkpt>
      <trkpt lat="44.54531" lon="6.25949">
        <ele>891.40002441406</ele>
        <time>2022-04-23T08:00:28.372Z</time>
      </trkpt>
      <trkpt lat="44.54533" lon="6.25944">
        <ele>891.59997558594</ele>
        <time>2022-04-23T08:00:29.159Z</time>
      </trkpt>
      <trkpt lat="44.54543" lon="6.25928">
        <ele>892.40002441406</ele>
        <time>2022-04-23T08:00:29.951Z</time>
      </trkpt>
      <trkpt lat="44.54545" lon="6.25926">
        <ele>892.59997558594</ele>
        <time>2022-04-23T08:00:30.744Z</time>
      </trkpt>
      <trkpt lat="44.5456" lon="6.25908">
        <ele>893.40002441406</ele>
        <time>2022-04-23T08:00:31.543Z</time>
      </trkpt>
      <trkpt lat="44.54569" lon="6.25891">
        <ele>893.40002441406</ele>
        <time>2022-04-23T08:00:32.347Z</time>
      </trkpt>
      <trkpt lat="44.54572" lon="6.25883">
        <ele>893.59997558594</ele>
        <time>2022-04-23T08:00:33.153Z</time>
      </trkpt>
      <trkpt lat="44.54575" lon="6.25871">
        <ele>893.59997558594</ele>
        <time>2022-04-23T08:00:33.962Z</time>
      </trkpt>
      <trkpt lat="44.5458" lon="6.25846">
        <ele>894.40002441406</ele>
        <time>2022-04-23T08:00:34.778Z</time>
      </trkpt>
      <trkpt lat="44.54577" lon="6.25817">
        <ele>894.40002441406</ele>
        <time>2022-04-23T08:00:35.600Z</time>
      </trkpt>
      <trkpt lat="44.54575" lon="6.25802">
        <ele>894.59997558594</ele>
        <time>2022-04-23T08:00:36.426Z</time>
      </trkpt>
      <trkpt lat="44.54574" lon="6.25798">
        <ele>894.79998779297</ele>
        <time>2022-04-23T08:00:37.253Z</time>
      </trkpt>
      <trkpt lat="44.54579" lon="6.25773">
        <ele>895.59997558594</ele>
        <time>2022-04-23T08:00:38.086Z</time>
      </trkpt>
      <trkpt lat="44.5458" lon="6.2577">
        <ele>895.59997558594</ele>
        <time>2022-04-23T08:00:38.920Z</time>
      </trkpt>
      <trkpt lat="44.54588" lon="6.2575">
        <ele>896</ele>
        <time>2022-04-23T08:00:39.759Z</time>
      </trkpt>
      <trkpt lat="44.54595" lon="6.25732">
        <ele>897</ele>
        <time>2022-04-23T08:00:40.603Z</time>
      </trkpt>
      <trkpt lat="44.54596" lon="6.25729">
        <ele>897</ele>
        <time>2022-04-23T08:00:41.448Z</time>
      </trkpt>
      <trkpt lat="44.54604" lon="6.25704">
        <ele>898</ele>
        <time>2022-04-23T08:00:42.299Z</time>
      </trkpt>
      <trkpt lat="44.54606" lon="6.25698">
        <ele>898.40002441406</ele>
        <time>2022-04-23T08:00:43.152Z</time>
      </trkpt>
      <trkpt lat="44.5461" lon="6.25682">
        <ele>899</ele>
        <time>2022-04-23T08:00:44.009Z</time>
      </trkpt>
      <trkpt lat="44.54616" lon="6.25663">
        <ele>900</ele>
        <time>2022-04-23T08:00:44.871Z</time>
      </trkpt>
      <trkpt lat="44.54617" lon="6.2566">
        <ele>900.20001220703</ele>
        <time>2022-04-23T08:00:45.734Z</time>
      </trkpt>
      <trkpt lat="44.54624" lon="6.25639">
        <ele>901.20001220703</ele>
        <time>2022-04-23T08:00:46.602Z</time>
      </trkpt>
      <trkpt lat="44.54626" lon="6.25633">
        <ele>901.40002441406</ele>
        <time>2022-04-23T08:00:47.472Z</time>
      </trkpt>
      <trkpt lat="44.5463" lon="6.25617">
        <ele>902.20001220703</ele>
        <time>2022-04-23T08:00:48.346Z</time>
      </trkpt>
      <trkpt lat="44.54634" lon="6.25609">
        <ele>902.59997558594</ele>
        <time>2022-04-23T08:00:49.222Z</time>
      </trkpt>
      <trkpt lat="44.54641" lon="6.2559">
        <ele>903.20001220703</ele>
        <time>2022-04-23T08:00:50.103Z</time>
      </trkpt>
      <trkpt lat="44.54646" lon="6.25575">
        <ele>903.59997558594</ele>
        <time>2022-04-23T08:00:50.988Z</time>
      </trkpt>
      <trkpt lat="44.54652" lon="6.25561">
        <ele>904.79998779297</ele>
        <time>2022-04-23T08:00:51.877Z</time>
      </trkpt>
      <trkpt lat="44.54662" lon="6.25537">
        <ele>905.79998779297</ele>
        <time>2022-04-23T08:00:52.772Z</time>
      </trkpt>
      <trkpt lat="44.54663" lon="6.25534">
        <ele>905.79998779297</ele>
        <time>2022-04-23T08:00:53.668Z</time>
      </trkpt>
      <trkpt lat="44.54674" lon="6.25504">
        <ele>906.59997558594</ele>
        <time>2022-04-23T08:00:54.572Z</time>
      </trkpt>
      <trkpt lat="44.54677" lon="6.2549">
        <ele>906.79998779297</ele>
        <time>2022-04-23T08:00:55.480Z</time>
      </trkpt>
      <trkpt lat="44.5468" lon="6.25471">
        <ele>907.20001220703</ele>
        <time>2022-04-23T08:00:56.392Z</time>
      </trkpt>
      <trkpt lat="44.54686" lon="6.25439">
        <ele>908</ele>
        <time>2022-04-23T08:00:57.312Z</time>
      </trkpt>
      <trkpt lat="44.54687" lon="6.25435">
        <ele>908.20001220703</ele>
        <time>2022-04-23T08:00:58.233Z</time>
      </trkpt>
      <trkpt lat="44.54693" lon="6.25405">
        <ele>909.20001220703</ele>
        <time>2022-04-23T08:00:59.161Z</time>
      </trkpt>
      <trkpt lat="44.54697" lon="6.2539">
        <ele>910.20001220703</ele>
        <time>2022-04-23T08:01:00.093Z</time>
      </trkpt>
      <trkpt lat="44.54701" lon="6.25377">
        <ele>911.20001220703</ele>
        <time>2022-04-23T08:01:01.028Z</time>
      </trkpt>
      <trkpt lat="44.54706" lon="6.25365">
        <ele>912.40002441406</ele>
        <time>2022-04-23T08:01:01.967Z</time>
      </trkpt>
      <trkpt lat="44.54709" lon="6.25357">
        <ele>913.20001220703</ele>
        <time>2022-04-23T08:01:02.908Z</time>
      </trkpt>
      <trkpt lat="44.5471" lon="6.25355">
        <ele>913.59997558594</ele>
        <time>2022-04-23T08:01:03.850Z</time>
      </trkpt>
      <trkpt lat="44.54713" lon="6.25345">
        <ele>914.59997558594</ele>
        <time>2022-04-23T08:01:04.794Z</time>
      </trkpt>
      <trkpt lat="44.54717" lon="6.25335">
        <ele>915.40002441406</ele>
        <time>2022-04-23T08:01:05.741Z</time>
      </trkpt>
      <trkpt lat="44.54717" lon="6.25333">
        <ele>915.79998779297</ele>
        <time>2022-04-23T08:01:06.688Z</time>
      </trkpt>
      <trkpt lat="44.54719" lon="6.25324">
        <ele>916.79998779297</ele>
        <time>2022-04-23T08:01:07.637Z</time>
      </trkpt>
      <trkpt lat="44.54722" lon="6.25311">
        <ele>918</ele>
        <time>2022-04-23T08:01:08.590Z</time>
      </trkpt>
      <trkpt lat="44.54725" lon="6.25301">
        <ele>919</ele>
        <time>2022-04-23T08:01:09.545Z</time>
      </trkpt>
      <trkpt lat="44.54728" lon="6.25287">
        <ele>920</ele>
        <time>2022-04-23T08:01:10.504Z</time>
      </trkpt>
      <trkpt lat="44.54728" lon="6.25285">
        <ele>920.20001220703</ele>
        <time>2022-04-23T08:01:11.463Z</time>
      </trkpt>
      <trkpt lat="44.54732" lon="6.25271">
        <ele>921.40002441406</ele>
        <time>2022-04-23T08:01:12.426Z</time>
      </trkpt>
      <trkpt lat="44.54732" lon="6.25268">
        <ele>921.59997558594</ele>
        <time>2022-04-23T08:01:13.389Z</time>
      </trkpt>
      <trkpt lat="44.54735" lon="6.25258">
        <ele>922.40002441406</ele>
        <time>2022-04-23T08:01:14.355Z</time>
      </trkpt>
      <trkpt lat="44.54738" lon="6.2525">
        <ele>923</ele>
        <time>2022-04-23T08:01:15.323Z</time>
      </trkpt>
      <trkpt lat="44.54742" lon="6.25241">
        <ele>923.59997558594</ele>
        <time>2022-04-23T08:01:16.294Z</time>
      </trkpt>
      <trkpt lat="44.54744" lon="6.25236">
        <ele>924</ele>
        <time>2022-04-23T08:01:17.266Z</time>
      </trkpt>
      <trkpt lat="44.54749" lon="6.25226">
        <ele>924.59997558594</ele>
        <time>2022-04-23T08:01:18.241Z</time>
      </trkpt>
      <trkpt lat="44.54751" lon="6.25219">
        <ele>925.20001220703</ele>
        <time>2022-04-23T08:01:19.218Z</time>
      </trkpt>
      <trkpt lat="44.54755" lon="6.25207">
        <ele>925.79998779297</ele>
        <time>2022-04-23T08:01:20.198Z</time>
      </trkpt>
      <trkpt lat="44.54758" lon="6.25196">
        <ele>926.40002441406</ele>
        <time>2022-04-23T08:01:21.181Z</time>
      </trkpt>
      <trkpt lat="44.54761" lon="6.25188">
        <ele>927</ele>
        <time>2022-04-23T08:01:22.166Z</time>
      </trkpt>
      <trkpt lat="44.54764" lon="6.25176">
        <ele>928</ele>
        <time>2022-04-23T08:01:23.154Z</time>
      </trkpt>
      <trkpt lat="44.54769" lon="6.25163">
        <ele>929.20001220703</ele>
        <time>2022-04-23T08:01:24.145Z</time>
      </trkpt>
      <trkpt lat="44.54773" lon="6.25149">
        <ele>930</ele>
        <time>2022-04-23T08:01:25.140Z</time>
      </trkpt>
      <trkpt lat="44.54774" lon="6.25147">
        <ele>930.20001220703</ele>
        <time>2022-04-23T08:01:26.135Z</time>
      </trkpt>
      <trkpt lat="44.54778" lon="6.25136">
        <ele>931.20001220703</ele>
        <time>2022-04-23T08:01:27.133Z</time>
      </trkpt>
      <trkpt lat="44.5478" lon="6.25129">
        <ele>931.79998779297</ele>
        <time>2022-04-23T08:01:28.133Z</time>
      </trkpt>
      <trkpt lat="44.54782" lon="6.25123">
        <ele>932.20001220703</ele>
        <time>2022-04-23T08:01:29.135Z</time>
      </trkpt>
      <trkpt lat="44.54788" lon="6.25106">
        <ele>933.20001220703</ele>
        <time>2022-04-23T08:01:30.141Z</time>
      </trkpt>
      <trkpt lat="44.54789" lon="6.25103">
        <ele>933.20001220703</ele>
        <time>2022-04-23T08:01:31.148Z</time>
      </trkpt>
      <trkpt lat="44.54795" lon="6.2508">
        <ele>934.20001220703</ele>
        <time>2022-04-23T08:01:32.161Z</time>
      </trkpt>
      <trkpt lat="44.548" lon="6.25053">
        <ele>934.40002441406</ele>
        <time>2022-04-23T08:01:33.180Z</time>
      </trkpt>
      <trkpt lat="44.54803" lon="6.25028">
        <ele>933.59997558594</ele>
        <time>2022-04-23T08:01:34.205Z</time>
      </trkpt>
      <trkpt lat="44.54804" lon="6.2501">
        <ele>933.20001220703</ele>
        <time>2022-04-23T08:01:35.235Z</time>
      </trkpt>
      <trkpt lat="44.54805" lon="6.25004">
        <ele>933</ele>
        <time>2022-04-23T08:01:36.266Z</time>
      </trkpt>
      <trkpt lat="44.54809" lon="6.24963">
        <ele>932.20001220703</ele>
        <time>2022-04-23T08:01:37.307Z</time>
      </trkpt>
      <trkpt lat="44.54812" lon="6.24951">
        <ele>932.20001220703</ele>
        <time>2022-04-23T08:01:38.351Z</time>
      </trkpt>
      <trkpt lat="44.54816" lon="6.24934">
        <ele>932.59997558594</ele>
        <time>2022-04-23T08:01:39.399Z</time>
      </trkpt>
      <trkpt lat="44.5482" lon="6.24923">
        <ele>932.79998779297</ele>
        <time>2022-04-23T08:01:40.450Z</time>
      </trkpt>
      <trkpt lat="44.54826" lon="6.249">
        <ele>934</ele>
        <time>2022-04-23T08:01:41.507Z</time>
      </trkpt>
      <trkpt lat="44.54829" lon="6.2489">
        <ele>934.40002441406</ele>
        <time>2022-04-23T08:01:42.566Z</time>
      </trkpt>
      <trkpt lat="44.54838" lon="6.24864">
        <ele>935.20001220703</ele>
        <time>2022-04-23T08:01:43.632Z</time>
      </trkpt>
      <trkpt lat="44.54839" lon="6.24859">
        <ele>935.40002441406</ele>
        <time>2022-04-23T08:01:44.699Z</time>
      </trkpt>
      <trkpt lat="44.54842" lon="6.24834">
        <ele>935.59997558594</ele>
        <time>2022-04-23T08:01:45.772Z</time>
      </trkpt>
      <trkpt lat="44.54835" lon="6.24805">
        <ele>935.20001220703</ele>
        <time>2022-04-23T08:01:46.853Z</time>
      </trkpt>
      <trkpt lat="44.54828" lon="6.24781">
        <ele>934.20001220703</ele>
        <time>2022-04-23T08:01:47.940Z</time>
      </trkpt>
      <trkpt lat="44.54826" lon="6.24771">
        <ele>933.79998779297</ele>
        <time>2022-04-23T08:01:49.029Z</time>
      </trkpt>
      <trkpt lat="44.54825" lon="6.24762">
        <ele>933.20001220703</ele>
        <time>2022-04-23T08:01:50.120Z</time>
      </trkpt>
      <trkpt lat="44.54824" lon="6.24761">
        <ele>933.20001220703</ele>
        <time>2022-04-23T08:01:51.212Z</time>
      </trkpt>
      <trkpt lat="44.54824" lon="6.24761">
        <ele>933</ele>
        <time>2022-04-23T08:01:52.304Z</time>
      </trkpt>
      <trkpt lat="44.5482" lon="6.24758">
        <ele>933.20001220703</ele>
        <time>2022-04-23T08:01:53.397Z</time>
      </trkpt>
      <trkpt lat="44.54817" lon="6.24758">
        <ele>933.20001220703</ele>
        <time>2022-04-23T08:01:54.491Z</time>
      </trkpt>
      <trkpt lat="44.54803" lon="6.24757">
        <ele>933.20001220703</ele>
        <time>2022-04-23T08:01:55.590Z</time>
      </trkpt>
      <trkpt lat="44.54794" lon="6.24753">
        <ele>933.59997558594</ele>
        <time>2022-04-23T08:01:56.692Z</time>
      </trkpt>
      <trkpt lat="44.54789" lon="6.24748">
        <ele>933.59997558594</ele>
        <time>2022-04-23T08:01:57.796Z</time>
      </trkpt>
      <trkpt lat="44.54774" lon="6.24735">
        <ele>934.59997558594</ele>
        <time>2022-04-23T08:01:58.906Z</time>
      </trkpt>
      <trkpt lat="44.54757" lon="6.2473">
        <ele>935.40002441406</ele>
        <time>2022-04-23T08:02:00.022Z</time>
      </trkpt>
      <trkpt lat="44.54739" lon="6.2473">
        <ele>936.59997558594</ele>
        <time>2022-04-23T08:02:01.143Z</time>
      </trkpt>
      <trkpt lat="44.54734" lon="6.24731">
        <ele>937</ele>
        <time>2022-04-23T08:02:02.266Z</time>
      </trkpt>
      <trkpt lat="44.54727" lon="6.24731">
        <ele>937.59997558594</ele>
        <time>2022-04-23T08:02:03.391Z</time>
      </trkpt>
      <trkpt lat="44.54716" lon="6.24729">
        <ele>938.40002441406</ele>
        <time>2022-04-23T08:02:04.520Z</time>
      </trkpt>
      <trkpt lat="44.5471" lon="6.24729">
        <ele>938.79998779297</ele>
        <time>2022-04-23T08:02:05.651Z</time>
      </trkpt>
      <trkpt lat="44.54694" lon="6.24723">
        <ele>939.59997558594</ele>
        <time>2022-04-23T08:02:06.788Z</time>
      </trkpt>
      <trkpt lat="44.54689" lon="6.24721">
        <ele>939.79998779297</ele>
        <time>2022-04-23T08:02:07.927Z</time>
      </trkpt>
      <trkpt lat="44.54679" lon="6.24717">
        <ele>940.59997558594</ele>
        <time>2022-04-23T08:02:09.069Z</time>
      </trkpt>
      <trkpt lat="44.54674" lon="6.24714">
        <ele>941</ele>
        <time>2022-04-23T08:02:10.213Z</time>
      </trkpt>
      <trkpt lat="44.54662" lon="6.24708">
        <ele>942.20001220703</ele>
        <time>2022-04-23T08:02:11.361Z</time>
      </trkpt>
      <trkpt lat="44.54659" lon="6.24707">
        <ele>942.20001220703</ele>
        <time>2022-04-23T08:02:12.510Z</time>
      </trkpt>
      <trkpt lat="44.5465" lon="6.24704">
        <ele>943.20001220703</ele>
        <time>2022-04-23T08:02:13.662Z</time>
      </trkpt>
      <trkpt lat="44.54644" lon="6.24706">
        <ele>944.20001220703</ele>
        <time>2022-04-23T08:02:14.816Z</time>
      </trkpt>
      <trkpt lat="44.54642" lon="6.24707">
        <ele>944.20001220703</ele>
        <time>2022-04-23T08:02:15.971Z</time>
      </trkpt>
      <trkpt lat="44.54634" lon="6.24713">
        <ele>945.20001220703</ele>
        <time>2022-04-23T08:02:17.129Z</time>
      </trkpt>
      <trkpt lat="44.5463" lon="6.24717">
        <ele>945.59997558594</ele>
        <time>2022-04-23T08:02:18.288Z</time>
      </trkpt>
      <trkpt lat="44.54618" lon="6.24725">
        <ele>946.20001220703</ele>
        <time>2022-04-23T08:02:19.452Z</time>
      </trkpt>
      <trkpt lat="44.54614" lon="6.24727">
        <ele>946.59997558594</ele>
        <time>2022-04-23T08:02:20.617Z</time>
      </trkpt>
      <trkpt lat="44.54605" lon="6.24726">
        <ele>947.40002441406</ele>
        <time>2022-04-23T08:02:21.785Z</time>
      </trkpt>
      <trkpt lat="44.546" lon="6.24724">
        <ele>947.79998779297</ele>
        <time>2022-04-23T08:02:22.955Z</time>
      </trkpt>
      <trkpt lat="44.54592" lon="6.2472">
        <ele>948.59997558594</ele>
        <time>2022-04-23T08:02:24.128Z</time>
      </trkpt>
      <trkpt lat="44.5459" lon="6.24718">
        <ele>948.79998779297</ele>
        <time>2022-04-23T08:02:25.301Z</time>
      </trkpt>
      <trkpt lat="44.54578" lon="6.24705">
        <ele>949.79998779297</ele>
        <time>2022-04-23T08:02:26.479Z</time>
      </trkpt>
      <trkpt lat="44.54577" lon="6.24702">
        <ele>949.79998779297</ele>
        <time>2022-04-23T08:02:27.658Z</time>
      </trkpt>
      <trkpt lat="44.5457" lon="6.24684">
        <ele>951</ele>
        <time>2022-04-23T08:02:28.842Z</time>
      </trkpt>
      <trkpt lat="44.54569" lon="6.24681">
        <ele>951.20001220703</ele>
        <time>2022-04-23T08:02:30.027Z</time>
      </trkpt>
      <trkpt lat="44.54566" lon="6.24664">
        <ele>952</ele>
        <time>2022-04-23T08:02:31.216Z</time>
      </trkpt>
      <trkpt lat="44.54567" lon="6.24646">
        <ele>953</ele>
        <time>2022-04-23T08:02:32.409Z</time>
      </trkpt>
      <trkpt lat="44.54568" lon="6.24643">
        <ele>953</ele>
        <time>2022-04-23T08:02:33.603Z</time>
      </trkpt>
      <trkpt lat="44.54571" lon="6.24622">
        <ele>954.20001220703</ele>
        <time>2022-04-23T08:02:34.802Z</time>
      </trkpt>
      <trkpt lat="44.54568" lon="6.24605">
        <ele>955.40002441406</ele>
        <time>2022-04-23T08:02:36.005Z</time>
      </trkpt>
      <trkpt lat="44.54561" lon="6.24587">
        <ele>956.40002441406</ele>
        <time>2022-04-23T08:02:37.213Z</time>
      </trkpt>
      <trkpt lat="44.5456" lon="6.24584">
        <ele>956.40002441406</ele>
        <time>2022-04-23T08:02:38.422Z</time>
      </trkpt>
      <trkpt lat="44.54547" lon="6.24572">
        <ele>957.59997558594</ele>
        <time>2022-04-23T08:02:39.636Z</time>
      </trkpt>
      <trkpt lat="44.54545" lon="6.2457">
        <ele>957.59997558594</ele>
        <time>2022-04-23T08:02:40.851Z</time>
      </trkpt>
      <trkpt lat="44.54537" lon="6.24566">
        <ele>958.59997558594</ele>
        <time>2022-04-23T08:02:42.069Z</time>
      </trkpt>
      <trkpt lat="44.54526" lon="6.24561">
        <ele>959.40002441406</ele>
        <time>2022-04-23T08:02:43.290Z</time>
      </trkpt>
      <trkpt lat="44.54522" lon="6.2456">
        <ele>959.79998779297</ele>
        <time>2022-04-23T08:02:44.513Z</time>
      </trkpt>
      <trkpt lat="44.54509" lon="6.24553">
        <ele>960.79998779297</ele>
        <time>2022-04-23T08:02:45.740Z</time>
      </trkpt>
      <trkpt lat="44.54507" lon="6.24551">
        <ele>960.79998779297</ele>
        <time>2022-04-23T08:02:46.968Z</time>
      </trkpt>
      <trkpt lat="44.54496" lon="6.24544">
        <ele>961.79998779297</ele>
        <time>2022-04-23T08:02:48.200Z</time>
      </trkpt>
      <trkpt lat="44.54492" lon="6.2454">
        <ele>962</ele>
        <time>2022-04-23T08:02:49.434Z</time>
      </trkpt>
      <trkpt lat="44.54482" lon="6.24536">
        <ele>962.59997558594</ele>
        <time>2022-04-23T08:02:50.671Z</time>
      </trkpt>
      <trkpt lat="44.54475" lon="6.24534">
        <ele>963.20001220703</ele>
        <time>2022-04-23T08:02:51.911Z</time>
      </trkpt>
      <trkpt lat="44.54468" lon="6.24532">
        <ele>963.79998779297</ele>
        <time>2022-04-23T08:02:53.153Z</time>
      </trkpt>
      <trkpt lat="44.54457" lon="6.24531">
        <ele>964.40002441406</ele>
        <time>2022-04-23T08:02:54.398Z</time>
      </trkpt>
      <trkpt lat="44.54449" lon="6.24532">
        <ele>964.79998779297</ele>
        <time>2022-04-23T08:02:55.646Z</time>
      </trkpt>
      <trkpt lat="44.54434" lon="6.24538">
        <ele>965.20001220703</ele>
        <time>2022-04-23T08:02:56.899Z</time>
      </trkpt>
      <trkpt lat="44.54425" lon="6.24541">
        <ele>965.40002441406</ele>
        <time>2022-04-23T08:02:58.155Z</time>
      </trkpt>
      <trkpt lat="44.54414" lon="6.24545">
        <ele>966</ele>
        <time>2022-04-23T08:02:59.415Z</time>
      </trkpt>
      <trkpt lat="44.54393" lon="6.24553">
        <ele>966.40002441406</ele>
        <time>2022-04-23T08:03:00.682Z</time>
      </trkpt>
      <trkpt lat="44.54384" lon="6.24555">
        <ele>966.59997558594</ele>
        <time>2022-04-23T08:03:01.952Z</time>
      </trkpt>
      <trkpt lat="44.5437" lon="6.24559">
        <ele>966.79998779297</ele>
        <time>2022-04-23T08:03:03.227Z</time>
      </trkpt>
      <trkpt lat="44.5435" lon="6.24565">
        <ele>966.59997558594</ele>
        <time>2022-04-23T08:03:04.509Z</time>
      </trkpt>
      <trkpt lat="44.54335" lon="6.24584">
        <ele>967</ele>
        <time>2022-04-23T08:03:05.797Z</time>
      </trkpt>
      <trkpt lat="44.54316" lon="6.24609">
        <ele>967.20001220703</ele>
        <time>2022-04-23T08:03:07.094Z</time>
      </trkpt>
      <trkpt lat="44.54299" lon="6.24631">
        <ele>967.59997558594</ele>
        <time>2022-04-23T08:03:08.399Z</time>
      </trkpt>
      <trkpt lat="44.54297" lon="6.24634">
        <ele>967.79998779297</ele>
        <time>2022-04-23T08:03:09.705Z</time>
      </trkpt>
      <trkpt lat="44.54283" lon="6.24653">
        <ele>968</ele>
        <time>2022-04-23T08:03:11.017Z</time>
      </trkpt>
      <trkpt lat="44.5427" lon="6.24669">
        <ele>968.59997558594</ele>
        <time>2022-04-23T08:03:12.335Z</time>
      </trkpt>
      <trkpt lat="44.54258" lon="6.24682">
        <ele>968.79998779297</ele>
        <time>2022-04-23T08:03:13.658Z</time>
      </trkpt>
      <trkpt lat="44.54251" lon="6.24687">
        <ele>969</ele>
        <time>2022-04-23T08:03:14.984Z</time>
      </trkpt>
      <trkpt lat="44.54242" lon="6.24693">
        <ele>969.59997558594</ele>
        <time>2022-04-23T08:03:16.313Z</time>
      </trkpt>
      <trkpt lat="44.54233" lon="6.24697">
        <ele>970.40002441406</ele>
        <time>2022-04-23T08:03:17.645Z</time>
      </trkpt>
      <trkpt lat="44.54224" lon="6.24699">
        <ele>970.79998779297</ele>
        <time>2022-04-23T08:03:18.980Z</time>
      </trkpt>
      <trkpt lat="44.54215" lon="6.24699">
        <ele>971.59997558594</ele>
        <time>2022-04-23T08:03:20.318Z</time>
      </trkpt>
      <trkpt lat="44.54213" lon="6.247">
        <ele>971.79998779297</ele>
        <time>2022-04-23T08:03:21.657Z</time>
      </trkpt>
      <trkpt lat="44.5421" lon="6.24701">
        <ele>971.79998779297</ele>
        <time>2022-04-23T08:03:22.997Z</time>
      </trkpt>
      <trkpt lat="44.54201" lon="6.24703">
        <ele>972.59997558594</ele>
        <time>2022-04-23T08:03:24.340Z</time>
      </trkpt>
      <trkpt lat="44.54197" lon="6.24705">
        <ele>973.40002441406</ele>
        <time>2022-04-23T08:03:25.684Z</time>
      </trkpt>
      <trkpt lat="44.54193" lon="6.24706">
        <ele>973.79998779297</ele>
        <time>2022-04-23T08:03:27.030Z</time>
      </trkpt>
      <trkpt lat="44.5419" lon="6.24707">
        <ele>974</ele>
        <time>2022-04-23T08:03:28.376Z</time>
      </trkpt>
      <trkpt lat="44.54179" lon="6.24708">
        <ele>974.79998779297</ele>
        <time>2022-04-23T08:03:29.726Z</time>
      </trkpt>
      <trkpt lat="44.54174" lon="6.2471">
        <ele>975.40002441406</ele>
        <time>2022-04-23T08:03:31.078Z</time>
      </trkpt>
      <trkpt lat="44.54165" lon="6.24713">
        <ele>976.40002441406</ele>
        <time>2022-04-23T08:03:32.433Z</time>
      </trkpt>
      <trkpt lat="44.54161" lon="6.24715">
        <ele>976.79998779297</ele>
        <time>2022-04-23T08:03:33.789Z</time>
      </trkpt>
      <trkpt lat="44.5415" lon="6.2472">
        <ele>977.79998779297</ele>
        <time>2022-04-23T08:03:35.149Z</time>
      </trkpt>
      <trkpt lat="44.54138" lon="6.24724">
        <ele>978.59997558594</ele>
        <time>2022-04-23T08:03:36.513Z</time>
      </trkpt>
      <trkpt lat="44.54126" lon="6.24732">
        <ele>979.20001220703</ele>
        <time>2022-04-23T08:03:37.882Z</time>
      </trkpt>
      <trkpt lat="44.54125" lon="6.24733">
        <ele>979.40002441406</ele>
        <time>2022-04-23T08:03:39.251Z</time>
      </trkpt>
      <trkpt lat="44.54115" lon="6.24737">
        <ele>980</ele>
        <time>2022-04-23T08:03:40.623Z</time>
      </trkpt>
      <trkpt lat="44.54104" lon="6.24744">
        <ele>980.79998779297</ele>
        <time>2022-04-23T08:03:41.999Z</time>
      </trkpt>
      <trkpt lat="44.54099" lon="6.24747">
        <ele>981</ele>
        <time>2022-04-23T08:03:43.377Z</time>
      </trkpt>
      <trkpt lat="44.54086" lon="6.24761">
        <ele>982</ele>
        <time>2022-04-23T08:03:44.761Z</time>
      </trkpt>
      <trkpt lat="44.54083" lon="6.24765">
        <ele>982.20001220703</ele>
        <time>2022-04-23T08:03:46.146Z</time>
      </trkpt>
      <trkpt lat="44.54075" lon="6.24772">
        <ele>982.59997558594</ele>
        <time>2022-04-23T08:03:47.534Z</time>
      </trkpt>
      <trkpt lat="44.54069" lon="6.24776">
        <ele>983</ele>
        <time>2022-04-23T08:03:48.924Z</time>
      </trkpt>
      <trkpt lat="44.54067" lon="6.24777">
        <ele>983.40002441406</ele>
        <time>2022-04-23T08:03:50.315Z</time>
      </trkpt>
      <trkpt lat="44.54056" lon="6.24787">
        <ele>984.20001220703</ele>
        <time>2022-04-23T08:03:51.711Z</time>
      </trkpt>
      <trkpt lat="44.54052" lon="6.24791">
        <ele>984.40002441406</ele>
        <time>2022-04-23T08:03:53.108Z</time>
      </trkpt>
      <trkpt lat="44.5404" lon="6.24804">
        <ele>985.40002441406</ele>
        <time>2022-04-23T08:03:54.510Z</time>
      </trkpt>
      <trkpt lat="44.54036" lon="6.24806">
        <ele>985.79998779297</ele>
        <time>2022-04-23T08:03:55.914Z</time>
      </trkpt>
      <trkpt lat="44.54023" lon="6.24813">
        <ele>986.40002441406</ele>
        <time>2022-04-23T08:03:57.322Z</time>
      </trkpt>
      <trkpt lat="44.54016" lon="6.24818">
        <ele>987</ele>
        <time>2022-04-23T08:03:58.733Z</time>
      </trkpt>
      <trkpt lat="44.54008" lon="6.24823">
        <ele>987.59997558594</ele>
        <time>2022-04-23T08:04:00.146Z</time>
      </trkpt>
      <trkpt lat="44.53999" lon="6.24829">
        <ele>988.40002441406</ele>
        <time>2022-04-23T08:04:01.563Z</time>
      </trkpt>
      <trkpt lat="44.53989" lon="6.24839">
        <ele>989</ele>
        <time>2022-04-23T08:04:02.984Z</time>
      </trkpt>
      <trkpt lat="44.53978" lon="6.24848">
        <ele>989.59997558594</ele>
        <time>2022-04-23T08:04:04.409Z</time>
      </trkpt>
      <trkpt lat="44.5397" lon="6.24852">
        <ele>989.79998779297</ele>
        <time>2022-04-23T08:04:05.837Z</time>
      </trkpt>
      <trkpt lat="44.53951" lon="6.24863">
        <ele>990.59997558594</ele>
        <time>2022-04-23T08:04:07.272Z</time>
      </trkpt>
      <trkpt lat="44.53942" lon="6.24868">
        <ele>990.79998779297</ele>
        <time>2022-04-23T08:04:08.710Z</time>
      </trkpt>
      <trkpt lat="44.53942" lon="6.24869">
        <ele>990.79998779297</ele>
        <time>2022-04-23T08:04:10.148Z</time>
      </trkpt>
      <trkpt lat="44.53942" lon="6.24869">
        <ele>990.79998779297</ele>
        <time>2022-04-23T08:04:11.586Z</time>
      </trkpt>
      <trkpt lat="44.53937" lon="6.24872">
        <ele>991</ele>
        <time>2022-04-23T08:04:13.026Z</time>
      </trkpt>
      <trkpt lat="44.53934" lon="6.24873">
        <ele>990.79998779297</ele>
        <time>2022-04-23T08:04:14.467Z</time>
      </trkpt>
      <trkpt lat="44.53911" lon="6.24882">
        <ele>990.20001220703</ele>
        <time>2022-04-23T08:04:15.916Z</time>
      </trkpt>
      <trkpt lat="44.53908" lon="6.24883">
        <ele>990</ele>
        <time>2022-04-23T08:04:17.366Z</time>
      </trkpt>
      <trkpt lat="44.53894" lon="6.24887">
        <ele>989.79998779297</ele>
        <time>2022-04-23T08:04:18.821Z</time>
      </trkpt>
      <trkpt lat="44.53886" lon="6.2489">
        <ele>989.40002441406</ele>
        <time>2022-04-23T08:04:20.279Z</time>
      </trkpt>
      <trkpt lat="44.53878" lon="6.24893">
        <ele>989.20001220703</ele>
        <time>2022-04-23T08:04:21.739Z</time>
      </trkpt>
      <trkpt lat="44.53866" lon="6.24896">
        <ele>988.59997558594</ele>
        <time>2022-04-23T08:04:23.203Z</time>
      </trkpt>
      <trkpt lat="44.53858" lon="6.24896">
        <ele>988.59997558594</ele>
        <time>2022-04-23T08:04:24.670Z</time>
      </trkpt>
      <trkpt lat="44.53853" lon="6.24901">
        <ele>989</ele>
        <time>2022-04-23T08:04:26.139Z</time>
      </trkpt>
      <trkpt lat="44.53846" lon="6.24902">
        <ele>990.40002441406</ele>
        <time>2022-04-23T08:04:27.610Z</time>
      </trkpt>
      <trkpt lat="44.53844" lon="6.24905">
        <ele>991</ele>
        <time>2022-04-23T08:04:29.082Z</time>
      </trkpt>
      <trkpt lat="44.53845" lon="6.24912">
        <ele>992</ele>
        <time>2022-04-23T08:04:30.556Z</time>
      </trkpt>
      <trkpt lat="44.53847" lon="6.24916">
        <ele>992.79998779297</ele>
        <time>2022-04-23T08:04:32.031Z</time>
      </trkpt>
      <trkpt lat="44.53849" lon="6.24919">
        <ele>993.20001220703</ele>
        <time>2022-04-23T08:04:33.507Z</time>
      </trkpt>
      <trkpt lat="44.53852" lon="6.24926">
        <ele>994.59997558594</ele>
        <time>2022-04-23T08:04:34.985Z</time>
      </trkpt>
      <trkpt lat="44.53853" lon="6.24929">
        <ele>995</ele>
        <time>2022-04-23T08:04:36.464Z</time>
      </trkpt>
      <trkpt lat="44.53857" lon="6.24938">
        <ele>996</ele>
        <time>2022-04-23T08:04:37.946Z</time>
      </trkpt>
      <trkpt lat="44.53861" lon="6.24942">
        <ele>996.40002441406</ele>
        <time>2022-04-23T08:04:39.429Z</time>
      </trkpt>
      <trkpt lat="44.53868" lon="6.2495">
        <ele>997.20001220703</ele>
        <time>2022-04-23T08:04:40.915Z</time>
      </trkpt>
      <trkpt lat="44.53871" lon="6.24956">
        <ele>998.20001220703</ele>
        <time>2022-04-23T08:04:42.403Z</time>
      </trkpt>
      <trkpt lat="44.53874" lon="6.2496">
        <ele>998.59997558594</ele>
        <time>2022-04-23T08:04:43.892Z</time>
      </trkpt>
      <trkpt lat="44.53876" lon="6.24961">
        <ele>999</ele>
        <time>2022-04-23T08:04:45.382Z</time>
      </trkpt>
      <trkpt lat="44.53879" lon="6.24965">
        <ele>999.79998779297</ele>
        <time>2022-04-23T08:04:46.873Z</time>
      </trkpt>
      <trkpt lat="44.53885" lon="6.24971">
        <ele>1000.799987793</ele>
        <time>2022-04-23T08:04:48.367Z</time>
      </trkpt>
      <trkpt lat="44.53887" lon="6.24971">
        <ele>1001.4000244141</ele>
        <time>2022-04-23T08:04:49.861Z</time>
      </trkpt>
      <trkpt lat="44.53895" lon="6.24973">
        <ele>1002</ele>
        <time>2022-04-23T08:04:51.358Z</time>
      </trkpt>
      <trkpt lat="44.539" lon="6.24976">
        <ele>1002.5999755859</ele>
        <time>2022-04-23T08:04:52.857Z</time>
      </trkpt>
      <trkpt lat="44.53909" lon="6.24984">
        <ele>1003.4000244141</ele>
        <time>2022-04-23T08:04:54.359Z</time>
      </trkpt>
      <trkpt lat="44.53915" lon="6.24993">
        <ele>1004</ele>
        <time>2022-04-23T08:04:55.864Z</time>
      </trkpt>
      <trkpt lat="44.5392" lon="6.24998">
        <ele>1004.5999755859</ele>
        <time>2022-04-23T08:04:57.371Z</time>
      </trkpt>
      <trkpt lat="44.53928" lon="6.25011">
        <ele>1005.4000244141</ele>
        <time>2022-04-23T08:04:58.882Z</time>
      </trkpt>
      <trkpt lat="44.53933" lon="6.25028">
        <ele>1005.4000244141</ele>
        <time>2022-04-23T08:05:00.397Z</time>
      </trkpt>
      <trkpt lat="44.53938" lon="6.25059">
        <ele>1005</ele>
        <time>2022-04-23T08:05:01.920Z</time>
      </trkpt>
      <trkpt lat="44.53942" lon="6.25077">
        <ele>1005</ele>
        <time>2022-04-23T08:05:03.447Z</time>
      </trkpt>
      <trkpt lat="44.53943" lon="6.25082">
        <ele>1005</ele>
        <time>2022-04-23T08:05:04.976Z</time>
      </trkpt>
      <trkpt lat="44.53946" lon="6.25093">
        <ele>1005.799987793</ele>
        <time>2022-04-23T08:05:06.508Z</time>
      </trkpt>
      <trkpt lat="44.53947" lon="6.251">
        <ele>1006</ele>
        <time>2022-04-23T08:05:08.041Z</time>
      </trkpt>
      <trkpt lat="44.53957" lon="6.25114">
        <ele>1004.799987793</ele>
        <time>2022-04-23T08:05:09.579Z</time>
      </trkpt>
      <trkpt lat="44.53961" lon="6.25118">
        <ele>1004.200012207</ele>
        <time>2022-04-23T08:05:11.118Z</time>
      </trkpt>
      <trkpt lat="44.53973" lon="6.25135">
        <ele>1003.799987793</ele>
        <time>2022-04-23T08:05:12.663Z</time>
      </trkpt>
      <trkpt lat="44.53985" lon="6.2515">
        <ele>999</ele>
        <time>2022-04-23T08:05:14.214Z</time>
      </trkpt>
      <trkpt lat="44.53989" lon="6.25155">
        <ele>1003.799987793</ele>
        <time>2022-04-23T08:05:15.766Z</time>
      </trkpt>
      <trkpt lat="44.53997" lon="6.25168">
        <ele>1003.200012207</ele>
        <time>2022-04-23T08:05:17.322Z</time>
      </trkpt>
      <trkpt lat="44.54" lon="6.25177">
        <ele>1002.5999755859</ele>
        <time>2022-04-23T08:05:18.881Z</time>
      </trkpt>
      <trkpt lat="44.54003" lon="6.25184">
        <ele>1001.799987793</ele>
        <time>2022-04-23T08:05:20.441Z</time>
      </trkpt>
      <trkpt lat="44.5401" lon="6.25189">
        <ele>1001.799987793</ele>
        <time>2022-04-23T08:05:22.004Z</time>
      </trkpt>
      <trkpt lat="44.54019" lon="6.252">
        <ele>1002.4000244141</ele>
        <time>2022-04-23T08:05:23.571Z</time>
      </trkpt>
      <trkpt lat="44.54027" lon="6.25212">
        <ele>1003</ele>
        <time>2022-04-23T08:05:25.142Z</time>
      </trkpt>
      <trkpt lat="44.54032" lon="6.25219">
        <ele>1004.200012207</ele>
        <time>2022-04-23T08:05:26.715Z</time>
      </trkpt>
      <trkpt lat="44.54033" lon="6.25221">
        <ele>1004.5999755859</ele>
        <time>2022-04-23T08:05:28.289Z</time>
      </trkpt>
      <trkpt lat="44.54036" lon="6.25228">
        <ele>1005.4000244141</ele>
        <time>2022-04-23T08:05:29.865Z</time>
      </trkpt>
      <trkpt lat="44.54037" lon="6.2523">
        <ele>1005.5999755859</ele>
        <time>2022-04-23T08:05:31.441Z</time>
      </trkpt>
      <trkpt lat="44.54037" lon="6.25233">
        <ele>1006.200012207</ele>
        <time>2022-04-23T08:05:33.018Z</time>
      </trkpt>
      <trkpt lat="44.54038" lon="6.25236">
        <ele>1006.799987793</ele>
        <time>2022-04-23T08:05:34.596Z</time>
      </trkpt>
      <trkpt lat="44.54039" lon="6.25241">
        <ele>1007.799987793</ele>
        <time>2022-04-23T08:05:36.175Z</time>
      </trkpt>
      <trkpt lat="44.54041" lon="6.25245">
        <ele>1009</ele>
        <time>2022-04-23T08:05:37.755Z</time>
      </trkpt>
      <trkpt lat="44.54041" lon="6.25247">
        <ele>1009.4000244141</ele>
        <time>2022-04-23T08:05:39.336Z</time>
      </trkpt>
      <trkpt lat="44.54044" lon="6.25255">
        <ele>1010.200012207</ele>
        <time>2022-04-23T08:05:40.919Z</time>
      </trkpt>
      <trkpt lat="44.54044" lon="6.25259">
        <ele>1010.5999755859</ele>
        <time>2022-04-23T08:05:42.503Z</time>
      </trkpt>
      <trkpt lat="44.54045" lon="6.25261">
        <ele>1011.200012207</ele>
        <time>2022-04-23T08:05:44.087Z</time>
      </trkpt>
      <trkpt lat="44.54047" lon="6.25265">
        <ele>1011.5999755859</ele>
        <time>2022-04-23T08:05:45.672Z</time>
      </trkpt>
      <trkpt lat="44.54047" lon="6.25273">
        <ele>1012.799987793</ele>
        <time>2022-04-23T08:05:47.259Z</time>
      </trkpt>
      <trkpt lat="44.54047" lon="6.25278">
        <ele>1013.799987793</ele>
        <time>2022-04-23T08:05:48.847Z</time>
      </trkpt>
      <trkpt lat="44.54048" lon="6.25285">
        <ele>1015</ele>
        <time>2022-04-23T08:05:50.437Z</time>
      </trkpt>
      <trkpt lat="44.54048" lon="6.25288">
        <ele>1015.200012207</ele>
        <time>2022-04-23T08:05:52.028Z</time>
      </trkpt>
      <trkpt lat="44.5405" lon="6.25295">
        <ele>1016.200012207</ele>
        <time>2022-04-23T08:05:53.621Z</time>
      </trkpt>
      <trkpt lat="44.54052" lon="6.25303">
        <ele>1017.4000244141</ele>
        <time>2022-04-23T08:05:55.216Z</time>
      </trkpt>
      <trkpt lat="44.54055" lon="6.25314">
        <ele>1018.799987793</ele>
        <time>2022-04-23T08:05:56.813Z</time>
      </trkpt>
      <trkpt lat="44.54056" lon="6.25318">
        <ele>1019.200012207</ele>
        <time>2022-04-23T08:05:58.411Z</time>
      </trkpt>
      <trkpt lat="44.54057" lon="6.25323">
        <ele>1019.799987793</ele>
        <time>2022-04-23T08:06:00.011Z</time>
      </trkpt>
      <trkpt lat="44.54058" lon="6.25328">
        <ele>1020.5999755859</ele>
        <time>2022-04-23T08:06:01.612Z</time>
      </trkpt>
      <trkpt lat="44.54058" lon="6.25331">
        <ele>1021</ele>
        <time>2022-04-23T08:06:03.213Z</time>
      </trkpt>
      <trkpt lat="44.54059" lon="6.25344">
        <ele>1022</ele>
        <time>2022-04-23T08:06:04.818Z</time>
      </trkpt>
      <trkpt lat="44.54058" lon="6.25351">
        <ele>1022.200012207</ele>
        <time>2022-04-23T08:06:06.424Z</time>
      </trkpt>
      <trkpt lat="44.54056" lon="6.25361">
        <ele>1022.5999755859</ele>
        <time>2022-04-23T08:06:08.033Z</time>
      </trkpt>
      <trkpt lat="44.54056" lon="6.25381">
        <ele>1022.5999755859</ele>
        <time>2022-04-23T08:06:09.646Z</time>
      </trkpt>
      <trkpt lat="44.54057" lon="6.254">
        <ele>1021</ele>
        <time>2022-04-23T08:06:11.264Z</time>
      </trkpt>
      <trkpt lat="44.54056" lon="6.25414">
        <ele>1020</ele>
        <time>2022-04-23T08:06:12.885Z</time>
      </trkpt>
      <trkpt lat="44.54056" lon="6.25422">
        <ele>1019.4000244141</ele>
        <time>2022-04-23T08:06:14.508Z</time>
      </trkpt>
      <trkpt lat="44.54056" lon="6.2543">
        <ele>1019</ele>
        <time>2022-04-23T08:06:16.133Z</time>
      </trkpt>
      <trkpt lat="44.54055" lon="6.25437">
        <ele>1018.5999755859</ele>
        <time>2022-04-23T08:06:17.760Z</time>
      </trkpt>
      <trkpt lat="44.54053" lon="6.25445">
        <ele>1017.799987793</ele>
        <time>2022-04-23T08:06:19.389Z</time>
      </trkpt>
      <trkpt lat="44.54053" lon="6.25454">
        <ele>1017.200012207</ele>
        <time>2022-04-23T08:06:21.020Z</time>
      </trkpt>
      <trkpt lat="44.54051" lon="6.25462">
        <ele>1016.799987793</ele>
        <time>2022-04-23T08:06:22.653Z</time>
      </trkpt>
      <trkpt lat="44.54049" lon="6.25467">
        <ele>1016.4000244141</ele>
        <time>2022-04-23T08:06:24.287Z</time>
      </trkpt>
      <trkpt lat="44.54047" lon="6.25474">
        <ele>1015.5999755859</ele>
        <time>2022-04-23T08:06:25.923Z</time>
      </trkpt>
      <trkpt lat="44.54045" lon="6.25482">
        <ele>1015</ele>
        <time>2022-04-23T08:06:27.561Z</time>
      </trkpt>
      <trkpt lat="44.54041" lon="6.25496">
        <ele>1014.4000244141</ele>
        <time>2022-04-23T08:06:29.202Z</time>
      </trkpt>
      <trkpt lat="44.54035" lon="6.25513">
        <ele>1014.200012207</ele>
        <time>2022-04-23T08:06:30.848Z</time>
      </trkpt>
      <trkpt lat="44.54029" lon="6.25536">
        <ele>1015.4000244141</ele>
        <time>2022-04-23T08:06:32.500Z</time>
      </trkpt>
      <trkpt lat="44.54027" lon="6.2554">
        <ele>1015.5999755859</ele>
        <time>2022-04-23T08:06:34.153Z</time>
      </trkpt>
      <trkpt lat="44.54022" lon="6.25551">
        <ele>1015.799987793</ele>
        <time>2022-04-23T08:06:35.809Z</time>
      </trkpt>
      <trkpt lat="44.54017" lon="6.25563">
        <ele>1016</ele>
        <time>2022-04-23T08:06:37.468Z</time>
      </trkpt>
      <trkpt lat="44.54015" lon="6.25573">
        <ele>1016.200012207</ele>
        <time>2022-04-23T08:06:39.130Z</time>
      </trkpt>
      <trkpt lat="44.54005" lon="6.2559">
        <ele>1017</ele>
        <time>2022-04-23T08:06:40.797Z</time>
      </trkpt>
      <trkpt lat="44.54002" lon="6.25593">
        <ele>1017.200012207</ele>
        <time>2022-04-23T08:06:42.465Z</time>
      </trkpt>
      <trkpt lat="44.53997" lon="6.25601">
        <ele>1018.4000244141</ele>
        <time>2022-04-23T08:06:44.136Z</time>
      </trkpt>
      <trkpt lat="44.53993" lon="6.25607">
        <ele>1019.200012207</ele>
        <time>2022-04-23T08:06:45.809Z</time>
      </trkpt>
      <trkpt lat="44.53989" lon="6.25614">
        <ele>1019.5999755859</ele>
        <time>2022-04-23T08:06:47.484Z</time>
      </trkpt>
      <trkpt lat="44.53986" lon="6.25619">
        <ele>1020.4000244141</ele>
        <time>2022-04-23T08:06:49.160Z</time>
      </trkpt>
      <trkpt lat="44.53981" lon="6.25625">
        <ele>1020.799987793</ele>
        <time>2022-04-23T08:06:50.839Z</time>
      </trkpt>
      <trkpt lat="44.53979" lon="6.25628">
        <ele>1020.799987793</ele>
        <time>2022-04-23T08:06:52.518Z</time>
      </trkpt>
      <trkpt lat="44.53978" lon="6.25631">
        <ele>1021</ele>
        <time>2022-04-23T08:06:54.198Z</time>
      </trkpt>
      <trkpt lat="44.53969" lon="6.25647">
        <ele>1022.200012207</ele>
        <time>2022-04-23T08:06:55.883Z</time>
      </trkpt>
      <trkpt lat="44.53963" lon="6.25652">
        <ele>1023.4000244141</ele>
        <time>2022-04-23T08:06:57.570Z</time>
      </trkpt>
      <trkpt lat="44.53956" lon="6.25651">
        <ele>1024.8000488281</ele>
        <time>2022-04-23T08:06:59.260Z</time>
      </trkpt>
      <trkpt lat="44.53954" lon="6.25651">
        <ele>1025.1999511719</ele>
        <time>2022-04-23T08:07:00.950Z</time>
      </trkpt>
      <trkpt lat="44.53953" lon="6.25651">
        <ele>1025.8000488281</ele>
        <time>2022-04-23T08:07:02.641Z</time>
      </trkpt>
      <trkpt lat="44.53951" lon="6.25653">
        <ele>1026.4000244141</ele>
        <time>2022-04-23T08:07:04.332Z</time>
      </trkpt>
      <trkpt lat="44.53947" lon="6.25655">
        <ele>1027</ele>
        <time>2022-04-23T08:07:06.025Z</time>
      </trkpt>
      <trkpt lat="44.53939" lon="6.25659">
        <ele>1028.4000244141</ele>
        <time>2022-04-23T08:07:07.721Z</time>
      </trkpt>
      <trkpt lat="44.53936" lon="6.2566">
        <ele>1029.1999511719</ele>
        <time>2022-04-23T08:07:09.418Z</time>
      </trkpt>
      <trkpt lat="44.53935" lon="6.25659">
        <ele>1029.8000488281</ele>
        <time>2022-04-23T08:07:11.115Z</time>
      </trkpt>
      <trkpt lat="44.53934" lon="6.25658">
        <ele>1030.8000488281</ele>
        <time>2022-04-23T08:07:12.813Z</time>
      </trkpt>
      <trkpt lat="44.53934" lon="6.25658">
        <ele>1031.1999511719</ele>
        <time>2022-04-23T08:07:14.511Z</time>
      </trkpt>
      <trkpt lat="44.53933" lon="6.25656">
        <ele>1032</ele>
        <time>2022-04-23T08:07:16.209Z</time>
      </trkpt>
      <trkpt lat="44.53933" lon="6.25654">
        <ele>1032.5999755859</ele>
        <time>2022-04-23T08:07:17.908Z</time>
      </trkpt>
      <trkpt lat="44.53933" lon="6.2565">
        <ele>1032.8000488281</ele>
        <time>2022-04-23T08:07:19.608Z</time>
      </trkpt>
      <trkpt lat="44.53931" lon="6.25651">
        <ele>1033.4000244141</ele>
        <time>2022-04-23T08:07:21.308Z</time>
      </trkpt>
      <trkpt lat="44.53927" lon="6.25653">
        <ele>1034.8000488281</ele>
        <time>2022-04-23T08:07:23.010Z</time>
      </trkpt>
      <trkpt lat="44.53926" lon="6.25654">
        <ele>1035</ele>
        <time>2022-04-23T08:07:24.712Z</time>
      </trkpt>
      <trkpt lat="44.53924" lon="6.25655">
        <ele>1035.4000244141</ele>
        <time>2022-04-23T08:07:26.415Z</time>
      </trkpt>
      <trkpt lat="44.53923" lon="6.25656">
        <ele>1035.8000488281</ele>
        <time>2022-04-23T08:07:28.118Z</time>
      </trkpt>
      <trkpt lat="44.53922" lon="6.25657">
        <ele>1036.1999511719</ele>
        <time>2022-04-23T08:07:29.821Z</time>
      </trkpt>
      <trkpt lat="44.53918" lon="6.2566">
        <ele>1036.5999755859</ele>
        <time>2022-04-23T08:07:31.526Z</time>
      </trkpt>
      <trkpt lat="44.53917" lon="6.25659">
        <ele>1037.4000244141</ele>
        <time>2022-04-23T08:07:33.232Z</time>
      </trkpt>
      <trkpt lat="44.53917" lon="6.25658">
        <ele>1037.5999755859</ele>
        <time>2022-04-23T08:07:34.938Z</time>
      </trkpt>
      <trkpt lat="44.53919" lon="6.2565">
        <ele>1038.5999755859</ele>
        <time>2022-04-23T08:07:36.646Z</time>
      </trkpt>
      <trkpt lat="44.53916" lon="6.25646">
        <ele>1039</ele>
        <time>2022-04-23T08:07:38.355Z</time>
      </trkpt>
      <trkpt lat="44.53914" lon="6.25647">
        <ele>1039.1999511719</ele>
        <time>2022-04-23T08:07:40.065Z</time>
      </trkpt>
      <trkpt lat="44.53908" lon="6.2565">
        <ele>1040.4000244141</ele>
        <time>2022-04-23T08:07:41.777Z</time>
      </trkpt>
      <trkpt lat="44.53907" lon="6.2565">
        <ele>1040.5999755859</ele>
        <time>2022-04-23T08:07:43.489Z</time>
      </trkpt>
      <trkpt lat="44.53907" lon="6.25648">
        <ele>1041.4000244141</ele>
        <time>2022-04-23T08:07:45.202Z</time>
      </trkpt>
      <trkpt lat="44.53908" lon="6.25648">
        <ele>1041.5999755859</ele>
        <time>2022-04-23T08:07:46.915Z</time>
      </trkpt>
      <trkpt lat="44.53908" lon="6.25642">
        <ele>1042</ele>
        <time>2022-04-23T08:07:48.630Z</time>
      </trkpt>
      <trkpt lat="44.53906" lon="6.2564">
        <ele>1042.1999511719</ele>
        <time>2022-04-23T08:07:50.345Z</time>
      </trkpt>
      <trkpt lat="44.53904" lon="6.25637">
        <ele>1043</ele>
        <time>2022-04-23T08:07:52.061Z</time>
      </trkpt>
      <trkpt lat="44.53903" lon="6.25635">
        <ele>1043.1999511719</ele>
        <time>2022-04-23T08:07:53.778Z</time>
      </trkpt>
      <trkpt lat="44.53899" lon="6.25634">
        <ele>1043.8000488281</ele>
        <time>2022-04-23T08:07:55.496Z</time>
      </trkpt>
      <trkpt lat="44.53898" lon="6.25635">
        <ele>1044.5999755859</ele>
        <time>2022-04-23T08:07:57.215Z</time>
      </trkpt>
      <trkpt lat="44.53892" lon="6.25642">
        <ele>1045.8000488281</ele>
        <time>2022-04-23T08:07:58.936Z</time>
      </trkpt>
      <trkpt lat="44.53884" lon="6.25644">
        <ele>1046.8000488281</ele>
        <time>2022-04-23T08:08:00.660Z</time>
      </trkpt>
      <trkpt lat="44.53882" lon="6.25643">
        <ele>1047.1999511719</ele>
        <time>2022-04-23T08:08:02.384Z</time>
      </trkpt>
      <trkpt lat="44.53879" lon="6.25642">
        <ele>1048.4000244141</ele>
        <time>2022-04-23T08:08:04.110Z</time>
      </trkpt>
      <trkpt lat="44.53877" lon="6.25641">
        <ele>1048.8000488281</ele>
        <time>2022-04-23T08:08:05.836Z</time>
      </trkpt>
      <trkpt lat="44.53872" lon="6.25641">
        <ele>1049.8000488281</ele>
        <time>2022-04-23T08:08:07.564Z</time>
      </trkpt>
      <trkpt lat="44.5387" lon="6.2564">
        <ele>1050.4000244141</ele>
        <time>2022-04-23T08:08:09.292Z</time>
      </trkpt>
      <trkpt lat="44.53862" lon="6.25637">
        <ele>1051.1999511719</ele>
        <time>2022-04-23T08:08:11.023Z</time>
      </trkpt>
      <trkpt lat="44.53862" lon="6.25636">
        <ele>1051</ele>
        <time>2022-04-23T08:08:12.754Z</time>
      </trkpt>
      <trkpt lat="44.53865" lon="6.25631">
        <ele>1052.1999511719</ele>
        <time>2022-04-23T08:08:14.487Z</time>
      </trkpt>
      <trkpt lat="44.53866" lon="6.2563">
        <ele>1052.5999755859</ele>
        <time>2022-04-23T08:08:16.220Z</time>
      </trkpt>
      <trkpt lat="44.53867" lon="6.25623">
        <ele>1052.8000488281</ele>
        <time>2022-04-23T08:08:17.955Z</time>
      </trkpt>
      <trkpt lat="44.53863" lon="6.25623">
        <ele>1053.1999511719</ele>
        <time>2022-04-23T08:08:19.691Z</time>
      </trkpt>
      <trkpt lat="44.53856" lon="6.25624">
        <ele>1054</ele>
        <time>2022-04-23T08:08:21.430Z</time>
      </trkpt>
      <trkpt lat="44.53856" lon="6.25622">
        <ele>1054.1999511719</ele>
        <time>2022-04-23T08:08:23.169Z</time>
      </trkpt>
      <trkpt lat="44.53853" lon="6.25617">
        <ele>1055.4000244141</ele>
        <time>2022-04-23T08:08:24.910Z</time>
      </trkpt>
      <trkpt lat="44.53851" lon="6.25617">
        <ele>1055.8000488281</ele>
        <time>2022-04-23T08:08:26.651Z</time>
      </trkpt>
      <trkpt lat="44.53843" lon="6.25617">
        <ele>1057</ele>
        <time>2022-04-23T08:08:28.395Z</time>
      </trkpt>
      <trkpt lat="44.53842" lon="6.25619">
        <ele>1057.1999511719</ele>
        <time>2022-04-23T08:08:30.139Z</time>
      </trkpt>
      <trkpt lat="44.53837" lon="6.25619">
        <ele>1057.8000488281</ele>
        <time>2022-04-23T08:08:31.885Z</time>
      </trkpt>
      <trkpt lat="44.53836" lon="6.25619">
        <ele>1058</ele>
        <time>2022-04-23T08:08:33.631Z</time>
      </trkpt>
      <trkpt lat="44.53832" lon="6.25617">
        <ele>1059</ele>
        <time>2022-04-23T08:08:35.379Z</time>
      </trkpt>
      <trkpt lat="44.53828" lon="6.25619">
        <ele>1059.5999755859</ele>
        <time>2022-04-23T08:08:37.128Z</time>
      </trkpt>
      <trkpt lat="44.53822" lon="6.25619">
        <ele>1060.4000244141</ele>
        <time>2022-04-23T08:08:38.879Z</time>
      </trkpt>
      <trkpt lat="44.53817" lon="6.2562">
        <ele>1060.5999755859</ele>
        <time>2022-04-23T08:08:40.632Z</time>
      </trkpt>
      <trkpt lat="44.53815" lon="6.25622">
        <ele>1060.8000488281</ele>
        <time>2022-04-23T08:08:42.385Z</time>
      </trkpt>
      <trkpt lat="44.53812" lon="6.25626">
        <ele>1060.5999755859</ele>
        <time>2022-04-23T08:08:44.140Z</time>
      </trkpt>
      <trkpt lat="44.53809" lon="6.25626">
        <ele>1060.5999755859</ele>
        <time>2022-04-23T08:08:45.896Z</time>
      </trkpt>
      <trkpt lat="44.53807" lon="6.25625">
        <ele>1060.5999755859</ele>
        <time>2022-04-23T08:08:47.652Z</time>
      </trkpt>
      <trkpt lat="44.53806" lon="6.25624">
        <ele>1061</ele>
        <time>2022-04-23T08:08:49.409Z</time>
      </trkpt>
      <trkpt lat="44.53785" lon="6.25603">
        <ele>1069.1999511719</ele>
        <time>2022-04-23T08:08:51.174Z</time>
      </trkpt>
      <trkpt lat="44.53783" lon="6.25603">
        <ele>1069.8000488281</ele>
        <time>2022-04-23T08:08:52.940Z</time>
      </trkpt>
      <trkpt lat="44.53779" lon="6.25605">
        <ele>1070.5999755859</ele>
        <time>2022-04-23T08:08:54.708Z</time>
      </trkpt>
      <trkpt lat="44.53775" lon="6.25608">
        <ele>1071.1999511719</ele>
        <time>2022-04-23T08:08:56.477Z</time>
      </trkpt>
      <trkpt lat="44.53763" lon="6.25615">
        <ele>1071.5999755859</ele>
        <time>2022-04-23T08:08:58.250Z</time>
      </trkpt>
      <trkpt lat="44.53758" lon="6.25621">
        <ele>1072</ele>
        <time>2022-04-23T08:09:00.026Z</time>
      </trkpt>
      <trkpt lat="44.53755" lon="6.25624">
        <ele>1072.4000244141</ele>
        <time>2022-04-23T08:09:01.803Z</time>
      </trkpt>
      <trkpt lat="44.53752" lon="6.2563">
        <ele>1073.1999511719</ele>
        <time>2022-04-23T08:09:03.581Z</time>
      </trkpt>
      <trkpt lat="44.53745" lon="6.2564">
        <ele>1073.4000244141</ele>
        <time>2022-04-23T08:09:05.363Z</time>
      </trkpt>
      <trkpt lat="44.53737" lon="6.25649">
        <ele>1073.5999755859</ele>
        <time>2022-04-23T08:09:07.148Z</time>
      </trkpt>
      <trkpt lat="44.53723" lon="6.25656">
        <ele>1073.8000488281</ele>
        <time>2022-04-23T08:09:08.938Z</time>
      </trkpt>
      <trkpt lat="44.53711" lon="6.25665">
        <ele>1074.4000244141</ele>
        <time>2022-04-23T08:09:10.733Z</time>
      </trkpt>
      <trkpt lat="44.53701" lon="6.25678">
        <ele>1074.5999755859</ele>
        <time>2022-04-23T08:09:12.532Z</time>
      </trkpt>
      <trkpt lat="44.53688" lon="6.25692">
        <ele>1075</ele>
        <time>2022-04-23T08:09:14.337Z</time>
      </trkpt>
      <trkpt lat="44.5368" lon="6.25702">
        <ele>1074.5999755859</ele>
        <time>2022-04-23T08:09:16.145Z</time>
      </trkpt>
      <trkpt lat="44.53678" lon="6.25706">
        <ele>1074.1999511719</ele>
        <time>2022-04-23T08:09:17.954Z</time>
      </trkpt>
      <trkpt lat="44.53663" lon="6.25714">
        <ele>1073.5999755859</ele>
        <time>2022-04-23T08:09:19.768Z</time>
      </trkpt>
      <trkpt lat="44.53659" lon="6.25717">
        <ele>1073.5999755859</ele>
        <time>2022-04-23T08:09:21.584Z</time>
      </trkpt>
      <trkpt lat="44.53643" lon="6.25731">
        <ele>1074.1999511719</ele>
        <time>2022-04-23T08:09:23.406Z</time>
      </trkpt>
      <trkpt lat="44.53624" lon="6.25737">
        <ele>1073.1999511719</ele>
        <time>2022-04-23T08:09:25.235Z</time>
      </trkpt>
      <trkpt lat="44.53618" lon="6.25738">
        <ele>1073</ele>
        <time>2022-04-23T08:09:27.066Z</time>
      </trkpt>
      <trkpt lat="44.53604" lon="6.25741">
        <ele>1073</ele>
        <time>2022-04-23T08:09:28.901Z</time>
      </trkpt>
      <trkpt lat="44.53586" lon="6.25743">
        <ele>1073.4000244141</ele>
        <time>2022-04-23T08:09:30.742Z</time>
      </trkpt>
      <trkpt lat="44.5358" lon="6.25747">
        <ele>1073.8000488281</ele>
        <time>2022-04-23T08:09:32.585Z</time>
      </trkpt>
      <trkpt lat="44.5357" lon="6.25757">
        <ele>1074.4000244141</ele>
        <time>2022-04-23T08:09:34.432Z</time>
      </trkpt>
      <trkpt lat="44.53558" lon="6.25778">
        <ele>1074.5999755859</ele>
        <time>2022-04-23T08:09:36.286Z</time>
      </trkpt>
      <trkpt lat="44.53552" lon="6.2579">
        <ele>1074</ele>
        <time>2022-04-23T08:09:38.143Z</time>
      </trkpt>
      <trkpt lat="44.53549" lon="6.25797">
        <ele>1073.1999511719</ele>
        <time>2022-04-23T08:09:40.002Z</time>
      </trkpt>
      <trkpt lat="44.53543" lon="6.25803">
        <ele>1072.4000244141</ele>
        <time>2022-04-23T08:09:41.864Z</time>
      </trkpt>
      <trkpt lat="44.53538" lon="6.25809">
        <ele>1071.5999755859</ele>
        <time>2022-04-23T08:09:43.728Z</time>
      </trkpt>
      <trkpt lat="44.53532" lon="6.25815">
        <ele>1070.4000244141</ele>
        <time>2022-04-23T08:09:45.594Z</time>
      </trkpt>
      <trkpt lat="44.53528" lon="6.25821">
        <ele>1069.5999755859</ele>
        <time>2022-04-23T08:09:47.462Z</time>
      </trkpt>
      <trkpt lat="44.53524" lon="6.25829">
        <ele>1068.8000488281</ele>
        <time>2022-04-23T08:09:49.332Z</time>
      </trkpt>
      <trkpt lat="44.53522" lon="6.25837">
        <ele>1068</ele>
        <time>2022-04-23T08:09:51.205Z</time>
      </trkpt>
      <trkpt lat="44.5352" lon="6.25846">
        <ele>1066.8000488281</ele>
        <time>2022-04-23T08:09:53.080Z</time>
      </trkpt>
      <trkpt lat="44.53517" lon="6.25857">
        <ele>1065.8000488281</ele>
        <time>2022-04-23T08:09:54.957Z</time>
      </trkpt>
      <trkpt lat="44.53512" lon="6.25878">
        <ele>1064.1999511719</ele>
        <time>2022-04-23T08:09:56.840Z</time>
      </trkpt>
      <trkpt lat="44.53509" lon="6.25887">
        <ele>1063.5999755859</ele>
        <time>2022-04-23T08:09:58.725Z</time>
      </trkpt>
      <trkpt lat="44.53506" lon="6.25895">
        <ele>1062.8000488281</ele>
        <time>2022-04-23T08:10:00.612Z</time>
      </trkpt>
      <trkpt lat="44.53503" lon="6.25903">
        <ele>1061.8000488281</ele>
        <time>2022-04-23T08:10:02.502Z</time>
      </trkpt>
      <trkpt lat="44.53498" lon="6.2591">
        <ele>1061.1999511719</ele>
        <time>2022-04-23T08:10:04.394Z</time>
      </trkpt>
      <trkpt lat="44.53493" lon="6.25916">
        <ele>1060.1999511719</ele>
        <time>2022-04-23T08:10:06.288Z</time>
      </trkpt>
      <trkpt lat="44.53481" lon="6.25926">
        <ele>1058.4000244141</ele>
        <time>2022-04-23T08:10:08.187Z</time>
      </trkpt>
      <trkpt lat="44.53475" lon="6.2593">
        <ele>1057.5999755859</ele>
        <time>2022-04-23T08:10:10.088Z</time>
      </trkpt>
      <trkpt lat="44.53469" lon="6.25933">
        <ele>1057</ele>
        <time>2022-04-23T08:10:11.991Z</time>
      </trkpt>
      <trkpt lat="44.53463" lon="6.25936">
        <ele>1056</ele>
        <time>2022-04-23T08:10:13.896Z</time>
      </trkpt>
      <trkpt lat="44.53458" lon="6.2594">
        <ele>1054.8000488281</ele>
        <time>2022-04-23T08:10:15.803Z</time>
      </trkpt>
      <trkpt lat="44.53452" lon="6.25944">
        <ele>1053.8000488281</ele>
        <time>2022-04-23T08:10:17.712Z</time>
      </trkpt>
      <trkpt lat="44.53448" lon="6.25948">
        <ele>1051.8000488281</ele>
        <time>2022-04-23T08:10:19.623Z</time>
      </trkpt>
      <trkpt lat="44.53444" lon="6.25956">
        <ele>1050.5999755859</ele>
        <time>2022-04-23T08:10:21.536Z</time>
      </trkpt>
      <trkpt lat="44.5344" lon="6.25962">
        <ele>1049.4000244141</ele>
        <time>2022-04-23T08:10:23.451Z</time>
      </trkpt>
      <trkpt lat="44.53436" lon="6.25968">
        <ele>1048.4000244141</ele>
        <time>2022-04-23T08:10:25.368Z</time>
      </trkpt>
      <trkpt lat="44.53432" lon="6.25974">
        <ele>1047.1999511719</ele>
        <time>2022-04-23T08:10:27.287Z</time>
      </trkpt>
      <trkpt lat="44.53428" lon="6.2598">
        <ele>1045.5999755859</ele>
        <time>2022-04-23T08:10:29.208Z</time>
      </trkpt>
      <trkpt lat="44.53421" lon="6.26">
        <ele>1043.5999755859</ele>
        <time>2022-04-23T08:10:31.134Z</time>
      </trkpt>
      <trkpt lat="44.53418" lon="6.26012">
        <ele>1041.1999511719</ele>
        <time>2022-04-23T08:10:33.063Z</time>
      </trkpt>
      <trkpt lat="44.53415" lon="6.26025">
        <ele>1039.5999755859</ele>
        <time>2022-04-23T08:10:34.995Z</time>
      </trkpt>
      <trkpt lat="44.53412" lon="6.26038">
        <ele>1038</ele>
        <time>2022-04-23T08:10:36.931Z</time>
      </trkpt>
      <trkpt lat="44.53408" lon="6.26053">
        <ele>1036.4000244141</ele>
        <time>2022-04-23T08:10:38.870Z</time>
      </trkpt>
      <trkpt lat="44.53405" lon="6.26068">
        <ele>1034.5999755859</ele>
        <time>2022-04-23T08:10:40.813Z</time>
      </trkpt>
      <trkpt lat="44.53401" lon="6.26085">
        <ele>1033</ele>
        <time>2022-04-23T08:10:42.760Z</time>
      </trkpt>
      <trkpt lat="44.53397" lon="6.26102">
        <ele>1031.5999755859</ele>
        <time>2022-04-23T08:10:44.712Z</time>
      </trkpt>
      <trkpt lat="44.53392" lon="6.26119">
        <ele>1030</ele>
        <time>2022-04-23T08:10:46.668Z</time>
      </trkpt>
      <trkpt lat="44.53388" lon="6.26136">
        <ele>1028.5999755859</ele>
        <time>2022-04-23T08:10:48.628Z</time>
      </trkpt>
      <trkpt lat="44.53384" lon="6.26153">
        <ele>1027.8000488281</ele>
        <time>2022-04-23T08:10:50.592Z</time>
      </trkpt>
      <trkpt lat="44.5338" lon="6.2617">
        <ele>1026.4000244141</ele>
        <time>2022-04-23T08:10:52.560Z</time>
      </trkpt>
      <trkpt lat="44.53373" lon="6.26199">
        <ele>1025</ele>
        <time>2022-04-23T08:10:54.536Z</time>
      </trkpt>
      <trkpt lat="44.5337" lon="6.26212">
        <ele>1023.799987793</ele>
        <time>2022-04-23T08:10:56.515Z</time>
      </trkpt>
      <trkpt lat="44.53361" lon="6.26228">
        <ele>1022.200012207</ele>
        <time>2022-04-23T08:10:58.499Z</time>
      </trkpt>
      <trkpt lat="44.53357" lon="6.26235">
        <ele>1021.5999755859</ele>
        <time>2022-04-23T08:11:00.485Z</time>
      </trkpt>
      <trkpt lat="44.53355" lon="6.26244">
        <ele>1020.799987793</ele>
        <time>2022-04-23T08:11:02.473Z</time>
      </trkpt>
      <trkpt lat="44.53353" lon="6.26262">
        <ele>1020.4000244141</ele>
        <time>2022-04-23T08:11:04.465Z</time>
      </trkpt>
      <trkpt lat="44.53349" lon="6.26294">
        <ele>1020.200012207</ele>
        <time>2022-04-23T08:11:06.465Z</time>
      </trkpt>
      <trkpt lat="44.53348" lon="6.26302">
        <ele>1020.200012207</ele>
        <time>2022-04-23T08:11:08.467Z</time>
      </trkpt>
      <trkpt lat="44.53345" lon="6.26317">
        <ele>1020.200012207</ele>
        <time>2022-04-23T08:11:10.473Z</time>
      </trkpt>
      <trkpt lat="44.53338" lon="6.26345">
        <ele>1020.200012207</ele>
        <time>2022-04-23T08:11:12.486Z</time>
      </trkpt>
      <trkpt lat="44.53334" lon="6.26356">
        <ele>1020.4000244141</ele>
        <time>2022-04-23T08:11:14.502Z</time>
      </trkpt>
      <trkpt lat="44.53329" lon="6.26363">
        <ele>1020.4000244141</ele>
        <time>2022-04-23T08:11:16.520Z</time>
      </trkpt>
      <trkpt lat="44.53323" lon="6.26361">
        <ele>1021</ele>
        <time>2022-04-23T08:11:18.540Z</time>
      </trkpt>
      <trkpt lat="44.53316" lon="6.26356">
        <ele>1021.799987793</ele>
        <time>2022-04-23T08:11:20.563Z</time>
      </trkpt>
      <trkpt lat="44.53306" lon="6.26353">
        <ele>1022.5999755859</ele>
        <time>2022-04-23T08:11:22.589Z</time>
      </trkpt>
      <trkpt lat="44.53294" lon="6.26351">
        <ele>1022.4000244141</ele>
        <time>2022-04-23T08:11:24.619Z</time>
      </trkpt>
      <trkpt lat="44.53279" lon="6.2635">
        <ele>1022.4000244141</ele>
        <time>2022-04-23T08:11:26.654Z</time>
      </trkpt>
      <trkpt lat="44.53254" lon="6.26347">
        <ele>1022.5999755859</ele>
        <time>2022-04-23T08:11:28.697Z</time>
      </trkpt>
      <trkpt lat="44.53235" lon="6.26345">
        <ele>1023</ele>
        <time>2022-04-23T08:11:30.747Z</time>
      </trkpt>
      <trkpt lat="44.53216" lon="6.26344">
        <ele>1023.4000244141</ele>
        <time>2022-04-23T08:11:32.803Z</time>
      </trkpt>
      <trkpt lat="44.53203" lon="6.26342">
        <ele>1024</ele>
        <time>2022-04-23T08:11:34.863Z</time>
      </trkpt>
      <trkpt lat="44.53194" lon="6.26341">
        <ele>1023.799987793</ele>
        <time>2022-04-23T08:11:36.926Z</time>
      </trkpt>
      <trkpt lat="44.53171" lon="6.26341">
        <ele>1023.200012207</ele>
        <time>2022-04-23T08:11:38.997Z</time>
      </trkpt>
      <trkpt lat="44.53159" lon="6.2634">
        <ele>1023</ele>
        <time>2022-04-23T08:11:41.072Z</time>
      </trkpt>
      <trkpt lat="44.53143" lon="6.26336">
        <ele>1022</ele>
        <time>2022-04-23T08:11:43.152Z</time>
      </trkpt>
      <trkpt lat="44.53139" lon="6.26333">
        <ele>1021.799987793</ele>
        <time>2022-04-23T08:11:45.234Z</time>
      </trkpt>
      <trkpt lat="44.53123" lon="6.26322">
        <ele>1020.5999755859</ele>
        <time>2022-04-23T08:11:47.321Z</time>
      </trkpt>
      <trkpt lat="44.53119" lon="6.26318">
        <ele>1020.4000244141</ele>
        <time>2022-04-23T08:11:49.410Z</time>
      </trkpt>
      <trkpt lat="44.53111" lon="6.26309">
        <ele>1019.5999755859</ele>
        <time>2022-04-23T08:11:51.502Z</time>
      </trkpt>
      <trkpt lat="44.53093" lon="6.26287">
        <ele>1018.200012207</ele>
        <time>2022-04-23T08:11:53.602Z</time>
      </trkpt>
      <trkpt lat="44.53078" lon="6.26268">
        <ele>1017</ele>
        <time>2022-04-23T08:11:55.709Z</time>
      </trkpt>
      <trkpt lat="44.53066" lon="6.26256">
        <ele>1015.4000244141</ele>
        <time>2022-04-23T08:11:57.821Z</time>
      </trkpt>
      <trkpt lat="44.5306" lon="6.2625">
        <ele>1014.5999755859</ele>
        <time>2022-04-23T08:11:59.935Z</time>
      </trkpt>
      <trkpt lat="44.53054" lon="6.26243">
        <ele>1014.200012207</ele>
        <time>2022-04-23T08:12:02.052Z</time>
      </trkpt>
      <trkpt lat="44.5303" lon="6.26213">
        <ele>1013</ele>
        <time>2022-04-23T08:12:04.180Z</time>
      </trkpt>
      <trkpt lat="44.53013" lon="6.26189">
        <ele>1012</ele>
        <time>2022-04-23T08:12:06.316Z</time>
      </trkpt>
      <trkpt lat="44.52998" lon="6.26168">
        <ele>1011.799987793</ele>
        <time>2022-04-23T08:12:08.459Z</time>
      </trkpt>
      <trkpt lat="44.52967" lon="6.26128">
        <ele>1011.5999755859</ele>
        <time>2022-04-23T08:12:10.616Z</time>
      </trkpt>
      <trkpt lat="44.52948" lon="6.26101">
        <ele>1012.200012207</ele>
        <time>2022-04-23T08:12:12.782Z</time>
      </trkpt>
      <trkpt lat="44.52939" lon="6.26089">
        <ele>1013.200012207</ele>
        <time>2022-04-23T08:12:14.952Z</time>
      </trkpt>
      <trkpt lat="44.52931" lon="6.26079">
        <ele>1013.799987793</ele>
        <time>2022-04-23T08:12:17.125Z</time>
      </trkpt>
      <trkpt lat="44.52926" lon="6.26072">
        <ele>1014.200012207</ele>
        <time>2022-04-23T08:12:19.301Z</time>
      </trkpt>
      <trkpt lat="44.52917" lon="6.26059">
        <ele>1015.200012207</ele>
        <time>2022-04-23T08:12:21.481Z</time>
      </trkpt>
      <trkpt lat="44.52914" lon="6.26056">
        <ele>1015.4000244141</ele>
        <time>2022-04-23T08:12:23.662Z</time>
      </trkpt>
      <trkpt lat="44.52903" lon="6.26052">
        <ele>1016</ele>
        <time>2022-04-23T08:12:25.847Z</time>
      </trkpt>
      <trkpt lat="44.52889" lon="6.26055">
        <ele>1016.200012207</ele>
        <time>2022-04-23T08:12:28.037Z</time>
      </trkpt>
      <trkpt lat="44.52868" lon="6.26067">
        <ele>1016.799987793</ele>
        <time>2022-04-23T08:12:30.234Z</time>
      </trkpt>
      <trkpt lat="44.52852" lon="6.26081">
        <ele>1016.200012207</ele>
        <time>2022-04-23T08:12:32.437Z</time>
      </trkpt>
      <trkpt lat="44.52849" lon="6.26085">
        <ele>1016.4000244141</ele>
        <time>2022-04-23T08:12:34.642Z</time>
      </trkpt>
      <trkpt lat="44.52828" lon="6.26118">
        <ele>1015.4000244141</ele>
        <time>2022-04-23T08:12:36.857Z</time>
      </trkpt>
      <trkpt lat="44.52816" lon="6.26134">
        <ele>1015</ele>
        <time>2022-04-23T08:12:39.078Z</time>
      </trkpt>
      <trkpt lat="44.52804" lon="6.2615">
        <ele>1014.799987793</ele>
        <time>2022-04-23T08:12:41.304Z</time>
      </trkpt>
      <trkpt lat="44.52775" lon="6.26178">
        <ele>1014.4000244141</ele>
        <time>2022-04-23T08:12:43.542Z</time>
      </trkpt>
      <trkpt lat="44.52739" lon="6.26213">
        <ele>1013.799987793</ele>
        <time>2022-04-23T08:12:45.794Z</time>
      </trkpt>
      <trkpt lat="44.52715" lon="6.26235">
        <ele>1014.200012207</ele>
        <time>2022-04-23T08:12:48.056Z</time>
      </trkpt>
      <trkpt lat="44.52689" lon="6.26259">
        <ele>1015.200012207</ele>
        <time>2022-04-23T08:12:50.328Z</time>
      </trkpt>
      <trkpt lat="44.5268" lon="6.26263">
        <ele>1015.5999755859</ele>
        <time>2022-04-23T08:12:52.603Z</time>
      </trkpt>
      <trkpt lat="44.52679" lon="6.26264">
        <ele>1015.5999755859</ele>
        <time>2022-04-23T08:12:54.879Z</time>
      </trkpt>
      <trkpt lat="44.52676" lon="6.26263">
        <ele>1015.799987793</ele>
        <time>2022-04-23T08:12:57.156Z</time>
      </trkpt>
      <trkpt lat="44.52674" lon="6.26259">
        <ele>1016</ele>
        <time>2022-04-23T08:12:59.434Z</time>
      </trkpt>
      <trkpt lat="44.52673" lon="6.26255">
        <ele>1016.4000244141</ele>
        <time>2022-04-23T08:13:01.713Z</time>
      </trkpt>
      <trkpt lat="44.52672" lon="6.26255">
        <ele>1016.5999755859</ele>
        <time>2022-04-23T08:13:03.992Z</time>
      </trkpt>
      <trkpt lat="44.52672" lon="6.26255">
        <ele>1017</ele>
        <time>2022-04-23T08:13:06.271Z</time>
      </trkpt>
      <trkpt lat="44.52673" lon="6.26249">
        <ele>1017.4000244141</ele>
        <time>2022-04-23T08:13:08.552Z</time>
      </trkpt>
      <trkpt lat="44.52671" lon="6.26245">
        <ele>1017.5999755859</ele>
        <time>2022-04-23T08:13:10.834Z</time>
      </trkpt>
      <trkpt lat="44.52668" lon="6.26239">
        <ele>1018.200012207</ele>
        <time>2022-04-23T08:13:13.118Z</time>
      </trkpt>
      <trkpt lat="44.52664" lon="6.26229">
        <ele>1019.200012207</ele>
        <time>2022-04-23T08:13:15.404Z</time>
      </trkpt>
      <trkpt lat="44.5266" lon="6.26219">
        <ele>1020.4000244141</ele>
        <time>2022-04-23T08:13:17.693Z</time>
      </trkpt>
      <trkpt lat="44.52657" lon="6.26211">
        <ele>1021.200012207</ele>
        <time>2022-04-23T08:13:19.984Z</time>
      </trkpt>
      <trkpt lat="44.52655" lon="6.26208">
        <ele>1021.799987793</ele>
        <time>2022-04-23T08:13:22.276Z</time>
      </trkpt>
      <trkpt lat="44.52652" lon="6.26201">
        <ele>1022.799987793</ele>
        <time>2022-04-23T08:13:24.570Z</time>
      </trkpt>
      <trkpt lat="44.52649" lon="6.26193">
        <ele>1024</ele>
        <time>2022-04-23T08:13:26.866Z</time>
      </trkpt>
      <trkpt lat="44.52645" lon="6.26186">
        <ele>1025.1999511719</ele>
        <time>2022-04-23T08:13:29.164Z</time>
      </trkpt>
      <trkpt lat="44.5264" lon="6.26176">
        <ele>1026.4000244141</ele>
        <time>2022-04-23T08:13:31.465Z</time>
      </trkpt>
      <trkpt lat="44.52635" lon="6.26166">
        <ele>1027.8000488281</ele>
        <time>2022-04-23T08:13:33.769Z</time>
      </trkpt>
      <trkpt lat="44.52633" lon="6.26163">
        <ele>1028.4000244141</ele>
        <time>2022-04-23T08:13:36.074Z</time>
      </trkpt>
      <trkpt lat="44.52632" lon="6.26159">
        <ele>1028.8000488281</ele>
        <time>2022-04-23T08:13:38.380Z</time>
      </trkpt>
      <trkpt lat="44.52627" lon="6.26149">
        <ele>1030.1999511719</ele>
        <time>2022-04-23T08:13:40.689Z</time>
      </trkpt>
      <trkpt lat="44.52626" lon="6.26146">
        <ele>1031</ele>
        <time>2022-04-23T08:13:42.999Z</time>
      </trkpt>
      <trkpt lat="44.52624" lon="6.26143">
        <ele>1031.4000244141</ele>
        <time>2022-04-23T08:13:45.309Z</time>
      </trkpt>
      <trkpt lat="44.52621" lon="6.26135">
        <ele>1032.8000488281</ele>
        <time>2022-04-23T08:13:47.622Z</time>
      </trkpt>
      <trkpt lat="44.52616" lon="6.26128">
        <ele>1034.1999511719</ele>
        <time>2022-04-23T08:13:49.937Z</time>
      </trkpt>
      <trkpt lat="44.52613" lon="6.26125">
        <ele>1035</ele>
        <time>2022-04-23T08:13:52.253Z</time>
      </trkpt>
      <trkpt lat="44.52612" lon="6.26124">
        <ele>1035.1999511719</ele>
        <time>2022-04-23T08:13:54.570Z</time>
      </trkpt>
      <trkpt lat="44.5261" lon="6.26123">
        <ele>1035.5999755859</ele>
        <time>2022-04-23T08:13:56.887Z</time>
      </trkpt>
      <trkpt lat="44.52606" lon="6.26121">
        <ele>1036.4000244141</ele>
        <time>2022-04-23T08:13:59.206Z</time>
      </trkpt>
      <trkpt lat="44.52604" lon="6.2612">
        <ele>1036.4000244141</ele>
        <time>2022-04-23T08:14:01.525Z</time>
      </trkpt>
      <trkpt lat="44.52596" lon="6.26118">
        <ele>1037.1999511719</ele>
        <time>2022-04-23T08:14:03.847Z</time>
      </trkpt>
      <trkpt lat="44.52595" lon="6.26118">
        <ele>1037.4000244141</ele>
        <time>2022-04-23T08:14:06.169Z</time>
      </trkpt>
      <trkpt lat="44.52589" lon="6.26117">
        <ele>1038.4000244141</ele>
        <time>2022-04-23T08:14:08.494Z</time>
      </trkpt>
      <trkpt lat="44.52582" lon="6.26115">
        <ele>1039.4000244141</ele>
        <time>2022-04-23T08:14:10.821Z</time>
      </trkpt>
      <trkpt lat="44.5258" lon="6.26114">
        <ele>1039.8000488281</ele>
        <time>2022-04-23T08:14:13.148Z</time>
      </trkpt>
      <trkpt lat="44.52573" lon="6.2611">
        <ele>1040.4000244141</ele>
        <time>2022-04-23T08:14:15.478Z</time>
      </trkpt>
      <trkpt lat="44.52572" lon="6.26109">
        <ele>1040.5999755859</ele>
        <time>2022-04-23T08:14:17.808Z</time>
      </trkpt>
      <trkpt lat="44.52569" lon="6.26102">
        <ele>1041.4000244141</ele>
        <time>2022-04-23T08:14:20.140Z</time>
      </trkpt>
      <trkpt lat="44.52569" lon="6.261">
        <ele>1041.5999755859</ele>
        <time>2022-04-23T08:14:22.473Z</time>
      </trkpt>
      <trkpt lat="44.52571" lon="6.26092">
        <ele>1042.8000488281</ele>
        <time>2022-04-23T08:14:24.808Z</time>
      </trkpt>
      <trkpt lat="44.52576" lon="6.26087">
        <ele>1043.8000488281</ele>
        <time>2022-04-23T08:14:27.145Z</time>
      </trkpt>
      <trkpt lat="44.52578" lon="6.26084">
        <ele>1044.1999511719</ele>
        <time>2022-04-23T08:14:29.483Z</time>
      </trkpt>
      <trkpt lat="44.52583" lon="6.26079">
        <ele>1044.8000488281</ele>
        <time>2022-04-23T08:14:31.823Z</time>
      </trkpt>
      <trkpt lat="44.52588" lon="6.26073">
        <ele>1046</ele>
        <time>2022-04-23T08:14:34.165Z</time>
      </trkpt>
      <trkpt lat="44.52593" lon="6.2606">
        <ele>1047.1999511719</ele>
        <time>2022-04-23T08:14:36.511Z</time>
      </trkpt>
      <trkpt lat="44.52595" lon="6.26056">
        <ele>1047.5999755859</ele>
        <time>2022-04-23T08:14:38.858Z</time>
      </trkpt>
      <trkpt lat="44.52597" lon="6.26052">
        <ele>1048.1999511719</ele>
        <time>2022-04-23T08:14:41.206Z</time>
      </trkpt>
      <trkpt lat="44.52602" lon="6.26042">
        <ele>1049</ele>
        <time>2022-04-23T08:14:43.557Z</time>
      </trkpt>
      <trkpt lat="44.52604" lon="6.26036">
        <ele>1049.5999755859</ele>
        <time>2022-04-23T08:14:45.910Z</time>
      </trkpt>
      <trkpt lat="44.52607" lon="6.26029">
        <ele>1050.1999511719</ele>
        <time>2022-04-23T08:14:48.264Z</time>
      </trkpt>
      <trkpt lat="44.52611" lon="6.26018">
        <ele>1051.1999511719</ele>
        <time>2022-04-23T08:14:50.621Z</time>
      </trkpt>
      <trkpt lat="44.52613" lon="6.26014">
        <ele>1051.5999755859</ele>
        <time>2022-04-23T08:14:52.979Z</time>
      </trkpt>
      <trkpt lat="44.52615" lon="6.26008">
        <ele>1052</ele>
        <time>2022-04-23T08:14:55.339Z</time>
      </trkpt>
      <trkpt lat="44.52618" lon="6.26">
        <ele>1053</ele>
        <time>2022-04-23T08:14:57.701Z</time>
      </trkpt>
      <trkpt lat="44.52619" lon="6.25998">
        <ele>1053.1999511719</ele>
        <time>2022-04-23T08:15:00.064Z</time>
      </trkpt>
      <trkpt lat="44.52622" lon="6.25988">
        <ele>1054.1999511719</ele>
        <time>2022-04-23T08:15:02.429Z</time>
      </trkpt>
      <trkpt lat="44.52624" lon="6.25983">
        <ele>1054.8000488281</ele>
        <time>2022-04-23T08:15:04.796Z</time>
      </trkpt>
      <trkpt lat="44.52627" lon="6.25975">
        <ele>1055.4000244141</ele>
        <time>2022-04-23T08:15:07.165Z</time>
      </trkpt>
      <trkpt lat="44.5263" lon="6.25967">
        <ele>1056</ele>
        <time>2022-04-23T08:15:09.536Z</time>
      </trkpt>
      <trkpt lat="44.52631" lon="6.25965">
        <ele>1056.4000244141</ele>
        <time>2022-04-23T08:15:11.907Z</time>
      </trkpt>
      <trkpt lat="44.52634" lon="6.25957">
        <ele>1057.4000244141</ele>
        <time>2022-04-23T08:15:14.281Z</time>
      </trkpt>
      <trkpt lat="44.52636" lon="6.25953">
        <ele>1057.8000488281</ele>
        <time>2022-04-23T08:15:16.656Z</time>
      </trkpt>
      <trkpt lat="44.52643" lon="6.25943">
        <ele>1058.5999755859</ele>
        <time>2022-04-23T08:15:19.034Z</time>
      </trkpt>
      <trkpt lat="44.52645" lon="6.25941">
        <ele>1059</ele>
        <time>2022-04-23T08:15:21.413Z</time>
      </trkpt>
      <trkpt lat="44.52646" lon="6.25939">
        <ele>1059.5999755859</ele>
        <time>2022-04-23T08:15:23.793Z</time>
      </trkpt>
      <trkpt lat="44.52649" lon="6.25936">
        <ele>1060</ele>
        <time>2022-04-23T08:15:26.174Z</time>
      </trkpt>
      <trkpt lat="44.52651" lon="6.25932">
        <ele>1060.5999755859</ele>
        <time>2022-04-23T08:15:28.556Z</time>
      </trkpt>
      <trkpt lat="44.52655" lon="6.25928">
        <ele>1061.5999755859</ele>
        <time>2022-04-23T08:15:30.939Z</time>
      </trkpt>
      <trkpt lat="44.52656" lon="6.25926">
        <ele>1061.8000488281</ele>
        <time>2022-04-23T08:15:33.323Z</time>
      </trkpt>
      <trkpt lat="44.52657" lon="6.25925">
        <ele>1062</ele>
        <time>2022-04-23T08:15:35.708Z</time>
      </trkpt>
      <trkpt lat="44.52661" lon="6.25921">
        <ele>1062.5999755859</ele>
        <time>2022-04-23T08:15:38.094Z</time>
      </trkpt>
      <trkpt lat="44.52662" lon="6.2592">
        <ele>1062.8000488281</ele>
        <time>2022-04-23T08:15:40.481Z</time>
      </trkpt>
      <trkpt lat="44.52663" lon="6.25918">
        <ele>1063</ele>
        <time>2022-04-23T08:15:42.868Z</time>
      </trkpt>
      <trkpt lat="44.52665" lon="6.25915">
        <ele>1063.5999755859</ele>
        <time>2022-04-23T08:15:45.256Z</time>
      </trkpt>
      <trkpt lat="44.52666" lon="6.25914">
        <ele>1063.8000488281</ele>
        <time>2022-04-23T08:15:47.644Z</time>
      </trkpt>
      <trkpt lat="44.52669" lon="6.2591">
        <ele>1064.4000244141</ele>
        <time>2022-04-23T08:15:50.034Z</time>
      </trkpt>
      <trkpt lat="44.52672" lon="6.25908">
        <ele>1065</ele>
        <time>2022-04-23T08:15:52.425Z</time>
      </trkpt>
      <trkpt lat="44.52674" lon="6.25906">
        <ele>1065.1999511719</ele>
        <time>2022-04-23T08:15:54.817Z</time>
      </trkpt>
      <trkpt lat="44.52677" lon="6.25903">
        <ele>1065.5999755859</ele>
        <time>2022-04-23T08:15:57.210Z</time>
      </trkpt>
      <trkpt lat="44.52678" lon="6.25902">
        <ele>1065.8000488281</ele>
        <time>2022-04-23T08:15:59.603Z</time>
      </trkpt>
      <trkpt lat="44.52684" lon="6.25896">
        <ele>1067</ele>
        <time>2022-04-23T08:16:01.999Z</time>
      </trkpt>
      <trkpt lat="44.52686" lon="6.25895">
        <ele>1067.1999511719</ele>
        <time>2022-04-23T08:16:04.395Z</time>
      </trkpt>
      <trkpt lat="44.52692" lon="6.25889">
        <ele>1068.1999511719</ele>
        <time>2022-04-23T08:16:06.794Z</time>
      </trkpt>
      <trkpt lat="44.527" lon="6.2588">
        <ele>1069.4000244141</ele>
        <time>2022-04-23T08:16:09.196Z</time>
      </trkpt>
      <trkpt lat="44.52705" lon="6.25869">
        <ele>1070.4000244141</ele>
        <time>2022-04-23T08:16:11.601Z</time>
      </trkpt>
      <trkpt lat="44.52707" lon="6.25866">
        <ele>1070.8000488281</ele>
        <time>2022-04-23T08:16:14.007Z</time>
      </trkpt>
      <trkpt lat="44.52707" lon="6.25864">
        <ele>1071.1999511719</ele>
        <time>2022-04-23T08:16:16.414Z</time>
      </trkpt>
      <trkpt lat="44.52707" lon="6.25862">
        <ele>1071.5999755859</ele>
        <time>2022-04-23T08:16:18.821Z</time>
      </trkpt>
      <trkpt lat="44.52709" lon="6.25851">
        <ele>1072.4000244141</ele>
        <time>2022-04-23T08:16:21.231Z</time>
      </trkpt>
      <trkpt lat="44.52709" lon="6.25849">
        <ele>1072.8000488281</ele>
        <time>2022-04-23T08:16:23.641Z</time>
      </trkpt>
      <trkpt lat="44.52712" lon="6.25841">
        <ele>1073.8000488281</ele>
        <time>2022-04-23T08:16:26.054Z</time>
      </trkpt>
      <trkpt lat="44.52716" lon="6.25829">
        <ele>1074.8000488281</ele>
        <time>2022-04-23T08:16:28.470Z</time>
      </trkpt>
      <trkpt lat="44.52719" lon="6.25822">
        <ele>1076</ele>
        <time>2022-04-23T08:16:30.887Z</time>
      </trkpt>
      <trkpt lat="44.52719" lon="6.2582">
        <ele>1076.1999511719</ele>
        <time>2022-04-23T08:16:33.305Z</time>
      </trkpt>
      <trkpt lat="44.52722" lon="6.25812">
        <ele>1077</ele>
        <time>2022-04-23T08:16:35.725Z</time>
      </trkpt>
      <trkpt lat="44.52724" lon="6.25803">
        <ele>1078</ele>
        <time>2022-04-23T08:16:38.147Z</time>
      </trkpt>
      <trkpt lat="44.52725" lon="6.25801">
        <ele>1078.1999511719</ele>
        <time>2022-04-23T08:16:40.570Z</time>
      </trkpt>
      <trkpt lat="44.5273" lon="6.25788">
        <ele>1079.1999511719</ele>
        <time>2022-04-23T08:16:42.996Z</time>
      </trkpt>
      <trkpt lat="44.52731" lon="6.25787">
        <ele>1079.4000244141</ele>
        <time>2022-04-23T08:16:45.423Z</time>
      </trkpt>
      <trkpt lat="44.52736" lon="6.25782">
        <ele>1080.5999755859</ele>
        <time>2022-04-23T08:16:47.852Z</time>
      </trkpt>
      <trkpt lat="44.52741" lon="6.25778">
        <ele>1081.4000244141</ele>
        <time>2022-04-23T08:16:50.283Z</time>
      </trkpt>
      <trkpt lat="44.52744" lon="6.25776">
        <ele>1081.8000488281</ele>
        <time>2022-04-23T08:16:52.715Z</time>
      </trkpt>
      <trkpt lat="44.52751" lon="6.25771">
        <ele>1083</ele>
        <time>2022-04-23T08:16:55.149Z</time>
      </trkpt>
      <trkpt lat="44.52756" lon="6.25767">
        <ele>1084</ele>
        <time>2022-04-23T08:16:57.585Z</time>
      </trkpt>
      <trkpt lat="44.52765" lon="6.25763">
        <ele>1085.1999511719</ele>
        <time>2022-04-23T08:17:00.024Z</time>
      </trkpt>
      <trkpt lat="44.5277" lon="6.25758">
        <ele>1086.1999511719</ele>
        <time>2022-04-23T08:17:02.465Z</time>
      </trkpt>
      <trkpt lat="44.52775" lon="6.25753">
        <ele>1087</ele>
        <time>2022-04-23T08:17:04.908Z</time>
      </trkpt>
      <trkpt lat="44.52776" lon="6.25752">
        <ele>1087.1999511719</ele>
        <time>2022-04-23T08:17:07.352Z</time>
      </trkpt>
      <trkpt lat="44.52784" lon="6.25744">
        <ele>1088.1999511719</ele>
        <time>2022-04-23T08:17:09.799Z</time>
      </trkpt>
      <trkpt lat="44.52785" lon="6.25742">
        <ele>1088.4000244141</ele>
        <time>2022-04-23T08:17:12.247Z</time>
      </trkpt>
      <trkpt lat="44.52791" lon="6.25735">
        <ele>1089.4000244141</ele>
        <time>2022-04-23T08:17:14.697Z</time>
      </trkpt>
      <trkpt lat="44.52791" lon="6.25733">
        <ele>1089.5999755859</ele>
        <time>2022-04-23T08:17:17.148Z</time>
      </trkpt>
      <trkpt lat="44.52796" lon="6.25728">
        <ele>1090.4000244141</ele>
        <time>2022-04-23T08:17:19.601Z</time>
      </trkpt>
      <trkpt lat="44.52799" lon="6.25723">
        <ele>1091.1999511719</ele>
        <time>2022-04-23T08:17:22.055Z</time>
      </trkpt>
      <trkpt lat="44.528" lon="6.25722">
        <ele>1091.4000244141</ele>
        <time>2022-04-23T08:17:24.510Z</time>
      </trkpt>
      <trkpt lat="44.52807" lon="6.25715">
        <ele>1092.5999755859</ele>
        <time>2022-04-23T08:17:26.967Z</time>
      </trkpt>
      <trkpt lat="44.52813" lon="6.25707">
        <ele>1093.5999755859</ele>
        <time>2022-04-23T08:17:29.427Z</time>
      </trkpt>
      <trkpt lat="44.52815" lon="6.25704">
        <ele>1094</ele>
        <time>2022-04-23T08:17:31.888Z</time>
      </trkpt>
      <trkpt lat="44.52819" lon="6.25699">
        <ele>1094.8000488281</ele>
        <time>2022-04-23T08:17:34.351Z</time>
      </trkpt>
      <trkpt lat="44.52822" lon="6.2569">
        <ele>1095.5999755859</ele>
        <time>2022-04-23T08:17:36.816Z</time>
      </trkpt>
      <trkpt lat="44.52825" lon="6.25678">
        <ele>1096.5999755859</ele>
        <time>2022-04-23T08:17:39.284Z</time>
      </trkpt>
      <trkpt lat="44.52826" lon="6.25671">
        <ele>1097.4000244141</ele>
        <time>2022-04-23T08:17:41.754Z</time>
      </trkpt>
      <trkpt lat="44.52828" lon="6.25667">
        <ele>1097.8000488281</ele>
        <time>2022-04-23T08:17:44.225Z</time>
      </trkpt>
      <trkpt lat="44.52832" lon="6.25658">
        <ele>1098.8000488281</ele>
        <time>2022-04-23T08:17:46.699Z</time>
      </trkpt>
      <trkpt lat="44.52833" lon="6.25656">
        <ele>1099.1999511719</ele>
        <time>2022-04-23T08:17:49.173Z</time>
      </trkpt>
      <trkpt lat="44.52835" lon="6.25648">
        <ele>1100</ele>
        <time>2022-04-23T08:17:51.649Z</time>
      </trkpt>
      <trkpt lat="44.52839" lon="6.25642">
        <ele>1101</ele>
        <time>2022-04-23T08:17:54.127Z</time>
      </trkpt>
      <trkpt lat="44.5284" lon="6.2564">
        <ele>1101.4000244141</ele>
        <time>2022-04-23T08:17:56.606Z</time>
      </trkpt>
      <trkpt lat="44.52844" lon="6.25633">
        <ele>1102</ele>
        <time>2022-04-23T08:17:59.087Z</time>
      </trkpt>
      <trkpt lat="44.52848" lon="6.25623">
        <ele>1103.1999511719</ele>
        <time>2022-04-23T08:18:01.570Z</time>
      </trkpt>
      <trkpt lat="44.52852" lon="6.25614">
        <ele>1104.1999511719</ele>
        <time>2022-04-23T08:18:04.056Z</time>
      </trkpt>
      <trkpt lat="44.52856" lon="6.25608">
        <ele>1105.1999511719</ele>
        <time>2022-04-23T08:18:06.544Z</time>
      </trkpt>
      <trkpt lat="44.52859" lon="6.256">
        <ele>1106.1999511719</ele>
        <time>2022-04-23T08:18:09.034Z</time>
      </trkpt>
      <trkpt lat="44.52863" lon="6.25593">
        <ele>1106.8000488281</ele>
        <time>2022-04-23T08:18:11.526Z</time>
      </trkpt>
      <trkpt lat="44.52866" lon="6.25588">
        <ele>1107.4000244141</ele>
        <time>2022-04-23T08:18:14.020Z</time>
      </trkpt>
      <trkpt lat="44.52871" lon="6.25581">
        <ele>1108.5999755859</ele>
        <time>2022-04-23T08:18:16.516Z</time>
      </trkpt>
      <trkpt lat="44.52875" lon="6.25574">
        <ele>1109.4000244141</ele>
        <time>2022-04-23T08:18:19.014Z</time>
      </trkpt>
      <trkpt lat="44.52877" lon="6.25568">
        <ele>1110.1999511719</ele>
        <time>2022-04-23T08:18:21.514Z</time>
      </trkpt>
      <trkpt lat="44.52879" lon="6.25564">
        <ele>1110.5999755859</ele>
        <time>2022-04-23T08:18:24.015Z</time>
      </trkpt>
      <trkpt lat="44.52882" lon="6.25551">
        <ele>1111.5999755859</ele>
        <time>2022-04-23T08:18:26.519Z</time>
      </trkpt>
      <trkpt lat="44.52884" lon="6.25541">
        <ele>1112.8000488281</ele>
        <time>2022-04-23T08:18:29.026Z</time>
      </trkpt>
      <trkpt lat="44.52888" lon="6.25532">
        <ele>1113.5999755859</ele>
        <time>2022-04-23T08:18:31.535Z</time>
      </trkpt>
      <trkpt lat="44.52888" lon="6.2553">
        <ele>1113.8000488281</ele>
        <time>2022-04-23T08:18:34.044Z</time>
      </trkpt>
      <trkpt lat="44.5289" lon="6.25522">
        <ele>1115</ele>
        <time>2022-04-23T08:18:36.555Z</time>
      </trkpt>
      <trkpt lat="44.52893" lon="6.25513">
        <ele>1115.8000488281</ele>
        <time>2022-04-23T08:18:39.069Z</time>
      </trkpt>
      <trkpt lat="44.52894" lon="6.25508">
        <ele>1117</ele>
        <time>2022-04-23T08:18:41.584Z</time>
      </trkpt>
      <trkpt lat="44.52894" lon="6.25498">
        <ele>1117.5999755859</ele>
        <time>2022-04-23T08:18:44.101Z</time>
      </trkpt>
      <trkpt lat="44.52895" lon="6.25497">
        <ele>1117.8000488281</ele>
        <time>2022-04-23T08:18:46.619Z</time>
      </trkpt>
      <trkpt lat="44.52895" lon="6.25494">
        <ele>1118.1999511719</ele>
        <time>2022-04-23T08:18:49.137Z</time>
      </trkpt>
      <trkpt lat="44.52896" lon="6.2549">
        <ele>1118.5999755859</ele>
        <time>2022-04-23T08:18:51.656Z</time>
      </trkpt>
      <trkpt lat="44.52896" lon="6.25485">
        <ele>1119.1999511719</ele>
        <time>2022-04-23T08:18:54.177Z</time>
      </trkpt>
      <trkpt lat="44.52896" lon="6.25476">
        <ele>1120</ele>
        <time>2022-04-23T08:18:56.700Z</time>
      </trkpt>
      <trkpt lat="44.52896" lon="6.25473">
        <ele>1120.4000244141</ele>
        <time>2022-04-23T08:18:59.223Z</time>
      </trkpt>
      <trkpt lat="44.52897" lon="6.25461">
        <ele>1121.4000244141</ele>
        <time>2022-04-23T08:19:01.749Z</time>
      </trkpt>
      <trkpt lat="44.52898" lon="6.25456">
        <ele>1121.8000488281</ele>
        <time>2022-04-23T08:19:04.276Z</time>
      </trkpt>
      <trkpt lat="44.52901" lon="6.25448">
        <ele>1122.1999511719</ele>
        <time>2022-04-23T08:19:06.806Z</time>
      </trkpt>
      <trkpt lat="44.52906" lon="6.25439">
        <ele>1123.1999511719</ele>
        <time>2022-04-23T08:19:09.338Z</time>
      </trkpt>
      <trkpt lat="44.52907" lon="6.25437">
        <ele>1123.4000244141</ele>
        <time>2022-04-23T08:19:11.871Z</time>
      </trkpt>
      <trkpt lat="44.52911" lon="6.25427">
        <ele>1124.5999755859</ele>
        <time>2022-04-23T08:19:14.407Z</time>
      </trkpt>
      <trkpt lat="44.52913" lon="6.25424">
        <ele>1125</ele>
        <time>2022-04-23T08:19:16.944Z</time>
      </trkpt>
      <trkpt lat="44.52918" lon="6.25419">
        <ele>1125.4000244141</ele>
        <time>2022-04-23T08:19:19.483Z</time>
      </trkpt>
      <trkpt lat="44.52922" lon="6.25415">
        <ele>1126.1999511719</ele>
        <time>2022-04-23T08:19:22.023Z</time>
      </trkpt>
      <trkpt lat="44.52925" lon="6.25414">
        <ele>1126.5999755859</ele>
        <time>2022-04-23T08:19:24.564Z</time>
      </trkpt>
      <trkpt lat="44.52933" lon="6.25408">
        <ele>1127.8000488281</ele>
        <time>2022-04-23T08:19:27.108Z</time>
      </trkpt>
      <trkpt lat="44.52934" lon="6.25407">
        <ele>1128</ele>
        <time>2022-04-23T08:19:29.653Z</time>
      </trkpt>
      <trkpt lat="44.5294" lon="6.254">
        <ele>1128.8000488281</ele>
        <time>2022-04-23T08:19:32.200Z</time>
      </trkpt>
      <trkpt lat="44.52943" lon="6.25395">
        <ele>1129</ele>
        <time>2022-04-23T08:19:34.749Z</time>
      </trkpt>
      <trkpt lat="44.52946" lon="6.25386">
        <ele>1129.8000488281</ele>
        <time>2022-04-23T08:19:37.300Z</time>
      </trkpt>
      <trkpt lat="44.52949" lon="6.25378">
        <ele>1130.8000488281</ele>
        <time>2022-04-23T08:19:39.853Z</time>
      </trkpt>
      <trkpt lat="44.52952" lon="6.25366">
        <ele>1132</ele>
        <time>2022-04-23T08:19:42.409Z</time>
      </trkpt>
      <trkpt lat="44.52953" lon="6.25362">
        <ele>1132.4000244141</ele>
        <time>2022-04-23T08:19:44.966Z</time>
      </trkpt>
      <trkpt lat="44.52955" lon="6.25354">
        <ele>1133.1999511719</ele>
        <time>2022-04-23T08:19:47.525Z</time>
      </trkpt>
      <trkpt lat="44.52957" lon="6.25349">
        <ele>1133.4000244141</ele>
        <time>2022-04-23T08:19:50.086Z</time>
      </trkpt>
      <trkpt lat="44.52958" lon="6.25346">
        <ele>1134</ele>
        <time>2022-04-23T08:19:52.648Z</time>
      </trkpt>
      <trkpt lat="44.52963" lon="6.25335">
        <ele>1135</ele>
        <time>2022-04-23T08:19:55.212Z</time>
      </trkpt>
      <trkpt lat="44.52963" lon="6.25333">
        <ele>1135.1999511719</ele>
        <time>2022-04-23T08:19:57.777Z</time>
      </trkpt>
      <trkpt lat="44.52966" lon="6.25323">
        <ele>1136.1999511719</ele>
        <time>2022-04-23T08:20:00.345Z</time>
      </trkpt>
      <trkpt lat="44.52967" lon="6.25321">
        <ele>1136.1999511719</ele>
        <time>2022-04-23T08:20:02.913Z</time>
      </trkpt>
      <trkpt lat="44.52971" lon="6.25311">
        <ele>1137.1999511719</ele>
        <time>2022-04-23T08:20:05.484Z</time>
      </trkpt>
      <trkpt lat="44.52972" lon="6.25307">
        <ele>1137.5999755859</ele>
        <time>2022-04-23T08:20:08.056Z</time>
      </trkpt>
      <trkpt lat="44.52974" lon="6.253">
        <ele>1138.4000244141</ele>
        <time>2022-04-23T08:20:10.630Z</time>
      </trkpt>
      <trkpt lat="44.52976" lon="6.25293">
        <ele>1139</ele>
        <time>2022-04-23T08:20:13.205Z</time>
      </trkpt>
      <trkpt lat="44.52978" lon="6.25286">
        <ele>1139.4000244141</ele>
        <time>2022-04-23T08:20:15.782Z</time>
      </trkpt>
      <trkpt lat="44.52981" lon="6.25277">
        <ele>1140.1999511719</ele>
        <time>2022-04-23T08:20:18.362Z</time>
      </trkpt>
      <trkpt lat="44.52982" lon="6.25275">
        <ele>1140.4000244141</ele>
        <time>2022-04-23T08:20:20.942Z</time>
      </trkpt>
      <trkpt lat="44.52983" lon="6.25273">
        <ele>1140.5999755859</ele>
        <time>2022-04-23T08:20:23.523Z</time>
      </trkpt>
      <trkpt lat="44.52985" lon="6.25266">
        <ele>1141.1999511719</ele>
        <time>2022-04-23T08:20:26.105Z</time>
      </trkpt>
      <trkpt lat="44.52987" lon="6.25262">
        <ele>1141.5999755859</ele>
        <time>2022-04-23T08:20:28.688Z</time>
      </trkpt>
      <trkpt lat="44.5299" lon="6.25255">
        <ele>1142.1999511719</ele>
        <time>2022-04-23T08:20:31.274Z</time>
      </trkpt>
      <trkpt lat="44.52993" lon="6.25249">
        <ele>1143</ele>
        <time>2022-04-23T08:20:33.861Z</time>
      </trkpt>
      <trkpt lat="44.52997" lon="6.25234">
        <ele>1143.4000244141</ele>
        <time>2022-04-23T08:20:36.452Z</time>
      </trkpt>
      <trkpt lat="44.52998" lon="6.25229">
        <ele>1143.5999755859</ele>
        <time>2022-04-23T08:20:39.044Z</time>
      </trkpt>
      <trkpt lat="44.53" lon="6.2522">
        <ele>1144.4000244141</ele>
        <time>2022-04-23T08:20:41.639Z</time>
      </trkpt>
      <trkpt lat="44.53001" lon="6.25216">
        <ele>1144.8000488281</ele>
        <time>2022-04-23T08:20:44.235Z</time>
      </trkpt>
      <trkpt lat="44.53002" lon="6.252">
        <ele>1145.4000244141</ele>
        <time>2022-04-23T08:20:46.834Z</time>
      </trkpt>
      <trkpt lat="44.53002" lon="6.25197">
        <ele>1145.5999755859</ele>
        <time>2022-04-23T08:20:49.434Z</time>
      </trkpt>
      <trkpt lat="44.53002" lon="6.25192">
        <ele>1146</ele>
        <time>2022-04-23T08:20:52.035Z</time>
      </trkpt>
      <trkpt lat="44.53002" lon="6.25185">
        <ele>1146</ele>
        <time>2022-04-23T08:20:54.638Z</time>
      </trkpt>
      <trkpt lat="44.53002" lon="6.25177">
        <ele>1146.1999511719</ele>
        <time>2022-04-23T08:20:57.243Z</time>
      </trkpt>
      <trkpt lat="44.53001" lon="6.25174">
        <ele>1146.1999511719</ele>
        <time>2022-04-23T08:20:59.848Z</time>
      </trkpt>
      <trkpt lat="44.53001" lon="6.25172">
        <ele>1146.4000244141</ele>
        <time>2022-04-23T08:21:02.454Z</time>
      </trkpt>
      <trkpt lat="44.52999" lon="6.25153">
        <ele>1147.1999511719</ele>
        <time>2022-04-23T08:21:05.065Z</time>
      </trkpt>
      <trkpt lat="44.52993" lon="6.25134">
        <ele>1148</ele>
        <time>2022-04-23T08:21:07.680Z</time>
      </trkpt>
      <trkpt lat="44.52992" lon="6.25131">
        <ele>1148.1999511719</ele>
        <time>2022-04-23T08:21:10.296Z</time>
      </trkpt>
      <trkpt lat="44.52987" lon="6.25121">
        <ele>1149</ele>
        <time>2022-04-23T08:21:12.915Z</time>
      </trkpt>
      <trkpt lat="44.52983" lon="6.25119">
        <ele>1149</ele>
        <time>2022-04-23T08:21:15.535Z</time>
      </trkpt>
      <trkpt lat="44.52976" lon="6.25119">
        <ele>1149</ele>
        <time>2022-04-23T08:21:18.158Z</time>
      </trkpt>
      <trkpt lat="44.52971" lon="6.25123">
        <ele>1149</ele>
        <time>2022-04-23T08:21:20.783Z</time>
      </trkpt>
      <trkpt lat="44.5297" lon="6.25125">
        <ele>1149</ele>
        <time>2022-04-23T08:21:23.408Z</time>
      </trkpt>
      <trkpt lat="44.52966" lon="6.2513">
        <ele>1149.1999511719</ele>
        <time>2022-04-23T08:21:26.035Z</time>
      </trkpt>
      <trkpt lat="44.52952" lon="6.25146">
        <ele>1149.1999511719</ele>
        <time>2022-04-23T08:21:28.668Z</time>
      </trkpt>
      <trkpt lat="44.52939" lon="6.25155">
        <ele>1148.8000488281</ele>
        <time>2022-04-23T08:21:31.306Z</time>
      </trkpt>
      <trkpt lat="44.52919" lon="6.25168">
        <ele>1148.4000244141</ele>
        <time>2022-04-23T08:21:33.951Z</time>
      </trkpt>
      <trkpt lat="44.52905" lon="6.2518">
        <ele>1148</ele>
        <time>2022-04-23T08:21:36.602Z</time>
      </trkpt>
      <trkpt lat="44.52888" lon="6.25189">
        <ele>1147.5999755859</ele>
        <time>2022-04-23T08:21:39.259Z</time>
      </trkpt>
      <trkpt lat="44.52874" lon="6.25194">
        <ele>1147.5999755859</ele>
        <time>2022-04-23T08:21:41.920Z</time>
      </trkpt>
      <trkpt lat="44.52855" lon="6.25197">
        <ele>1147.8000488281</ele>
        <time>2022-04-23T08:21:44.588Z</time>
      </trkpt>
      <trkpt lat="44.5284" lon="6.25201">
        <ele>1148.4000244141</ele>
        <time>2022-04-23T08:21:47.261Z</time>
      </trkpt>
      <trkpt lat="44.52826" lon="6.25208">
        <ele>1148.8000488281</ele>
        <time>2022-04-23T08:21:49.939Z</time>
      </trkpt>
      <trkpt lat="44.52823" lon="6.25211">
        <ele>1149.1999511719</ele>
        <time>2022-04-23T08:21:52.618Z</time>
      </trkpt>
      <trkpt lat="44.52818" lon="6.25213">
        <ele>1149.8000488281</ele>
        <time>2022-04-23T08:21:55.299Z</time>
      </trkpt>
      <trkpt lat="44.52814" lon="6.25214">
        <ele>1150</ele>
        <time>2022-04-23T08:21:57.981Z</time>
      </trkpt>
      <trkpt lat="44.52813" lon="6.25215">
        <ele>1150</ele>
        <time>2022-04-23T08:22:00.663Z</time>
      </trkpt>
      <trkpt lat="44.52809" lon="6.25216">
        <ele>1150.4000244141</ele>
        <time>2022-04-23T08:22:03.347Z</time>
      </trkpt>
      <trkpt lat="44.52806" lon="6.25218">
        <ele>1151</ele>
        <time>2022-04-23T08:22:06.032Z</time>
      </trkpt>
      <trkpt lat="44.52801" lon="6.2522">
        <ele>1152</ele>
        <time>2022-04-23T08:22:08.719Z</time>
      </trkpt>
      <trkpt lat="44.52799" lon="6.2522">
        <ele>1152.1999511719</ele>
        <time>2022-04-23T08:22:11.406Z</time>
      </trkpt>
      <trkpt lat="44.52797" lon="6.2522">
        <ele>1152.4000244141</ele>
        <time>2022-04-23T08:22:14.094Z</time>
      </trkpt>
      <trkpt lat="44.52792" lon="6.2522">
        <ele>1153.1999511719</ele>
        <time>2022-04-23T08:22:16.784Z</time>
      </trkpt>
      <trkpt lat="44.52786" lon="6.25219">
        <ele>1154</ele>
        <time>2022-04-23T08:22:19.475Z</time>
      </trkpt>
      <trkpt lat="44.52783" lon="6.25218">
        <ele>1154.4000244141</ele>
        <time>2022-04-23T08:22:22.168Z</time>
      </trkpt>
      <trkpt lat="44.52772" lon="6.25215">
        <ele>1155.1999511719</ele>
        <time>2022-04-23T08:22:24.864Z</time>
      </trkpt>
      <trkpt lat="44.52763" lon="6.25215">
        <ele>1156.5999755859</ele>
        <time>2022-04-23T08:22:27.563Z</time>
      </trkpt>
      <trkpt lat="44.52761" lon="6.25214">
        <ele>1156.8000488281</ele>
        <time>2022-04-23T08:22:30.263Z</time>
      </trkpt>
      <trkpt lat="44.52754" lon="6.25215">
        <ele>1157.4000244141</ele>
        <time>2022-04-23T08:22:32.965Z</time>
      </trkpt>
      <trkpt lat="44.5275" lon="6.25215">
        <ele>1158.1999511719</ele>
        <time>2022-04-23T08:22:35.668Z</time>
      </trkpt>
      <trkpt lat="44.52748" lon="6.25215">
        <ele>1158.4000244141</ele>
        <time>2022-04-23T08:22:38.372Z</time>
      </trkpt>
      <trkpt lat="44.52742" lon="6.25214">
        <ele>1159.5999755859</ele>
        <time>2022-04-23T08:22:41.078Z</time>
      </trkpt>
      <trkpt lat="44.52732" lon="6.25213">
        <ele>1160.5999755859</ele>
        <time>2022-04-23T08:22:43.787Z</time>
      </trkpt>
      <trkpt lat="44.52721" lon="6.25212">
        <ele>1162</ele>
        <time>2022-04-23T08:22:46.500Z</time>
      </trkpt>
      <trkpt lat="44.5272" lon="6.25212">
        <ele>1162.1999511719</ele>
        <time>2022-04-23T08:22:49.213Z</time>
      </trkpt>
      <trkpt lat="44.52718" lon="6.25212">
        <ele>1162.5999755859</ele>
        <time>2022-04-23T08:22:51.927Z</time>
      </trkpt>
      <trkpt lat="44.52715" lon="6.25212">
        <ele>1162.8000488281</ele>
        <time>2022-04-23T08:22:54.642Z</time>
      </trkpt>
      <trkpt lat="44.52707" lon="6.25212">
        <ele>1163.8000488281</ele>
        <time>2022-04-23T08:22:57.360Z</time>
      </trkpt>
      <trkpt lat="44.52698" lon="6.25212">
        <ele>1164.8000488281</ele>
        <time>2022-04-23T08:23:00.081Z</time>
      </trkpt>
      <trkpt lat="44.52694" lon="6.25212">
        <ele>1165.1999511719</ele>
        <time>2022-04-23T08:23:02.803Z</time>
      </trkpt>
      <trkpt lat="44.52688" lon="6.25211">
        <ele>1165.8000488281</ele>
        <time>2022-04-23T08:23:05.527Z</time>
      </trkpt>
      <trkpt lat="44.52679" lon="6.25212">
        <ele>1166.8000488281</ele>
        <time>2022-04-23T08:23:08.254Z</time>
      </trkpt>
      <trkpt lat="44.52667" lon="6.25207">
        <ele>1167.8000488281</ele>
        <time>2022-04-23T08:23:10.985Z</time>
      </trkpt>
      <trkpt lat="44.52657" lon="6.25199">
        <ele>1169</ele>
        <time>2022-04-23T08:23:13.720Z</time>
      </trkpt>
      <trkpt lat="44.52648" lon="6.25192">
        <ele>1170</ele>
        <time>2022-04-23T08:23:16.458Z</time>
      </trkpt>
      <trkpt lat="44.5264" lon="6.25188">
        <ele>1171</ele>
        <time>2022-04-23T08:23:19.199Z</time>
      </trkpt>
      <trkpt lat="44.52634" lon="6.25186">
        <ele>1171.8000488281</ele>
        <time>2022-04-23T08:23:21.942Z</time>
      </trkpt>
      <trkpt lat="44.52633" lon="6.25185">
        <ele>1172</ele>
        <time>2022-04-23T08:23:24.686Z</time>
      </trkpt>
      <trkpt lat="44.52632" lon="6.25183">
        <ele>1172.1999511719</ele>
        <time>2022-04-23T08:23:27.430Z</time>
      </trkpt>
      <trkpt lat="44.52628" lon="6.25179">
        <ele>1173.1999511719</ele>
        <time>2022-04-23T08:23:30.176Z</time>
      </trkpt>
      <trkpt lat="44.52625" lon="6.25177">
        <ele>1173.4000244141</ele>
        <time>2022-04-23T08:23:32.923Z</time>
      </trkpt>
      <trkpt lat="44.52622" lon="6.25173">
        <ele>1174.1999511719</ele>
        <time>2022-04-23T08:23:35.671Z</time>
      </trkpt>
      <trkpt lat="44.52618" lon="6.25168">
        <ele>1175</ele>
        <time>2022-04-23T08:23:38.421Z</time>
      </trkpt>
      <trkpt lat="44.52615" lon="6.25165">
        <ele>1175.5999755859</ele>
        <time>2022-04-23T08:23:41.172Z</time>
      </trkpt>
      <trkpt lat="44.52607" lon="6.25157">
        <ele>1176.8000488281</ele>
        <time>2022-04-23T08:23:43.926Z</time>
      </trkpt>
      <trkpt lat="44.526" lon="6.2515">
        <ele>1177.8000488281</ele>
        <time>2022-04-23T08:23:46.683Z</time>
      </trkpt>
      <trkpt lat="44.52597" lon="6.25149">
        <ele>1178.1999511719</ele>
        <time>2022-04-23T08:23:49.441Z</time>
      </trkpt>
      <trkpt lat="44.52592" lon="6.25147">
        <ele>1178.8000488281</ele>
        <time>2022-04-23T08:23:52.201Z</time>
      </trkpt>
      <trkpt lat="44.52585" lon="6.25143">
        <ele>1179.8000488281</ele>
        <time>2022-04-23T08:23:54.963Z</time>
      </trkpt>
      <trkpt lat="44.52577" lon="6.25142">
        <ele>1180.5999755859</ele>
        <time>2022-04-23T08:23:57.728Z</time>
      </trkpt>
      <trkpt lat="44.52576" lon="6.25142">
        <ele>1180.8000488281</ele>
        <time>2022-04-23T08:24:00.493Z</time>
      </trkpt>
      <trkpt lat="44.5257" lon="6.2514">
        <ele>1181.8000488281</ele>
        <time>2022-04-23T08:24:03.261Z</time>
      </trkpt>
      <trkpt lat="44.52568" lon="6.25139">
        <ele>1182.1999511719</ele>
        <time>2022-04-23T08:24:06.029Z</time>
      </trkpt>
      <trkpt lat="44.52563" lon="6.25137">
        <ele>1183</ele>
        <time>2022-04-23T08:24:08.799Z</time>
      </trkpt>
      <trkpt lat="44.52561" lon="6.25137">
        <ele>1183</ele>
        <time>2022-04-23T08:24:11.569Z</time>
      </trkpt>
      <trkpt lat="44.52554" lon="6.25133">
        <ele>1184</ele>
        <time>2022-04-23T08:24:14.342Z</time>
      </trkpt>
      <trkpt lat="44.52553" lon="6.25133">
        <ele>1184.1999511719</ele>
        <time>2022-04-23T08:24:17.115Z</time>
      </trkpt>
      <trkpt lat="44.5255" lon="6.25132">
        <ele>1184.8000488281</ele>
        <time>2022-04-23T08:24:19.889Z</time>
      </trkpt>
      <trkpt lat="44.52549" lon="6.25131">
        <ele>1185.1999511719</ele>
        <time>2022-04-23T08:24:22.664Z</time>
      </trkpt>
      <trkpt lat="44.52547" lon="6.25129">
        <ele>1185.5999755859</ele>
        <time>2022-04-23T08:24:25.440Z</time>
      </trkpt>
      <trkpt lat="44.52542" lon="6.25127">
        <ele>1186.1999511719</ele>
        <time>2022-04-23T08:24:28.217Z</time>
      </trkpt>
      <trkpt lat="44.52538" lon="6.25123">
        <ele>1186.5999755859</ele>
        <time>2022-04-23T08:24:30.996Z</time>
      </trkpt>
      <trkpt lat="44.52534" lon="6.25119">
        <ele>1187.1999511719</ele>
        <time>2022-04-23T08:24:33.777Z</time>
      </trkpt>
      <trkpt lat="44.5253" lon="6.25116">
        <ele>1187.5999755859</ele>
        <time>2022-04-23T08:24:36.559Z</time>
      </trkpt>
      <trkpt lat="44.52525" lon="6.25111">
        <ele>1188.4000244141</ele>
        <time>2022-04-23T08:24:39.343Z</time>
      </trkpt>
      <trkpt lat="44.5252" lon="6.25107">
        <ele>1189</ele>
        <time>2022-04-23T08:24:42.129Z</time>
      </trkpt>
      <trkpt lat="44.52516" lon="6.25105">
        <ele>1189.5999755859</ele>
        <time>2022-04-23T08:24:44.917Z</time>
      </trkpt>
      <trkpt lat="44.52513" lon="6.25102">
        <ele>1190</ele>
        <time>2022-04-23T08:24:47.706Z</time>
      </trkpt>
      <trkpt lat="44.52511" lon="6.25102">
        <ele>1190</ele>
        <time>2022-04-23T08:24:50.495Z</time>
      </trkpt>
      <trkpt lat="44.52506" lon="6.251">
        <ele>1190.5999755859</ele>
        <time>2022-04-23T08:24:53.286Z</time>
      </trkpt>
      <trkpt lat="44.52498" lon="6.25094">
        <ele>1191.4000244141</ele>
        <time>2022-04-23T08:24:56.080Z</time>
      </trkpt>
      <trkpt lat="44.52495" lon="6.25092">
        <ele>1191.5999755859</ele>
        <time>2022-04-23T08:24:58.875Z</time>
      </trkpt>
      <trkpt lat="44.52489" lon="6.25087">
        <ele>1192.1999511719</ele>
        <time>2022-04-23T08:25:01.672Z</time>
      </trkpt>
      <trkpt lat="44.52484" lon="6.25082">
        <ele>1192.8000488281</ele>
        <time>2022-04-23T08:25:04.471Z</time>
      </trkpt>
      <trkpt lat="44.52479" lon="6.25076">
        <ele>1193.5999755859</ele>
        <time>2022-04-23T08:25:07.273Z</time>
      </trkpt>
      <trkpt lat="44.52475" lon="6.25073">
        <ele>1194</ele>
        <time>2022-04-23T08:25:10.076Z</time>
      </trkpt>
      <trkpt lat="44.52469" lon="6.25069">
        <ele>1194.4000244141</ele>
        <time>2022-04-23T08:25:12.881Z</time>
      </trkpt>
      <trkpt lat="44.52468" lon="6.25068">
        <ele>1194.5999755859</ele>
        <time>2022-04-23T08:25:15.687Z</time>
      </trkpt>
      <trkpt lat="44.52467" lon="6.25063">
        <ele>1195</ele>
        <time>2022-04-23T08:25:18.494Z</time>
      </trkpt>
      <trkpt lat="44.52466" lon="6.25061">
        <ele>1195</ele>
        <time>2022-04-23T08:25:21.301Z</time>
      </trkpt>
      <trkpt lat="44.52462" lon="6.25045">
        <ele>1195.4000244141</ele>
        <time>2022-04-23T08:25:24.112Z</time>
      </trkpt>
      <trkpt lat="44.52458" lon="6.25039">
        <ele>1196</ele>
        <time>2022-04-23T08:25:26.925Z</time>
      </trkpt>
      <trkpt lat="44.52456" lon="6.25034">
        <ele>1196.4000244141</ele>
        <time>2022-04-23T08:25:29.740Z</time>
      </trkpt>
      <trkpt lat="44.52448" lon="6.25015">
        <ele>1196.8000488281</ele>
        <time>2022-04-23T08:25:32.560Z</time>
      </trkpt>
      <trkpt lat="44.52445" lon="6.25009">
        <ele>1196.8000488281</ele>
        <time>2022-04-23T08:25:35.382Z</time>
      </trkpt>
      <trkpt lat="44.52443" lon="6.25">
        <ele>1197.4000244141</ele>
        <time>2022-04-23T08:25:38.206Z</time>
      </trkpt>
      <trkpt lat="44.52445" lon="6.24996">
        <ele>1197.8000488281</ele>
        <time>2022-04-23T08:25:41.031Z</time>
      </trkpt>
      <trkpt lat="44.52447" lon="6.24991">
        <ele>1198</ele>
        <time>2022-04-23T08:25:43.857Z</time>
      </trkpt>
      <trkpt lat="44.52448" lon="6.24986">
        <ele>1198.5999755859</ele>
        <time>2022-04-23T08:25:46.684Z</time>
      </trkpt>
      <trkpt lat="44.52451" lon="6.24976">
        <ele>1199.1999511719</ele>
        <time>2022-04-23T08:25:49.514Z</time>
      </trkpt>
      <trkpt lat="44.52453" lon="6.24966">
        <ele>1199.5999755859</ele>
        <time>2022-04-23T08:25:52.346Z</time>
      </trkpt>
      <trkpt lat="44.52456" lon="6.24959">
        <ele>1200.1999511719</ele>
        <time>2022-04-23T08:25:55.180Z</time>
      </trkpt>
      <trkpt lat="44.52456" lon="6.24953">
        <ele>1200.4000244141</ele>
        <time>2022-04-23T08:25:58.016Z</time>
      </trkpt>
      <trkpt lat="44.52457" lon="6.24946">
        <ele>1200.5999755859</ele>
        <time>2022-04-23T08:26:00.853Z</time>
      </trkpt>
      <trkpt lat="44.52457" lon="6.24944">
        <ele>1201.1999511719</ele>
        <time>2022-04-23T08:26:03.691Z</time>
      </trkpt>
      <trkpt lat="44.52457" lon="6.24941">
        <ele>1201.1999511719</ele>
        <time>2022-04-23T08:26:06.530Z</time>
      </trkpt>
      <trkpt lat="44.52454" lon="6.24932">
        <ele>1201.8000488281</ele>
        <time>2022-04-23T08:26:09.371Z</time>
      </trkpt>
      <trkpt lat="44.52445" lon="6.24916">
        <ele>1202</ele>
        <time>2022-04-23T08:26:12.217Z</time>
      </trkpt>
      <trkpt lat="44.52441" lon="6.24901">
        <ele>1202.5999755859</ele>
        <time>2022-04-23T08:26:15.067Z</time>
      </trkpt>
      <trkpt lat="44.5244" lon="6.24896">
        <ele>1203.1999511719</ele>
        <time>2022-04-23T08:26:17.918Z</time>
      </trkpt>
      <trkpt lat="44.52439" lon="6.24883">
        <ele>1203.5999755859</ele>
        <time>2022-04-23T08:26:20.772Z</time>
      </trkpt>
      <trkpt lat="44.52438" lon="6.24873">
        <ele>1204.1999511719</ele>
        <time>2022-04-23T08:26:23.629Z</time>
      </trkpt>
      <trkpt lat="44.52436" lon="6.24863">
        <ele>1204.5999755859</ele>
        <time>2022-04-23T08:26:26.488Z</time>
      </trkpt>
      <trkpt lat="44.52433" lon="6.24855">
        <ele>1204.8000488281</ele>
        <time>2022-04-23T08:26:29.349Z</time>
      </trkpt>
      <trkpt lat="44.52422" lon="6.24832">
        <ele>1204.8000488281</ele>
        <time>2022-04-23T08:26:32.217Z</time>
      </trkpt>
      <trkpt lat="44.52419" lon="6.24822">
        <ele>1205</ele>
        <time>2022-04-23T08:26:35.087Z</time>
      </trkpt>
      <trkpt lat="44.52419" lon="6.24815">
        <ele>1205.1999511719</ele>
        <time>2022-04-23T08:26:37.959Z</time>
      </trkpt>
      <trkpt lat="44.52421" lon="6.24812">
        <ele>1205.1999511719</ele>
        <time>2022-04-23T08:26:40.832Z</time>
      </trkpt>
      <trkpt lat="44.52425" lon="6.2481">
        <ele>1205.4000244141</ele>
        <time>2022-04-23T08:26:43.706Z</time>
      </trkpt>
      <trkpt lat="44.52429" lon="6.24809">
        <ele>1205.8000488281</ele>
        <time>2022-04-23T08:26:46.582Z</time>
      </trkpt>
      <trkpt lat="44.52431" lon="6.2481">
        <ele>1206</ele>
        <time>2022-04-23T08:26:49.458Z</time>
      </trkpt>
      <trkpt lat="44.52439" lon="6.24811">
        <ele>1207</ele>
        <time>2022-04-23T08:26:52.337Z</time>
      </trkpt>
      <trkpt lat="44.52453" lon="6.24814">
        <ele>1207.8000488281</ele>
        <time>2022-04-23T08:26:55.220Z</time>
      </trkpt>
      <trkpt lat="44.52457" lon="6.24814">
        <ele>1208</ele>
        <time>2022-04-23T08:26:58.105Z</time>
      </trkpt>
      <trkpt lat="44.52465" lon="6.24816">
        <ele>1208.4000244141</ele>
        <time>2022-04-23T08:27:00.992Z</time>
      </trkpt>
      <trkpt lat="44.52469" lon="6.24817">
        <ele>1208.8000488281</ele>
        <time>2022-04-23T08:27:03.881Z</time>
      </trkpt>
      <trkpt lat="44.5248" lon="6.24818">
        <ele>1209.8000488281</ele>
        <time>2022-04-23T08:27:06.773Z</time>
      </trkpt>
      <trkpt lat="44.52482" lon="6.24818">
        <ele>1210</ele>
        <time>2022-04-23T08:27:09.666Z</time>
      </trkpt>
      <trkpt lat="44.52492" lon="6.24812">
        <ele>1210.8000488281</ele>
        <time>2022-04-23T08:27:12.563Z</time>
      </trkpt>
      <trkpt lat="44.52493" lon="6.24809">
        <ele>1210.8000488281</ele>
        <time>2022-04-23T08:27:15.461Z</time>
      </trkpt>
      <trkpt lat="44.52497" lon="6.24799">
        <ele>1211.8000488281</ele>
        <time>2022-04-23T08:27:18.361Z</time>
      </trkpt>
      <trkpt lat="44.52496" lon="6.24796">
        <ele>1212</ele>
        <time>2022-04-23T08:27:21.262Z</time>
      </trkpt>
      <trkpt lat="44.52491" lon="6.24789">
        <ele>1212.5999755859</ele>
        <time>2022-04-23T08:27:24.165Z</time>
      </trkpt>
      <trkpt lat="44.5249" lon="6.24787">
        <ele>1213</ele>
        <time>2022-04-23T08:27:27.069Z</time>
      </trkpt>
      <trkpt lat="44.52489" lon="6.24785">
        <ele>1213.4000244141</ele>
        <time>2022-04-23T08:27:29.973Z</time>
      </trkpt>
      <trkpt lat="44.52488" lon="6.24782">
        <ele>1214.5999755859</ele>
        <time>2022-04-23T08:27:32.878Z</time>
      </trkpt>
      <trkpt lat="44.52486" lon="6.24779">
        <ele>1215.1999511719</ele>
        <time>2022-04-23T08:27:35.784Z</time>
      </trkpt>
      <trkpt lat="44.52484" lon="6.24778">
        <ele>1215.5999755859</ele>
        <time>2022-04-23T08:27:38.691Z</time>
      </trkpt>
      <trkpt lat="44.5248" lon="6.24774">
        <ele>1216.8000488281</ele>
        <time>2022-04-23T08:27:41.600Z</time>
      </trkpt>
      <trkpt lat="44.52478" lon="6.24773">
        <ele>1217.1999511719</ele>
        <time>2022-04-23T08:27:44.509Z</time>
      </trkpt>
      <trkpt lat="44.52474" lon="6.24774">
        <ele>1217.8000488281</ele>
        <time>2022-04-23T08:27:47.420Z</time>
      </trkpt>
      <trkpt lat="44.5247" lon="6.24776">
        <ele>1218.8000488281</ele>
        <time>2022-04-23T08:27:50.332Z</time>
      </trkpt>
      <trkpt lat="44.52468" lon="6.24776">
        <ele>1219.1999511719</ele>
        <time>2022-04-23T08:27:53.245Z</time>
      </trkpt>
      <trkpt lat="44.52465" lon="6.24774">
        <ele>1220.4000244141</ele>
        <time>2022-04-23T08:27:56.159Z</time>
      </trkpt>
      <trkpt lat="44.5246" lon="6.24771">
        <ele>1221.4000244141</ele>
        <time>2022-04-23T08:27:59.075Z</time>
      </trkpt>
      <trkpt lat="44.52453" lon="6.24764">
        <ele>1222.5999755859</ele>
        <time>2022-04-23T08:28:01.993Z</time>
      </trkpt>
      <trkpt lat="44.52452" lon="6.24762">
        <ele>1223</ele>
        <time>2022-04-23T08:28:04.912Z</time>
      </trkpt>
      <trkpt lat="44.52448" lon="6.2476">
        <ele>1223.8000488281</ele>
        <time>2022-04-23T08:28:07.832Z</time>
      </trkpt>
      <trkpt lat="44.52446" lon="6.24757">
        <ele>1224.4000244141</ele>
        <time>2022-04-23T08:28:10.753Z</time>
      </trkpt>
      <trkpt lat="44.52445" lon="6.24756">
        <ele>1224.8000488281</ele>
        <time>2022-04-23T08:28:13.675Z</time>
      </trkpt>
      <trkpt lat="44.52443" lon="6.2475">
        <ele>1225.8000488281</ele>
        <time>2022-04-23T08:28:16.598Z</time>
      </trkpt>
      <trkpt lat="44.5244" lon="6.24745">
        <ele>1227</ele>
        <time>2022-04-23T08:28:19.523Z</time>
      </trkpt>
      <trkpt lat="44.52437" lon="6.2474">
        <ele>1228.1999511719</ele>
        <time>2022-04-23T08:28:22.449Z</time>
      </trkpt>
      <trkpt lat="44.52435" lon="6.24733">
        <ele>1229.1999511719</ele>
        <time>2022-04-23T08:28:25.377Z</time>
      </trkpt>
      <trkpt lat="44.52435" lon="6.24731">
        <ele>1229.4000244141</ele>
        <time>2022-04-23T08:28:28.305Z</time>
      </trkpt>
      <trkpt lat="44.52432" lon="6.24725">
        <ele>1230.5999755859</ele>
        <time>2022-04-23T08:28:31.235Z</time>
      </trkpt>
      <trkpt lat="44.52429" lon="6.24724">
        <ele>1231.4000244141</ele>
        <time>2022-04-23T08:28:34.166Z</time>
      </trkpt>
      <trkpt lat="44.52427" lon="6.24724">
        <ele>1231.5999755859</ele>
        <time>2022-04-23T08:28:37.098Z</time>
      </trkpt>
      <trkpt lat="44.52424" lon="6.24723">
        <ele>1232.4000244141</ele>
        <time>2022-04-23T08:28:40.031Z</time>
      </trkpt>
      <trkpt lat="44.52422" lon="6.24723">
        <ele>1232.5999755859</ele>
        <time>2022-04-23T08:28:42.965Z</time>
      </trkpt>
      <trkpt lat="44.52417" lon="6.24722">
        <ele>1233.4000244141</ele>
        <time>2022-04-23T08:28:45.900Z</time>
      </trkpt>
      <trkpt lat="44.52415" lon="6.24722">
        <ele>1233.8000488281</ele>
        <time>2022-04-23T08:28:48.836Z</time>
      </trkpt>
      <trkpt lat="44.5241" lon="6.24722">
        <ele>1235</ele>
        <time>2022-04-23T08:28:51.773Z</time>
      </trkpt>
      <trkpt lat="44.52409" lon="6.24722">
        <ele>1235.4000244141</ele>
        <time>2022-04-23T08:28:54.711Z</time>
      </trkpt>
      <trkpt lat="44.52405" lon="6.2472">
        <ele>1236.1999511719</ele>
        <time>2022-04-23T08:28:57.650Z</time>
      </trkpt>
      <trkpt lat="44.52403" lon="6.24715">
        <ele>1237.5999755859</ele>
        <time>2022-04-23T08:29:00.591Z</time>
      </trkpt>
      <trkpt lat="44.52401" lon="6.24714">
        <ele>1238</ele>
        <time>2022-04-23T08:29:03.532Z</time>
      </trkpt>
      <trkpt lat="44.524" lon="6.24713">
        <ele>1238.1999511719</ele>
        <time>2022-04-23T08:29:06.474Z</time>
      </trkpt>
      <trkpt lat="44.52399" lon="6.24713">
        <ele>1238.5999755859</ele>
        <time>2022-04-23T08:29:09.416Z</time>
      </trkpt>
      <trkpt lat="44.52396" lon="6.24712">
        <ele>1239.8000488281</ele>
        <time>2022-04-23T08:29:12.359Z</time>
      </trkpt>
      <trkpt lat="44.52394" lon="6.2471">
        <ele>1240.8000488281</ele>
        <time>2022-04-23T08:29:15.303Z</time>
      </trkpt>
      <trkpt lat="44.52393" lon="6.24708">
        <ele>1241.1999511719</ele>
        <time>2022-04-23T08:29:18.247Z</time>
      </trkpt>
      <trkpt lat="44.5239" lon="6.24704">
        <ele>1242.5999755859</ele>
        <time>2022-04-23T08:29:21.193Z</time>
      </trkpt>
      <trkpt lat="44.52388" lon="6.24704">
        <ele>1242.8000488281</ele>
        <time>2022-04-23T08:29:24.139Z</time>
      </trkpt>
      <trkpt lat="44.52386" lon="6.24702">
        <ele>1243.4000244141</ele>
        <time>2022-04-23T08:29:27.086Z</time>
      </trkpt>
      <trkpt lat="44.52385" lon="6.24702">
        <ele>1243.8000488281</ele>
        <time>2022-04-23T08:29:30.033Z</time>
      </trkpt>
      <trkpt lat="44.52384" lon="6.24698">
        <ele>1244.4000244141</ele>
        <time>2022-04-23T08:29:32.981Z</time>
      </trkpt>
      <trkpt lat="44.52383" lon="6.24695">
        <ele>1245</ele>
        <time>2022-04-23T08:29:35.930Z</time>
      </trkpt>
      <trkpt lat="44.52378" lon="6.2469">
        <ele>1245.8000488281</ele>
        <time>2022-04-23T08:29:38.881Z</time>
      </trkpt>
      <trkpt lat="44.52375" lon="6.24687">
        <ele>1246.8000488281</ele>
        <time>2022-04-23T08:29:41.833Z</time>
      </trkpt>
      <trkpt lat="44.52373" lon="6.24685">
        <ele>1247.1999511719</ele>
        <time>2022-04-23T08:29:44.786Z</time>
      </trkpt>
      <trkpt lat="44.5237" lon="6.24679">
        <ele>1248.4000244141</ele>
        <time>2022-04-23T08:29:47.741Z</time>
      </trkpt>
      <trkpt lat="44.52368" lon="6.24678">
        <ele>1248.8000488281</ele>
        <time>2022-04-23T08:29:50.697Z</time>
      </trkpt>
      <trkpt lat="44.52366" lon="6.24674">
        <ele>1249.8000488281</ele>
        <time>2022-04-23T08:29:53.654Z</time>
      </trkpt>
      <trkpt lat="44.52361" lon="6.2467">
        <ele>1251</ele>
        <time>2022-04-23T08:29:56.613Z</time>
      </trkpt>
      <trkpt lat="44.52357" lon="6.24667">
        <ele>1252</ele>
        <time>2022-04-23T08:29:59.573Z</time>
      </trkpt>
      <trkpt lat="44.52355" lon="6.24665">
        <ele>1252.4000244141</ele>
        <time>2022-04-23T08:30:02.534Z</time>
      </trkpt>
      <trkpt lat="44.5235" lon="6.2466">
        <ele>1253.4000244141</ele>
        <time>2022-04-23T08:30:05.497Z</time>
      </trkpt>
      <trkpt lat="44.52346" lon="6.24656">
        <ele>1254.5999755859</ele>
        <time>2022-04-23T08:30:08.462Z</time>
      </trkpt>
      <trkpt lat="44.52345" lon="6.24655">
        <ele>1255.1999511719</ele>
        <time>2022-04-23T08:30:11.427Z</time>
      </trkpt>
      <trkpt lat="44.52344" lon="6.24654">
        <ele>1255.8000488281</ele>
        <time>2022-04-23T08:30:14.393Z</time>
      </trkpt>
      <trkpt lat="44.52339" lon="6.24652">
        <ele>1257.1999511719</ele>
        <time>2022-04-23T08:30:17.360Z</time>
      </trkpt>
      <trkpt lat="44.52337" lon="6.24651">
        <ele>1257.5999755859</ele>
        <time>2022-04-23T08:30:20.328Z</time>
      </trkpt>
      <trkpt lat="44.52336" lon="6.2465">
        <ele>1258</ele>
        <time>2022-04-23T08:30:23.296Z</time>
      </trkpt>
      <trkpt lat="44.52335" lon="6.2465">
        <ele>1258.1999511719</ele>
        <time>2022-04-23T08:30:26.265Z</time>
      </trkpt>
      <trkpt lat="44.5233" lon="6.24645">
        <ele>1259</ele>
        <time>2022-04-23T08:30:29.236Z</time>
      </trkpt>
      <trkpt lat="44.52323" lon="6.24636">
        <ele>1259</ele>
        <time>2022-04-23T08:30:32.210Z</time>
      </trkpt>
      <trkpt lat="44.52322" lon="6.24635">
        <ele>1259.4000244141</ele>
        <time>2022-04-23T08:30:35.184Z</time>
      </trkpt>
      <trkpt lat="44.52321" lon="6.24635">
        <ele>1259.1999511719</ele>
        <time>2022-04-23T08:30:38.159Z</time>
      </trkpt>
      <trkpt lat="44.52319" lon="6.24633">
        <ele>1259.4000244141</ele>
        <time>2022-04-23T08:30:41.134Z</time>
      </trkpt>
      <trkpt lat="44.52307" lon="6.24622">
        <ele>1260.8000488281</ele>
        <time>2022-04-23T08:30:44.114Z</time>
      </trkpt>
      <trkpt lat="44.52301" lon="6.24622">
        <ele>1260.5999755859</ele>
        <time>2022-04-23T08:30:47.096Z</time>
      </trkpt>
      <trkpt lat="44.52284" lon="6.24608">
        <ele>1262.1999511719</ele>
        <time>2022-04-23T08:30:50.084Z</time>
      </trkpt>
      <trkpt lat="44.52283" lon="6.24607">
        <ele>1262.1999511719</ele>
        <time>2022-04-23T08:30:53.073Z</time>
      </trkpt>
      <trkpt lat="44.52283" lon="6.24602">
        <ele>1262.8000488281</ele>
        <time>2022-04-23T08:30:56.063Z</time>
      </trkpt>
      <trkpt lat="44.52284" lon="6.24599">
        <ele>1263</ele>
        <time>2022-04-23T08:30:59.054Z</time>
      </trkpt>
      <trkpt lat="44.52282" lon="6.24595">
        <ele>1263.8000488281</ele>
        <time>2022-04-23T08:31:02.046Z</time>
      </trkpt>
      <trkpt lat="44.52282" lon="6.24593">
        <ele>1264</ele>
        <time>2022-04-23T08:31:05.038Z</time>
      </trkpt>
      <trkpt lat="44.52281" lon="6.24592">
        <ele>1264.1999511719</ele>
        <time>2022-04-23T08:31:08.031Z</time>
      </trkpt>
      <trkpt lat="44.52277" lon="6.24584">
        <ele>1265.4000244141</ele>
        <time>2022-04-23T08:31:11.026Z</time>
      </trkpt>
      <trkpt lat="44.52275" lon="6.24575">
        <ele>1266.4000244141</ele>
        <time>2022-04-23T08:31:14.023Z</time>
      </trkpt>
      <trkpt lat="44.52273" lon="6.24571">
        <ele>1267</ele>
        <time>2022-04-23T08:31:17.021Z</time>
      </trkpt>
      <trkpt lat="44.52272" lon="6.2457">
        <ele>1267.1999511719</ele>
        <time>2022-04-23T08:31:20.020Z</time>
      </trkpt>
      <trkpt lat="44.52272" lon="6.24569">
        <ele>1267.5999755859</ele>
        <time>2022-04-23T08:31:23.019Z</time>
      </trkpt>
      <trkpt lat="44.52267" lon="6.24565">
        <ele>1268.5999755859</ele>
        <time>2022-04-23T08:31:26.020Z</time>
      </trkpt>
      <trkpt lat="44.52262" lon="6.24565">
        <ele>1269.8000488281</ele>
        <time>2022-04-23T08:31:29.023Z</time>
      </trkpt>
      <trkpt lat="44.52258" lon="6.24562">
        <ele>1271</ele>
        <time>2022-04-23T08:31:32.027Z</time>
      </trkpt>
      <trkpt lat="44.52258" lon="6.2456">
        <ele>1272.1999511719</ele>
        <time>2022-04-23T08:31:35.032Z</time>
      </trkpt>
      <trkpt lat="44.52252" lon="6.24554">
        <ele>1273.5999755859</ele>
        <time>2022-04-23T08:31:38.039Z</time>
      </trkpt>
      <trkpt lat="44.52249" lon="6.24556">
        <ele>1274</ele>
        <time>2022-04-23T08:31:41.047Z</time>
      </trkpt>
      <trkpt lat="44.52242" lon="6.24557">
        <ele>1274.4000244141</ele>
        <time>2022-04-23T08:31:44.058Z</time>
      </trkpt>
      <trkpt lat="44.5224" lon="6.24557">
        <ele>1274.4000244141</ele>
        <time>2022-04-23T08:31:47.069Z</time>
      </trkpt>
      <trkpt lat="44.5223" lon="6.24559">
        <ele>1274</ele>
        <time>2022-04-23T08:31:50.083Z</time>
      </trkpt>
      <trkpt lat="44.52227" lon="6.24559">
        <ele>1273.8000488281</ele>
        <time>2022-04-23T08:31:53.099Z</time>
      </trkpt>
      <trkpt lat="44.52222" lon="6.24558">
        <ele>1273.5999755859</ele>
        <time>2022-04-23T08:31:56.116Z</time>
      </trkpt>
      <trkpt lat="44.52211" lon="6.2455">
        <ele>1272.5999755859</ele>
        <time>2022-04-23T08:31:59.137Z</time>
      </trkpt>
      <trkpt lat="44.52209" lon="6.24549">
        <ele>1272.4000244141</ele>
        <time>2022-04-23T08:32:02.159Z</time>
      </trkpt>
      <trkpt lat="44.52197" lon="6.24549">
        <ele>1271.5999755859</ele>
        <time>2022-04-23T08:32:05.185Z</time>
      </trkpt>
      <trkpt lat="44.52191" lon="6.24555">
        <ele>1271.4000244141</ele>
        <time>2022-04-23T08:32:08.213Z</time>
      </trkpt>
      <trkpt lat="44.5219" lon="6.24556">
        <ele>1271.5999755859</ele>
        <time>2022-04-23T08:32:11.242Z</time>
      </trkpt>
      <trkpt lat="44.52185" lon="6.24562">
        <ele>1273.4000244141</ele>
        <time>2022-04-23T08:32:14.273Z</time>
      </trkpt>
      <trkpt lat="44.52179" lon="6.24567">
        <ele>1274.5999755859</ele>
        <time>2022-04-23T08:32:17.306Z</time>
      </trkpt>
      <trkpt lat="44.52178" lon="6.24568">
        <ele>1275</ele>
        <time>2022-04-23T08:32:20.340Z</time>
      </trkpt>
      <trkpt lat="44.52172" lon="6.24567">
        <ele>1276</ele>
        <time>2022-04-23T08:32:23.376Z</time>
      </trkpt>
      <trkpt lat="44.5217" lon="6.24567">
        <ele>1276.1999511719</ele>
        <time>2022-04-23T08:32:26.412Z</time>
      </trkpt>
      <trkpt lat="44.52165" lon="6.24567">
        <ele>1276.5999755859</ele>
        <time>2022-04-23T08:32:29.450Z</time>
      </trkpt>
      <trkpt lat="44.5216" lon="6.24566">
        <ele>1276.8000488281</ele>
        <time>2022-04-23T08:32:32.490Z</time>
      </trkpt>
      <trkpt lat="44.52148" lon="6.24562">
        <ele>1276.4000244141</ele>
        <time>2022-04-23T08:32:35.534Z</time>
      </trkpt>
      <trkpt lat="44.52137" lon="6.24561">
        <ele>1276.4000244141</ele>
        <time>2022-04-23T08:32:38.581Z</time>
      </trkpt>
      <trkpt lat="44.52126" lon="6.24559">
        <ele>1276.8000488281</ele>
        <time>2022-04-23T08:32:41.632Z</time>
      </trkpt>
      <trkpt lat="44.52125" lon="6.24558">
        <ele>1277</ele>
        <time>2022-04-23T08:32:44.684Z</time>
      </trkpt>
      <trkpt lat="44.52119" lon="6.24554">
        <ele>1277.5999755859</ele>
        <time>2022-04-23T08:32:47.738Z</time>
      </trkpt>
      <trkpt lat="44.52115" lon="6.24552">
        <ele>1278.1999511719</ele>
        <time>2022-04-23T08:32:50.793Z</time>
      </trkpt>
      <trkpt lat="44.52109" lon="6.24552">
        <ele>1278.8000488281</ele>
        <time>2022-04-23T08:32:53.850Z</time>
      </trkpt>
      <trkpt lat="44.52105" lon="6.24552">
        <ele>1279.1999511719</ele>
        <time>2022-04-23T08:32:56.908Z</time>
      </trkpt>
      <trkpt lat="44.52097" lon="6.24551">
        <ele>1280.1999511719</ele>
        <time>2022-04-23T08:32:59.969Z</time>
      </trkpt>
      <trkpt lat="44.52095" lon="6.2455">
        <ele>1280.4000244141</ele>
        <time>2022-04-23T08:33:03.031Z</time>
      </trkpt>
      <trkpt lat="44.52088" lon="6.24549">
        <ele>1281.4000244141</ele>
        <time>2022-04-23T08:33:06.095Z</time>
      </trkpt>
      <trkpt lat="44.52084" lon="6.24546">
        <ele>1281.4000244141</ele>
        <time>2022-04-23T08:33:09.161Z</time>
      </trkpt>
      <trkpt lat="44.52081" lon="6.24546">
        <ele>1281.8000488281</ele>
        <time>2022-04-23T08:33:12.228Z</time>
      </trkpt>
      <trkpt lat="44.52076" lon="6.24546">
        <ele>1282</ele>
        <time>2022-04-23T08:33:15.296Z</time>
      </trkpt>
      <trkpt lat="44.52067" lon="6.24543">
        <ele>1282.5999755859</ele>
        <time>2022-04-23T08:33:18.367Z</time>
      </trkpt>
      <trkpt lat="44.52064" lon="6.24543">
        <ele>1282.8000488281</ele>
        <time>2022-04-23T08:33:21.439Z</time>
      </trkpt>
      <trkpt lat="44.52059" lon="6.24542">
        <ele>1283.1999511719</ele>
        <time>2022-04-23T08:33:24.513Z</time>
      </trkpt>
      <trkpt lat="44.52054" lon="6.24541">
        <ele>1283.5999755859</ele>
        <time>2022-04-23T08:33:27.589Z</time>
      </trkpt>
      <trkpt lat="44.52047" lon="6.24541">
        <ele>1284.4000244141</ele>
        <time>2022-04-23T08:33:30.667Z</time>
      </trkpt>
      <trkpt lat="44.52042" lon="6.2454">
        <ele>1284.5999755859</ele>
        <time>2022-04-23T08:33:33.747Z</time>
      </trkpt>
      <trkpt lat="44.52035" lon="6.2454">
        <ele>1285.8000488281</ele>
        <time>2022-04-23T08:33:36.829Z</time>
      </trkpt>
      <trkpt lat="44.52033" lon="6.24541">
        <ele>1286</ele>
        <time>2022-04-23T08:33:39.912Z</time>
      </trkpt>
      <trkpt lat="44.52027" lon="6.24541">
        <ele>1286.8000488281</ele>
        <time>2022-04-23T08:33:42.997Z</time>
      </trkpt>
      <trkpt lat="44.52023" lon="6.24543">
        <ele>1287.4000244141</ele>
        <time>2022-04-23T08:33:46.083Z</time>
      </trkpt>
      <trkpt lat="44.52015" lon="6.24543">
        <ele>1288.1999511719</ele>
        <time>2022-04-23T08:33:49.172Z</time>
      </trkpt>
      <trkpt lat="44.52011" lon="6.24545">
        <ele>1288.5999755859</ele>
        <time>2022-04-23T08:33:52.262Z</time>
      </trkpt>
      <trkpt lat="44.52006" lon="6.24545">
        <ele>1289.1999511719</ele>
        <time>2022-04-23T08:33:55.354Z</time>
      </trkpt>
      <trkpt lat="44.51997" lon="6.24549">
        <ele>1289.8000488281</ele>
        <time>2022-04-23T08:33:58.449Z</time>
      </trkpt>
      <trkpt lat="44.51992" lon="6.24552">
        <ele>1290.4000244141</ele>
        <time>2022-04-23T08:34:01.546Z</time>
      </trkpt>
      <trkpt lat="44.51988" lon="6.24554">
        <ele>1291.1999511719</ele>
        <time>2022-04-23T08:34:04.644Z</time>
      </trkpt>
      <trkpt lat="44.51987" lon="6.24554">
        <ele>1291.4000244141</ele>
        <time>2022-04-23T08:34:07.743Z</time>
      </trkpt>
      <trkpt lat="44.51983" lon="6.24555">
        <ele>1292.5999755859</ele>
        <time>2022-04-23T08:34:10.843Z</time>
      </trkpt>
      <trkpt lat="44.5198" lon="6.24557">
        <ele>1293.8000488281</ele>
        <time>2022-04-23T08:34:13.944Z</time>
      </trkpt>
      <trkpt lat="44.51978" lon="6.24558">
        <ele>1294.4000244141</ele>
        <time>2022-04-23T08:34:17.046Z</time>
      </trkpt>
      <trkpt lat="44.51975" lon="6.24561">
        <ele>1295</ele>
        <time>2022-04-23T08:34:20.149Z</time>
      </trkpt>
      <trkpt lat="44.51974" lon="6.24561">
        <ele>1295.4000244141</ele>
        <time>2022-04-23T08:34:23.252Z</time>
      </trkpt>
      <trkpt lat="44.51972" lon="6.24562">
        <ele>1295.8000488281</ele>
        <time>2022-04-23T08:34:26.356Z</time>
      </trkpt>
      <trkpt lat="44.51971" lon="6.24563">
        <ele>1296.1999511719</ele>
        <time>2022-04-23T08:34:29.460Z</time>
      </trkpt>
      <trkpt lat="44.51967" lon="6.24564">
        <ele>1297.8000488281</ele>
        <time>2022-04-23T08:34:32.566Z</time>
      </trkpt>
      <trkpt lat="44.51964" lon="6.24566">
        <ele>1298.4000244141</ele>
        <time>2022-04-23T08:34:35.673Z</time>
      </trkpt>
      <trkpt lat="44.51963" lon="6.24568">
        <ele>1298.8000488281</ele>
        <time>2022-04-23T08:34:38.780Z</time>
      </trkpt>
      <trkpt lat="44.51959" lon="6.24571">
        <ele>1300.1999511719</ele>
        <time>2022-04-23T08:34:41.889Z</time>
      </trkpt>
      <trkpt lat="44.51958" lon="6.24573">
        <ele>1300.5999755859</ele>
        <time>2022-04-23T08:34:44.998Z</time>
      </trkpt>
      <trkpt lat="44.51955" lon="6.24577">
        <ele>1301.8000488281</ele>
        <time>2022-04-23T08:34:48.109Z</time>
      </trkpt>
      <trkpt lat="44.51951" lon="6.24579">
        <ele>1303</ele>
        <time>2022-04-23T08:34:51.221Z</time>
      </trkpt>
      <trkpt lat="44.51948" lon="6.24582">
        <ele>1304.1999511719</ele>
        <time>2022-04-23T08:34:54.334Z</time>
      </trkpt>
      <trkpt lat="44.51944" lon="6.24584">
        <ele>1305.1999511719</ele>
        <time>2022-04-23T08:34:57.449Z</time>
      </trkpt>
      <trkpt lat="44.5194" lon="6.24587">
        <ele>1306.1999511719</ele>
        <time>2022-04-23T08:35:00.565Z</time>
      </trkpt>
      <trkpt lat="44.51939" lon="6.24588">
        <ele>1306.4000244141</ele>
        <time>2022-04-23T08:35:03.682Z</time>
      </trkpt>
      <trkpt lat="44.51937" lon="6.2459">
        <ele>1306.5999755859</ele>
        <time>2022-04-23T08:35:06.799Z</time>
      </trkpt>
      <trkpt lat="44.51932" lon="6.24592">
        <ele>1307</ele>
        <time>2022-04-23T08:35:09.918Z</time>
      </trkpt>
      <trkpt lat="44.51931" lon="6.24594">
        <ele>1307.1999511719</ele>
        <time>2022-04-23T08:35:13.038Z</time>
      </trkpt>
      <trkpt lat="44.51923" lon="6.246">
        <ele>1307.5999755859</ele>
        <time>2022-04-23T08:35:16.161Z</time>
      </trkpt>
      <trkpt lat="44.51917" lon="6.24608">
        <ele>1308.4000244141</ele>
        <time>2022-04-23T08:35:19.287Z</time>
      </trkpt>
      <trkpt lat="44.51912" lon="6.24616">
        <ele>1308.8000488281</ele>
        <time>2022-04-23T08:35:22.415Z</time>
      </trkpt>
      <trkpt lat="44.51911" lon="6.24617">
        <ele>1309</ele>
        <time>2022-04-23T08:35:25.543Z</time>
      </trkpt>
      <trkpt lat="44.51901" lon="6.24615">
        <ele>1309</ele>
        <time>2022-04-23T08:35:28.675Z</time>
      </trkpt>
      <trkpt lat="44.51892" lon="6.24612">
        <ele>1309</ele>
        <time>2022-04-23T08:35:31.810Z</time>
      </trkpt>
      <trkpt lat="44.5189" lon="6.24614">
        <ele>1309</ele>
        <time>2022-04-23T08:35:34.946Z</time>
      </trkpt>
      <trkpt lat="44.51888" lon="6.24619">
        <ele>1309.1999511719</ele>
        <time>2022-04-23T08:35:38.083Z</time>
      </trkpt>
      <trkpt lat="44.51883" lon="6.24633">
        <ele>1309</ele>
        <time>2022-04-23T08:35:41.224Z</time>
      </trkpt>
      <trkpt lat="44.51874" lon="6.24634">
        <ele>1308.1999511719</ele>
        <time>2022-04-23T08:35:44.368Z</time>
      </trkpt>
      <trkpt lat="44.51871" lon="6.24641">
        <ele>1308</ele>
        <time>2022-04-23T08:35:47.513Z</time>
      </trkpt>
      <trkpt lat="44.51869" lon="6.24646">
        <ele>1307.8000488281</ele>
        <time>2022-04-23T08:35:50.660Z</time>
      </trkpt>
      <trkpt lat="44.5187" lon="6.24651">
        <ele>1307.5999755859</ele>
        <time>2022-04-23T08:35:53.808Z</time>
      </trkpt>
      <trkpt lat="44.51871" lon="6.2465">
        <ele>1307.5999755859</ele>
        <time>2022-04-23T08:35:56.957Z</time>
      </trkpt>
      <trkpt lat="44.51875" lon="6.24641">
        <ele>1307.5999755859</ele>
        <time>2022-04-23T08:36:00.108Z</time>
      </trkpt>
      <trkpt lat="44.51878" lon="6.24629">
        <ele>1308.4000244141</ele>
        <time>2022-04-23T08:36:03.262Z</time>
      </trkpt>
      <trkpt lat="44.51878" lon="6.24627">
        <ele>1308.4000244141</ele>
        <time>2022-04-23T08:36:06.417Z</time>
      </trkpt>
      <trkpt lat="44.51881" lon="6.24617">
        <ele>1308.8000488281</ele>
        <time>2022-04-23T08:36:09.574Z</time>
      </trkpt>
      <trkpt lat="44.51882" lon="6.24615">
        <ele>1308.5999755859</ele>
        <time>2022-04-23T08:36:12.732Z</time>
      </trkpt>
      <trkpt lat="44.51884" lon="6.24612">
        <ele>1308.8000488281</ele>
        <time>2022-04-23T08:36:15.891Z</time>
      </trkpt>
      <trkpt lat="44.51886" lon="6.24605">
        <ele>1309</ele>
        <time>2022-04-23T08:36:19.052Z</time>
      </trkpt>
      <trkpt lat="44.51889" lon="6.24592">
        <ele>1309.1999511719</ele>
        <time>2022-04-23T08:36:22.216Z</time>
      </trkpt>
      <trkpt lat="44.51894" lon="6.24574">
        <ele>1309.4000244141</ele>
        <time>2022-04-23T08:36:25.384Z</time>
      </trkpt>
      <trkpt lat="44.51894" lon="6.2457">
        <ele>1309.5999755859</ele>
        <time>2022-04-23T08:36:28.553Z</time>
      </trkpt>
      <trkpt lat="44.51897" lon="6.24554">
        <ele>1309.8000488281</ele>
        <time>2022-04-23T08:36:31.726Z</time>
      </trkpt>
      <trkpt lat="44.51898" lon="6.2455">
        <ele>1309.8000488281</ele>
        <time>2022-04-23T08:36:34.900Z</time>
      </trkpt>
      <trkpt lat="44.51905" lon="6.24527">
        <ele>1310.5999755859</ele>
        <time>2022-04-23T08:36:38.080Z</time>
      </trkpt>
      <trkpt lat="44.51908" lon="6.24519">
        <ele>1310.5999755859</ele>
        <time>2022-04-23T08:36:41.262Z</time>
      </trkpt>
      <trkpt lat="44.51913" lon="6.2451">
        <ele>1311</ele>
        <time>2022-04-23T08:36:44.447Z</time>
      </trkpt>
      <trkpt lat="44.51918" lon="6.2449">
        <ele>1311.4000244141</ele>
        <time>2022-04-23T08:36:47.637Z</time>
      </trkpt>
      <trkpt lat="44.51922" lon="6.24483">
        <ele>1311.5999755859</ele>
        <time>2022-04-23T08:36:50.829Z</time>
      </trkpt>
      <trkpt lat="44.5193" lon="6.2447">
        <ele>1312.1999511719</ele>
        <time>2022-04-23T08:36:54.025Z</time>
      </trkpt>
      <trkpt lat="44.51934" lon="6.24464">
        <ele>1312.5999755859</ele>
        <time>2022-04-23T08:36:57.223Z</time>
      </trkpt>
      <trkpt lat="44.51939" lon="6.24453">
        <ele>1313.1999511719</ele>
        <time>2022-04-23T08:37:00.424Z</time>
      </trkpt>
      <trkpt lat="44.51941" lon="6.24449">
        <ele>1313.5999755859</ele>
        <time>2022-04-23T08:37:03.626Z</time>
      </trkpt>
      <trkpt lat="44.51944" lon="6.24444">
        <ele>1314.4000244141</ele>
        <time>2022-04-23T08:37:06.830Z</time>
      </trkpt>
      <trkpt lat="44.51946" lon="6.24441">
        <ele>1314.5999755859</ele>
        <time>2022-04-23T08:37:10.035Z</time>
      </trkpt>
      <trkpt lat="44.51953" lon="6.2443">
        <ele>1315.8000488281</ele>
        <time>2022-04-23T08:37:13.243Z</time>
      </trkpt>
      <trkpt lat="44.51955" lon="6.24426">
        <ele>1316</ele>
        <time>2022-04-23T08:37:16.452Z</time>
      </trkpt>
      <trkpt lat="44.51961" lon="6.24411">
        <ele>1317</ele>
        <time>2022-04-23T08:37:19.665Z</time>
      </trkpt>
      <trkpt lat="44.51972" lon="6.24391">
        <ele>1318</ele>
        <time>2022-04-23T08:37:22.884Z</time>
      </trkpt>
      <trkpt lat="44.51974" lon="6.24388">
        <ele>1318.1999511719</ele>
        <time>2022-04-23T08:37:26.104Z</time>
      </trkpt>
      <trkpt lat="44.51987" lon="6.24378">
        <ele>1318.8000488281</ele>
        <time>2022-04-23T08:37:29.329Z</time>
      </trkpt>
      <trkpt lat="44.51989" lon="6.24376">
        <ele>1319</ele>
        <time>2022-04-23T08:37:32.555Z</time>
      </trkpt>
      <trkpt lat="44.52" lon="6.24361">
        <ele>1319.8000488281</ele>
        <time>2022-04-23T08:37:35.786Z</time>
      </trkpt>
      <trkpt lat="44.52004" lon="6.24357">
        <ele>1320.1999511719</ele>
        <time>2022-04-23T08:37:39.019Z</time>
      </trkpt>
      <trkpt lat="44.52013" lon="6.24348">
        <ele>1320.8000488281</ele>
        <time>2022-04-23T08:37:42.256Z</time>
      </trkpt>
      <trkpt lat="44.52019" lon="6.2434">
        <ele>1321.1999511719</ele>
        <time>2022-04-23T08:37:45.495Z</time>
      </trkpt>
      <trkpt lat="44.5202" lon="6.24333">
        <ele>1321.1999511719</ele>
        <time>2022-04-23T08:37:48.736Z</time>
      </trkpt>
      <trkpt lat="44.52016" lon="6.24327">
        <ele>1321.4000244141</ele>
        <time>2022-04-23T08:37:51.979Z</time>
      </trkpt>
      <trkpt lat="44.52012" lon="6.24327">
        <ele>1322.1999511719</ele>
        <time>2022-04-23T08:37:55.223Z</time>
      </trkpt>
      <trkpt lat="44.52004" lon="6.2433">
        <ele>1323.1999511719</ele>
        <time>2022-04-23T08:37:58.470Z</time>
      </trkpt>
      <trkpt lat="44.52003" lon="6.2433">
        <ele>1323.4000244141</ele>
        <time>2022-04-23T08:38:01.717Z</time>
      </trkpt>
      <trkpt lat="44.51998" lon="6.2433">
        <ele>1324</ele>
        <time>2022-04-23T08:38:04.966Z</time>
      </trkpt>
      <trkpt lat="44.51997" lon="6.24331">
        <ele>1324.1999511719</ele>
        <time>2022-04-23T08:38:08.215Z</time>
      </trkpt>
      <trkpt lat="44.5199" lon="6.24331">
        <ele>1325.4000244141</ele>
        <time>2022-04-23T08:38:11.466Z</time>
      </trkpt>
      <trkpt lat="44.51989" lon="6.24332">
        <ele>1325.5999755859</ele>
        <time>2022-04-23T08:38:14.718Z</time>
      </trkpt>
      <trkpt lat="44.51981" lon="6.24333">
        <ele>1326.4000244141</ele>
        <time>2022-04-23T08:38:17.973Z</time>
      </trkpt>
      <trkpt lat="44.51979" lon="6.24333">
        <ele>1326.5999755859</ele>
        <time>2022-04-23T08:38:21.228Z</time>
      </trkpt>
      <trkpt lat="44.51977" lon="6.24334">
        <ele>1326.8000488281</ele>
        <time>2022-04-23T08:38:24.484Z</time>
      </trkpt>
      <trkpt lat="44.51967" lon="6.24337">
        <ele>1327.5999755859</ele>
        <time>2022-04-23T08:38:27.743Z</time>
      </trkpt>
      <trkpt lat="44.51963" lon="6.24338">
        <ele>1328</ele>
        <time>2022-04-23T08:38:31.004Z</time>
      </trkpt>
      <trkpt lat="44.51956" lon="6.24337">
        <ele>1328.5999755859</ele>
        <time>2022-04-23T08:38:34.267Z</time>
      </trkpt>
      <trkpt lat="44.5195" lon="6.24338">
        <ele>1329.1999511719</ele>
        <time>2022-04-23T08:38:37.532Z</time>
      </trkpt>
      <trkpt lat="44.51947" lon="6.24338">
        <ele>1329.8000488281</ele>
        <time>2022-04-23T08:38:40.798Z</time>
      </trkpt>
      <trkpt lat="44.51943" lon="6.24342">
        <ele>1330.5999755859</ele>
        <time>2022-04-23T08:38:44.065Z</time>
      </trkpt>
      <trkpt lat="44.51932" lon="6.24353">
        <ele>1331.8000488281</ele>
        <time>2022-04-23T08:38:47.337Z</time>
      </trkpt>
      <trkpt lat="44.51922" lon="6.24361">
        <ele>1332.5999755859</ele>
        <time>2022-04-23T08:38:50.613Z</time>
      </trkpt>
      <trkpt lat="44.51919" lon="6.24362">
        <ele>1332.8000488281</ele>
        <time>2022-04-23T08:38:53.890Z</time>
      </trkpt>
      <trkpt lat="44.51916" lon="6.24366">
        <ele>1333.1999511719</ele>
        <time>2022-04-23T08:38:57.168Z</time>
      </trkpt>
      <trkpt lat="44.51912" lon="6.2437">
        <ele>1333.5999755859</ele>
        <time>2022-04-23T08:39:00.448Z</time>
      </trkpt>
      <trkpt lat="44.5191" lon="6.24371">
        <ele>1334</ele>
        <time>2022-04-23T08:39:03.728Z</time>
      </trkpt>
      <trkpt lat="44.51908" lon="6.24372">
        <ele>1333.8000488281</ele>
        <time>2022-04-23T08:39:07.009Z</time>
      </trkpt>
      <trkpt lat="44.519" lon="6.24376">
        <ele>1335</ele>
        <time>2022-04-23T08:39:10.293Z</time>
      </trkpt>
      <trkpt lat="44.51898" lon="6.24378">
        <ele>1335.1999511719</ele>
        <time>2022-04-23T08:39:13.578Z</time>
      </trkpt>
      <trkpt lat="44.51888" lon="6.24387">
        <ele>1336.1999511719</ele>
        <time>2022-04-23T08:39:16.867Z</time>
      </trkpt>
      <trkpt lat="44.51885" lon="6.24389">
        <ele>1336.5999755859</ele>
        <time>2022-04-23T08:39:20.157Z</time>
      </trkpt>
      <trkpt lat="44.5188" lon="6.24394">
        <ele>1337.4000244141</ele>
        <time>2022-04-23T08:39:23.449Z</time>
      </trkpt>
      <trkpt lat="44.51874" lon="6.24395">
        <ele>1338.1999511719</ele>
        <time>2022-04-23T08:39:26.743Z</time>
      </trkpt>
      <trkpt lat="44.51871" lon="6.24395">
        <ele>1338.4000244141</ele>
        <time>2022-04-23T08:39:30.038Z</time>
      </trkpt>
      <trkpt lat="44.51864" lon="6.24397">
        <ele>1339.5999755859</ele>
        <time>2022-04-23T08:39:33.335Z</time>
      </trkpt>
      <trkpt lat="44.51862" lon="6.24398">
        <ele>1339.8000488281</ele>
        <time>2022-04-23T08:39:36.633Z</time>
      </trkpt>
      <trkpt lat="44.51856" lon="6.24402">
        <ele>1340.5999755859</ele>
        <time>2022-04-23T08:39:39.933Z</time>
      </trkpt>
      <trkpt lat="44.51852" lon="6.24402">
        <ele>1341</ele>
        <time>2022-04-23T08:39:43.234Z</time>
      </trkpt>
      <trkpt lat="44.51846" lon="6.24403">
        <ele>1341.4000244141</ele>
        <time>2022-04-23T08:39:46.537Z</time>
      </trkpt>
      <trkpt lat="44.5184" lon="6.24406">
        <ele>1342.1999511719</ele>
        <time>2022-04-23T08:39:49.843Z</time>
      </trkpt>
      <trkpt lat="44.51838" lon="6.24407">
        <ele>1342.5999755859</ele>
        <time>2022-04-23T08:39:53.149Z</time>
      </trkpt>
      <trkpt lat="44.51831" lon="6.24409">
        <ele>1343.4000244141</ele>
        <time>2022-04-23T08:39:56.458Z</time>
      </trkpt>
      <trkpt lat="44.51829" lon="6.24408">
        <ele>1343.8000488281</ele>
        <time>2022-04-23T08:39:59.767Z</time>
      </trkpt>
      <trkpt lat="44.51821" lon="6.24408">
        <ele>1345</ele>
        <time>2022-04-23T08:40:03.079Z</time>
      </trkpt>
      <trkpt lat="44.51819" lon="6.24408">
        <ele>1345.1999511719</ele>
        <time>2022-04-23T08:40:06.392Z</time>
      </trkpt>
      <trkpt lat="44.51811" lon="6.2441">
        <ele>1345.8000488281</ele>
        <time>2022-04-23T08:40:09.707Z</time>
      </trkpt>
      <trkpt lat="44.5181" lon="6.2441">
        <ele>1346.1999511719</ele>
        <time>2022-04-23T08:40:13.023Z</time>
      </trkpt>
      <trkpt lat="44.51808" lon="6.24411">
        <ele>1346.4000244141</ele>
        <time>2022-04-23T08:40:16.339Z</time>
      </trkpt>
      <trkpt lat="44.51804" lon="6.24412">
        <ele>1347</ele>
        <time>2022-04-23T08:40:19.657Z</time>
      </trkpt>
      <trkpt lat="44.51797" lon="6.24407">
        <ele>1347.4000244141</ele>
        <time>2022-04-23T08:40:22.977Z</time>
      </trkpt>
      <trkpt lat="44.5179" lon="6.24398">
        <ele>1347.4000244141</ele>
        <time>2022-04-23T08:40:26.300Z</time>
      </trkpt>
      <trkpt lat="44.51785" lon="6.24393">
        <ele>1347.1999511719</ele>
        <time>2022-04-23T08:40:29.625Z</time>
      </trkpt>
      <trkpt lat="44.51769" lon="6.24384">
        <ele>1347.1999511719</ele>
        <time>2022-04-23T08:40:32.956Z</time>
      </trkpt>
      <trkpt lat="44.51753" lon="6.24377">
        <ele>1348</ele>
        <time>2022-04-23T08:40:36.293Z</time>
      </trkpt>
      <trkpt lat="44.51741" lon="6.24367">
        <ele>1348.5999755859</ele>
        <time>2022-04-23T08:40:39.634Z</time>
      </trkpt>
      <trkpt lat="44.51735" lon="6.24363">
        <ele>1349.1999511719</ele>
        <time>2022-04-23T08:40:42.977Z</time>
      </trkpt>
      <trkpt lat="44.51733" lon="6.2436">
        <ele>1349.1999511719</ele>
        <time>2022-04-23T08:40:46.321Z</time>
      </trkpt>
      <trkpt lat="44.51723" lon="6.24346">
        <ele>1349.5999755859</ele>
        <time>2022-04-23T08:40:49.670Z</time>
      </trkpt>
      <trkpt lat="44.51717" lon="6.24332">
        <ele>1350.1999511719</ele>
        <time>2022-04-23T08:40:53.023Z</time>
      </trkpt>
      <trkpt lat="44.51713" lon="6.24321">
        <ele>1351.1999511719</ele>
        <time>2022-04-23T08:40:56.379Z</time>
      </trkpt>
      <trkpt lat="44.51706" lon="6.24302">
        <ele>1352</ele>
        <time>2022-04-23T08:40:59.740Z</time>
      </trkpt>
      <trkpt lat="44.51701" lon="6.24296">
        <ele>1352.1999511719</ele>
        <time>2022-04-23T08:41:03.103Z</time>
      </trkpt>
      <trkpt lat="44.51693" lon="6.24286">
        <ele>1352.4000244141</ele>
        <time>2022-04-23T08:41:06.470Z</time>
      </trkpt>
      <trkpt lat="44.5168" lon="6.24274">
        <ele>1353</ele>
        <time>2022-04-23T08:41:09.842Z</time>
      </trkpt>
      <trkpt lat="44.51677" lon="6.24272">
        <ele>1353.1999511719</ele>
        <time>2022-04-23T08:41:13.215Z</time>
      </trkpt>
      <trkpt lat="44.51666" lon="6.24259">
        <ele>1354.1999511719</ele>
        <time>2022-04-23T08:41:16.593Z</time>
      </trkpt>
      <trkpt lat="44.51661" lon="6.24255">
        <ele>1354.4000244141</ele>
        <time>2022-04-23T08:41:19.973Z</time>
      </trkpt>
      <trkpt lat="44.51656" lon="6.24246">
        <ele>1355.1999511719</ele>
        <time>2022-04-23T08:41:23.355Z</time>
      </trkpt>
      <trkpt lat="44.51654" lon="6.24242">
        <ele>1355.4000244141</ele>
        <time>2022-04-23T08:41:26.738Z</time>
      </trkpt>
      <trkpt lat="44.51653" lon="6.2424">
        <ele>1355.5999755859</ele>
        <time>2022-04-23T08:41:30.122Z</time>
      </trkpt>
      <trkpt lat="44.51643" lon="6.24231">
        <ele>1356</ele>
        <time>2022-04-23T08:41:33.510Z</time>
      </trkpt>
      <trkpt lat="44.51637" lon="6.24224">
        <ele>1356.5999755859</ele>
        <time>2022-04-23T08:41:36.901Z</time>
      </trkpt>
      <trkpt lat="44.51634" lon="6.24221">
        <ele>1356.8000488281</ele>
        <time>2022-04-23T08:41:40.293Z</time>
      </trkpt>
      <trkpt lat="44.51629" lon="6.24217">
        <ele>1357.4000244141</ele>
        <time>2022-04-23T08:41:43.687Z</time>
      </trkpt>
      <trkpt lat="44.51627" lon="6.24215">
        <ele>1357.5999755859</ele>
        <time>2022-04-23T08:41:47.082Z</time>
      </trkpt>
      <trkpt lat="44.51624" lon="6.24213">
        <ele>1358</ele>
        <time>2022-04-23T08:41:50.477Z</time>
      </trkpt>
      <trkpt lat="44.51618" lon="6.24211">
        <ele>1358.1999511719</ele>
        <time>2022-04-23T08:41:53.875Z</time>
      </trkpt>
      <trkpt lat="44.51614" lon="6.24212">
        <ele>1358.8000488281</ele>
        <time>2022-04-23T08:41:57.274Z</time>
      </trkpt>
      <trkpt lat="44.51606" lon="6.2421">
        <ele>1360</ele>
        <time>2022-04-23T08:42:00.676Z</time>
      </trkpt>
      <trkpt lat="44.51604" lon="6.2421">
        <ele>1360.1999511719</ele>
        <time>2022-04-23T08:42:04.078Z</time>
      </trkpt>
      <trkpt lat="44.51598" lon="6.24207">
        <ele>1361</ele>
        <time>2022-04-23T08:42:07.482Z</time>
      </trkpt>
      <trkpt lat="44.51593" lon="6.24203">
        <ele>1361.5999755859</ele>
        <time>2022-04-23T08:42:10.888Z</time>
      </trkpt>
      <trkpt lat="44.51591" lon="6.24202">
        <ele>1362</ele>
        <time>2022-04-23T08:42:14.295Z</time>
      </trkpt>
      <trkpt lat="44.51589" lon="6.242">
        <ele>1362.1999511719</ele>
        <time>2022-04-23T08:42:17.703Z</time>
      </trkpt>
      <trkpt lat="44.5158" lon="6.24191">
        <ele>1363.4000244141</ele>
        <time>2022-04-23T08:42:21.114Z</time>
      </trkpt>
      <trkpt lat="44.51571" lon="6.24176">
        <ele>1364</ele>
        <time>2022-04-23T08:42:24.530Z</time>
      </trkpt>
      <trkpt lat="44.51566" lon="6.24165">
        <ele>1364.1999511719</ele>
        <time>2022-04-23T08:42:27.949Z</time>
      </trkpt>
      <trkpt lat="44.51557" lon="6.24151">
        <ele>1364.5999755859</ele>
        <time>2022-04-23T08:42:31.373Z</time>
      </trkpt>
      <trkpt lat="44.51545" lon="6.2414">
        <ele>1364.8000488281</ele>
        <time>2022-04-23T08:42:34.801Z</time>
      </trkpt>
      <trkpt lat="44.5154" lon="6.24133">
        <ele>1365.1999511719</ele>
        <time>2022-04-23T08:42:38.232Z</time>
      </trkpt>
      <trkpt lat="44.51536" lon="6.24127">
        <ele>1365.5999755859</ele>
        <time>2022-04-23T08:42:41.665Z</time>
      </trkpt>
      <trkpt lat="44.51533" lon="6.24123">
        <ele>1366.4000244141</ele>
        <time>2022-04-23T08:42:45.099Z</time>
      </trkpt>
      <trkpt lat="44.51526" lon="6.24115">
        <ele>1367.4000244141</ele>
        <time>2022-04-23T08:42:48.536Z</time>
      </trkpt>
      <trkpt lat="44.51524" lon="6.24114">
        <ele>1367.5999755859</ele>
        <time>2022-04-23T08:42:51.974Z</time>
      </trkpt>
      <trkpt lat="44.51517" lon="6.24114">
        <ele>1368.5999755859</ele>
        <time>2022-04-23T08:42:55.414Z</time>
      </trkpt>
      <trkpt lat="44.51514" lon="6.24113">
        <ele>1368.8000488281</ele>
        <time>2022-04-23T08:42:58.855Z</time>
      </trkpt>
      <trkpt lat="44.515" lon="6.24117">
        <ele>1369.4000244141</ele>
        <time>2022-04-23T08:43:02.301Z</time>
      </trkpt>
      <trkpt lat="44.51491" lon="6.2412">
        <ele>1369.8000488281</ele>
        <time>2022-04-23T08:43:05.750Z</time>
      </trkpt>
      <trkpt lat="44.51489" lon="6.2412">
        <ele>1370</ele>
        <time>2022-04-23T08:43:09.199Z</time>
      </trkpt>
      <trkpt lat="44.51473" lon="6.24117">
        <ele>1370.8000488281</ele>
        <time>2022-04-23T08:43:12.654Z</time>
      </trkpt>
      <trkpt lat="44.51462" lon="6.2412">
        <ele>1371.1999511719</ele>
        <time>2022-04-23T08:43:16.113Z</time>
      </trkpt>
      <trkpt lat="44.51447" lon="6.24131">
        <ele>1372</ele>
        <time>2022-04-23T08:43:19.577Z</time>
      </trkpt>
      <trkpt lat="44.51445" lon="6.24133">
        <ele>1372</ele>
        <time>2022-04-23T08:43:23.042Z</time>
      </trkpt>
      <trkpt lat="44.51431" lon="6.24142">
        <ele>1372.8000488281</ele>
        <time>2022-04-23T08:43:26.512Z</time>
      </trkpt>
      <trkpt lat="44.51429" lon="6.24143">
        <ele>1373</ele>
        <time>2022-04-23T08:43:29.983Z</time>
      </trkpt>
      <trkpt lat="44.51416" lon="6.24149">
        <ele>1374</ele>
        <time>2022-04-23T08:43:33.458Z</time>
      </trkpt>
      <trkpt lat="44.51412" lon="6.2415">
        <ele>1374.5999755859</ele>
        <time>2022-04-23T08:43:36.935Z</time>
      </trkpt>
      <trkpt lat="44.51409" lon="6.24152">
        <ele>1375.1999511719</ele>
        <time>2022-04-23T08:43:40.413Z</time>
      </trkpt>
      <trkpt lat="44.51403" lon="6.24157">
        <ele>1375.8000488281</ele>
        <time>2022-04-23T08:43:43.893Z</time>
      </trkpt>
      <trkpt lat="44.514" lon="6.24159">
        <ele>1376.1999511719</ele>
        <time>2022-04-23T08:43:47.374Z</time>
      </trkpt>
      <trkpt lat="44.51394" lon="6.24161">
        <ele>1377.1999511719</ele>
        <time>2022-04-23T08:43:50.857Z</time>
      </trkpt>
      <trkpt lat="44.51392" lon="6.24161">
        <ele>1377.4000244141</ele>
        <time>2022-04-23T08:43:54.341Z</time>
      </trkpt>
      <trkpt lat="44.51383" lon="6.24163">
        <ele>1378.5999755859</ele>
        <time>2022-04-23T08:43:57.828Z</time>
      </trkpt>
      <trkpt lat="44.51376" lon="6.24166">
        <ele>1379.5999755859</ele>
        <time>2022-04-23T08:44:01.317Z</time>
      </trkpt>
      <trkpt lat="44.51371" lon="6.24166">
        <ele>1380.1999511719</ele>
        <time>2022-04-23T08:44:04.808Z</time>
      </trkpt>
      <trkpt lat="44.51368" lon="6.24167">
        <ele>1380.4000244141</ele>
        <time>2022-04-23T08:44:08.300Z</time>
      </trkpt>
      <trkpt lat="44.5136" lon="6.24172">
        <ele>1381.8000488281</ele>
        <time>2022-04-23T08:44:11.795Z</time>
      </trkpt>
      <trkpt lat="44.51358" lon="6.24173">
        <ele>1382</ele>
        <time>2022-04-23T08:44:15.291Z</time>
      </trkpt>
      <trkpt lat="44.51353" lon="6.24179">
        <ele>1383</ele>
        <time>2022-04-23T08:44:18.789Z</time>
      </trkpt>
      <trkpt lat="44.51348" lon="6.24185">
        <ele>1383.5999755859</ele>
        <time>2022-04-23T08:44:22.289Z</time>
      </trkpt>
      <trkpt lat="44.51343" lon="6.24193">
        <ele>1384.1999511719</ele>
        <time>2022-04-23T08:44:25.791Z</time>
      </trkpt>
      <trkpt lat="44.51337" lon="6.24201">
        <ele>1385.1999511719</ele>
        <time>2022-04-23T08:44:29.296Z</time>
      </trkpt>
      <trkpt lat="44.51329" lon="6.2421">
        <ele>1386.4000244141</ele>
        <time>2022-04-23T08:44:32.805Z</time>
      </trkpt>
      <trkpt lat="44.51326" lon="6.24214">
        <ele>1387.1999511719</ele>
        <time>2022-04-23T08:44:36.315Z</time>
      </trkpt>
      <trkpt lat="44.51324" lon="6.24218">
        <ele>1387.5999755859</ele>
        <time>2022-04-23T08:44:39.826Z</time>
      </trkpt>
      <trkpt lat="44.51322" lon="6.24219">
        <ele>1387.8000488281</ele>
        <time>2022-04-23T08:44:43.338Z</time>
      </trkpt>
      <trkpt lat="44.51317" lon="6.24222">
        <ele>1388.4000244141</ele>
        <time>2022-04-23T08:44:46.852Z</time>
      </trkpt>
      <trkpt lat="44.51309" lon="6.24225">
        <ele>1389.5999755859</ele>
        <time>2022-04-23T08:44:50.368Z</time>
      </trkpt>
      <trkpt lat="44.51306" lon="6.24228">
        <ele>1390</ele>
        <time>2022-04-23T08:44:53.885Z</time>
      </trkpt>
      <trkpt lat="44.51302" lon="6.24232">
        <ele>1390.5999755859</ele>
        <time>2022-04-23T08:44:57.404Z</time>
      </trkpt>
      <trkpt lat="44.51299" lon="6.24235">
        <ele>1391.1999511719</ele>
        <time>2022-04-23T08:45:00.924Z</time>
      </trkpt>
      <trkpt lat="44.51295" lon="6.2424">
        <ele>1391.5999755859</ele>
        <time>2022-04-23T08:45:04.446Z</time>
      </trkpt>
      <trkpt lat="44.51289" lon="6.24247">
        <ele>1392.5999755859</ele>
        <time>2022-04-23T08:45:07.971Z</time>
      </trkpt>
      <trkpt lat="44.51282" lon="6.24255">
        <ele>1393.8000488281</ele>
        <time>2022-04-23T08:45:11.499Z</time>
      </trkpt>
      <trkpt lat="44.51274" lon="6.24261">
        <ele>1394.8000488281</ele>
        <time>2022-04-23T08:45:15.030Z</time>
      </trkpt>
      <trkpt lat="44.51273" lon="6.24262">
        <ele>1395</ele>
        <time>2022-04-23T08:45:18.561Z</time>
      </trkpt>
      <trkpt lat="44.51267" lon="6.24268">
        <ele>1396.1999511719</ele>
        <time>2022-04-23T08:45:22.094Z</time>
      </trkpt>
      <trkpt lat="44.51261" lon="6.24274">
        <ele>1397.1999511719</ele>
        <time>2022-04-23T08:45:25.630Z</time>
      </trkpt>
      <trkpt lat="44.51255" lon="6.24282">
        <ele>1398.4000244141</ele>
        <time>2022-04-23T08:45:29.169Z</time>
      </trkpt>
      <trkpt lat="44.51254" lon="6.24284">
        <ele>1398.5999755859</ele>
        <time>2022-04-23T08:45:32.708Z</time>
      </trkpt>
      <trkpt lat="44.51248" lon="6.24287">
        <ele>1399.5999755859</ele>
        <time>2022-04-23T08:45:36.250Z</time>
      </trkpt>
      <trkpt lat="44.51243" lon="6.2429">
        <ele>1400.1999511719</ele>
        <time>2022-04-23T08:45:39.793Z</time>
      </trkpt>
      <trkpt lat="44.51239" lon="6.24292">
        <ele>1400.5999755859</ele>
        <time>2022-04-23T08:45:43.338Z</time>
      </trkpt>
      <trkpt lat="44.51235" lon="6.24295">
        <ele>1401.1999511719</ele>
        <time>2022-04-23T08:45:46.884Z</time>
      </trkpt>
      <trkpt lat="44.51233" lon="6.24297">
        <ele>1401.8000488281</ele>
        <time>2022-04-23T08:45:50.431Z</time>
      </trkpt>
      <trkpt lat="44.51232" lon="6.24298">
        <ele>1402</ele>
        <time>2022-04-23T08:45:53.978Z</time>
      </trkpt>
      <trkpt lat="44.51229" lon="6.24301">
        <ele>1402.4000244141</ele>
        <time>2022-04-23T08:45:57.527Z</time>
      </trkpt>
      <trkpt lat="44.51223" lon="6.24304">
        <ele>1402.8000488281</ele>
        <time>2022-04-23T08:46:01.078Z</time>
      </trkpt>
      <trkpt lat="44.51218" lon="6.24311">
        <ele>1403.8000488281</ele>
        <time>2022-04-23T08:46:04.631Z</time>
      </trkpt>
      <trkpt lat="44.51217" lon="6.24313">
        <ele>1404</ele>
        <time>2022-04-23T08:46:08.185Z</time>
      </trkpt>
      <trkpt lat="44.51212" lon="6.2432">
        <ele>1404.8000488281</ele>
        <time>2022-04-23T08:46:11.741Z</time>
      </trkpt>
      <trkpt lat="44.5121" lon="6.2432">
        <ele>1405</ele>
        <time>2022-04-23T08:46:15.297Z</time>
      </trkpt>
      <trkpt lat="44.51209" lon="6.2432">
        <ele>1405.1999511719</ele>
        <time>2022-04-23T08:46:18.854Z</time>
      </trkpt>
      <trkpt lat="44.51205" lon="6.24315">
        <ele>1406</ele>
        <time>2022-04-23T08:46:22.413Z</time>
      </trkpt>
      <trkpt lat="44.51204" lon="6.24314">
        <ele>1406.1999511719</ele>
        <time>2022-04-23T08:46:25.972Z</time>
      </trkpt>
      <trkpt lat="44.51204" lon="6.24312">
        <ele>1406.4000244141</ele>
        <time>2022-04-23T08:46:29.532Z</time>
      </trkpt>
      <trkpt lat="44.51205" lon="6.24304">
        <ele>1406.8000488281</ele>
        <time>2022-04-23T08:46:33.093Z</time>
      </trkpt>
      <trkpt lat="44.51208" lon="6.24295">
        <ele>1407</ele>
        <time>2022-04-23T08:46:36.657Z</time>
      </trkpt>
      <trkpt lat="44.51211" lon="6.24284">
        <ele>1407.5999755859</ele>
        <time>2022-04-23T08:46:40.224Z</time>
      </trkpt>
      <trkpt lat="44.51213" lon="6.24276">
        <ele>1408.1999511719</ele>
        <time>2022-04-23T08:46:43.793Z</time>
      </trkpt>
      <trkpt lat="44.51215" lon="6.24264">
        <ele>1408.8000488281</ele>
        <time>2022-04-23T08:46:47.365Z</time>
      </trkpt>
      <trkpt lat="44.51215" lon="6.24249">
        <ele>1409</ele>
        <time>2022-04-23T08:46:50.940Z</time>
      </trkpt>
      <trkpt lat="44.51216" lon="6.24247">
        <ele>1409</ele>
        <time>2022-04-23T08:46:54.516Z</time>
      </trkpt>
      <trkpt lat="44.51214" lon="6.24238">
        <ele>1409.1999511719</ele>
        <time>2022-04-23T08:46:58.094Z</time>
      </trkpt>
      <trkpt lat="44.51212" lon="6.24236">
        <ele>1409.4000244141</ele>
        <time>2022-04-23T08:47:01.672Z</time>
      </trkpt>
      <trkpt lat="44.51207" lon="6.2424">
        <ele>1409.5999755859</ele>
        <time>2022-04-23T08:47:05.252Z</time>
      </trkpt>
      <trkpt lat="44.51205" lon="6.24245">
        <ele>1409.8000488281</ele>
        <time>2022-04-23T08:47:08.834Z</time>
      </trkpt>
      <trkpt lat="44.51204" lon="6.24246">
        <ele>1410</ele>
        <time>2022-04-23T08:47:12.416Z</time>
      </trkpt>
      <trkpt lat="44.51202" lon="6.24249">
        <ele>1410.4000244141</ele>
        <time>2022-04-23T08:47:15.999Z</time>
      </trkpt>
      <trkpt lat="44.51197" lon="6.24256">
        <ele>1411</ele>
        <time>2022-04-23T08:47:19.584Z</time>
      </trkpt>
      <trkpt lat="44.51193" lon="6.2426">
        <ele>1411.5999755859</ele>
        <time>2022-04-23T08:47:23.171Z</time>
      </trkpt>
      <trkpt lat="44.51191" lon="6.24264">
        <ele>1412</ele>
        <time>2022-04-23T08:47:26.759Z</time>
      </trkpt>
      <trkpt lat="44.51185" lon="6.2427">
        <ele>1413</ele>
        <time>2022-04-23T08:47:30.350Z</time>
      </trkpt>
      <trkpt lat="44.51183" lon="6.24271">
        <ele>1413.1999511719</ele>
        <time>2022-04-23T08:47:33.941Z</time>
      </trkpt>
      <trkpt lat="44.51177" lon="6.24278">
        <ele>1414.1999511719</ele>
        <time>2022-04-23T08:47:37.535Z</time>
      </trkpt>
      <trkpt lat="44.51175" lon="6.24279">
        <ele>1414.5999755859</ele>
        <time>2022-04-23T08:47:41.129Z</time>
      </trkpt>
      <trkpt lat="44.51169" lon="6.24283">
        <ele>1415.4000244141</ele>
        <time>2022-04-23T08:47:44.726Z</time>
      </trkpt>
      <trkpt lat="44.51162" lon="6.24286">
        <ele>1416.4000244141</ele>
        <time>2022-04-23T08:47:48.325Z</time>
      </trkpt>
      <trkpt lat="44.51155" lon="6.2429">
        <ele>1417.4000244141</ele>
        <time>2022-04-23T08:47:51.927Z</time>
      </trkpt>
      <trkpt lat="44.51149" lon="6.24295">
        <ele>1418.4000244141</ele>
        <time>2022-04-23T08:47:55.531Z</time>
      </trkpt>
      <trkpt lat="44.51142" lon="6.24304">
        <ele>1419.8000488281</ele>
        <time>2022-04-23T08:47:59.138Z</time>
      </trkpt>
      <trkpt lat="44.51137" lon="6.24312">
        <ele>1421</ele>
        <time>2022-04-23T08:48:02.747Z</time>
      </trkpt>
      <trkpt lat="44.51133" lon="6.2432">
        <ele>1422.1999511719</ele>
        <time>2022-04-23T08:48:06.359Z</time>
      </trkpt>
      <trkpt lat="44.51128" lon="6.24328">
        <ele>1423.1999511719</ele>
        <time>2022-04-23T08:48:09.973Z</time>
      </trkpt>
      <trkpt lat="44.51127" lon="6.2433">
        <ele>1423.5999755859</ele>
        <time>2022-04-23T08:48:13.588Z</time>
      </trkpt>
      <trkpt lat="44.51123" lon="6.24337">
        <ele>1424.4000244141</ele>
        <time>2022-04-23T08:48:17.205Z</time>
      </trkpt>
      <trkpt lat="44.51118" lon="6.24344">
        <ele>1425.4000244141</ele>
        <time>2022-04-23T08:48:20.824Z</time>
      </trkpt>
      <trkpt lat="44.51117" lon="6.24346">
        <ele>1425.5999755859</ele>
        <time>2022-04-23T08:48:24.444Z</time>
      </trkpt>
      <trkpt lat="44.51115" lon="6.2435">
        <ele>1426.4000244141</ele>
        <time>2022-04-23T08:48:28.065Z</time>
      </trkpt>
      <trkpt lat="44.51111" lon="6.24357">
        <ele>1427.4000244141</ele>
        <time>2022-04-23T08:48:31.688Z</time>
      </trkpt>
      <trkpt lat="44.51108" lon="6.24366">
        <ele>1428.5999755859</ele>
        <time>2022-04-23T08:48:35.314Z</time>
      </trkpt>
      <trkpt lat="44.51104" lon="6.24374">
        <ele>1429.8000488281</ele>
        <time>2022-04-23T08:48:38.942Z</time>
      </trkpt>
      <trkpt lat="44.51101" lon="6.24377">
        <ele>1430.1999511719</ele>
        <time>2022-04-23T08:48:42.571Z</time>
      </trkpt>
      <trkpt lat="44.511" lon="6.24382">
        <ele>1430.8000488281</ele>
        <time>2022-04-23T08:48:46.201Z</time>
      </trkpt>
      <trkpt lat="44.51097" lon="6.24387">
        <ele>1432</ele>
        <time>2022-04-23T08:48:49.833Z</time>
      </trkpt>
      <trkpt lat="44.51095" lon="6.24393">
        <ele>1433</ele>
        <time>2022-04-23T08:48:53.466Z</time>
      </trkpt>
      <trkpt lat="44.51094" lon="6.24398">
        <ele>1433.8000488281</ele>
        <time>2022-04-23T08:48:57.101Z</time>
      </trkpt>
      <trkpt lat="44.51092" lon="6.24405">
        <ele>1435</ele>
        <time>2022-04-23T08:49:00.737Z</time>
      </trkpt>
      <trkpt lat="44.5109" lon="6.24413">
        <ele>1436.1999511719</ele>
        <time>2022-04-23T08:49:04.375Z</time>
      </trkpt>
      <trkpt lat="44.51089" lon="6.24421">
        <ele>1437</ele>
        <time>2022-04-23T08:49:08.015Z</time>
      </trkpt>
      <trkpt lat="44.51088" lon="6.24423">
        <ele>1437.4000244141</ele>
        <time>2022-04-23T08:49:11.656Z</time>
      </trkpt>
      <trkpt lat="44.51086" lon="6.24431">
        <ele>1438.1999511719</ele>
        <time>2022-04-23T08:49:15.299Z</time>
      </trkpt>
      <trkpt lat="44.51086" lon="6.24433">
        <ele>1438.4000244141</ele>
        <time>2022-04-23T08:49:18.942Z</time>
      </trkpt>
      <trkpt lat="44.51084" lon="6.24443">
        <ele>1439.4000244141</ele>
        <time>2022-04-23T08:49:22.588Z</time>
      </trkpt>
      <trkpt lat="44.51082" lon="6.24449">
        <ele>1440.4000244141</ele>
        <time>2022-04-23T08:49:26.235Z</time>
      </trkpt>
      <trkpt lat="44.5108" lon="6.24458">
        <ele>1441.4000244141</ele>
        <time>2022-04-23T08:49:29.885Z</time>
      </trkpt>
      <trkpt lat="44.51078" lon="6.24464">
        <ele>1442.5999755859</ele>
        <time>2022-04-23T08:49:33.536Z</time>
      </trkpt>
      <trkpt lat="44.51078" lon="6.24466">
        <ele>1443</ele>
        <time>2022-04-23T08:49:37.188Z</time>
      </trkpt>
      <trkpt lat="44.51077" lon="6.24471">
        <ele>1443.8000488281</ele>
        <time>2022-04-23T08:49:40.841Z</time>
      </trkpt>
      <trkpt lat="44.51076" lon="6.24478">
        <ele>1445</ele>
        <time>2022-04-23T08:49:44.495Z</time>
      </trkpt>
      <trkpt lat="44.51075" lon="6.24482">
        <ele>1445.8000488281</ele>
        <time>2022-04-23T08:49:48.150Z</time>
      </trkpt>
      <trkpt lat="44.51075" lon="6.24485">
        <ele>1446.1999511719</ele>
        <time>2022-04-23T08:49:51.806Z</time>
      </trkpt>
      <trkpt lat="44.51075" lon="6.24492">
        <ele>1447.4000244141</ele>
        <time>2022-04-23T08:49:55.464Z</time>
      </trkpt>
      <trkpt lat="44.51074" lon="6.24502">
        <ele>1448.4000244141</ele>
        <time>2022-04-23T08:49:59.124Z</time>
      </trkpt>
      <trkpt lat="44.51074" lon="6.2451">
        <ele>1449.5999755859</ele>
        <time>2022-04-23T08:50:02.786Z</time>
      </trkpt>
      <trkpt lat="44.51074" lon="6.24515">
        <ele>1450.4000244141</ele>
        <time>2022-04-23T08:50:06.449Z</time>
      </trkpt>
      <trkpt lat="44.51074" lon="6.24522">
        <ele>1451.5999755859</ele>
        <time>2022-04-23T08:50:10.114Z</time>
      </trkpt>
      <trkpt lat="44.51073" lon="6.24529">
        <ele>1452.8000488281</ele>
        <time>2022-04-23T08:50:13.781Z</time>
      </trkpt>
      <trkpt lat="44.51074" lon="6.24538">
        <ele>1454.1999511719</ele>
        <time>2022-04-23T08:50:17.450Z</time>
      </trkpt>
      <trkpt lat="44.51075" lon="6.24546">
        <ele>1455.4000244141</ele>
        <time>2022-04-23T08:50:21.121Z</time>
      </trkpt>
      <trkpt lat="44.51076" lon="6.24553">
        <ele>1456.5999755859</ele>
        <time>2022-04-23T08:50:24.793Z</time>
      </trkpt>
      <trkpt lat="44.51077" lon="6.24559">
        <ele>1457.8000488281</ele>
        <time>2022-04-23T08:50:28.467Z</time>
      </trkpt>
      <trkpt lat="44.51079" lon="6.24568">
        <ele>1458.8000488281</ele>
        <time>2022-04-23T08:50:32.143Z</time>
      </trkpt>
      <trkpt lat="44.51079" lon="6.24575">
        <ele>1459.8000488281</ele>
        <time>2022-04-23T08:50:35.821Z</time>
      </trkpt>
      <trkpt lat="44.5108" lon="6.24581">
        <ele>1461</ele>
        <time>2022-04-23T08:50:39.500Z</time>
      </trkpt>
      <trkpt lat="44.51079" lon="6.24588">
        <ele>1462.1999511719</ele>
        <time>2022-04-23T08:50:43.181Z</time>
      </trkpt>
      <trkpt lat="44.51078" lon="6.24598">
        <ele>1463.5999755859</ele>
        <time>2022-04-23T08:50:46.864Z</time>
      </trkpt>
      <trkpt lat="44.51078" lon="6.24606">
        <ele>1464.5999755859</ele>
        <time>2022-04-23T08:50:50.549Z</time>
      </trkpt>
      <trkpt lat="44.51077" lon="6.24611">
        <ele>1465.1999511719</ele>
        <time>2022-04-23T08:50:54.235Z</time>
      </trkpt>
      <trkpt lat="44.51077" lon="6.24617">
        <ele>1465.5999755859</ele>
        <time>2022-04-23T08:50:57.923Z</time>
      </trkpt>
      <trkpt lat="44.51076" lon="6.24629">
        <ele>1466.8000488281</ele>
        <time>2022-04-23T08:51:01.614Z</time>
      </trkpt>
      <trkpt lat="44.51076" lon="6.24632">
        <ele>1467</ele>
        <time>2022-04-23T08:51:05.305Z</time>
      </trkpt>
      <trkpt lat="44.51075" lon="6.24642">
        <ele>1467.8000488281</ele>
        <time>2022-04-23T08:51:08.999Z</time>
      </trkpt>
      <trkpt lat="44.51073" lon="6.24647">
        <ele>1468.5999755859</ele>
        <time>2022-04-23T08:51:12.694Z</time>
      </trkpt>
      <trkpt lat="44.51072" lon="6.24651">
        <ele>1469</ele>
        <time>2022-04-23T08:51:16.390Z</time>
      </trkpt>
      <trkpt lat="44.51069" lon="6.24662">
        <ele>1470</ele>
        <time>2022-04-23T08:51:20.089Z</time>
      </trkpt>
      <trkpt lat="44.51068" lon="6.24665">
        <ele>1470</ele>
        <time>2022-04-23T08:51:23.788Z</time>
      </trkpt>
      <trkpt lat="44.51065" lon="6.24676">
        <ele>1471</ele>
        <time>2022-04-23T08:51:27.490Z</time>
      </trkpt>
      <trkpt lat="44.51065" lon="6.24678">
        <ele>1471.1999511719</ele>
        <time>2022-04-23T08:51:31.193Z</time>
      </trkpt>
      <trkpt lat="44.51063" lon="6.24688">
        <ele>1472.1999511719</ele>
        <time>2022-04-23T08:51:34.898Z</time>
      </trkpt>
      <trkpt lat="44.51062" lon="6.2469">
        <ele>1472.4000244141</ele>
        <time>2022-04-23T08:51:38.604Z</time>
      </trkpt>
      <trkpt lat="44.51061" lon="6.247">
        <ele>1473.1999511719</ele>
        <time>2022-04-23T08:51:42.312Z</time>
      </trkpt>
      <trkpt lat="44.51061" lon="6.24707">
        <ele>1474</ele>
        <time>2022-04-23T08:51:46.022Z</time>
      </trkpt>
      <trkpt lat="44.5106" lon="6.24712">
        <ele>1474.1999511719</ele>
        <time>2022-04-23T08:51:49.733Z</time>
      </trkpt>
      <trkpt lat="44.51059" lon="6.2472">
        <ele>1475.1999511719</ele>
        <time>2022-04-23T08:51:53.446Z</time>
      </trkpt>
      <trkpt lat="44.51059" lon="6.24725">
        <ele>1475.8000488281</ele>
        <time>2022-04-23T08:51:57.160Z</time>
      </trkpt>
      <trkpt lat="44.51059" lon="6.24729">
        <ele>1476.4000244141</ele>
        <time>2022-04-23T08:52:00.875Z</time>
      </trkpt>
      <trkpt lat="44.51058" lon="6.24738">
        <ele>1477.4000244141</ele>
        <time>2022-04-23T08:52:04.592Z</time>
      </trkpt>
      <trkpt lat="44.51057" lon="6.24741">
        <ele>1477.5999755859</ele>
        <time>2022-04-23T08:52:08.310Z</time>
      </trkpt>
      <trkpt lat="44.51056" lon="6.2475">
        <ele>1478.4000244141</ele>
        <time>2022-04-23T08:52:12.030Z</time>
      </trkpt>
      <trkpt lat="44.51056" lon="6.2476">
        <ele>1479.1999511719</ele>
        <time>2022-04-23T08:52:15.752Z</time>
      </trkpt>
      <trkpt lat="44.51056" lon="6.24765">
        <ele>1479.4000244141</ele>
        <time>2022-04-23T08:52:19.476Z</time>
      </trkpt>
      <trkpt lat="44.51055" lon="6.24776">
        <ele>1480.5999755859</ele>
        <time>2022-04-23T08:52:23.202Z</time>
      </trkpt>
      <trkpt lat="44.51054" lon="6.24782">
        <ele>1481.1999511719</ele>
        <time>2022-04-23T08:52:26.930Z</time>
      </trkpt>
      <trkpt lat="44.51054" lon="6.24786">
        <ele>1481.5999755859</ele>
        <time>2022-04-23T08:52:30.659Z</time>
      </trkpt>
      <trkpt lat="44.5105" lon="6.24799">
        <ele>1482.4000244141</ele>
        <time>2022-04-23T08:52:34.391Z</time>
      </trkpt>
      <trkpt lat="44.51049" lon="6.24804">
        <ele>1482.5999755859</ele>
        <time>2022-04-23T08:52:38.124Z</time>
      </trkpt>
      <trkpt lat="44.51046" lon="6.24812">
        <ele>1483.5999755859</ele>
        <time>2022-04-23T08:52:41.859Z</time>
      </trkpt>
      <trkpt lat="44.51045" lon="6.24817">
        <ele>1484.1999511719</ele>
        <time>2022-04-23T08:52:45.596Z</time>
      </trkpt>
      <trkpt lat="44.51042" lon="6.24826">
        <ele>1484.5999755859</ele>
        <time>2022-04-23T08:52:49.335Z</time>
      </trkpt>
      <trkpt lat="44.5104" lon="6.24831">
        <ele>1485</ele>
        <time>2022-04-23T08:52:53.075Z</time>
      </trkpt>
      <trkpt lat="44.51038" lon="6.24841">
        <ele>1485.8000488281</ele>
        <time>2022-04-23T08:52:56.818Z</time>
      </trkpt>
      <trkpt lat="44.51037" lon="6.24843">
        <ele>1486</ele>
        <time>2022-04-23T08:53:00.561Z</time>
      </trkpt>
      <trkpt lat="44.51036" lon="6.24845">
        <ele>1486.1999511719</ele>
        <time>2022-04-23T08:53:04.305Z</time>
      </trkpt>
      <trkpt lat="44.51033" lon="6.24854">
        <ele>1486.5999755859</ele>
        <time>2022-04-23T08:53:08.051Z</time>
      </trkpt>
      <trkpt lat="44.51032" lon="6.24858">
        <ele>1486.8000488281</ele>
        <time>2022-04-23T08:53:11.798Z</time>
      </trkpt>
      <trkpt lat="44.51028" lon="6.24869">
        <ele>1488</ele>
        <time>2022-04-23T08:53:15.548Z</time>
      </trkpt>
      <trkpt lat="44.51027" lon="6.24874">
        <ele>1488</ele>
        <time>2022-04-23T08:53:19.299Z</time>
      </trkpt>
      <trkpt lat="44.51025" lon="6.24881">
        <ele>1488.8000488281</ele>
        <time>2022-04-23T08:53:23.052Z</time>
      </trkpt>
      <trkpt lat="44.51022" lon="6.2489">
        <ele>1490</ele>
        <time>2022-04-23T08:53:26.808Z</time>
      </trkpt>
      <trkpt lat="44.5102" lon="6.24895">
        <ele>1490.4000244141</ele>
        <time>2022-04-23T08:53:30.565Z</time>
      </trkpt>
      <trkpt lat="44.51018" lon="6.249">
        <ele>1491</ele>
        <time>2022-04-23T08:53:34.323Z</time>
      </trkpt>
      <trkpt lat="44.51015" lon="6.24908">
        <ele>1492.4000244141</ele>
        <time>2022-04-23T08:53:38.083Z</time>
      </trkpt>
      <trkpt lat="44.51014" lon="6.2491">
        <ele>1492.5999755859</ele>
        <time>2022-04-23T08:53:41.844Z</time>
      </trkpt>
      <trkpt lat="44.51007" lon="6.24923">
        <ele>1493.4000244141</ele>
        <time>2022-04-23T08:53:45.609Z</time>
      </trkpt>
      <trkpt lat="44.51002" lon="6.2493">
        <ele>1494.5999755859</ele>
        <time>2022-04-23T08:53:49.376Z</time>
      </trkpt>
      <trkpt lat="44.51001" lon="6.24932">
        <ele>1494.8000488281</ele>
        <time>2022-04-23T08:53:53.144Z</time>
      </trkpt>
      <trkpt lat="44.50995" lon="6.2494">
        <ele>1495.8000488281</ele>
        <time>2022-04-23T08:53:56.914Z</time>
      </trkpt>
      <trkpt lat="44.50993" lon="6.24944">
        <ele>1496.1999511719</ele>
        <time>2022-04-23T08:54:00.686Z</time>
      </trkpt>
      <trkpt lat="44.5099" lon="6.24948">
        <ele>1496.8000488281</ele>
        <time>2022-04-23T08:54:04.459Z</time>
      </trkpt>
      <trkpt lat="44.50985" lon="6.24955">
        <ele>1497.8000488281</ele>
        <time>2022-04-23T08:54:08.234Z</time>
      </trkpt>
      <trkpt lat="44.50984" lon="6.24957">
        <ele>1498.1999511719</ele>
        <time>2022-04-23T08:54:12.010Z</time>
      </trkpt>
      <trkpt lat="44.50979" lon="6.24964">
        <ele>1499</ele>
        <time>2022-04-23T08:54:15.788Z</time>
      </trkpt>
      <trkpt lat="44.50977" lon="6.24968">
        <ele>1499.5999755859</ele>
        <time>2022-04-23T08:54:19.567Z</time>
      </trkpt>
      <trkpt lat="44.50975" lon="6.24972">
        <ele>1500.1999511719</ele>
        <time>2022-04-23T08:54:23.348Z</time>
      </trkpt>
      <trkpt lat="44.50972" lon="6.24979">
        <ele>1501</ele>
        <time>2022-04-23T08:54:27.131Z</time>
      </trkpt>
      <trkpt lat="44.50971" lon="6.24981">
        <ele>1501.4000244141</ele>
        <time>2022-04-23T08:54:30.914Z</time>
      </trkpt>
      <trkpt lat="44.50967" lon="6.24986">
        <ele>1502.4000244141</ele>
        <time>2022-04-23T08:54:34.699Z</time>
      </trkpt>
      <trkpt lat="44.50966" lon="6.24988">
        <ele>1502.5999755859</ele>
        <time>2022-04-23T08:54:38.485Z</time>
      </trkpt>
      <trkpt lat="44.50961" lon="6.24995">
        <ele>1503.8000488281</ele>
        <time>2022-04-23T08:54:42.273Z</time>
      </trkpt>
      <trkpt lat="44.50957" lon="6.24998">
        <ele>1504.1999511719</ele>
        <time>2022-04-23T08:54:46.062Z</time>
      </trkpt>
      <trkpt lat="44.50955" lon="6.25001">
        <ele>1505</ele>
        <time>2022-04-23T08:54:49.852Z</time>
      </trkpt>
      <trkpt lat="44.5095" lon="6.25004">
        <ele>1506</ele>
        <time>2022-04-23T08:54:53.644Z</time>
      </trkpt>
      <trkpt lat="44.50948" lon="6.25007">
        <ele>1506.8000488281</ele>
        <time>2022-04-23T08:54:57.437Z</time>
      </trkpt>
      <trkpt lat="44.50947" lon="6.25008">
        <ele>1507</ele>
        <time>2022-04-23T08:55:01.230Z</time>
      </trkpt>
      <trkpt lat="44.50941" lon="6.25012">
        <ele>1508</ele>
        <time>2022-04-23T08:55:05.025Z</time>
      </trkpt>
      <trkpt lat="44.50935" lon="6.25016">
        <ele>1509</ele>
        <time>2022-04-23T08:55:08.823Z</time>
      </trkpt>
      <trkpt lat="44.5093" lon="6.25019">
        <ele>1510.1999511719</ele>
        <time>2022-04-23T08:55:12.623Z</time>
      </trkpt>
      <trkpt lat="44.50924" lon="6.25022">
        <ele>1511.4000244141</ele>
        <time>2022-04-23T08:55:16.425Z</time>
      </trkpt>
      <trkpt lat="44.5092" lon="6.25024">
        <ele>1512</ele>
        <time>2022-04-23T08:55:20.228Z</time>
      </trkpt>
      <trkpt lat="44.50919" lon="6.25024">
        <ele>1512.1999511719</ele>
        <time>2022-04-23T08:55:24.031Z</time>
      </trkpt>
      <trkpt lat="44.50915" lon="6.25026">
        <ele>1513.1999511719</ele>
        <time>2022-04-23T08:55:27.836Z</time>
      </trkpt>
      <trkpt lat="44.50914" lon="6.25027">
        <ele>1513.8000488281</ele>
        <time>2022-04-23T08:55:31.641Z</time>
      </trkpt>
      <trkpt lat="44.50911" lon="6.25031">
        <ele>1514.8000488281</ele>
        <time>2022-04-23T08:55:35.447Z</time>
      </trkpt>
      <trkpt lat="44.50909" lon="6.25034">
        <ele>1515.4000244141</ele>
        <time>2022-04-23T08:55:39.254Z</time>
      </trkpt>
      <trkpt lat="44.50907" lon="6.25037">
        <ele>1516</ele>
        <time>2022-04-23T08:55:43.062Z</time>
      </trkpt>
      <trkpt lat="44.50902" lon="6.25042">
        <ele>1516.8000488281</ele>
        <time>2022-04-23T08:55:46.873Z</time>
      </trkpt>
      <trkpt lat="44.50899" lon="6.25046">
        <ele>1517.4000244141</ele>
        <time>2022-04-23T08:55:50.685Z</time>
      </trkpt>
      <trkpt lat="44.50896" lon="6.2505">
        <ele>1518</ele>
        <time>2022-04-23T08:55:54.498Z</time>
      </trkpt>
      <trkpt lat="44.50892" lon="6.25055">
        <ele>1518.5999755859</ele>
        <time>2022-04-23T08:55:58.313Z</time>
      </trkpt>
      <trkpt lat="44.5089" lon="6.2506">
        <ele>1518.8000488281</ele>
        <time>2022-04-23T08:56:02.129Z</time>
      </trkpt>
      <trkpt lat="44.50881" lon="6.25068">
        <ele>1519.8000488281</ele>
        <time>2022-04-23T08:56:05.949Z</time>
      </trkpt>
      <trkpt lat="44.50879" lon="6.25069">
        <ele>1520.1999511719</ele>
        <time>2022-04-23T08:56:09.769Z</time>
      </trkpt>
      <trkpt lat="44.50872" lon="6.25072">
        <ele>1521</ele>
        <time>2022-04-23T08:56:13.592Z</time>
      </trkpt>
      <trkpt lat="44.50871" lon="6.25073">
        <ele>1521.1999511719</ele>
        <time>2022-04-23T08:56:17.415Z</time>
      </trkpt>
      <trkpt lat="44.5086" lon="6.25085">
        <ele>1521.8000488281</ele>
        <time>2022-04-23T08:56:21.243Z</time>
      </trkpt>
      <trkpt lat="44.50858" lon="6.25087">
        <ele>1521.8000488281</ele>
        <time>2022-04-23T08:56:25.072Z</time>
      </trkpt>
      <trkpt lat="44.50848" lon="6.25101">
        <ele>1522</ele>
        <time>2022-04-23T08:56:28.906Z</time>
      </trkpt>
      <trkpt lat="44.50839" lon="6.25116">
        <ele>1522.4000244141</ele>
        <time>2022-04-23T08:56:32.744Z</time>
      </trkpt>
      <trkpt lat="44.50829" lon="6.25129">
        <ele>1522</ele>
        <time>2022-04-23T08:56:36.587Z</time>
      </trkpt>
      <trkpt lat="44.50817" lon="6.25145">
        <ele>1521.4000244141</ele>
        <time>2022-04-23T08:56:40.435Z</time>
      </trkpt>
      <trkpt lat="44.50811" lon="6.25158">
        <ele>1521.4000244141</ele>
        <time>2022-04-23T08:56:44.287Z</time>
      </trkpt>
      <trkpt lat="44.50801" lon="6.2517">
        <ele>1520.5999755859</ele>
        <time>2022-04-23T08:56:48.143Z</time>
      </trkpt>
      <trkpt lat="44.50791" lon="6.25182">
        <ele>1521</ele>
        <time>2022-04-23T08:56:52.003Z</time>
      </trkpt>
      <trkpt lat="44.50781" lon="6.25195">
        <ele>1522.1999511719</ele>
        <time>2022-04-23T08:56:55.868Z</time>
      </trkpt>
      <trkpt lat="44.5078" lon="6.25197">
        <ele>1522.4000244141</ele>
        <time>2022-04-23T08:56:59.734Z</time>
      </trkpt>
      <trkpt lat="44.50773" lon="6.25207">
        <ele>1523</ele>
        <time>2022-04-23T08:57:03.603Z</time>
      </trkpt>
      <trkpt lat="44.50763" lon="6.25218">
        <ele>1523</ele>
        <time>2022-04-23T08:57:07.476Z</time>
      </trkpt>
      <trkpt lat="44.50755" lon="6.25229">
        <ele>1522</ele>
        <time>2022-04-23T08:57:11.353Z</time>
      </trkpt>
      <trkpt lat="44.50743" lon="6.25242">
        <ele>1521.1999511719</ele>
        <time>2022-04-23T08:57:15.235Z</time>
      </trkpt>
      <trkpt lat="44.50741" lon="6.25245">
        <ele>1520.8000488281</ele>
        <time>2022-04-23T08:57:19.118Z</time>
      </trkpt>
      <trkpt lat="44.5073" lon="6.25261">
        <ele>1520.1999511719</ele>
        <time>2022-04-23T08:57:23.006Z</time>
      </trkpt>
      <trkpt lat="44.50721" lon="6.25277">
        <ele>1520.4000244141</ele>
        <time>2022-04-23T08:57:26.899Z</time>
      </trkpt>
      <trkpt lat="44.50713" lon="6.25293">
        <ele>1521</ele>
        <time>2022-04-23T08:57:30.796Z</time>
      </trkpt>
      <trkpt lat="44.50703" lon="6.2531">
        <ele>1521.5999755859</ele>
        <time>2022-04-23T08:57:34.699Z</time>
      </trkpt>
      <trkpt lat="44.50699" lon="6.25314">
        <ele>1521.8000488281</ele>
        <time>2022-04-23T08:57:38.603Z</time>
      </trkpt>
      <trkpt lat="44.50694" lon="6.25323">
        <ele>1522</ele>
        <time>2022-04-23T08:57:42.510Z</time>
      </trkpt>
      <trkpt lat="44.50686" lon="6.25339">
        <ele>1521.8000488281</ele>
        <time>2022-04-23T08:57:46.422Z</time>
      </trkpt>
      <trkpt lat="44.50677" lon="6.25362">
        <ele>1522.1999511719</ele>
        <time>2022-04-23T08:57:50.340Z</time>
      </trkpt>
      <trkpt lat="44.50673" lon="6.25371">
        <ele>1522.5999755859</ele>
        <time>2022-04-23T08:57:54.260Z</time>
      </trkpt>
      <trkpt lat="44.50672" lon="6.25373">
        <ele>1522.8000488281</ele>
        <time>2022-04-23T08:57:58.181Z</time>
      </trkpt>
      <trkpt lat="44.50669" lon="6.25384">
        <ele>1523.5999755859</ele>
        <time>2022-04-23T08:58:02.105Z</time>
      </trkpt>
      <trkpt lat="44.50667" lon="6.25388">
        <ele>1523.8000488281</ele>
        <time>2022-04-23T08:58:06.030Z</time>
      </trkpt>
      <trkpt lat="44.50665" lon="6.25397">
        <ele>1524.4000244141</ele>
        <time>2022-04-23T08:58:09.957Z</time>
      </trkpt>
      <trkpt lat="44.50663" lon="6.25402">
        <ele>1524.5999755859</ele>
        <time>2022-04-23T08:58:13.885Z</time>
      </trkpt>
      <trkpt lat="44.5066" lon="6.25414">
        <ele>1524.8000488281</ele>
        <time>2022-04-23T08:58:17.817Z</time>
      </trkpt>
      <trkpt lat="44.50656" lon="6.2543">
        <ele>1524</ele>
        <time>2022-04-23T08:58:21.753Z</time>
      </trkpt>
      <trkpt lat="44.50654" lon="6.2544">
        <ele>1523.1999511719</ele>
        <time>2022-04-23T08:58:25.691Z</time>
      </trkpt>
      <trkpt lat="44.50656" lon="6.25448">
        <ele>1522.5999755859</ele>
        <time>2022-04-23T08:58:29.631Z</time>
      </trkpt>
      <trkpt lat="44.50656" lon="6.25451">
        <ele>1522.1999511719</ele>
        <time>2022-04-23T08:58:33.572Z</time>
      </trkpt>
      <trkpt lat="44.50656" lon="6.25465">
        <ele>1521.4000244141</ele>
        <time>2022-04-23T08:58:37.516Z</time>
      </trkpt>
      <trkpt lat="44.50656" lon="6.25472">
        <ele>1521.1999511719</ele>
        <time>2022-04-23T08:58:41.462Z</time>
      </trkpt>
      <trkpt lat="44.50652" lon="6.25487">
        <ele>1520.1999511719</ele>
        <time>2022-04-23T08:58:45.411Z</time>
      </trkpt>
      <trkpt lat="44.5065" lon="6.25495">
        <ele>1519.8000488281</ele>
        <time>2022-04-23T08:58:49.362Z</time>
      </trkpt>
      <trkpt lat="44.50647" lon="6.2551">
        <ele>1518.4000244141</ele>
        <time>2022-04-23T08:58:53.317Z</time>
      </trkpt>
      <trkpt lat="44.50643" lon="6.25528">
        <ele>1517.4000244141</ele>
        <time>2022-04-23T08:58:57.276Z</time>
      </trkpt>
      <trkpt lat="44.5064" lon="6.25536">
        <ele>1517</ele>
        <time>2022-04-23T08:59:01.238Z</time>
      </trkpt>
      <trkpt lat="44.50632" lon="6.25568">
        <ele>1515.8000488281</ele>
        <time>2022-04-23T08:59:05.208Z</time>
      </trkpt>
      <trkpt lat="44.50628" lon="6.25585">
        <ele>1514.8000488281</ele>
        <time>2022-04-23T08:59:09.182Z</time>
      </trkpt>
      <trkpt lat="44.50625" lon="6.25594">
        <ele>1514.4000244141</ele>
        <time>2022-04-23T08:59:13.158Z</time>
      </trkpt>
      <trkpt lat="44.50622" lon="6.25603">
        <ele>1514</ele>
        <time>2022-04-23T08:59:17.137Z</time>
      </trkpt>
      <trkpt lat="44.50618" lon="6.25613">
        <ele>1513.1999511719</ele>
        <time>2022-04-23T08:59:21.118Z</time>
      </trkpt>
      <trkpt lat="44.50611" lon="6.2563">
        <ele>1512</ele>
        <time>2022-04-23T08:59:25.104Z</time>
      </trkpt>
      <trkpt lat="44.50605" lon="6.25646">
        <ele>1511.1999511719</ele>
        <time>2022-04-23T08:59:29.094Z</time>
      </trkpt>
      <trkpt lat="44.50595" lon="6.25675">
        <ele>1510.8000488281</ele>
        <time>2022-04-23T08:59:33.092Z</time>
      </trkpt>
      <trkpt lat="44.50593" lon="6.25681">
        <ele>1510.8000488281</ele>
        <time>2022-04-23T08:59:37.091Z</time>
      </trkpt>
      <trkpt lat="44.50586" lon="6.25708">
        <ele>1511</ele>
        <time>2022-04-23T08:59:41.097Z</time>
      </trkpt>
      <trkpt lat="44.50585" lon="6.25713">
        <ele>1511</ele>
        <time>2022-04-23T08:59:45.104Z</time>
      </trkpt>
      <trkpt lat="44.50585" lon="6.25721">
        <ele>1510.8000488281</ele>
        <time>2022-04-23T08:59:49.113Z</time>
      </trkpt>
      <trkpt lat="44.50584" lon="6.25729">
        <ele>1510.5999755859</ele>
        <time>2022-04-23T08:59:53.124Z</time>
      </trkpt>
      <trkpt lat="44.5058" lon="6.25742">
        <ele>1510</ele>
        <time>2022-04-23T08:59:57.139Z</time>
      </trkpt>
      <trkpt lat="44.50577" lon="6.25756">
        <ele>1509.1999511719</ele>
        <time>2022-04-23T09:00:01.157Z</time>
      </trkpt>
      <trkpt lat="44.50575" lon="6.25761">
        <ele>1508.1999511719</ele>
        <time>2022-04-23T09:00:05.176Z</time>
      </trkpt>
      <trkpt lat="44.50572" lon="6.25772">
        <ele>1507</ele>
        <time>2022-04-23T09:00:09.198Z</time>
      </trkpt>
      <trkpt lat="44.50572" lon="6.25778">
        <ele>1506</ele>
        <time>2022-04-23T09:00:13.222Z</time>
      </trkpt>
      <trkpt lat="44.50573" lon="6.25792">
        <ele>1504.5999755859</ele>
        <time>2022-04-23T09:00:17.249Z</time>
      </trkpt>
      <trkpt lat="44.50574" lon="6.25799">
        <ele>1503.4000244141</ele>
        <time>2022-04-23T09:00:21.278Z</time>
      </trkpt>
      <trkpt lat="44.50574" lon="6.25808">
        <ele>1502</ele>
        <time>2022-04-23T09:00:25.309Z</time>
      </trkpt>
      <trkpt lat="44.50575" lon="6.25816">
        <ele>1500</ele>
        <time>2022-04-23T09:00:29.342Z</time>
      </trkpt>
      <trkpt lat="44.50575" lon="6.25824">
        <ele>1499</ele>
        <time>2022-04-23T09:00:33.377Z</time>
      </trkpt>
      <trkpt lat="44.50574" lon="6.25833">
        <ele>1498</ele>
        <time>2022-04-23T09:00:37.414Z</time>
      </trkpt>
      <trkpt lat="44.50573" lon="6.25842">
        <ele>1496.8000488281</ele>
        <time>2022-04-23T09:00:41.453Z</time>
      </trkpt>
      <trkpt lat="44.50572" lon="6.2585">
        <ele>1496</ele>
        <time>2022-04-23T09:00:45.494Z</time>
      </trkpt>
      <trkpt lat="44.50572" lon="6.25859">
        <ele>1495</ele>
        <time>2022-04-23T09:00:49.537Z</time>
      </trkpt>
      <trkpt lat="44.50573" lon="6.25868">
        <ele>1494</ele>
        <time>2022-04-23T09:00:53.582Z</time>
      </trkpt>
      <trkpt lat="44.50573" lon="6.25877">
        <ele>1493.5999755859</ele>
        <time>2022-04-23T09:00:57.629Z</time>
      </trkpt>
      <trkpt lat="44.50574" lon="6.25896">
        <ele>1492</ele>
        <time>2022-04-23T09:01:01.681Z</time>
      </trkpt>
      <trkpt lat="44.50574" lon="6.25916">
        <ele>1490.5999755859</ele>
        <time>2022-04-23T09:01:05.737Z</time>
      </trkpt>
      <trkpt lat="44.50573" lon="6.25925">
        <ele>1490.1999511719</ele>
        <time>2022-04-23T09:01:09.796Z</time>
      </trkpt>
      <trkpt lat="44.50569" lon="6.25945">
        <ele>1489.5999755859</ele>
        <time>2022-04-23T09:01:13.859Z</time>
      </trkpt>
      <trkpt lat="44.50567" lon="6.25954">
        <ele>1489.1999511719</ele>
        <time>2022-04-23T09:01:17.925Z</time>
      </trkpt>
      <trkpt lat="44.50564" lon="6.25963">
        <ele>1488.4000244141</ele>
        <time>2022-04-23T09:01:21.993Z</time>
      </trkpt>
      <trkpt lat="44.50562" lon="6.25973">
        <ele>1487.8000488281</ele>
        <time>2022-04-23T09:01:26.064Z</time>
      </trkpt>
      <trkpt lat="44.50557" lon="6.2599">
        <ele>1487.1999511719</ele>
        <time>2022-04-23T09:01:30.139Z</time>
      </trkpt>
      <trkpt lat="44.5055" lon="6.26009">
        <ele>1486.8000488281</ele>
        <time>2022-04-23T09:01:34.219Z</time>
      </trkpt>
      <trkpt lat="44.50548" lon="6.26018">
        <ele>1485.8000488281</ele>
        <time>2022-04-23T09:01:38.301Z</time>
      </trkpt>
      <trkpt lat="44.50545" lon="6.26029">
        <ele>1484.8000488281</ele>
        <time>2022-04-23T09:01:42.386Z</time>
      </trkpt>
      <trkpt lat="44.50542" lon="6.26038">
        <ele>1483.8000488281</ele>
        <time>2022-04-23T09:01:46.473Z</time>
      </trkpt>
      <trkpt lat="44.5054" lon="6.26045">
        <ele>1482.8000488281</ele>
        <time>2022-04-23T09:01:50.562Z</time>
      </trkpt>
      <trkpt lat="44.50536" lon="6.26049">
        <ele>1482.1999511719</ele>
        <time>2022-04-23T09:01:54.653Z</time>
      </trkpt>
      <trkpt lat="44.50529" lon="6.26056">
        <ele>1481.1999511719</ele>
        <time>2022-04-23T09:01:58.746Z</time>
      </trkpt>
      <trkpt lat="44.50529" lon="6.26058">
        <ele>1481.1999511719</ele>
        <time>2022-04-23T09:02:02.840Z</time>
      </trkpt>
      <trkpt lat="44.50532" lon="6.26073">
        <ele>1481.1999511719</ele>
        <time>2022-04-23T09:02:06.938Z</time>
      </trkpt>
      <trkpt lat="44.50534" lon="6.26082">
        <ele>1480</ele>
        <time>2022-04-23T09:02:11.038Z</time>
      </trkpt>
      <trkpt lat="44.50534" lon="6.26088">
        <ele>1479.8000488281</ele>
        <time>2022-04-23T09:02:15.139Z</time>
      </trkpt>
      <trkpt lat="44.50534" lon="6.26095">
        <ele>1479.1999511719</ele>
        <time>2022-04-23T09:02:19.242Z</time>
      </trkpt>
      <trkpt lat="44.50534" lon="6.26102">
        <ele>1478.5999755859</ele>
        <time>2022-04-23T09:02:23.347Z</time>
      </trkpt>
      <trkpt lat="44.50538" lon="6.26129">
        <ele>1478</ele>
        <time>2022-04-23T09:02:27.458Z</time>
      </trkpt>
      <trkpt lat="44.50543" lon="6.26142">
        <ele>1476.8000488281</ele>
        <time>2022-04-23T09:02:31.573Z</time>
      </trkpt>
      <trkpt lat="44.50548" lon="6.26159">
        <ele>1474.4000244141</ele>
        <time>2022-04-23T09:02:35.692Z</time>
      </trkpt>
      <trkpt lat="44.5055" lon="6.26168">
        <ele>1473.4000244141</ele>
        <time>2022-04-23T09:02:39.813Z</time>
      </trkpt>
      <trkpt lat="44.50551" lon="6.26179">
        <ele>1472.1999511719</ele>
        <time>2022-04-23T09:02:43.937Z</time>
      </trkpt>
      <trkpt lat="44.50551" lon="6.26189">
        <ele>1470.8000488281</ele>
        <time>2022-04-23T09:02:48.063Z</time>
      </trkpt>
      <trkpt lat="44.50551" lon="6.262">
        <ele>1470</ele>
        <time>2022-04-23T09:02:52.192Z</time>
      </trkpt>
      <trkpt lat="44.50552" lon="6.2621">
        <ele>1469.1999511719</ele>
        <time>2022-04-23T09:02:56.323Z</time>
      </trkpt>
      <trkpt lat="44.50554" lon="6.2623">
        <ele>1467.8000488281</ele>
        <time>2022-04-23T09:03:00.459Z</time>
      </trkpt>
      <trkpt lat="44.50554" lon="6.26238">
        <ele>1467</ele>
        <time>2022-04-23T09:03:04.597Z</time>
      </trkpt>
      <trkpt lat="44.50554" lon="6.26246">
        <ele>1466.5999755859</ele>
        <time>2022-04-23T09:03:08.737Z</time>
      </trkpt>
      <trkpt lat="44.50552" lon="6.26259">
        <ele>1465.1999511719</ele>
        <time>2022-04-23T09:03:12.880Z</time>
      </trkpt>
      <trkpt lat="44.5055" lon="6.26264">
        <ele>1464.1999511719</ele>
        <time>2022-04-23T09:03:17.024Z</time>
      </trkpt>
      <trkpt lat="44.50548" lon="6.26271">
        <ele>1463</ele>
        <time>2022-04-23T09:03:21.170Z</time>
      </trkpt>
      <trkpt lat="44.50547" lon="6.26286">
        <ele>1460</ele>
        <time>2022-04-23T09:03:25.320Z</time>
      </trkpt>
      <trkpt lat="44.50547" lon="6.26294">
        <ele>1458.1999511719</ele>
        <time>2022-04-23T09:03:29.472Z</time>
      </trkpt>
      <trkpt lat="44.50548" lon="6.26301">
        <ele>1457</ele>
        <time>2022-04-23T09:03:33.625Z</time>
      </trkpt>
      <trkpt lat="44.5055" lon="6.26311">
        <ele>1454.4000244141</ele>
        <time>2022-04-23T09:03:37.781Z</time>
      </trkpt>
      <trkpt lat="44.50552" lon="6.26316">
        <ele>1453.1999511719</ele>
        <time>2022-04-23T09:03:41.938Z</time>
      </trkpt>
      <trkpt lat="44.50554" lon="6.2632">
        <ele>1452.1999511719</ele>
        <time>2022-04-23T09:03:46.096Z</time>
      </trkpt>
      <trkpt lat="44.50554" lon="6.26326">
        <ele>1451.1999511719</ele>
        <time>2022-04-23T09:03:50.255Z</time>
      </trkpt>
      <trkpt lat="44.50554" lon="6.2633">
        <ele>1450</ele>
        <time>2022-04-23T09:03:54.416Z</time>
      </trkpt>
      <trkpt lat="44.50554" lon="6.26334">
        <ele>1448.1999511719</ele>
        <time>2022-04-23T09:03:58.578Z</time>
      </trkpt>
      <trkpt lat="44.50554" lon="6.26338">
        <ele>1447</ele>
        <time>2022-04-23T09:04:02.740Z</time>
      </trkpt>
      <trkpt lat="44.50554" lon="6.26344">
        <ele>1445.5999755859</ele>
        <time>2022-04-23T09:04:06.904Z</time>
      </trkpt>
      <trkpt lat="44.50554" lon="6.2635">
        <ele>1444.1999511719</ele>
        <time>2022-04-23T09:04:11.069Z</time>
      </trkpt>
      <trkpt lat="44.50553" lon="6.26356">
        <ele>1442.5999755859</ele>
        <time>2022-04-23T09:04:15.236Z</time>
      </trkpt>
      <trkpt lat="44.50552" lon="6.26361">
        <ele>1441.4000244141</ele>
        <time>2022-04-23T09:04:19.404Z</time>
      </trkpt>
      <trkpt lat="44.5055" lon="6.26368">
        <ele>1439.8000488281</ele>
        <time>2022-04-23T09:04:23.574Z</time>
      </trkpt>
      <trkpt lat="44.50549" lon="6.26374">
        <ele>1438.1999511719</ele>
        <time>2022-04-23T09:04:27.745Z</time>
      </trkpt>
      <trkpt lat="44.50549" lon="6.2638">
        <ele>1436.4000244141</ele>
        <time>2022-04-23T09:04:31.918Z</time>
      </trkpt>
      <trkpt lat="44.50548" lon="6.26384">
        <ele>1435</ele>
        <time>2022-04-23T09:04:36.092Z</time>
      </trkpt>
      <trkpt lat="44.50548" lon="6.26388">
        <ele>1433.8000488281</ele>
        <time>2022-04-23T09:04:40.267Z</time>
      </trkpt>
      <trkpt lat="44.50548" lon="6.26393">
        <ele>1432.5999755859</ele>
        <time>2022-04-23T09:04:44.443Z</time>
      </trkpt>
      <trkpt lat="44.50549" lon="6.26402">
        <ele>1431</ele>
        <time>2022-04-23T09:04:48.621Z</time>
      </trkpt>
      <trkpt lat="44.5055" lon="6.26407">
        <ele>1430</ele>
        <time>2022-04-23T09:04:52.800Z</time>
      </trkpt>
      <trkpt lat="44.5055" lon="6.26413">
        <ele>1428.8000488281</ele>
        <time>2022-04-23T09:04:56.980Z</time>
      </trkpt>
      <trkpt lat="44.5055" lon="6.2642">
        <ele>1427</ele>
        <time>2022-04-23T09:05:01.162Z</time>
      </trkpt>
      <trkpt lat="44.50552" lon="6.26426">
        <ele>1425.5999755859</ele>
        <time>2022-04-23T09:05:05.346Z</time>
      </trkpt>
      <trkpt lat="44.50554" lon="6.26431">
        <ele>1424.4000244141</ele>
        <time>2022-04-23T09:05:09.531Z</time>
      </trkpt>
      <trkpt lat="44.50559" lon="6.26441">
        <ele>1422.4000244141</ele>
        <time>2022-04-23T09:05:13.719Z</time>
      </trkpt>
      <trkpt lat="44.50562" lon="6.26445">
        <ele>1421.4000244141</ele>
        <time>2022-04-23T09:05:17.908Z</time>
      </trkpt>
      <trkpt lat="44.50566" lon="6.2645">
        <ele>1420</ele>
        <time>2022-04-23T09:05:22.099Z</time>
      </trkpt>
      <trkpt lat="44.50569" lon="6.26456">
        <ele>1418.8000488281</ele>
        <time>2022-04-23T09:05:26.292Z</time>
      </trkpt>
      <trkpt lat="44.50571" lon="6.26465">
        <ele>1417.5999755859</ele>
        <time>2022-04-23T09:05:30.487Z</time>
      </trkpt>
      <trkpt lat="44.50572" lon="6.26475">
        <ele>1416.4000244141</ele>
        <time>2022-04-23T09:05:34.684Z</time>
      </trkpt>
      <trkpt lat="44.50575" lon="6.26496">
        <ele>1414.5999755859</ele>
        <time>2022-04-23T09:05:38.886Z</time>
      </trkpt>
      <trkpt lat="44.50577" lon="6.26505">
        <ele>1413.4000244141</ele>
        <time>2022-04-23T09:05:43.091Z</time>
      </trkpt>
      <trkpt lat="44.50578" lon="6.26514">
        <ele>1412.4000244141</ele>
        <time>2022-04-23T09:05:47.298Z</time>
      </trkpt>
      <trkpt lat="44.50578" lon="6.26524">
        <ele>1411.4000244141</ele>
        <time>2022-04-23T09:05:51.507Z</time>
      </trkpt>
      <trkpt lat="44.50579" lon="6.26541">
        <ele>1409.5999755859</ele>
        <time>2022-04-23T09:05:55.720Z</time>
      </trkpt>
      <trkpt lat="44.50577" lon="6.26561">
        <ele>1409</ele>
        <time>2022-04-23T09:05:59.938Z</time>
      </trkpt>
      <trkpt lat="44.50576" lon="6.26582">
        <ele>1408.4000244141</ele>
        <time>2022-04-23T09:06:04.161Z</time>
      </trkpt>
      <trkpt lat="44.5058" lon="6.26599">
        <ele>1407.5999755859</ele>
        <time>2022-04-23T09:06:08.388Z</time>
      </trkpt>
      <trkpt lat="44.50583" lon="6.26606">
        <ele>1406.8000488281</ele>
        <time>2022-04-23T09:06:12.617Z</time>
      </trkpt>
      <trkpt lat="44.50585" lon="6.26613">
        <ele>1405.5999755859</ele>
        <time>2022-04-23T09:06:16.848Z</time>
      </trkpt>
      <trkpt lat="44.50588" lon="6.26624">
        <ele>1403.4000244141</ele>
        <time>2022-04-23T09:06:21.082Z</time>
      </trkpt>
      <trkpt lat="44.50588" lon="6.26628">
        <ele>1402.4000244141</ele>
        <time>2022-04-23T09:06:25.317Z</time>
      </trkpt>
      <trkpt lat="44.50586" lon="6.26638">
        <ele>1400.8000488281</ele>
        <time>2022-04-23T09:06:29.554Z</time>
      </trkpt>
      <trkpt lat="44.50584" lon="6.26644">
        <ele>1399.8000488281</ele>
        <time>2022-04-23T09:06:33.793Z</time>
      </trkpt>
      <trkpt lat="44.50583" lon="6.26649">
        <ele>1399</ele>
        <time>2022-04-23T09:06:38.033Z</time>
      </trkpt>
      <trkpt lat="44.50583" lon="6.26654">
        <ele>1397.5999755859</ele>
        <time>2022-04-23T09:06:42.274Z</time>
      </trkpt>
      <trkpt lat="44.50583" lon="6.26658">
        <ele>1396.4000244141</ele>
        <time>2022-04-23T09:06:46.516Z</time>
      </trkpt>
      <trkpt lat="44.50583" lon="6.26662">
        <ele>1395</ele>
        <time>2022-04-23T09:06:50.759Z</time>
      </trkpt>
      <trkpt lat="44.50582" lon="6.26668">
        <ele>1394.1999511719</ele>
        <time>2022-04-23T09:06:55.003Z</time>
      </trkpt>
      <trkpt lat="44.50582" lon="6.26675">
        <ele>1392.8000488281</ele>
        <time>2022-04-23T09:06:59.249Z</time>
      </trkpt>
      <trkpt lat="44.50581" lon="6.26681">
        <ele>1391.5999755859</ele>
        <time>2022-04-23T09:07:03.497Z</time>
      </trkpt>
      <trkpt lat="44.5058" lon="6.26688">
        <ele>1390.4000244141</ele>
        <time>2022-04-23T09:07:07.746Z</time>
      </trkpt>
      <trkpt lat="44.50578" lon="6.26694">
        <ele>1389.1999511719</ele>
        <time>2022-04-23T09:07:11.997Z</time>
      </trkpt>
      <trkpt lat="44.50576" lon="6.26701">
        <ele>1388.1999511719</ele>
        <time>2022-04-23T09:07:16.250Z</time>
      </trkpt>
      <trkpt lat="44.50575" lon="6.26708">
        <ele>1387</ele>
        <time>2022-04-23T09:07:20.504Z</time>
      </trkpt>
      <trkpt lat="44.50575" lon="6.26714">
        <ele>1386</ele>
        <time>2022-04-23T09:07:24.760Z</time>
      </trkpt>
      <trkpt lat="44.50575" lon="6.26727">
        <ele>1384.1999511719</ele>
        <time>2022-04-23T09:07:29.019Z</time>
      </trkpt>
      <trkpt lat="44.50575" lon="6.26736">
        <ele>1383.4000244141</ele>
        <time>2022-04-23T09:07:33.280Z</time>
      </trkpt>
      <trkpt lat="44.50574" lon="6.26744">
        <ele>1382.1999511719</ele>
        <time>2022-04-23T09:07:37.543Z</time>
      </trkpt>
      <trkpt lat="44.50573" lon="6.26758">
        <ele>1380.1999511719</ele>
        <time>2022-04-23T09:07:41.809Z</time>
      </trkpt>
      <trkpt lat="44.50572" lon="6.26769">
        <ele>1378.5999755859</ele>
        <time>2022-04-23T09:07:46.078Z</time>
      </trkpt>
      <trkpt lat="44.50571" lon="6.26777">
        <ele>1377.1999511719</ele>
        <time>2022-04-23T09:07:50.349Z</time>
      </trkpt>
      <trkpt lat="44.50567" lon="6.26788">
        <ele>1375.8000488281</ele>
        <time>2022-04-23T09:07:54.623Z</time>
      </trkpt>
      <trkpt lat="44.50566" lon="6.26803">
        <ele>1373.5999755859</ele>
        <time>2022-04-23T09:07:58.900Z</time>
      </trkpt>
      <trkpt lat="44.50566" lon="6.2681">
        <ele>1372.5999755859</ele>
        <time>2022-04-23T09:08:03.179Z</time>
      </trkpt>
      <trkpt lat="44.50567" lon="6.26818">
        <ele>1371.1999511719</ele>
        <time>2022-04-23T09:08:07.460Z</time>
      </trkpt>
      <trkpt lat="44.50568" lon="6.26826">
        <ele>1370.1999511719</ele>
        <time>2022-04-23T09:08:11.743Z</time>
      </trkpt>
      <trkpt lat="44.50569" lon="6.26842">
        <ele>1368.1999511719</ele>
        <time>2022-04-23T09:08:16.030Z</time>
      </trkpt>
      <trkpt lat="44.50569" lon="6.26851">
        <ele>1367.4000244141</ele>
        <time>2022-04-23T09:08:20.319Z</time>
      </trkpt>
      <trkpt lat="44.50567" lon="6.26861">
        <ele>1366.5999755859</ele>
        <time>2022-04-23T09:08:24.610Z</time>
      </trkpt>
      <trkpt lat="44.50565" lon="6.2687">
        <ele>1365.5999755859</ele>
        <time>2022-04-23T09:08:28.903Z</time>
      </trkpt>
      <trkpt lat="44.5056" lon="6.26888">
        <ele>1364</ele>
        <time>2022-04-23T09:08:33.201Z</time>
      </trkpt>
      <trkpt lat="44.50557" lon="6.26896">
        <ele>1363.5999755859</ele>
        <time>2022-04-23T09:08:37.501Z</time>
      </trkpt>
      <trkpt lat="44.50553" lon="6.26913">
        <ele>1363</ele>
        <time>2022-04-23T09:08:41.805Z</time>
      </trkpt>
      <trkpt lat="44.50552" lon="6.2692">
        <ele>1362.8000488281</ele>
        <time>2022-04-23T09:08:46.111Z</time>
      </trkpt>
      <trkpt lat="44.50554" lon="6.26932">
        <ele>1361.8000488281</ele>
        <time>2022-04-23T09:08:50.420Z</time>
      </trkpt>
      <trkpt lat="44.50555" lon="6.26939">
        <ele>1361.1999511719</ele>
        <time>2022-04-23T09:08:54.731Z</time>
      </trkpt>
      <trkpt lat="44.50555" lon="6.26945">
        <ele>1360</ele>
        <time>2022-04-23T09:08:59.043Z</time>
      </trkpt>
      <trkpt lat="44.50556" lon="6.26951">
        <ele>1359</ele>
        <time>2022-04-23T09:09:03.356Z</time>
      </trkpt>
      <trkpt lat="44.50557" lon="6.2696">
        <ele>1357</ele>
        <time>2022-04-23T09:09:07.672Z</time>
      </trkpt>
      <trkpt lat="44.50557" lon="6.26967">
        <ele>1356.1999511719</ele>
        <time>2022-04-23T09:09:11.989Z</time>
      </trkpt>
      <trkpt lat="44.50555" lon="6.26975">
        <ele>1355.1999511719</ele>
        <time>2022-04-23T09:09:16.308Z</time>
      </trkpt>
      <trkpt lat="44.50555" lon="6.26984">
        <ele>1354</ele>
        <time>2022-04-23T09:09:20.629Z</time>
      </trkpt>
      <trkpt lat="44.50552" lon="6.26999">
        <ele>1352.5999755859</ele>
        <time>2022-04-23T09:09:24.954Z</time>
      </trkpt>
      <trkpt lat="44.50548" lon="6.27012">
        <ele>1351.5999755859</ele>
        <time>2022-04-23T09:09:29.282Z</time>
      </trkpt>
      <trkpt lat="44.50546" lon="6.2702">
        <ele>1350.8000488281</ele>
        <time>2022-04-23T09:09:33.612Z</time>
      </trkpt>
      <trkpt lat="44.50543" lon="6.27032">
        <ele>1349.4000244141</ele>
        <time>2022-04-23T09:09:37.945Z</time>
      </trkpt>
      <trkpt lat="44.50543" lon="6.27038">
        <ele>1348.5999755859</ele>
        <time>2022-04-23T09:09:42.280Z</time>
      </trkpt>
      <trkpt lat="44.50543" lon="6.27043">
        <ele>1348</ele>
        <time>2022-04-23T09:09:46.616Z</time>
      </trkpt>
      <trkpt lat="44.50545" lon="6.27047">
        <ele>1347.4000244141</ele>
        <time>2022-04-23T09:09:50.953Z</time>
      </trkpt>
      <trkpt lat="44.50547" lon="6.27049">
        <ele>1347</ele>
        <time>2022-04-23T09:09:55.291Z</time>
      </trkpt>
      <trkpt lat="44.50549" lon="6.2705">
        <ele>1346.8000488281</ele>
        <time>2022-04-23T09:09:59.630Z</time>
      </trkpt>
      <trkpt lat="44.50555" lon="6.27049">
        <ele>1346</ele>
        <time>2022-04-23T09:10:03.971Z</time>
      </trkpt>
      <trkpt lat="44.50557" lon="6.27048">
        <ele>1345.5999755859</ele>
        <time>2022-04-23T09:10:08.312Z</time>
      </trkpt>
      <trkpt lat="44.50561" lon="6.27051">
        <ele>1345</ele>
        <time>2022-04-23T09:10:12.655Z</time>
      </trkpt>
      <trkpt lat="44.50561" lon="6.27053">
        <ele>1344.4000244141</ele>
        <time>2022-04-23T09:10:16.998Z</time>
      </trkpt>
      <trkpt lat="44.5056" lon="6.2706">
        <ele>1342.8000488281</ele>
        <time>2022-04-23T09:10:21.343Z</time>
      </trkpt>
      <trkpt lat="44.5056" lon="6.27065">
        <ele>1342</ele>
        <time>2022-04-23T09:10:25.689Z</time>
      </trkpt>
      <trkpt lat="44.50559" lon="6.27072">
        <ele>1341.1999511719</ele>
        <time>2022-04-23T09:10:30.037Z</time>
      </trkpt>
      <trkpt lat="44.50557" lon="6.27078">
        <ele>1340.4000244141</ele>
        <time>2022-04-23T09:10:34.386Z</time>
      </trkpt>
      <trkpt lat="44.50555" lon="6.27084">
        <ele>1339.5999755859</ele>
        <time>2022-04-23T09:10:38.737Z</time>
      </trkpt>
      <trkpt lat="44.50553" lon="6.27092">
        <ele>1338</ele>
        <time>2022-04-23T09:10:43.090Z</time>
      </trkpt>
      <trkpt lat="44.50553" lon="6.27097">
        <ele>1336.8000488281</ele>
        <time>2022-04-23T09:10:47.444Z</time>
      </trkpt>
      <trkpt lat="44.50556" lon="6.271">
        <ele>1335.4000244141</ele>
        <time>2022-04-23T09:10:51.799Z</time>
      </trkpt>
      <trkpt lat="44.50556" lon="6.27103">
        <ele>1334.5999755859</ele>
        <time>2022-04-23T09:10:56.155Z</time>
      </trkpt>
      <trkpt lat="44.50556" lon="6.27106">
        <ele>1334.1999511719</ele>
        <time>2022-04-23T09:11:00.512Z</time>
      </trkpt>
      <trkpt lat="44.50552" lon="6.2711">
        <ele>1333.1999511719</ele>
        <time>2022-04-23T09:11:04.870Z</time>
      </trkpt>
      <trkpt lat="44.50551" lon="6.27112">
        <ele>1332.5999755859</ele>
        <time>2022-04-23T09:11:09.229Z</time>
      </trkpt>
      <trkpt lat="44.50551" lon="6.27114">
        <ele>1331.8000488281</ele>
        <time>2022-04-23T09:11:13.589Z</time>
      </trkpt>
      <trkpt lat="44.50553" lon="6.27117">
        <ele>1330.5999755859</ele>
        <time>2022-04-23T09:11:17.950Z</time>
      </trkpt>
      <trkpt lat="44.50556" lon="6.27115">
        <ele>1329.4000244141</ele>
        <time>2022-04-23T09:11:22.312Z</time>
      </trkpt>
      <trkpt lat="44.50558" lon="6.27118">
        <ele>1328.4000244141</ele>
        <time>2022-04-23T09:11:26.675Z</time>
      </trkpt>
      <trkpt lat="44.50557" lon="6.27122">
        <ele>1327.8000488281</ele>
        <time>2022-04-23T09:11:31.038Z</time>
      </trkpt>
      <trkpt lat="44.50555" lon="6.27128">
        <ele>1326.5999755859</ele>
        <time>2022-04-23T09:11:35.403Z</time>
      </trkpt>
      <trkpt lat="44.50551" lon="6.27131">
        <ele>1325.4000244141</ele>
        <time>2022-04-23T09:11:39.769Z</time>
      </trkpt>
      <trkpt lat="44.50547" lon="6.27134">
        <ele>1324.8000488281</ele>
        <time>2022-04-23T09:11:44.137Z</time>
      </trkpt>
      <trkpt lat="44.50545" lon="6.27135">
        <ele>1324.1999511719</ele>
        <time>2022-04-23T09:11:48.506Z</time>
      </trkpt>
      <trkpt lat="44.5054" lon="6.2714">
        <ele>1322.8000488281</ele>
        <time>2022-04-23T09:11:52.877Z</time>
      </trkpt>
      <trkpt lat="44.5054" lon="6.27143">
        <ele>1322.1999511719</ele>
        <time>2022-04-23T09:11:57.248Z</time>
      </trkpt>
      <trkpt lat="44.5054" lon="6.27146">
        <ele>1321.5999755859</ele>
        <time>2022-04-23T09:12:01.620Z</time>
      </trkpt>
      <trkpt lat="44.50542" lon="6.27149">
        <ele>1321.1999511719</ele>
        <time>2022-04-23T09:12:05.993Z</time>
      </trkpt>
      <trkpt lat="44.50543" lon="6.27152">
        <ele>1320.4000244141</ele>
        <time>2022-04-23T09:12:10.367Z</time>
      </trkpt>
      <trkpt lat="44.50546" lon="6.27158">
        <ele>1319.1999511719</ele>
        <time>2022-04-23T09:12:14.743Z</time>
      </trkpt>
      <trkpt lat="44.50547" lon="6.27162">
        <ele>1317.8000488281</ele>
        <time>2022-04-23T09:12:19.120Z</time>
      </trkpt>
      <trkpt lat="44.50547" lon="6.27164">
        <ele>1317.4000244141</ele>
        <time>2022-04-23T09:12:23.497Z</time>
      </trkpt>
      <trkpt lat="44.50544" lon="6.27168">
        <ele>1316.4000244141</ele>
        <time>2022-04-23T09:12:27.875Z</time>
      </trkpt>
      <trkpt lat="44.50542" lon="6.2717">
        <ele>1316</ele>
        <time>2022-04-23T09:12:32.254Z</time>
      </trkpt>
      <trkpt lat="44.5054" lon="6.27171">
        <ele>1315.4000244141</ele>
        <time>2022-04-23T09:12:36.634Z</time>
      </trkpt>
      <trkpt lat="44.50535" lon="6.27173">
        <ele>1314</ele>
        <time>2022-04-23T09:12:41.016Z</time>
      </trkpt>
      <trkpt lat="44.50534" lon="6.27178">
        <ele>1313</ele>
        <time>2022-04-23T09:12:45.399Z</time>
      </trkpt>
      <trkpt lat="44.50535" lon="6.27181">
        <ele>1312.1999511719</ele>
        <time>2022-04-23T09:12:49.783Z</time>
      </trkpt>
      <trkpt lat="44.5054" lon="6.27191">
        <ele>1311</ele>
        <time>2022-04-23T09:12:54.169Z</time>
      </trkpt>
      <trkpt lat="44.50545" lon="6.27201">
        <ele>1310.1999511719</ele>
        <time>2022-04-23T09:12:58.558Z</time>
      </trkpt>
      <trkpt lat="44.50547" lon="6.27205">
        <ele>1309.1999511719</ele>
        <time>2022-04-23T09:13:02.948Z</time>
      </trkpt>
      <trkpt lat="44.50549" lon="6.27207">
        <ele>1308.5999755859</ele>
        <time>2022-04-23T09:13:07.339Z</time>
      </trkpt>
      <trkpt lat="44.50551" lon="6.27207">
        <ele>1307.8000488281</ele>
        <time>2022-04-23T09:13:11.731Z</time>
      </trkpt>
      <trkpt lat="44.50552" lon="6.27208">
        <ele>1307.4000244141</ele>
        <time>2022-04-23T09:13:16.123Z</time>
      </trkpt>
      <trkpt lat="44.50553" lon="6.27213">
        <ele>1306.5999755859</ele>
        <time>2022-04-23T09:13:20.516Z</time>
      </trkpt>
      <trkpt lat="44.50552" lon="6.27214">
        <ele>1306.1999511719</ele>
        <time>2022-04-23T09:13:24.910Z</time>
      </trkpt>
      <trkpt lat="44.50551" lon="6.27215">
        <ele>1305.8000488281</ele>
        <time>2022-04-23T09:13:29.304Z</time>
      </trkpt>
      <trkpt lat="44.50548" lon="6.27216">
        <ele>1305.4000244141</ele>
        <time>2022-04-23T09:13:33.699Z</time>
      </trkpt>
      <trkpt lat="44.50545" lon="6.27216">
        <ele>1304.4000244141</ele>
        <time>2022-04-23T09:13:38.095Z</time>
      </trkpt>
      <trkpt lat="44.50543" lon="6.27219">
        <ele>1303.1999511719</ele>
        <time>2022-04-23T09:13:42.492Z</time>
      </trkpt>
      <trkpt lat="44.50539" lon="6.27223">
        <ele>1302</ele>
        <time>2022-04-23T09:13:46.891Z</time>
      </trkpt>
      <trkpt lat="44.50536" lon="6.27226">
        <ele>1300.8000488281</ele>
        <time>2022-04-23T09:13:51.291Z</time>
      </trkpt>
      <trkpt lat="44.50536" lon="6.27226">
        <ele>1300.8000488281</ele>
        <time>2022-04-23T09:13:55.691Z</time>
      </trkpt>
      <trkpt lat="44.50532" lon="6.27237">
        <ele>1296.5999755859</ele>
        <time>2022-04-23T09:14:00.094Z</time>
      </trkpt>
      <trkpt lat="44.50534" lon="6.27241">
        <ele>1296.1999511719</ele>
        <time>2022-04-23T09:14:04.498Z</time>
      </trkpt>
      <trkpt lat="44.5054" lon="6.27245">
        <ele>1295.4000244141</ele>
        <time>2022-04-23T09:14:08.904Z</time>
      </trkpt>
      <trkpt lat="44.50544" lon="6.27248">
        <ele>1294</ele>
        <time>2022-04-23T09:14:13.312Z</time>
      </trkpt>
      <trkpt lat="44.50548" lon="6.27252">
        <ele>1292.8000488281</ele>
        <time>2022-04-23T09:14:17.722Z</time>
      </trkpt>
      <trkpt lat="44.50552" lon="6.27255">
        <ele>1291.1999511719</ele>
        <time>2022-04-23T09:14:22.133Z</time>
      </trkpt>
      <trkpt lat="44.50555" lon="6.27256">
        <ele>1290.8000488281</ele>
        <time>2022-04-23T09:14:26.545Z</time>
      </trkpt>
      <trkpt lat="44.50559" lon="6.27255">
        <ele>1289.8000488281</ele>
        <time>2022-04-23T09:14:30.958Z</time>
      </trkpt>
      <trkpt lat="44.50565" lon="6.27251">
        <ele>1288.5999755859</ele>
        <time>2022-04-23T09:14:35.374Z</time>
      </trkpt>
      <trkpt lat="44.50572" lon="6.2725">
        <ele>1287.5999755859</ele>
        <time>2022-04-23T09:14:39.792Z</time>
      </trkpt>
      <trkpt lat="44.50573" lon="6.27253">
        <ele>1287.1999511719</ele>
        <time>2022-04-23T09:14:44.211Z</time>
      </trkpt>
      <trkpt lat="44.50573" lon="6.27256">
        <ele>1286.1999511719</ele>
        <time>2022-04-23T09:14:48.630Z</time>
      </trkpt>
      <trkpt lat="44.50574" lon="6.27264">
        <ele>1284.5999755859</ele>
        <time>2022-04-23T09:14:53.051Z</time>
      </trkpt>
      <trkpt lat="44.50573" lon="6.27272">
        <ele>1282.8000488281</ele>
        <time>2022-04-23T09:14:57.474Z</time>
      </trkpt>
      <trkpt lat="44.50574" lon="6.27275">
        <ele>1282.4000244141</ele>
        <time>2022-04-23T09:15:01.898Z</time>
      </trkpt>
      <trkpt lat="44.50573" lon="6.27278">
        <ele>1281.4000244141</ele>
        <time>2022-04-23T09:15:06.323Z</time>
      </trkpt>
      <trkpt lat="44.50568" lon="6.27287">
        <ele>1280</ele>
        <time>2022-04-23T09:15:10.750Z</time>
      </trkpt>
      <trkpt lat="44.50565" lon="6.27292">
        <ele>1279</ele>
        <time>2022-04-23T09:15:15.179Z</time>
      </trkpt>
      <trkpt lat="44.50561" lon="6.27295">
        <ele>1277.8000488281</ele>
        <time>2022-04-23T09:15:19.610Z</time>
      </trkpt>
      <trkpt lat="44.50557" lon="6.27295">
        <ele>1277</ele>
        <time>2022-04-23T09:15:24.042Z</time>
      </trkpt>
      <trkpt lat="44.50554" lon="6.27298">
        <ele>1276.5999755859</ele>
        <time>2022-04-23T09:15:28.475Z</time>
      </trkpt>
      <trkpt lat="44.50544" lon="6.27302">
        <ele>1275.5999755859</ele>
        <time>2022-04-23T09:15:32.911Z</time>
      </trkpt>
      <trkpt lat="44.50538" lon="6.27312">
        <ele>1274</ele>
        <time>2022-04-23T09:15:37.350Z</time>
      </trkpt>
      <trkpt lat="44.50536" lon="6.27315">
        <ele>1272.4000244141</ele>
        <time>2022-04-23T09:15:41.791Z</time>
      </trkpt>
      <trkpt lat="44.50532" lon="6.27317">
        <ele>1271.4000244141</ele>
        <time>2022-04-23T09:15:46.233Z</time>
      </trkpt>
      <trkpt lat="44.50522" lon="6.27323">
        <ele>1270</ele>
        <time>2022-04-23T09:15:50.678Z</time>
      </trkpt>
      <trkpt lat="44.50517" lon="6.27327">
        <ele>1268.5999755859</ele>
        <time>2022-04-23T09:15:55.125Z</time>
      </trkpt>
      <trkpt lat="44.50512" lon="6.2733">
        <ele>1267.4000244141</ele>
        <time>2022-04-23T09:15:59.574Z</time>
      </trkpt>
      <trkpt lat="44.50501" lon="6.27335">
        <ele>1265.5999755859</ele>
        <time>2022-04-23T09:16:04.027Z</time>
      </trkpt>
      <trkpt lat="44.50496" lon="6.27339">
        <ele>1264.4000244141</ele>
        <time>2022-04-23T09:16:08.482Z</time>
      </trkpt>
      <trkpt lat="44.50489" lon="6.27344">
        <ele>1262.8000488281</ele>
        <time>2022-04-23T09:16:12.940Z</time>
      </trkpt>
      <trkpt lat="44.50482" lon="6.27351">
        <ele>1261.5999755859</ele>
        <time>2022-04-23T09:16:17.400Z</time>
      </trkpt>
      <trkpt lat="44.5048" lon="6.27355">
        <ele>1260.8000488281</ele>
        <time>2022-04-23T09:16:21.861Z</time>
      </trkpt>
      <trkpt lat="44.50478" lon="6.2736">
        <ele>1259.8000488281</ele>
        <time>2022-04-23T09:16:26.324Z</time>
      </trkpt>
      <trkpt lat="44.50475" lon="6.27372">
        <ele>1258</ele>
        <time>2022-04-23T09:16:30.790Z</time>
      </trkpt>
      <trkpt lat="44.50471" lon="6.27377">
        <ele>1257</ele>
        <time>2022-04-23T09:16:35.257Z</time>
      </trkpt>
      <trkpt lat="44.50467" lon="6.2738">
        <ele>1256.4000244141</ele>
        <time>2022-04-23T09:16:39.726Z</time>
      </trkpt>
      <trkpt lat="44.50463" lon="6.27384">
        <ele>1256</ele>
        <time>2022-04-23T09:16:44.197Z</time>
      </trkpt>
      <trkpt lat="44.50456" lon="6.27392">
        <ele>1254.8000488281</ele>
        <time>2022-04-23T09:16:48.671Z</time>
      </trkpt>
      <trkpt lat="44.50455" lon="6.27395">
        <ele>1254.1999511719</ele>
        <time>2022-04-23T09:16:53.146Z</time>
      </trkpt>
      <trkpt lat="44.50455" lon="6.274">
        <ele>1253.5999755859</ele>
        <time>2022-04-23T09:16:57.622Z</time>
      </trkpt>
      <trkpt lat="44.50455" lon="6.27403">
        <ele>1252.8000488281</ele>
        <time>2022-04-23T09:17:02.098Z</time>
      </trkpt>
      <trkpt lat="44.50456" lon="6.27404">
        <ele>1252.4000244141</ele>
        <time>2022-04-23T09:17:06.575Z</time>
      </trkpt>
      <trkpt lat="44.50456" lon="6.27405">
        <ele>1252</ele>
        <time>2022-04-23T09:17:11.052Z</time>
      </trkpt>
      <trkpt lat="44.50461" lon="6.27406">
        <ele>1251.8000488281</ele>
        <time>2022-04-23T09:17:15.531Z</time>
      </trkpt>
      <trkpt lat="44.50463" lon="6.27406">
        <ele>1252</ele>
        <time>2022-04-23T09:17:20.010Z</time>
      </trkpt>
      <trkpt lat="44.50481" lon="6.27405">
        <ele>1251.8000488281</ele>
        <time>2022-04-23T09:17:24.495Z</time>
      </trkpt>
      <trkpt lat="44.50495" lon="6.27402">
        <ele>1252.8000488281</ele>
        <time>2022-04-23T09:17:28.985Z</time>
      </trkpt>
      <trkpt lat="44.50505" lon="6.27398">
        <ele>1253.4000244141</ele>
        <time>2022-04-23T09:17:33.478Z</time>
      </trkpt>
      <trkpt lat="44.50511" lon="6.27395">
        <ele>1253.5999755859</ele>
        <time>2022-04-23T09:17:37.974Z</time>
      </trkpt>
      <trkpt lat="44.50515" lon="6.27393">
        <ele>1253.5999755859</ele>
        <time>2022-04-23T09:17:42.471Z</time>
      </trkpt>
      <trkpt lat="44.50523" lon="6.27392">
        <ele>1253.5999755859</ele>
        <time>2022-04-23T09:17:46.971Z</time>
      </trkpt>
      <trkpt lat="44.50535" lon="6.27393">
        <ele>1252.5999755859</ele>
        <time>2022-04-23T09:17:51.475Z</time>
      </trkpt>
      <trkpt lat="44.50543" lon="6.27392">
        <ele>1252.1999511719</ele>
        <time>2022-04-23T09:17:55.981Z</time>
      </trkpt>
      <trkpt lat="44.50557" lon="6.27387">
        <ele>1251.4000244141</ele>
        <time>2022-04-23T09:18:00.492Z</time>
      </trkpt>
      <trkpt lat="44.50566" lon="6.27387">
        <ele>1251.1999511719</ele>
        <time>2022-04-23T09:18:05.006Z</time>
      </trkpt>
      <trkpt lat="44.50586" lon="6.27388">
        <ele>1250.5999755859</ele>
        <time>2022-04-23T09:18:09.527Z</time>
      </trkpt>
      <trkpt lat="44.50594" lon="6.27388">
        <ele>1250</ele>
        <time>2022-04-23T09:18:14.050Z</time>
      </trkpt>
      <trkpt lat="44.50607" lon="6.27391">
        <ele>1249.5999755859</ele>
        <time>2022-04-23T09:18:18.578Z</time>
      </trkpt>
      <trkpt lat="44.50615" lon="6.27392">
        <ele>1249.5999755859</ele>
        <time>2022-04-23T09:18:23.108Z</time>
      </trkpt>
      <trkpt lat="44.50622" lon="6.27392">
        <ele>1249.4000244141</ele>
        <time>2022-04-23T09:18:27.641Z</time>
      </trkpt>
      <trkpt lat="44.50636" lon="6.27383">
        <ele>1249.4000244141</ele>
        <time>2022-04-23T09:18:32.179Z</time>
      </trkpt>
      <trkpt lat="44.50641" lon="6.27378">
        <ele>1249.4000244141</ele>
        <time>2022-04-23T09:18:36.719Z</time>
      </trkpt>
      <trkpt lat="44.50647" lon="6.27373">
        <ele>1249.1999511719</ele>
        <time>2022-04-23T09:18:41.261Z</time>
      </trkpt>
      <trkpt lat="44.50656" lon="6.27363">
        <ele>1248.8000488281</ele>
        <time>2022-04-23T09:18:45.807Z</time>
      </trkpt>
      <trkpt lat="44.50666" lon="6.27351">
        <ele>1248.4000244141</ele>
        <time>2022-04-23T09:18:50.357Z</time>
      </trkpt>
      <trkpt lat="44.5067" lon="6.27345">
        <ele>1248.1999511719</ele>
        <time>2022-04-23T09:18:54.909Z</time>
      </trkpt>
      <trkpt lat="44.50672" lon="6.2734">
        <ele>1248</ele>
        <time>2022-04-23T09:18:59.463Z</time>
      </trkpt>
      <trkpt lat="44.50673" lon="6.27338">
        <ele>1247.8000488281</ele>
        <time>2022-04-23T09:19:04.017Z</time>
      </trkpt>
      <trkpt lat="44.50677" lon="6.27334">
        <ele>1247.1999511719</ele>
        <time>2022-04-23T09:19:08.573Z</time>
      </trkpt>
      <trkpt lat="44.50679" lon="6.27331">
        <ele>1246.5999755859</ele>
        <time>2022-04-23T09:19:13.130Z</time>
      </trkpt>
      <trkpt lat="44.50682" lon="6.27328">
        <ele>1246</ele>
        <time>2022-04-23T09:19:17.688Z</time>
      </trkpt>
      <trkpt lat="44.50684" lon="6.27324">
        <ele>1245.1999511719</ele>
        <time>2022-04-23T09:19:22.247Z</time>
      </trkpt>
      <trkpt lat="44.50689" lon="6.27315">
        <ele>1243.5999755859</ele>
        <time>2022-04-23T09:19:26.809Z</time>
      </trkpt>
      <trkpt lat="44.50693" lon="6.27311">
        <ele>1242.8000488281</ele>
        <time>2022-04-23T09:19:31.372Z</time>
      </trkpt>
      <trkpt lat="44.50695" lon="6.27306">
        <ele>1241.5999755859</ele>
        <time>2022-04-23T09:19:35.937Z</time>
      </trkpt>
      <trkpt lat="44.50703" lon="6.27299">
        <ele>1239.4000244141</ele>
        <time>2022-04-23T09:19:40.505Z</time>
      </trkpt>
      <trkpt lat="44.50707" lon="6.27296">
        <ele>1238.1999511719</ele>
        <time>2022-04-23T09:19:45.074Z</time>
      </trkpt>
      <trkpt lat="44.50711" lon="6.27292">
        <ele>1237</ele>
        <time>2022-04-23T09:19:49.645Z</time>
      </trkpt>
      <trkpt lat="44.50716" lon="6.27288">
        <ele>1235.5999755859</ele>
        <time>2022-04-23T09:19:54.218Z</time>
      </trkpt>
      <trkpt lat="44.5072" lon="6.27285">
        <ele>1233.8000488281</ele>
        <time>2022-04-23T09:19:58.792Z</time>
      </trkpt>
      <trkpt lat="44.50723" lon="6.27281">
        <ele>1232.1999511719</ele>
        <time>2022-04-23T09:20:03.368Z</time>
      </trkpt>
      <trkpt lat="44.50727" lon="6.27278">
        <ele>1231</ele>
        <time>2022-04-23T09:20:07.945Z</time>
      </trkpt>
      <trkpt lat="44.5073" lon="6.27274">
        <ele>1229.5999755859</ele>
        <time>2022-04-23T09:20:12.523Z</time>
      </trkpt>
      <trkpt lat="44.50732" lon="6.27269">
        <ele>1227.8000488281</ele>
        <time>2022-04-23T09:20:17.103Z</time>
      </trkpt>
      <trkpt lat="44.50734" lon="6.27264">
        <ele>1226.5999755859</ele>
        <time>2022-04-23T09:20:21.684Z</time>
      </trkpt>
      <trkpt lat="44.50735" lon="6.2726">
        <ele>1225.5999755859</ele>
        <time>2022-04-23T09:20:26.266Z</time>
      </trkpt>
      <trkpt lat="44.50737" lon="6.27256">
        <ele>1224.5999755859</ele>
        <time>2022-04-23T09:20:30.849Z</time>
      </trkpt>
      <trkpt lat="44.50739" lon="6.27254">
        <ele>1223.8000488281</ele>
        <time>2022-04-23T09:20:35.433Z</time>
      </trkpt>
      <trkpt lat="44.5074" lon="6.27254">
        <ele>1222.8000488281</ele>
        <time>2022-04-23T09:20:40.018Z</time>
      </trkpt>
      <trkpt lat="44.5074" lon="6.2726">
        <ele>1221.5999755859</ele>
        <time>2022-04-23T09:20:44.604Z</time>
      </trkpt>
      <trkpt lat="44.50739" lon="6.27264">
        <ele>1221</ele>
        <time>2022-04-23T09:20:49.191Z</time>
      </trkpt>
      <trkpt lat="44.50736" lon="6.27273">
        <ele>1220.4000244141</ele>
        <time>2022-04-23T09:20:53.780Z</time>
      </trkpt>
      <trkpt lat="44.50732" lon="6.27289">
        <ele>1219.4000244141</ele>
        <time>2022-04-23T09:20:58.373Z</time>
      </trkpt>
      <trkpt lat="44.50731" lon="6.27296">
        <ele>1219.4000244141</ele>
        <time>2022-04-23T09:21:02.968Z</time>
      </trkpt>
      <trkpt lat="44.5073" lon="6.27321">
        <ele>1218</ele>
        <time>2022-04-23T09:21:07.569Z</time>
      </trkpt>
      <trkpt lat="44.5073" lon="6.27341">
        <ele>1216.8000488281</ele>
        <time>2022-04-23T09:21:12.175Z</time>
      </trkpt>
      <trkpt lat="44.50728" lon="6.27373">
        <ele>1215.1999511719</ele>
        <time>2022-04-23T09:21:16.788Z</time>
      </trkpt>
      <trkpt lat="44.50723" lon="6.27391">
        <ele>1214</ele>
        <time>2022-04-23T09:21:21.406Z</time>
      </trkpt>
      <trkpt lat="44.50719" lon="6.27399">
        <ele>1213.5999755859</ele>
        <time>2022-04-23T09:21:26.026Z</time>
      </trkpt>
      <trkpt lat="44.5071" lon="6.2741">
        <ele>1213</ele>
        <time>2022-04-23T09:21:30.650Z</time>
      </trkpt>
      <trkpt lat="44.50708" lon="6.27417">
        <ele>1212.4000244141</ele>
        <time>2022-04-23T09:21:35.276Z</time>
      </trkpt>
      <trkpt lat="44.50711" lon="6.27429">
        <ele>1211.4000244141</ele>
        <time>2022-04-23T09:21:39.905Z</time>
      </trkpt>
      <trkpt lat="44.50715" lon="6.27431">
        <ele>1211.1999511719</ele>
        <time>2022-04-23T09:21:44.535Z</time>
      </trkpt>
      <trkpt lat="44.50722" lon="6.27424">
        <ele>1210.5999755859</ele>
        <time>2022-04-23T09:21:49.168Z</time>
      </trkpt>
      <trkpt lat="44.50734" lon="6.27398">
        <ele>1209.5999755859</ele>
        <time>2022-04-23T09:21:53.808Z</time>
      </trkpt>
      <trkpt lat="44.50737" lon="6.27391">
        <ele>1209.4000244141</ele>
        <time>2022-04-23T09:21:58.450Z</time>
      </trkpt>
      <trkpt lat="44.50742" lon="6.27376">
        <ele>1208.8000488281</ele>
        <time>2022-04-23T09:22:03.096Z</time>
      </trkpt>
      <trkpt lat="44.50744" lon="6.27369">
        <ele>1208.4000244141</ele>
        <time>2022-04-23T09:22:07.744Z</time>
      </trkpt>
      <trkpt lat="44.50751" lon="6.27354">
        <ele>1207.8000488281</ele>
        <time>2022-04-23T09:22:12.396Z</time>
      </trkpt>
      <trkpt lat="44.50754" lon="6.27346">
        <ele>1207.5999755859</ele>
        <time>2022-04-23T09:22:17.050Z</time>
      </trkpt>
      <trkpt lat="44.50761" lon="6.27321">
        <ele>1206.1999511719</ele>
        <time>2022-04-23T09:22:21.711Z</time>
      </trkpt>
      <trkpt lat="44.50768" lon="6.27307">
        <ele>1205</ele>
        <time>2022-04-23T09:22:26.376Z</time>
      </trkpt>
      <trkpt lat="44.5077" lon="6.27303">
        <ele>1204.4000244141</ele>
        <time>2022-04-23T09:22:31.042Z</time>
      </trkpt>
      <trkpt lat="44.50772" lon="6.27299">
        <ele>1204</ele>
        <time>2022-04-23T09:22:35.709Z</time>
      </trkpt>
      <trkpt lat="44.50779" lon="6.27283">
        <ele>1202.8000488281</ele>
        <time>2022-04-23T09:22:40.381Z</time>
      </trkpt>
      <trkpt lat="44.50785" lon="6.2727">
        <ele>1202</ele>
        <time>2022-04-23T09:22:45.056Z</time>
      </trkpt>
      <trkpt lat="44.50794" lon="6.27259">
        <ele>1201.4000244141</ele>
        <time>2022-04-23T09:22:49.735Z</time>
      </trkpt>
      <trkpt lat="44.50796" lon="6.27248">
        <ele>1200.8000488281</ele>
        <time>2022-04-23T09:22:54.417Z</time>
      </trkpt>
      <trkpt lat="44.50797" lon="6.27236">
        <ele>1200</ele>
        <time>2022-04-23T09:22:59.102Z</time>
      </trkpt>
      <trkpt lat="44.50799" lon="6.2723">
        <ele>1199.5999755859</ele>
        <time>2022-04-23T09:23:03.788Z</time>
      </trkpt>
      <trkpt lat="44.50804" lon="6.27214">
        <ele>1199</ele>
        <time>2022-04-23T09:23:08.478Z</time>
      </trkpt>
      <trkpt lat="44.50806" lon="6.27209">
        <ele>1198.8000488281</ele>
        <time>2022-04-23T09:23:13.170Z</time>
      </trkpt>
      <trkpt lat="44.50812" lon="6.27192">
        <ele>1198</ele>
        <time>2022-04-23T09:23:17.866Z</time>
      </trkpt>
      <trkpt lat="44.50813" lon="6.27187">
        <ele>1197.5999755859</ele>
        <time>2022-04-23T09:23:22.564Z</time>
      </trkpt>
      <trkpt lat="44.50815" lon="6.27181">
        <ele>1197.4000244141</ele>
        <time>2022-04-23T09:23:27.263Z</time>
      </trkpt>
      <trkpt lat="44.50817" lon="6.27167">
        <ele>1197</ele>
        <time>2022-04-23T09:23:31.965Z</time>
      </trkpt>
      <trkpt lat="44.5082" lon="6.27151">
        <ele>1196.4000244141</ele>
        <time>2022-04-23T09:23:36.671Z</time>
      </trkpt>
      <trkpt lat="44.50825" lon="6.27138">
        <ele>1195.1999511719</ele>
        <time>2022-04-23T09:23:41.381Z</time>
      </trkpt>
      <trkpt lat="44.50827" lon="6.27129">
        <ele>1194.4000244141</ele>
        <time>2022-04-23T09:23:46.093Z</time>
      </trkpt>
      <trkpt lat="44.50829" lon="6.27124">
        <ele>1194</ele>
        <time>2022-04-23T09:23:50.806Z</time>
      </trkpt>
      <trkpt lat="44.50832" lon="6.27118">
        <ele>1193.5999755859</ele>
        <time>2022-04-23T09:23:55.521Z</time>
      </trkpt>
      <trkpt lat="44.50834" lon="6.27112">
        <ele>1192.8000488281</ele>
        <time>2022-04-23T09:24:00.238Z</time>
      </trkpt>
      <trkpt lat="44.50838" lon="6.27107">
        <ele>1191.4000244141</ele>
        <time>2022-04-23T09:24:04.956Z</time>
      </trkpt>
      <trkpt lat="44.50842" lon="6.27102">
        <ele>1190</ele>
        <time>2022-04-23T09:24:09.676Z</time>
      </trkpt>
      <trkpt lat="44.50847" lon="6.27096">
        <ele>1188.8000488281</ele>
        <time>2022-04-23T09:24:14.398Z</time>
      </trkpt>
      <trkpt lat="44.50851" lon="6.27089">
        <ele>1187.5999755859</ele>
        <time>2022-04-23T09:24:19.123Z</time>
      </trkpt>
      <trkpt lat="44.50857" lon="6.27084">
        <ele>1186.4000244141</ele>
        <time>2022-04-23T09:24:23.850Z</time>
      </trkpt>
      <trkpt lat="44.50868" lon="6.27076">
        <ele>1183.8000488281</ele>
        <time>2022-04-23T09:24:28.581Z</time>
      </trkpt>
      <trkpt lat="44.50873" lon="6.27073">
        <ele>1182.8000488281</ele>
        <time>2022-04-23T09:24:33.314Z</time>
      </trkpt>
      <trkpt lat="44.50879" lon="6.27069">
        <ele>1182</ele>
        <time>2022-04-23T09:24:38.049Z</time>
      </trkpt>
      <trkpt lat="44.50885" lon="6.27065">
        <ele>1181.1999511719</ele>
        <time>2022-04-23T09:24:42.786Z</time>
      </trkpt>
      <trkpt lat="44.50891" lon="6.27061">
        <ele>1180.8000488281</ele>
        <time>2022-04-23T09:24:47.525Z</time>
      </trkpt>
      <trkpt lat="44.50897" lon="6.27058">
        <ele>1180.1999511719</ele>
        <time>2022-04-23T09:24:52.266Z</time>
      </trkpt>
      <trkpt lat="44.50903" lon="6.27055">
        <ele>1179.8000488281</ele>
        <time>2022-04-23T09:24:57.009Z</time>
      </trkpt>
      <trkpt lat="44.50913" lon="6.27049">
        <ele>1179</ele>
        <time>2022-04-23T09:25:01.756Z</time>
      </trkpt>
      <trkpt lat="44.50922" lon="6.2704">
        <ele>1178</ele>
        <time>2022-04-23T09:25:06.507Z</time>
      </trkpt>
      <trkpt lat="44.50927" lon="6.27037">
        <ele>1177.1999511719</ele>
        <time>2022-04-23T09:25:11.259Z</time>
      </trkpt>
      <trkpt lat="44.50932" lon="6.27035">
        <ele>1176.1999511719</ele>
        <time>2022-04-23T09:25:16.013Z</time>
      </trkpt>
      <trkpt lat="44.50937" lon="6.27035">
        <ele>1174.8000488281</ele>
        <time>2022-04-23T09:25:20.769Z</time>
      </trkpt>
      <trkpt lat="44.50942" lon="6.27036">
        <ele>1173.4000244141</ele>
        <time>2022-04-23T09:25:25.527Z</time>
      </trkpt>
      <trkpt lat="44.50947" lon="6.27038">
        <ele>1172.4000244141</ele>
        <time>2022-04-23T09:25:30.286Z</time>
      </trkpt>
      <trkpt lat="44.50951" lon="6.2704">
        <ele>1171.5999755859</ele>
        <time>2022-04-23T09:25:35.047Z</time>
      </trkpt>
      <trkpt lat="44.50955" lon="6.27041">
        <ele>1170.4000244141</ele>
        <time>2022-04-23T09:25:39.809Z</time>
      </trkpt>
      <trkpt lat="44.50958" lon="6.27037">
        <ele>1169.1999511719</ele>
        <time>2022-04-23T09:25:44.572Z</time>
      </trkpt>
      <trkpt lat="44.50962" lon="6.27033">
        <ele>1168.5999755859</ele>
        <time>2022-04-23T09:25:49.337Z</time>
      </trkpt>
      <trkpt lat="44.50965" lon="6.27028">
        <ele>1167.5999755859</ele>
        <time>2022-04-23T09:25:54.104Z</time>
      </trkpt>
      <trkpt lat="44.50969" lon="6.27023">
        <ele>1166.8000488281</ele>
        <time>2022-04-23T09:25:58.872Z</time>
      </trkpt>
      <trkpt lat="44.50972" lon="6.27016">
        <ele>1165.8000488281</ele>
        <time>2022-04-23T09:26:03.642Z</time>
      </trkpt>
      <trkpt lat="44.50975" lon="6.2701">
        <ele>1164.8000488281</ele>
        <time>2022-04-23T09:26:08.414Z</time>
      </trkpt>
      <trkpt lat="44.50982" lon="6.26996">
        <ele>1163</ele>
        <time>2022-04-23T09:26:13.190Z</time>
      </trkpt>
      <trkpt lat="44.50989" lon="6.26981">
        <ele>1160.8000488281</ele>
        <time>2022-04-23T09:26:17.970Z</time>
      </trkpt>
      <trkpt lat="44.50994" lon="6.26975">
        <ele>1159.5999755859</ele>
        <time>2022-04-23T09:26:22.752Z</time>
      </trkpt>
      <trkpt lat="44.50999" lon="6.2697">
        <ele>1158.1999511719</ele>
        <time>2022-04-23T09:26:27.536Z</time>
      </trkpt>
      <trkpt lat="44.51004" lon="6.26967">
        <ele>1156.5999755859</ele>
        <time>2022-04-23T09:26:32.322Z</time>
      </trkpt>
      <trkpt lat="44.51008" lon="6.26963">
        <ele>1155.4000244141</ele>
        <time>2022-04-23T09:26:37.110Z</time>
      </trkpt>
      <trkpt lat="44.51012" lon="6.26959">
        <ele>1154</ele>
        <time>2022-04-23T09:26:41.900Z</time>
      </trkpt>
      <trkpt lat="44.51015" lon="6.26955">
        <ele>1153</ele>
        <time>2022-04-23T09:26:46.691Z</time>
      </trkpt>
      <trkpt lat="44.51017" lon="6.26952">
        <ele>1151.8000488281</ele>
        <time>2022-04-23T09:26:51.483Z</time>
      </trkpt>
      <trkpt lat="44.51021" lon="6.26943">
        <ele>1149.8000488281</ele>
        <time>2022-04-23T09:26:56.277Z</time>
      </trkpt>
      <trkpt lat="44.51024" lon="6.26929">
        <ele>1148.4000244141</ele>
        <time>2022-04-23T09:27:01.075Z</time>
      </trkpt>
      <trkpt lat="44.51027" lon="6.26915">
        <ele>1146.4000244141</ele>
        <time>2022-04-23T09:27:05.876Z</time>
      </trkpt>
      <trkpt lat="44.5103" lon="6.26909">
        <ele>1145.1999511719</ele>
        <time>2022-04-23T09:27:10.679Z</time>
      </trkpt>
      <trkpt lat="44.51033" lon="6.26905">
        <ele>1143.8000488281</ele>
        <time>2022-04-23T09:27:15.484Z</time>
      </trkpt>
      <trkpt lat="44.51046" lon="6.26902">
        <ele>1142.1999511719</ele>
        <time>2022-04-23T09:27:20.293Z</time>
      </trkpt>
      <trkpt lat="44.51056" lon="6.26897">
        <ele>1140.5999755859</ele>
        <time>2022-04-23T09:27:25.105Z</time>
      </trkpt>
      <trkpt lat="44.51064" lon="6.2689">
        <ele>1138.1999511719</ele>
        <time>2022-04-23T09:27:29.920Z</time>
      </trkpt>
      <trkpt lat="44.5107" lon="6.26889">
        <ele>1136.8000488281</ele>
        <time>2022-04-23T09:27:34.738Z</time>
      </trkpt>
      <trkpt lat="44.51076" lon="6.26891">
        <ele>1135</ele>
        <time>2022-04-23T09:27:39.558Z</time>
      </trkpt>
      <trkpt lat="44.51082" lon="6.26889">
        <ele>1133.8000488281</ele>
        <time>2022-04-23T09:27:44.379Z</time>
      </trkpt>
      <trkpt lat="44.51094" lon="6.26888">
        <ele>1132.1999511719</ele>
        <time>2022-04-23T09:27:49.204Z</time>
      </trkpt>
      <trkpt lat="44.51106" lon="6.26885">
        <ele>1130.8000488281</ele>
        <time>2022-04-23T09:27:54.033Z</time>
      </trkpt>
      <trkpt lat="44.51112" lon="6.26882">
        <ele>1129.4000244141</ele>
        <time>2022-04-23T09:27:58.865Z</time>
      </trkpt>
      <trkpt lat="44.51119" lon="6.2688">
        <ele>1128</ele>
        <time>2022-04-23T09:28:03.699Z</time>
      </trkpt>
      <trkpt lat="44.51125" lon="6.26879">
        <ele>1126.4000244141</ele>
        <time>2022-04-23T09:28:08.535Z</time>
      </trkpt>
      <trkpt lat="44.5113" lon="6.26878">
        <ele>1125.4000244141</ele>
        <time>2022-04-23T09:28:13.373Z</time>
      </trkpt>
      <trkpt lat="44.51135" lon="6.26876">
        <ele>1124.4000244141</ele>
        <time>2022-04-23T09:28:18.212Z</time>
      </trkpt>
      <trkpt lat="44.51139" lon="6.26872">
        <ele>1123.4000244141</ele>
        <time>2022-04-23T09:28:23.053Z</time>
      </trkpt>
      <trkpt lat="44.51146" lon="6.26869">
        <ele>1122.4000244141</ele>
        <time>2022-04-23T09:28:27.896Z</time>
      </trkpt>
      <trkpt lat="44.51152" lon="6.26865">
        <ele>1121.4000244141</ele>
        <time>2022-04-23T09:28:32.741Z</time>
      </trkpt>
      <trkpt lat="44.51157" lon="6.26864">
        <ele>1120</ele>
        <time>2022-04-23T09:28:37.588Z</time>
      </trkpt>
      <trkpt lat="44.51162" lon="6.26865">
        <ele>1119</ele>
        <time>2022-04-23T09:28:42.437Z</time>
      </trkpt>
      <trkpt lat="44.51167" lon="6.26867">
        <ele>1117.8000488281</ele>
        <time>2022-04-23T09:28:47.288Z</time>
      </trkpt>
      <trkpt lat="44.51176" lon="6.26868">
        <ele>1116</ele>
        <time>2022-04-23T09:28:52.142Z</time>
      </trkpt>
      <trkpt lat="44.51185" lon="6.26866">
        <ele>1114.4000244141</ele>
        <time>2022-04-23T09:28:56.999Z</time>
      </trkpt>
      <trkpt lat="44.5119" lon="6.26864">
        <ele>1113.5999755859</ele>
        <time>2022-04-23T09:29:01.857Z</time>
      </trkpt>
      <trkpt lat="44.51196" lon="6.26863">
        <ele>1112.4000244141</ele>
        <time>2022-04-23T09:29:06.717Z</time>
      </trkpt>
      <trkpt lat="44.51201" lon="6.2686">
        <ele>1111.4000244141</ele>
        <time>2022-04-23T09:29:11.579Z</time>
      </trkpt>
      <trkpt lat="44.51209" lon="6.26858">
        <ele>1110.4000244141</ele>
        <time>2022-04-23T09:29:16.444Z</time>
      </trkpt>
      <trkpt lat="44.51221" lon="6.2685">
        <ele>1109.1999511719</ele>
        <time>2022-04-23T09:29:21.313Z</time>
      </trkpt>
      <trkpt lat="44.51227" lon="6.26846">
        <ele>1108</ele>
        <time>2022-04-23T09:29:26.184Z</time>
      </trkpt>
      <trkpt lat="44.51233" lon="6.26843">
        <ele>1106.5999755859</ele>
        <time>2022-04-23T09:29:31.058Z</time>
      </trkpt>
      <trkpt lat="44.51246" lon="6.26835">
        <ele>1104.5999755859</ele>
        <time>2022-04-23T09:29:35.936Z</time>
      </trkpt>
      <trkpt lat="44.51252" lon="6.26829">
        <ele>1103.4000244141</ele>
        <time>2022-04-23T09:29:40.817Z</time>
      </trkpt>
      <trkpt lat="44.51259" lon="6.26824">
        <ele>1102</ele>
        <time>2022-04-23T09:29:45.700Z</time>
      </trkpt>
      <trkpt lat="44.51267" lon="6.26819">
        <ele>1100.4000244141</ele>
        <time>2022-04-23T09:29:50.586Z</time>
      </trkpt>
      <trkpt lat="44.51276" lon="6.26814">
        <ele>1099</ele>
        <time>2022-04-23T09:29:55.475Z</time>
      </trkpt>
      <trkpt lat="44.51283" lon="6.26809">
        <ele>1097.5999755859</ele>
        <time>2022-04-23T09:30:00.367Z</time>
      </trkpt>
      <trkpt lat="44.51292" lon="6.26805">
        <ele>1096</ele>
        <time>2022-04-23T09:30:05.262Z</time>
      </trkpt>
      <trkpt lat="44.513" lon="6.26801">
        <ele>1094.8000488281</ele>
        <time>2022-04-23T09:30:10.160Z</time>
      </trkpt>
      <trkpt lat="44.51307" lon="6.26796">
        <ele>1093.8000488281</ele>
        <time>2022-04-23T09:30:15.061Z</time>
      </trkpt>
      <trkpt lat="44.51315" lon="6.2679">
        <ele>1092.1999511719</ele>
        <time>2022-04-23T09:30:19.965Z</time>
      </trkpt>
      <trkpt lat="44.51323" lon="6.26786">
        <ele>1090.5999755859</ele>
        <time>2022-04-23T09:30:24.871Z</time>
      </trkpt>
      <trkpt lat="44.51337" lon="6.26779">
        <ele>1088.5999755859</ele>
        <time>2022-04-23T09:30:29.782Z</time>
      </trkpt>
      <trkpt lat="44.51345" lon="6.26776">
        <ele>1087.4000244141</ele>
        <time>2022-04-23T09:30:34.696Z</time>
      </trkpt>
      <trkpt lat="44.51358" lon="6.26768">
        <ele>1086</ele>
        <time>2022-04-23T09:30:39.615Z</time>
      </trkpt>
      <trkpt lat="44.51364" lon="6.26765">
        <ele>1085</ele>
        <time>2022-04-23T09:30:44.536Z</time>
      </trkpt>
      <trkpt lat="44.5137" lon="6.26763">
        <ele>1084</ele>
        <time>2022-04-23T09:30:49.459Z</time>
      </trkpt>
      <trkpt lat="44.51378" lon="6.26762">
        <ele>1082.8000488281</ele>
        <time>2022-04-23T09:30:54.384Z</time>
      </trkpt>
      <trkpt lat="44.51394" lon="6.2676">
        <ele>1081.4000244141</ele>
        <time>2022-04-23T09:30:59.315Z</time>
      </trkpt>
      <trkpt lat="44.5141" lon="6.26757">
        <ele>1080.1999511719</ele>
        <time>2022-04-23T09:31:04.251Z</time>
      </trkpt>
      <trkpt lat="44.51439" lon="6.26755">
        <ele>1079.1999511719</ele>
        <time>2022-04-23T09:31:09.197Z</time>
      </trkpt>
      <trkpt lat="44.51465" lon="6.26757">
        <ele>1078.1999511719</ele>
        <time>2022-04-23T09:31:14.151Z</time>
      </trkpt>
      <trkpt lat="44.51474" lon="6.26759">
        <ele>1077.5999755859</ele>
        <time>2022-04-23T09:31:19.109Z</time>
      </trkpt>
      <trkpt lat="44.51497" lon="6.2675">
        <ele>1077</ele>
        <time>2022-04-23T09:31:24.074Z</time>
      </trkpt>
      <trkpt lat="44.51502" lon="6.26744">
        <ele>1077</ele>
        <time>2022-04-23T09:31:29.041Z</time>
      </trkpt>
      <trkpt lat="44.5152" lon="6.26726">
        <ele>1077.4000244141</ele>
        <time>2022-04-23T09:31:34.016Z</time>
      </trkpt>
      <trkpt lat="44.51524" lon="6.26722">
        <ele>1077.5999755859</ele>
        <time>2022-04-23T09:31:38.992Z</time>
      </trkpt>
      <trkpt lat="44.51535" lon="6.26706">
        <ele>1078.5999755859</ele>
        <time>2022-04-23T09:31:43.974Z</time>
      </trkpt>
      <trkpt lat="44.5154" lon="6.26698">
        <ele>1079</ele>
        <time>2022-04-23T09:31:48.958Z</time>
      </trkpt>
      <trkpt lat="44.51546" lon="6.26691">
        <ele>1079.1999511719</ele>
        <time>2022-04-23T09:31:53.945Z</time>
      </trkpt>
      <trkpt lat="44.51553" lon="6.26683">
        <ele>1079.1999511719</ele>
        <time>2022-04-23T09:31:58.935Z</time>
      </trkpt>
      <trkpt lat="44.51561" lon="6.26674">
        <ele>1079.4000244141</ele>
        <time>2022-04-23T09:32:03.928Z</time>
      </trkpt>
      <trkpt lat="44.51574" lon="6.26664">
        <ele>1078.8000488281</ele>
        <time>2022-04-23T09:32:08.926Z</time>
      </trkpt>
      <trkpt lat="44.51589" lon="6.2665">
        <ele>1079</ele>
        <time>2022-04-23T09:32:13.930Z</time>
      </trkpt>
      <trkpt lat="44.51593" lon="6.26646">
        <ele>1079.1999511719</ele>
        <time>2022-04-23T09:32:18.936Z</time>
      </trkpt>
      <trkpt lat="44.51609" lon="6.26631">
        <ele>1080.1999511719</ele>
        <time>2022-04-23T09:32:23.948Z</time>
      </trkpt>
      <trkpt lat="44.51615" lon="6.26623">
        <ele>1080.5999755859</ele>
        <time>2022-04-23T09:32:28.963Z</time>
      </trkpt>
      <trkpt lat="44.51626" lon="6.26606">
        <ele>1081.1999511719</ele>
        <time>2022-04-23T09:32:33.983Z</time>
      </trkpt>
      <trkpt lat="44.51634" lon="6.26587">
        <ele>1081.5999755859</ele>
        <time>2022-04-23T09:32:39.009Z</time>
      </trkpt>
      <trkpt lat="44.51648" lon="6.26554">
        <ele>1082.4000244141</ele>
        <time>2022-04-23T09:32:44.044Z</time>
      </trkpt>
      <trkpt lat="44.5165" lon="6.26548">
        <ele>1082.5999755859</ele>
        <time>2022-04-23T09:32:49.080Z</time>
      </trkpt>
      <trkpt lat="44.51668" lon="6.26514">
        <ele>1083.1999511719</ele>
        <time>2022-04-23T09:32:54.126Z</time>
      </trkpt>
      <trkpt lat="44.51692" lon="6.26495">
        <ele>1082.8000488281</ele>
        <time>2022-04-23T09:32:59.181Z</time>
      </trkpt>
      <trkpt lat="44.51717" lon="6.26474">
        <ele>1081.5999755859</ele>
        <time>2022-04-23T09:33:04.246Z</time>
      </trkpt>
      <trkpt lat="44.51725" lon="6.26467">
        <ele>1081.4000244141</ele>
        <time>2022-04-23T09:33:09.314Z</time>
      </trkpt>
      <trkpt lat="44.51729" lon="6.26464">
        <ele>1081.4000244141</ele>
        <time>2022-04-23T09:33:14.384Z</time>
      </trkpt>
      <trkpt lat="44.51739" lon="6.26457">
        <ele>1081.1999511719</ele>
        <time>2022-04-23T09:33:19.457Z</time>
      </trkpt>
      <trkpt lat="44.51744" lon="6.26454">
        <ele>1081.1999511719</ele>
        <time>2022-04-23T09:33:24.532Z</time>
      </trkpt>
      <trkpt lat="44.51755" lon="6.26441">
        <ele>1081.4000244141</ele>
        <time>2022-04-23T09:33:29.612Z</time>
      </trkpt>
      <trkpt lat="44.51758" lon="6.26437">
        <ele>1081.5999755859</ele>
        <time>2022-04-23T09:33:34.693Z</time>
      </trkpt>
      <trkpt lat="44.51766" lon="6.2642">
        <ele>1082.4000244141</ele>
        <time>2022-04-23T09:33:39.779Z</time>
      </trkpt>
      <trkpt lat="44.51768" lon="6.26416">
        <ele>1082.5999755859</ele>
        <time>2022-04-23T09:33:44.866Z</time>
      </trkpt>
      <trkpt lat="44.51773" lon="6.26405">
        <ele>1083.4000244141</ele>
        <time>2022-04-23T09:33:49.956Z</time>
      </trkpt>
      <trkpt lat="44.51775" lon="6.26396">
        <ele>1084</ele>
        <time>2022-04-23T09:33:55.048Z</time>
      </trkpt>
      <trkpt lat="44.51776" lon="6.26387">
        <ele>1084.5999755859</ele>
        <time>2022-04-23T09:34:00.143Z</time>
      </trkpt>
      <trkpt lat="44.51777" lon="6.2637">
        <ele>1085.8000488281</ele>
        <time>2022-04-23T09:34:05.242Z</time>
      </trkpt>
      <trkpt lat="44.51777" lon="6.26364">
        <ele>1086</ele>
        <time>2022-04-23T09:34:10.342Z</time>
      </trkpt>
      <trkpt lat="44.51777" lon="6.26353">
        <ele>1086.8000488281</ele>
        <time>2022-04-23T09:34:15.445Z</time>
      </trkpt>
      <trkpt lat="44.51778" lon="6.26343">
        <ele>1087.4000244141</ele>
        <time>2022-04-23T09:34:20.550Z</time>
      </trkpt>
      <trkpt lat="44.51778" lon="6.26334">
        <ele>1088.1999511719</ele>
        <time>2022-04-23T09:34:25.657Z</time>
      </trkpt>
      <trkpt lat="44.51779" lon="6.26325">
        <ele>1088.4000244141</ele>
        <time>2022-04-23T09:34:30.766Z</time>
      </trkpt>
      <trkpt lat="44.5178" lon="6.26311">
        <ele>1089.1999511719</ele>
        <time>2022-04-23T09:34:35.879Z</time>
      </trkpt>
      <trkpt lat="44.51782" lon="6.26305">
        <ele>1089.4000244141</ele>
        <time>2022-04-23T09:34:40.993Z</time>
      </trkpt>
      <trkpt lat="44.51792" lon="6.26304">
        <ele>1089.4000244141</ele>
        <time>2022-04-23T09:34:46.110Z</time>
      </trkpt>
      <trkpt lat="44.51798" lon="6.26312">
        <ele>1089.4000244141</ele>
        <time>2022-04-23T09:34:51.230Z</time>
      </trkpt>
      <trkpt lat="44.518" lon="6.26318">
        <ele>1089.4000244141</ele>
        <time>2022-04-23T09:34:56.352Z</time>
      </trkpt>
      <trkpt lat="44.5181" lon="6.26344">
        <ele>1090</ele>
        <time>2022-04-23T09:35:01.481Z</time>
      </trkpt>
      <trkpt lat="44.51811" lon="6.26347">
        <ele>1090.1999511719</ele>
        <time>2022-04-23T09:35:06.611Z</time>
      </trkpt>
      <trkpt lat="44.51814" lon="6.26373">
        <ele>1090.5999755859</ele>
        <time>2022-04-23T09:35:11.747Z</time>
      </trkpt>
      <trkpt lat="44.51814" lon="6.26396">
        <ele>1090.5999755859</ele>
        <time>2022-04-23T09:35:16.888Z</time>
      </trkpt>
      <trkpt lat="44.51809" lon="6.26432">
        <ele>1089.8000488281</ele>
        <time>2022-04-23T09:35:22.038Z</time>
      </trkpt>
      <trkpt lat="44.51798" lon="6.26474">
        <ele>1089</ele>
        <time>2022-04-23T09:35:27.199Z</time>
      </trkpt>
      <trkpt lat="44.51797" lon="6.2648">
        <ele>1089</ele>
        <time>2022-04-23T09:35:32.361Z</time>
      </trkpt>
      <trkpt lat="44.51791" lon="6.26513">
        <ele>1088.4000244141</ele>
        <time>2022-04-23T09:35:37.531Z</time>
      </trkpt>
      <trkpt lat="44.5179" lon="6.26529">
        <ele>1088</ele>
        <time>2022-04-23T09:35:42.705Z</time>
      </trkpt>
      <trkpt lat="44.51789" lon="6.26537">
        <ele>1087.5999755859</ele>
        <time>2022-04-23T09:35:47.881Z</time>
      </trkpt>
      <trkpt lat="44.51789" lon="6.26555">
        <ele>1087</ele>
        <time>2022-04-23T09:35:53.061Z</time>
      </trkpt>
      <trkpt lat="44.51789" lon="6.26573">
        <ele>1086.4000244141</ele>
        <time>2022-04-23T09:35:58.245Z</time>
      </trkpt>
      <trkpt lat="44.5179" lon="6.2659">
        <ele>1086.1999511719</ele>
        <time>2022-04-23T09:36:03.433Z</time>
      </trkpt>
      <trkpt lat="44.5179" lon="6.26597">
        <ele>1086</ele>
        <time>2022-04-23T09:36:08.623Z</time>
      </trkpt>
      <trkpt lat="44.51787" lon="6.26615">
        <ele>1085.8000488281</ele>
        <time>2022-04-23T09:36:13.817Z</time>
      </trkpt>
      <trkpt lat="44.51785" lon="6.26621">
        <ele>1085.8000488281</ele>
        <time>2022-04-23T09:36:19.013Z</time>
      </trkpt>
      <trkpt lat="44.51782" lon="6.26633">
        <ele>1085.8000488281</ele>
        <time>2022-04-23T09:36:24.212Z</time>
      </trkpt>
      <trkpt lat="44.51777" lon="6.26649">
        <ele>1085</ele>
        <time>2022-04-23T09:36:29.415Z</time>
      </trkpt>
      <trkpt lat="44.51773" lon="6.26667">
        <ele>1083.8000488281</ele>
        <time>2022-04-23T09:36:34.622Z</time>
      </trkpt>
      <trkpt lat="44.51765" lon="6.26692">
        <ele>1082.5999755859</ele>
        <time>2022-04-23T09:36:39.836Z</time>
      </trkpt>
      <trkpt lat="44.51758" lon="6.2671">
        <ele>1081.4000244141</ele>
        <time>2022-04-23T09:36:45.055Z</time>
      </trkpt>
      <trkpt lat="44.51754" lon="6.2673">
        <ele>1080</ele>
        <time>2022-04-23T09:36:50.279Z</time>
      </trkpt>
      <trkpt lat="44.51752" lon="6.26747">
        <ele>1079</ele>
        <time>2022-04-23T09:36:55.507Z</time>
      </trkpt>
      <trkpt lat="44.51752" lon="6.26753">
        <ele>1078.1999511719</ele>
        <time>2022-04-23T09:37:00.736Z</time>
      </trkpt>
      <trkpt lat="44.51752" lon="6.26759">
        <ele>1077.4000244141</ele>
        <time>2022-04-23T09:37:05.967Z</time>
      </trkpt>
      <trkpt lat="44.51754" lon="6.26764">
        <ele>1076.5999755859</ele>
        <time>2022-04-23T09:37:11.199Z</time>
      </trkpt>
      <trkpt lat="44.51757" lon="6.26767">
        <ele>1076</ele>
        <time>2022-04-23T09:37:16.432Z</time>
      </trkpt>
      <trkpt lat="44.51765" lon="6.2677">
        <ele>1074.8000488281</ele>
        <time>2022-04-23T09:37:21.668Z</time>
      </trkpt>
      <trkpt lat="44.51775" lon="6.26773">
        <ele>1074.1999511719</ele>
        <time>2022-04-23T09:37:26.907Z</time>
      </trkpt>
      <trkpt lat="44.51779" lon="6.26774">
        <ele>1074</ele>
        <time>2022-04-23T09:37:32.148Z</time>
      </trkpt>
      <trkpt lat="44.5179" lon="6.26774">
        <ele>1073.5999755859</ele>
        <time>2022-04-23T09:37:37.392Z</time>
      </trkpt>
      <trkpt lat="44.51801" lon="6.26773">
        <ele>1073</ele>
        <time>2022-04-23T09:37:42.640Z</time>
      </trkpt>
      <trkpt lat="44.51813" lon="6.26773">
        <ele>1072.1999511719</ele>
        <time>2022-04-23T09:37:47.892Z</time>
      </trkpt>
      <trkpt lat="44.51819" lon="6.26773">
        <ele>1071.8000488281</ele>
        <time>2022-04-23T09:37:53.146Z</time>
      </trkpt>
      <trkpt lat="44.51826" lon="6.26774">
        <ele>1071.1999511719</ele>
        <time>2022-04-23T09:37:58.402Z</time>
      </trkpt>
      <trkpt lat="44.51833" lon="6.26775">
        <ele>1070.5999755859</ele>
        <time>2022-04-23T09:38:03.661Z</time>
      </trkpt>
      <trkpt lat="44.5184" lon="6.26776">
        <ele>1070.1999511719</ele>
        <time>2022-04-23T09:38:08.922Z</time>
      </trkpt>
      <trkpt lat="44.51848" lon="6.26777">
        <ele>1069.4000244141</ele>
        <time>2022-04-23T09:38:14.185Z</time>
      </trkpt>
      <trkpt lat="44.51865" lon="6.26778">
        <ele>1068</ele>
        <time>2022-04-23T09:38:19.454Z</time>
      </trkpt>
      <trkpt lat="44.51874" lon="6.26779">
        <ele>1067</ele>
        <time>2022-04-23T09:38:24.726Z</time>
      </trkpt>
      <trkpt lat="44.51881" lon="6.26779">
        <ele>1065.5999755859</ele>
        <time>2022-04-23T09:38:30.001Z</time>
      </trkpt>
      <trkpt lat="44.51888" lon="6.26778">
        <ele>1064.1999511719</ele>
        <time>2022-04-23T09:38:35.278Z</time>
      </trkpt>
      <trkpt lat="44.51894" lon="6.26776">
        <ele>1063.1999511719</ele>
        <time>2022-04-23T09:38:40.557Z</time>
      </trkpt>
      <trkpt lat="44.51899" lon="6.26775">
        <ele>1062.5999755859</ele>
        <time>2022-04-23T09:38:45.837Z</time>
      </trkpt>
      <trkpt lat="44.51911" lon="6.26775">
        <ele>1061.5999755859</ele>
        <time>2022-04-23T09:38:51.121Z</time>
      </trkpt>
      <trkpt lat="44.51917" lon="6.26773">
        <ele>1060.8000488281</ele>
        <time>2022-04-23T09:38:56.408Z</time>
      </trkpt>
      <trkpt lat="44.51924" lon="6.2677">
        <ele>1060.4000244141</ele>
        <time>2022-04-23T09:39:01.697Z</time>
      </trkpt>
      <trkpt lat="44.51936" lon="6.26764">
        <ele>1058.8000488281</ele>
        <time>2022-04-23T09:39:06.990Z</time>
      </trkpt>
      <trkpt lat="44.51942" lon="6.26763">
        <ele>1058</ele>
        <time>2022-04-23T09:39:12.285Z</time>
      </trkpt>
      <trkpt lat="44.51948" lon="6.26763">
        <ele>1057.4000244141</ele>
        <time>2022-04-23T09:39:17.582Z</time>
      </trkpt>
      <trkpt lat="44.5196" lon="6.26757">
        <ele>1056.1999511719</ele>
        <time>2022-04-23T09:39:22.883Z</time>
      </trkpt>
      <trkpt lat="44.51967" lon="6.26752">
        <ele>1055</ele>
        <time>2022-04-23T09:39:28.187Z</time>
      </trkpt>
      <trkpt lat="44.51972" lon="6.26746">
        <ele>1054</ele>
        <time>2022-04-23T09:39:33.493Z</time>
      </trkpt>
      <trkpt lat="44.51978" lon="6.26741">
        <ele>1053.1999511719</ele>
        <time>2022-04-23T09:39:38.802Z</time>
      </trkpt>
      <trkpt lat="44.51984" lon="6.26737">
        <ele>1052.5999755859</ele>
        <time>2022-04-23T09:39:44.113Z</time>
      </trkpt>
      <trkpt lat="44.51991" lon="6.26734">
        <ele>1051.8000488281</ele>
        <time>2022-04-23T09:39:49.426Z</time>
      </trkpt>
      <trkpt lat="44.51998" lon="6.26731">
        <ele>1050.4000244141</ele>
        <time>2022-04-23T09:39:54.741Z</time>
      </trkpt>
      <trkpt lat="44.52003" lon="6.26727">
        <ele>1049.5999755859</ele>
        <time>2022-04-23T09:40:00.058Z</time>
      </trkpt>
      <trkpt lat="44.52007" lon="6.2672">
        <ele>1048.8000488281</ele>
        <time>2022-04-23T09:40:05.378Z</time>
      </trkpt>
      <trkpt lat="44.5201" lon="6.26713">
        <ele>1048</ele>
        <time>2022-04-23T09:40:10.700Z</time>
      </trkpt>
      <trkpt lat="44.52013" lon="6.26706">
        <ele>1047</ele>
        <time>2022-04-23T09:40:16.023Z</time>
      </trkpt>
      <trkpt lat="44.52018" lon="6.26701">
        <ele>1046</ele>
        <time>2022-04-23T09:40:21.348Z</time>
      </trkpt>
      <trkpt lat="44.52028" lon="6.26705">
        <ele>1045.5999755859</ele>
        <time>2022-04-23T09:40:26.677Z</time>
      </trkpt>
      <trkpt lat="44.52039" lon="6.26705">
        <ele>1045</ele>
        <time>2022-04-23T09:40:32.010Z</time>
      </trkpt>
      <trkpt lat="44.52051" lon="6.26703">
        <ele>1044.5999755859</ele>
        <time>2022-04-23T09:40:37.346Z</time>
      </trkpt>
      <trkpt lat="44.52056" lon="6.26702">
        <ele>1044.4000244141</ele>
        <time>2022-04-23T09:40:42.684Z</time>
      </trkpt>
      <trkpt lat="44.5207" lon="6.26692">
        <ele>1044.4000244141</ele>
        <time>2022-04-23T09:40:48.027Z</time>
      </trkpt>
      <trkpt lat="44.52078" lon="6.2668">
        <ele>1044</ele>
        <time>2022-04-23T09:40:53.374Z</time>
      </trkpt>
      <trkpt lat="44.52082" lon="6.26673">
        <ele>1043.8000488281</ele>
        <time>2022-04-23T09:40:58.723Z</time>
      </trkpt>
      <trkpt lat="44.52086" lon="6.26667">
        <ele>1043.5999755859</ele>
        <time>2022-04-23T09:41:04.074Z</time>
      </trkpt>
      <trkpt lat="44.52095" lon="6.26654">
        <ele>1042.8000488281</ele>
        <time>2022-04-23T09:41:09.430Z</time>
      </trkpt>
      <trkpt lat="44.52101" lon="6.26651">
        <ele>1042.5999755859</ele>
        <time>2022-04-23T09:41:14.788Z</time>
      </trkpt>
      <trkpt lat="44.52122" lon="6.26646">
        <ele>1042.4000244141</ele>
        <time>2022-04-23T09:41:20.153Z</time>
      </trkpt>
      <trkpt lat="44.52143" lon="6.2664">
        <ele>1042.8000488281</ele>
        <time>2022-04-23T09:41:25.525Z</time>
      </trkpt>
      <trkpt lat="44.52148" lon="6.26639">
        <ele>1042.8000488281</ele>
        <time>2022-04-23T09:41:30.898Z</time>
      </trkpt>
      <trkpt lat="44.52184" lon="6.26634">
        <ele>1043.5999755859</ele>
        <time>2022-04-23T09:41:36.283Z</time>
      </trkpt>
      <trkpt lat="44.52194" lon="6.26633">
        <ele>1044</ele>
        <time>2022-04-23T09:41:41.672Z</time>
      </trkpt>
      <trkpt lat="44.522" lon="6.26632">
        <ele>1043.8000488281</ele>
        <time>2022-04-23T09:41:47.063Z</time>
      </trkpt>
      <trkpt lat="44.5221" lon="6.26626">
        <ele>1043.1999511719</ele>
        <time>2022-04-23T09:41:52.457Z</time>
      </trkpt>
      <trkpt lat="44.52216" lon="6.26623">
        <ele>1042.4000244141</ele>
        <time>2022-04-23T09:41:57.853Z</time>
      </trkpt>
      <trkpt lat="44.52226" lon="6.26615">
        <ele>1041.1999511719</ele>
        <time>2022-04-23T09:42:03.253Z</time>
      </trkpt>
      <trkpt lat="44.52235" lon="6.26604">
        <ele>1040</ele>
        <time>2022-04-23T09:42:08.657Z</time>
      </trkpt>
      <trkpt lat="44.52241" lon="6.26592">
        <ele>1038.5999755859</ele>
        <time>2022-04-23T09:42:14.065Z</time>
      </trkpt>
      <trkpt lat="44.52253" lon="6.26574">
        <ele>1037.1999511719</ele>
        <time>2022-04-23T09:42:19.478Z</time>
      </trkpt>
      <trkpt lat="44.52258" lon="6.26572">
        <ele>1036.1999511719</ele>
        <time>2022-04-23T09:42:24.893Z</time>
      </trkpt>
      <trkpt lat="44.52261" lon="6.26572">
        <ele>1035.5999755859</ele>
        <time>2022-04-23T09:42:30.309Z</time>
      </trkpt>
      <trkpt lat="44.52263" lon="6.26574">
        <ele>1035.4000244141</ele>
        <time>2022-04-23T09:42:35.726Z</time>
      </trkpt>
      <trkpt lat="44.52274" lon="6.26583">
        <ele>1035</ele>
        <time>2022-04-23T09:42:41.147Z</time>
      </trkpt>
      <trkpt lat="44.52278" lon="6.26583">
        <ele>1034.8000488281</ele>
        <time>2022-04-23T09:42:46.570Z</time>
      </trkpt>
      <trkpt lat="44.52292" lon="6.26579">
        <ele>1034.8000488281</ele>
        <time>2022-04-23T09:42:51.997Z</time>
      </trkpt>
      <trkpt lat="44.52304" lon="6.26572">
        <ele>1035.8000488281</ele>
        <time>2022-04-23T09:42:57.429Z</time>
      </trkpt>
      <trkpt lat="44.52315" lon="6.26568">
        <ele>1036</ele>
        <time>2022-04-23T09:43:02.864Z</time>
      </trkpt>
      <trkpt lat="44.5232" lon="6.26567">
        <ele>1035.5999755859</ele>
        <time>2022-04-23T09:43:08.301Z</time>
      </trkpt>
      <trkpt lat="44.52335" lon="6.26563">
        <ele>1034</ele>
        <time>2022-04-23T09:43:13.743Z</time>
      </trkpt>
      <trkpt lat="44.5234" lon="6.26562">
        <ele>1033.4000244141</ele>
        <time>2022-04-23T09:43:19.187Z</time>
      </trkpt>
      <trkpt lat="44.52346" lon="6.26561">
        <ele>1032.4000244141</ele>
        <time>2022-04-23T09:43:24.633Z</time>
      </trkpt>
      <trkpt lat="44.52355" lon="6.26561">
        <ele>1030.4000244141</ele>
        <time>2022-04-23T09:43:30.082Z</time>
      </trkpt>
      <trkpt lat="44.5236" lon="6.26561">
        <ele>1029.1999511719</ele>
        <time>2022-04-23T09:43:35.532Z</time>
      </trkpt>
      <trkpt lat="44.52369" lon="6.26561">
        <ele>1027.8000488281</ele>
        <time>2022-04-23T09:43:40.986Z</time>
      </trkpt>
      <trkpt lat="44.52378" lon="6.26561">
        <ele>1027.5999755859</ele>
        <time>2022-04-23T09:43:46.442Z</time>
      </trkpt>
      <trkpt lat="44.52383" lon="6.26559">
        <ele>1027.8000488281</ele>
        <time>2022-04-23T09:43:51.900Z</time>
      </trkpt>
      <trkpt lat="44.52391" lon="6.26554">
        <ele>1028.1999511719</ele>
        <time>2022-04-23T09:43:57.361Z</time>
      </trkpt>
      <trkpt lat="44.52399" lon="6.26548">
        <ele>1028.4000244141</ele>
        <time>2022-04-23T09:44:02.825Z</time>
      </trkpt>
      <trkpt lat="44.52403" lon="6.26547">
        <ele>1028.4000244141</ele>
        <time>2022-04-23T09:44:08.290Z</time>
      </trkpt>
      <trkpt lat="44.52413" lon="6.26542">
        <ele>1028.5999755859</ele>
        <time>2022-04-23T09:44:13.759Z</time>
      </trkpt>
      <trkpt lat="44.52416" lon="6.2654">
        <ele>1028.8000488281</ele>
        <time>2022-04-23T09:44:19.229Z</time>
      </trkpt>
      <trkpt lat="44.5242" lon="6.26537">
        <ele>1029.1999511719</ele>
        <time>2022-04-23T09:44:24.700Z</time>
      </trkpt>
      <trkpt lat="44.52429" lon="6.26532">
        <ele>1030.5999755859</ele>
        <time>2022-04-23T09:44:30.175Z</time>
      </trkpt>
      <trkpt lat="44.52439" lon="6.26529">
        <ele>1031</ele>
        <time>2022-04-23T09:44:35.653Z</time>
      </trkpt>
      <trkpt lat="44.52459" lon="6.2652">
        <ele>1029.8000488281</ele>
        <time>2022-04-23T09:44:41.138Z</time>
      </trkpt>
      <trkpt lat="44.52466" lon="6.26516">
        <ele>1029.4000244141</ele>
        <time>2022-04-23T09:44:46.625Z</time>
      </trkpt>
      <trkpt lat="44.52479" lon="6.26505">
        <ele>1028.5999755859</ele>
        <time>2022-04-23T09:44:52.118Z</time>
      </trkpt>
      <trkpt lat="44.52483" lon="6.26502">
        <ele>1028.1999511719</ele>
        <time>2022-04-23T09:44:57.612Z</time>
      </trkpt>
      <trkpt lat="44.52491" lon="6.26496">
        <ele>1027</ele>
        <time>2022-04-23T09:45:03.109Z</time>
      </trkpt>
      <trkpt lat="44.52493" lon="6.26494">
        <ele>1027</ele>
        <time>2022-04-23T09:45:08.607Z</time>
      </trkpt>
      <trkpt lat="44.52506" lon="6.26484">
        <ele>1026</ele>
        <time>2022-04-23T09:45:14.110Z</time>
      </trkpt>
      <trkpt lat="44.52509" lon="6.26482">
        <ele>1025.8000488281</ele>
        <time>2022-04-23T09:45:19.614Z</time>
      </trkpt>
      <trkpt lat="44.52522" lon="6.26471">
        <ele>1025.1999511719</ele>
        <time>2022-04-23T09:45:25.123Z</time>
      </trkpt>
      <trkpt lat="44.52525" lon="6.26468">
        <ele>1025</ele>
        <time>2022-04-23T09:45:30.633Z</time>
      </trkpt>
      <trkpt lat="44.52543" lon="6.26454">
        <ele>1023.5999755859</ele>
        <time>2022-04-23T09:45:36.150Z</time>
      </trkpt>
      <trkpt lat="44.52562" lon="6.26439">
        <ele>1022.200012207</ele>
        <time>2022-04-23T09:45:41.674Z</time>
      </trkpt>
      <trkpt lat="44.52568" lon="6.26435">
        <ele>1021.799987793</ele>
        <time>2022-04-23T09:45:47.200Z</time>
      </trkpt>
      <trkpt lat="44.52586" lon="6.26423">
        <ele>1020.799987793</ele>
        <time>2022-04-23T09:45:52.733Z</time>
      </trkpt>
      <trkpt lat="44.52596" lon="6.26414">
        <ele>1020.200012207</ele>
        <time>2022-04-23T09:45:58.270Z</time>
      </trkpt>
      <trkpt lat="44.52601" lon="6.26408">
        <ele>1020</ele>
        <time>2022-04-23T09:46:03.809Z</time>
      </trkpt>
      <trkpt lat="44.52611" lon="6.26386">
        <ele>1019.799987793</ele>
        <time>2022-04-23T09:46:09.354Z</time>
      </trkpt>
      <trkpt lat="44.52615" lon="6.26355">
        <ele>1019.799987793</ele>
        <time>2022-04-23T09:46:14.907Z</time>
      </trkpt>
      <trkpt lat="44.52616" lon="6.26347">
        <ele>1019.799987793</ele>
        <time>2022-04-23T09:46:20.462Z</time>
      </trkpt>
      <trkpt lat="44.52619" lon="6.26316">
        <ele>1019.4000244141</ele>
        <time>2022-04-23T09:46:26.024Z</time>
      </trkpt>
      <trkpt lat="44.52624" lon="6.26301">
        <ele>1019.200012207</ele>
        <time>2022-04-23T09:46:31.590Z</time>
      </trkpt>
      <trkpt lat="44.52639" lon="6.26289">
        <ele>1019.200012207</ele>
        <time>2022-04-23T09:46:37.162Z</time>
      </trkpt>
      <trkpt lat="44.52656" lon="6.26284">
        <ele>1019.200012207</ele>
        <time>2022-04-23T09:46:42.739Z</time>
      </trkpt>
      <trkpt lat="44.52667" lon="6.26282">
        <ele>1019.200012207</ele>
        <time>2022-04-23T09:46:48.320Z</time>
      </trkpt>
      <trkpt lat="44.52701" lon="6.26268">
        <ele>1019.5999755859</ele>
        <time>2022-04-23T09:46:53.913Z</time>
      </trkpt>
      <trkpt lat="44.52735" lon="6.2624">
        <ele>1018.4000244141</ele>
        <time>2022-04-23T09:46:59.519Z</time>
      </trkpt>
      <trkpt lat="44.52774" lon="6.262">
        <ele>1017.4000244141</ele>
        <time>2022-04-23T09:47:05.141Z</time>
      </trkpt>
      <trkpt lat="44.52811" lon="6.26161">
        <ele>1017.799987793</ele>
        <time>2022-04-23T09:47:10.778Z</time>
      </trkpt>
      <trkpt lat="44.52843" lon="6.26116">
        <ele>1018.200012207</ele>
        <time>2022-04-23T09:47:16.430Z</time>
      </trkpt>
      <trkpt lat="44.52858" lon="6.26092">
        <ele>1019.200012207</ele>
        <time>2022-04-23T09:47:22.090Z</time>
      </trkpt>
      <trkpt lat="44.52862" lon="6.26088">
        <ele>1019.4000244141</ele>
        <time>2022-04-23T09:47:27.751Z</time>
      </trkpt>
      <trkpt lat="44.52865" lon="6.26084">
        <ele>1020</ele>
        <time>2022-04-23T09:47:33.414Z</time>
      </trkpt>
      <trkpt lat="44.52884" lon="6.26069">
        <ele>1020.799987793</ele>
        <time>2022-04-23T09:47:39.084Z</time>
      </trkpt>
      <trkpt lat="44.52888" lon="6.26067">
        <ele>1020.799987793</ele>
        <time>2022-04-23T09:47:44.756Z</time>
      </trkpt>
      <trkpt lat="44.52902" lon="6.26062">
        <ele>1020.5999755859</ele>
        <time>2022-04-23T09:47:50.432Z</time>
      </trkpt>
      <trkpt lat="44.52911" lon="6.26063">
        <ele>1020.5999755859</ele>
        <time>2022-04-23T09:47:56.111Z</time>
      </trkpt>
      <trkpt lat="44.52928" lon="6.26076">
        <ele>1020.4000244141</ele>
        <time>2022-04-23T09:48:01.797Z</time>
      </trkpt>
      <trkpt lat="44.52932" lon="6.26081">
        <ele>1020.200012207</ele>
        <time>2022-04-23T09:48:07.485Z</time>
      </trkpt>
      <trkpt lat="44.5295" lon="6.26104">
        <ele>1018.799987793</ele>
        <time>2022-04-23T09:48:13.181Z</time>
      </trkpt>
      <trkpt lat="44.52955" lon="6.2611">
        <ele>1018.4000244141</ele>
        <time>2022-04-23T09:48:18.879Z</time>
      </trkpt>
      <trkpt lat="44.52965" lon="6.26123">
        <ele>1017.799987793</ele>
        <time>2022-04-23T09:48:24.581Z</time>
      </trkpt>
      <trkpt lat="44.52984" lon="6.26148">
        <ele>1016.5999755859</ele>
        <time>2022-04-23T09:48:30.292Z</time>
      </trkpt>
      <trkpt lat="44.53015" lon="6.2619">
        <ele>1016.4000244141</ele>
        <time>2022-04-23T09:48:36.017Z</time>
      </trkpt>
      <trkpt lat="44.53048" lon="6.26237">
        <ele>1016.4000244141</ele>
        <time>2022-04-23T09:48:41.758Z</time>
      </trkpt>
      <trkpt lat="44.5307" lon="6.26263">
        <ele>1017</ele>
        <time>2022-04-23T09:48:47.508Z</time>
      </trkpt>
      <trkpt lat="44.53073" lon="6.26267">
        <ele>1017.4000244141</ele>
        <time>2022-04-23T09:48:53.260Z</time>
      </trkpt>
      <trkpt lat="44.53078" lon="6.26274">
        <ele>1017.799987793</ele>
        <time>2022-04-23T09:48:59.014Z</time>
      </trkpt>
      <trkpt lat="44.53082" lon="6.26281">
        <ele>1018.799987793</ele>
        <time>2022-04-23T09:49:04.770Z</time>
      </trkpt>
      <trkpt lat="44.53084" lon="6.26284">
        <ele>1019</ele>
        <time>2022-04-23T09:49:10.527Z</time>
      </trkpt>
      <trkpt lat="44.53101" lon="6.26305">
        <ele>1020.200012207</ele>
        <time>2022-04-23T09:49:16.291Z</time>
      </trkpt>
      <trkpt lat="44.53103" lon="6.26307">
        <ele>1020.5999755859</ele>
        <time>2022-04-23T09:49:22.056Z</time>
      </trkpt>
      <trkpt lat="44.53112" lon="6.26318">
        <ele>1021.4000244141</ele>
        <time>2022-04-23T09:49:27.825Z</time>
      </trkpt>
      <trkpt lat="44.53122" lon="6.2633">
        <ele>1022.200012207</ele>
        <time>2022-04-23T09:49:33.599Z</time>
      </trkpt>
      <trkpt lat="44.53126" lon="6.26335">
        <ele>1022.5999755859</ele>
        <time>2022-04-23T09:49:39.374Z</time>
      </trkpt>
      <trkpt lat="44.53139" lon="6.26349">
        <ele>1023.799987793</ele>
        <time>2022-04-23T09:49:45.155Z</time>
      </trkpt>
      <trkpt lat="44.53152" lon="6.2636">
        <ele>1024.8000488281</ele>
        <time>2022-04-23T09:49:50.941Z</time>
      </trkpt>
      <trkpt lat="44.53157" lon="6.26363">
        <ele>1025.4000244141</ele>
        <time>2022-04-23T09:49:56.729Z</time>
      </trkpt>
      <trkpt lat="44.5317" lon="6.26367">
        <ele>1026.1999511719</ele>
        <time>2022-04-23T09:50:02.521Z</time>
      </trkpt>
      <trkpt lat="44.53172" lon="6.26368">
        <ele>1026.1999511719</ele>
        <time>2022-04-23T09:50:08.314Z</time>
      </trkpt>
      <trkpt lat="44.53193" lon="6.2637">
        <ele>1027</ele>
        <time>2022-04-23T09:50:14.114Z</time>
      </trkpt>
      <trkpt lat="44.53196" lon="6.26369">
        <ele>1027.1999511719</ele>
        <time>2022-04-23T09:50:19.915Z</time>
      </trkpt>
      <trkpt lat="44.532" lon="6.26371">
        <ele>1027.4000244141</ele>
        <time>2022-04-23T09:50:25.717Z</time>
      </trkpt>
      <trkpt lat="44.53201" lon="6.26374">
        <ele>1027.5999755859</ele>
        <time>2022-04-23T09:50:31.520Z</time>
      </trkpt>
      <trkpt lat="44.53199" lon="6.26379">
        <ele>1028.1999511719</ele>
        <time>2022-04-23T09:50:37.324Z</time>
      </trkpt>
      <trkpt lat="44.53198" lon="6.26379">
        <ele>1028.4000244141</ele>
        <time>2022-04-23T09:50:43.129Z</time>
      </trkpt>
      <trkpt lat="44.53196" lon="6.2638">
        <ele>1028.5999755859</ele>
        <time>2022-04-23T09:50:48.934Z</time>
      </trkpt>
      <trkpt lat="44.53191" lon="6.26385">
        <ele>1029.1999511719</ele>
        <time>2022-04-23T09:50:54.741Z</time>
      </trkpt>
      <trkpt lat="44.53187" lon="6.26389">
        <ele>1030</ele>
        <time>2022-04-23T09:51:00.550Z</time>
      </trkpt>
      <trkpt lat="44.53186" lon="6.2639">
        <ele>1030.4000244141</ele>
        <time>2022-04-23T09:51:06.359Z</time>
      </trkpt>
      <trkpt lat="44.53175" lon="6.264">
        <ele>1031.5999755859</ele>
        <time>2022-04-23T09:51:12.173Z</time>
      </trkpt>
      <trkpt lat="44.53173" lon="6.26401">
        <ele>1032</ele>
        <time>2022-04-23T09:51:17.987Z</time>
      </trkpt>
      <trkpt lat="44.53154" lon="6.26404">
        <ele>1032.4000244141</ele>
        <time>2022-04-23T09:51:23.808Z</time>
      </trkpt>
      <trkpt lat="44.53133" lon="6.26413">
        <ele>1031.1999511719</ele>
        <time>2022-04-23T09:51:29.636Z</time>
      </trkpt>
      <trkpt lat="44.5313" lon="6.26416">
        <ele>1031</ele>
        <time>2022-04-23T09:51:35.465Z</time>
      </trkpt>
      <trkpt lat="44.53121" lon="6.26425">
        <ele>1030.4000244141</ele>
        <time>2022-04-23T09:51:41.298Z</time>
      </trkpt>
      <trkpt lat="44.53119" lon="6.26428">
        <ele>1030.1999511719</ele>
        <time>2022-04-23T09:51:47.132Z</time>
      </trkpt>
      <trkpt lat="44.5311" lon="6.26444">
        <ele>1029.1999511719</ele>
        <time>2022-04-23T09:51:52.971Z</time>
      </trkpt>
      <trkpt lat="44.53108" lon="6.2645">
        <ele>1028.8000488281</ele>
        <time>2022-04-23T09:51:58.811Z</time>
      </trkpt>
      <trkpt lat="44.53107" lon="6.26456">
        <ele>1028.5999755859</ele>
        <time>2022-04-23T09:52:04.653Z</time>
      </trkpt>
      <trkpt lat="44.53103" lon="6.26475">
        <ele>1028</ele>
        <time>2022-04-23T09:52:10.499Z</time>
      </trkpt>
      <trkpt lat="44.53101" lon="6.26488">
        <ele>1027.8000488281</ele>
        <time>2022-04-23T09:52:16.348Z</time>
      </trkpt>
      <trkpt lat="44.531" lon="6.26527">
        <ele>1026.8000488281</ele>
        <time>2022-04-23T09:52:22.207Z</time>
      </trkpt>
      <trkpt lat="44.53101" lon="6.26565">
        <ele>1025.8000488281</ele>
        <time>2022-04-23T09:52:28.075Z</time>
      </trkpt>
      <trkpt lat="44.53101" lon="6.26588">
        <ele>1024.8000488281</ele>
        <time>2022-04-23T09:52:33.948Z</time>
      </trkpt>
      <trkpt lat="44.53101" lon="6.266">
        <ele>1024.1999511719</ele>
        <time>2022-04-23T09:52:39.824Z</time>
      </trkpt>
      <trkpt lat="44.53101" lon="6.26624">
        <ele>1023</ele>
        <time>2022-04-23T09:52:45.706Z</time>
      </trkpt>
      <trkpt lat="44.53101" lon="6.26636">
        <ele>1022.5999755859</ele>
        <time>2022-04-23T09:52:51.591Z</time>
      </trkpt>
      <trkpt lat="44.53105" lon="6.26659">
        <ele>1022.200012207</ele>
        <time>2022-04-23T09:52:57.481Z</time>
      </trkpt>
      <trkpt lat="44.5311" lon="6.26679">
        <ele>1022.200012207</ele>
        <time>2022-04-23T09:53:03.376Z</time>
      </trkpt>
      <trkpt lat="44.53116" lon="6.26699">
        <ele>1021.799987793</ele>
        <time>2022-04-23T09:53:09.276Z</time>
      </trkpt>
      <trkpt lat="44.53118" lon="6.2671">
        <ele>1021.5999755859</ele>
        <time>2022-04-23T09:53:15.179Z</time>
      </trkpt>
      <trkpt lat="44.53123" lon="6.26743">
        <ele>1020.799987793</ele>
        <time>2022-04-23T09:53:21.090Z</time>
      </trkpt>
      <trkpt lat="44.53126" lon="6.26765">
        <ele>1020.200012207</ele>
        <time>2022-04-23T09:53:27.006Z</time>
      </trkpt>
      <trkpt lat="44.53122" lon="6.26785">
        <ele>1019.5999755859</ele>
        <time>2022-04-23T09:53:32.927Z</time>
      </trkpt>
      <trkpt lat="44.53118" lon="6.26793">
        <ele>1019.4000244141</ele>
        <time>2022-04-23T09:53:38.850Z</time>
      </trkpt>
      <trkpt lat="44.53104" lon="6.26813">
        <ele>1019.200012207</ele>
        <time>2022-04-23T09:53:44.780Z</time>
      </trkpt>
      <trkpt lat="44.53099" lon="6.26818">
        <ele>1019</ele>
        <time>2022-04-23T09:53:50.712Z</time>
      </trkpt>
      <trkpt lat="44.53094" lon="6.26824">
        <ele>1018.799987793</ele>
        <time>2022-04-23T09:53:56.646Z</time>
      </trkpt>
      <trkpt lat="44.53088" lon="6.26829">
        <ele>1018.5999755859</ele>
        <time>2022-04-23T09:54:02.583Z</time>
      </trkpt>
      <trkpt lat="44.53076" lon="6.26836">
        <ele>1017.5999755859</ele>
        <time>2022-04-23T09:54:08.524Z</time>
      </trkpt>
      <trkpt lat="44.53071" lon="6.26841">
        <ele>1017.200012207</ele>
        <time>2022-04-23T09:54:14.467Z</time>
      </trkpt>
      <trkpt lat="44.53065" lon="6.26857">
        <ele>1015.799987793</ele>
        <time>2022-04-23T09:54:20.414Z</time>
      </trkpt>
      <trkpt lat="44.53066" lon="6.26877">
        <ele>1014</ele>
        <time>2022-04-23T09:54:26.366Z</time>
      </trkpt>
      <trkpt lat="44.53067" lon="6.26888">
        <ele>1013.5999755859</ele>
        <time>2022-04-23T09:54:32.321Z</time>
      </trkpt>
      <trkpt lat="44.53066" lon="6.26899">
        <ele>1012.5999755859</ele>
        <time>2022-04-23T09:54:38.278Z</time>
      </trkpt>
      <trkpt lat="44.53062" lon="6.26908">
        <ele>1011.5999755859</ele>
        <time>2022-04-23T09:54:44.238Z</time>
      </trkpt>
      <trkpt lat="44.5305" lon="6.2692">
        <ele>1010.200012207</ele>
        <time>2022-04-23T09:54:50.203Z</time>
      </trkpt>
      <trkpt lat="44.53044" lon="6.26926">
        <ele>1009.5999755859</ele>
        <time>2022-04-23T09:54:56.170Z</time>
      </trkpt>
      <trkpt lat="44.53034" lon="6.26941">
        <ele>1008.4000244141</ele>
        <time>2022-04-23T09:55:02.142Z</time>
      </trkpt>
      <trkpt lat="44.5303" lon="6.26951">
        <ele>1007.200012207</ele>
        <time>2022-04-23T09:55:08.117Z</time>
      </trkpt>
      <trkpt lat="44.53024" lon="6.2696">
        <ele>1006.200012207</ele>
        <time>2022-04-23T09:55:14.095Z</time>
      </trkpt>
      <trkpt lat="44.53017" lon="6.26966">
        <ele>1004.5999755859</ele>
        <time>2022-04-23T09:55:20.075Z</time>
      </trkpt>
      <trkpt lat="44.5301" lon="6.26973">
        <ele>1003.5999755859</ele>
        <time>2022-04-23T09:55:26.058Z</time>
      </trkpt>
      <trkpt lat="44.52998" lon="6.26993">
        <ele>1002.799987793</ele>
        <time>2022-04-23T09:55:32.047Z</time>
      </trkpt>
      <trkpt lat="44.52992" lon="6.27003">
        <ele>1001.799987793</ele>
        <time>2022-04-23T09:55:38.040Z</time>
      </trkpt>
      <trkpt lat="44.52987" lon="6.27015">
        <ele>1000.5999755859</ele>
        <time>2022-04-23T09:55:44.036Z</time>
      </trkpt>
      <trkpt lat="44.52984" lon="6.27027">
        <ele>1000</ele>
        <time>2022-04-23T09:55:50.035Z</time>
      </trkpt>
      <trkpt lat="44.52983" lon="6.2704">
        <ele>999.40002441406</ele>
        <time>2022-04-23T09:55:56.037Z</time>
      </trkpt>
      <trkpt lat="44.52984" lon="6.27066">
        <ele>998</ele>
        <time>2022-04-23T09:56:02.045Z</time>
      </trkpt>
      <trkpt lat="44.52979" lon="6.2709">
        <ele>996.59997558594</ele>
        <time>2022-04-23T09:56:08.059Z</time>
      </trkpt>
      <trkpt lat="44.52969" lon="6.27109">
        <ele>996.40002441406</ele>
        <time>2022-04-23T09:56:14.079Z</time>
      </trkpt>
      <trkpt lat="44.52964" lon="6.27117">
        <ele>996.59997558594</ele>
        <time>2022-04-23T09:56:20.101Z</time>
      </trkpt>
      <trkpt lat="44.52961" lon="6.27125">
        <ele>997</ele>
        <time>2022-04-23T09:56:26.125Z</time>
      </trkpt>
      <trkpt lat="44.52955" lon="6.27147">
        <ele>998</ele>
        <time>2022-04-23T09:56:32.155Z</time>
      </trkpt>
      <trkpt lat="44.52955" lon="6.27168">
        <ele>999.40002441406</ele>
        <time>2022-04-23T09:56:38.190Z</time>
      </trkpt>
      <trkpt lat="44.52955" lon="6.27174">
        <ele>999.59997558594</ele>
        <time>2022-04-23T09:56:44.226Z</time>
      </trkpt>
      <trkpt lat="44.52956" lon="6.27179">
        <ele>1000</ele>
        <time>2022-04-23T09:56:50.263Z</time>
      </trkpt>
      <trkpt lat="44.52957" lon="6.27185">
        <ele>1000.200012207</ele>
        <time>2022-04-23T09:56:56.302Z</time>
      </trkpt>
      <trkpt lat="44.52951" lon="6.27201">
        <ele>1000.4000244141</ele>
        <time>2022-04-23T09:57:02.345Z</time>
      </trkpt>
      <trkpt lat="44.52943" lon="6.27206">
        <ele>1000.5999755859</ele>
        <time>2022-04-23T09:57:08.391Z</time>
      </trkpt>
      <trkpt lat="44.52939" lon="6.2721">
        <ele>1000.5999755859</ele>
        <time>2022-04-23T09:57:14.438Z</time>
      </trkpt>
      <trkpt lat="44.52935" lon="6.27214">
        <ele>1000.5999755859</ele>
        <time>2022-04-23T09:57:20.487Z</time>
      </trkpt>
      <trkpt lat="44.52928" lon="6.27232">
        <ele>1001.799987793</ele>
        <time>2022-04-23T09:57:26.541Z</time>
      </trkpt>
      <trkpt lat="44.52926" lon="6.27241">
        <ele>1003</ele>
        <time>2022-04-23T09:57:32.597Z</time>
      </trkpt>
      <trkpt lat="44.52925" lon="6.27249">
        <ele>1004.200012207</ele>
        <time>2022-04-23T09:57:38.655Z</time>
      </trkpt>
      <trkpt lat="44.52924" lon="6.27253">
        <ele>1004.4000244141</ele>
        <time>2022-04-23T09:57:44.714Z</time>
      </trkpt>
      <trkpt lat="44.52922" lon="6.27261">
        <ele>1005.200012207</ele>
        <time>2022-04-23T09:57:50.775Z</time>
      </trkpt>
      <trkpt lat="44.52917" lon="6.27276">
        <ele>1006.5999755859</ele>
        <time>2022-04-23T09:57:56.840Z</time>
      </trkpt>
      <trkpt lat="44.52915" lon="6.27279">
        <ele>1006.799987793</ele>
        <time>2022-04-23T09:58:02.906Z</time>
      </trkpt>
      <trkpt lat="44.52913" lon="6.27286">
        <ele>1007.799987793</ele>
        <time>2022-04-23T09:58:08.974Z</time>
      </trkpt>
      <trkpt lat="44.5291" lon="6.27298">
        <ele>1009.200012207</ele>
        <time>2022-04-23T09:58:15.045Z</time>
      </trkpt>
      <trkpt lat="44.5291" lon="6.27303">
        <ele>1009.5999755859</ele>
        <time>2022-04-23T09:58:21.117Z</time>
      </trkpt>
      <trkpt lat="44.5291" lon="6.27312">
        <ele>1010.4000244141</ele>
        <time>2022-04-23T09:58:27.191Z</time>
      </trkpt>
      <trkpt lat="44.52907" lon="6.27325">
        <ele>1011.200012207</ele>
        <time>2022-04-23T09:58:33.268Z</time>
      </trkpt>
      <trkpt lat="44.52906" lon="6.27328">
        <ele>1011.5999755859</ele>
        <time>2022-04-23T09:58:39.346Z</time>
      </trkpt>
      <trkpt lat="44.52903" lon="6.27338">
        <ele>1013.200012207</ele>
        <time>2022-04-23T09:58:45.427Z</time>
      </trkpt>
      <trkpt lat="44.529" lon="6.27348">
        <ele>1014.5999755859</ele>
        <time>2022-04-23T09:58:51.510Z</time>
      </trkpt>
      <trkpt lat="44.52899" lon="6.2735">
        <ele>1015.4000244141</ele>
        <time>2022-04-23T09:58:57.594Z</time>
      </trkpt>
      <trkpt lat="44.52897" lon="6.27353">
        <ele>1016</ele>
        <time>2022-04-23T09:59:03.679Z</time>
      </trkpt>
      <trkpt lat="44.52894" lon="6.27361">
        <ele>1017.5999755859</ele>
        <time>2022-04-23T09:59:09.766Z</time>
      </trkpt>
      <trkpt lat="44.52892" lon="6.2737">
        <ele>1019</ele>
        <time>2022-04-23T09:59:15.855Z</time>
      </trkpt>
      <trkpt lat="44.5289" lon="6.27377">
        <ele>1019.799987793</ele>
        <time>2022-04-23T09:59:21.946Z</time>
      </trkpt>
      <trkpt lat="44.5289" lon="6.2738">
        <ele>1020.200012207</ele>
        <time>2022-04-23T09:59:28.038Z</time>
      </trkpt>
      <trkpt lat="44.52888" lon="6.27393">
        <ele>1021.4000244141</ele>
        <time>2022-04-23T09:59:34.133Z</time>
      </trkpt>
      <trkpt lat="44.52886" lon="6.27401">
        <ele>1021.4000244141</ele>
        <time>2022-04-23T09:59:40.230Z</time>
      </trkpt>
      <trkpt lat="44.52879" lon="6.27423">
        <ele>1022.4000244141</ele>
        <time>2022-04-23T09:59:46.332Z</time>
      </trkpt>
      <trkpt lat="44.52875" lon="6.27432">
        <ele>1022.799987793</ele>
        <time>2022-04-23T09:59:52.437Z</time>
      </trkpt>
      <trkpt lat="44.5287" lon="6.27442">
        <ele>1023.4000244141</ele>
        <time>2022-04-23T09:59:58.545Z</time>
      </trkpt>
      <trkpt lat="44.52868" lon="6.27446">
        <ele>1023.4000244141</ele>
        <time>2022-04-23T10:00:04.654Z</time>
      </trkpt>
      <trkpt lat="44.52864" lon="6.27449">
        <ele>1023.200012207</ele>
        <time>2022-04-23T10:00:10.765Z</time>
      </trkpt>
      <trkpt lat="44.52851" lon="6.27463">
        <ele>1022.200012207</ele>
        <time>2022-04-23T10:00:16.881Z</time>
      </trkpt>
      <trkpt lat="44.52842" lon="6.27473">
        <ele>1021.799987793</ele>
        <time>2022-04-23T10:00:23.001Z</time>
      </trkpt>
      <trkpt lat="44.52839" lon="6.27478">
        <ele>1021.5999755859</ele>
        <time>2022-04-23T10:00:29.122Z</time>
      </trkpt>
      <trkpt lat="44.52832" lon="6.27496">
        <ele>1021.5999755859</ele>
        <time>2022-04-23T10:00:35.248Z</time>
      </trkpt>
      <trkpt lat="44.52825" lon="6.27517">
        <ele>1021.4000244141</ele>
        <time>2022-04-23T10:00:41.380Z</time>
      </trkpt>
      <trkpt lat="44.52822" lon="6.27539">
        <ele>1022.200012207</ele>
        <time>2022-04-23T10:00:47.517Z</time>
      </trkpt>
      <trkpt lat="44.52822" lon="6.2755">
        <ele>1023.4000244141</ele>
        <time>2022-04-23T10:00:53.656Z</time>
      </trkpt>
      <trkpt lat="44.52822" lon="6.27556">
        <ele>1024.4000244141</ele>
        <time>2022-04-23T10:00:59.797Z</time>
      </trkpt>
      <trkpt lat="44.52821" lon="6.2756">
        <ele>1024.8000488281</ele>
        <time>2022-04-23T10:01:05.939Z</time>
      </trkpt>
      <trkpt lat="44.52822" lon="6.27574">
        <ele>1026.1999511719</ele>
        <time>2022-04-23T10:01:12.084Z</time>
      </trkpt>
      <trkpt lat="44.52821" lon="6.27584">
        <ele>1027</ele>
        <time>2022-04-23T10:01:18.231Z</time>
      </trkpt>
      <trkpt lat="44.52821" lon="6.27587">
        <ele>1027.1999511719</ele>
        <time>2022-04-23T10:01:24.379Z</time>
      </trkpt>
      <trkpt lat="44.52818" lon="6.27604">
        <ele>1027.5999755859</ele>
        <time>2022-04-23T10:01:30.531Z</time>
      </trkpt>
      <trkpt lat="44.52817" lon="6.27616">
        <ele>1027.1999511719</ele>
        <time>2022-04-23T10:01:36.686Z</time>
      </trkpt>
      <trkpt lat="44.52815" lon="6.2763">
        <ele>1026.8000488281</ele>
        <time>2022-04-23T10:01:42.845Z</time>
      </trkpt>
      <trkpt lat="44.52806" lon="6.27662">
        <ele>1026.1999511719</ele>
        <time>2022-04-23T10:01:49.012Z</time>
      </trkpt>
      <trkpt lat="44.52803" lon="6.27685">
        <ele>1026.4000244141</ele>
        <time>2022-04-23T10:01:55.184Z</time>
      </trkpt>
      <trkpt lat="44.52797" lon="6.27707">
        <ele>1026</ele>
        <time>2022-04-23T10:02:01.362Z</time>
      </trkpt>
      <trkpt lat="44.52796" lon="6.27711">
        <ele>1025.5999755859</ele>
        <time>2022-04-23T10:02:07.541Z</time>
      </trkpt>
      <trkpt lat="44.52796" lon="6.27719">
        <ele>1025.1999511719</ele>
        <time>2022-04-23T10:02:13.722Z</time>
      </trkpt>
      <trkpt lat="44.52787" lon="6.2773">
        <ele>1024.1999511719</ele>
        <time>2022-04-23T10:02:19.907Z</time>
      </trkpt>
      <trkpt lat="44.52783" lon="6.27734">
        <ele>1023.200012207</ele>
        <time>2022-04-23T10:02:26.093Z</time>
      </trkpt>
      <trkpt lat="44.52777" lon="6.27741">
        <ele>1021.5999755859</ele>
        <time>2022-04-23T10:02:32.282Z</time>
      </trkpt>
      <trkpt lat="44.52776" lon="6.27744">
        <ele>1020.5999755859</ele>
        <time>2022-04-23T10:02:38.472Z</time>
      </trkpt>
      <trkpt lat="44.52773" lon="6.27749">
        <ele>1019.200012207</ele>
        <time>2022-04-23T10:02:44.663Z</time>
      </trkpt>
      <trkpt lat="44.5277" lon="6.27755">
        <ele>1017.799987793</ele>
        <time>2022-04-23T10:02:50.856Z</time>
      </trkpt>
      <trkpt lat="44.52769" lon="6.27758">
        <ele>1016.5999755859</ele>
        <time>2022-04-23T10:02:57.050Z</time>
      </trkpt>
      <trkpt lat="44.52769" lon="6.27761">
        <ele>1016</ele>
        <time>2022-04-23T10:03:03.244Z</time>
      </trkpt>
      <trkpt lat="44.52769" lon="6.27761">
        <ele>1015.799987793</ele>
        <time>2022-04-23T10:03:09.438Z</time>
      </trkpt>
      <trkpt lat="44.52771" lon="6.27764">
        <ele>1015.5999755859</ele>
        <time>2022-04-23T10:03:15.633Z</time>
      </trkpt>
      <trkpt lat="44.52772" lon="6.27766">
        <ele>1015.5999755859</ele>
        <time>2022-04-23T10:03:21.829Z</time>
      </trkpt>
      <trkpt lat="44.52777" lon="6.27775">
        <ele>1015</ele>
        <time>2022-04-23T10:03:28.028Z</time>
      </trkpt>
      <trkpt lat="44.52776" lon="6.27777">
        <ele>1014.799987793</ele>
        <time>2022-04-23T10:03:34.227Z</time>
      </trkpt>
      <trkpt lat="44.52775" lon="6.27779">
        <ele>1014.200012207</ele>
        <time>2022-04-23T10:03:40.427Z</time>
      </trkpt>
      <trkpt lat="44.52771" lon="6.27786">
        <ele>1013.200012207</ele>
        <time>2022-04-23T10:03:46.629Z</time>
      </trkpt>
      <trkpt lat="44.52769" lon="6.2779">
        <ele>1012.4000244141</ele>
        <time>2022-04-23T10:03:52.832Z</time>
      </trkpt>
      <trkpt lat="44.52767" lon="6.27793">
        <ele>1011.5999755859</ele>
        <time>2022-04-23T10:03:59.036Z</time>
      </trkpt>
      <trkpt lat="44.52765" lon="6.27795">
        <ele>1010.200012207</ele>
        <time>2022-04-23T10:04:05.241Z</time>
      </trkpt>
      <trkpt lat="44.5276" lon="6.27799">
        <ele>1008.5999755859</ele>
        <time>2022-04-23T10:04:11.448Z</time>
      </trkpt>
      <trkpt lat="44.52758" lon="6.27801">
        <ele>1007.5999755859</ele>
        <time>2022-04-23T10:04:17.655Z</time>
      </trkpt>
      <trkpt lat="44.52756" lon="6.27802">
        <ele>1006.5999755859</ele>
        <time>2022-04-23T10:04:23.863Z</time>
      </trkpt>
      <trkpt lat="44.52756" lon="6.27803">
        <ele>1005.5999755859</ele>
        <time>2022-04-23T10:04:30.071Z</time>
      </trkpt>
      <trkpt lat="44.52756" lon="6.27805">
        <ele>1005</ele>
        <time>2022-04-23T10:04:36.280Z</time>
      </trkpt>
      <trkpt lat="44.52757" lon="6.27806">
        <ele>1004.5999755859</ele>
        <time>2022-04-23T10:04:42.489Z</time>
      </trkpt>
      <trkpt lat="44.52759" lon="6.27812">
        <ele>1003.5999755859</ele>
        <time>2022-04-23T10:04:48.700Z</time>
      </trkpt>
      <trkpt lat="44.5276" lon="6.27815">
        <ele>1002.5999755859</ele>
        <time>2022-04-23T10:04:54.912Z</time>
      </trkpt>
      <trkpt lat="44.52762" lon="6.27818">
        <ele>1001</ele>
        <time>2022-04-23T10:05:01.125Z</time>
      </trkpt>
      <trkpt lat="44.52761" lon="6.27819">
        <ele>1000.5999755859</ele>
        <time>2022-04-23T10:05:07.338Z</time>
      </trkpt>
      <trkpt lat="44.52759" lon="6.2782">
        <ele>1000</ele>
        <time>2022-04-23T10:05:13.551Z</time>
      </trkpt>
      <trkpt lat="44.52754" lon="6.2782">
        <ele>998.59997558594</ele>
        <time>2022-04-23T10:05:19.766Z</time>
      </trkpt>
      <trkpt lat="44.52754" lon="6.27825">
        <ele>997</ele>
        <time>2022-04-23T10:05:25.983Z</time>
      </trkpt>
      <trkpt lat="44.52755" lon="6.27827">
        <ele>996.20001220703</ele>
        <time>2022-04-23T10:05:32.200Z</time>
      </trkpt>
      <trkpt lat="44.52756" lon="6.27829">
        <ele>995.59997558594</ele>
        <time>2022-04-23T10:05:38.418Z</time>
      </trkpt>
      <trkpt lat="44.52758" lon="6.27835">
        <ele>993.59997558594</ele>
        <time>2022-04-23T10:05:44.637Z</time>
      </trkpt>
      <trkpt lat="44.52757" lon="6.27837">
        <ele>992.59997558594</ele>
        <time>2022-04-23T10:05:50.857Z</time>
      </trkpt>
      <trkpt lat="44.52756" lon="6.2784">
        <ele>991.20001220703</ele>
        <time>2022-04-23T10:05:57.077Z</time>
      </trkpt>
      <trkpt lat="44.52756" lon="6.27842">
        <ele>990</ele>
        <time>2022-04-23T10:06:03.298Z</time>
      </trkpt>
      <trkpt lat="44.52753" lon="6.27848">
        <ele>988.59997558594</ele>
        <time>2022-04-23T10:06:09.521Z</time>
      </trkpt>
      <trkpt lat="44.52753" lon="6.27854">
        <ele>987.59997558594</ele>
        <time>2022-04-23T10:06:15.745Z</time>
      </trkpt>
      <trkpt lat="44.52756" lon="6.27859">
        <ele>986.59997558594</ele>
        <time>2022-04-23T10:06:21.971Z</time>
      </trkpt>
      <trkpt lat="44.52758" lon="6.27865">
        <ele>984.79998779297</ele>
        <time>2022-04-23T10:06:28.198Z</time>
      </trkpt>
      <trkpt lat="44.52757" lon="6.27872">
        <ele>983.59997558594</ele>
        <time>2022-04-23T10:06:34.427Z</time>
      </trkpt>
      <trkpt lat="44.52756" lon="6.27876">
        <ele>982.59997558594</ele>
        <time>2022-04-23T10:06:40.657Z</time>
      </trkpt>
      <trkpt lat="44.52755" lon="6.27875">
        <ele>982.40002441406</ele>
        <time>2022-04-23T10:06:46.887Z</time>
      </trkpt>
      <trkpt lat="44.52753" lon="6.27874">
        <ele>982.20001220703</ele>
        <time>2022-04-23T10:06:53.118Z</time>
      </trkpt>
      <trkpt lat="44.52751" lon="6.27876">
        <ele>982</ele>
        <time>2022-04-23T10:06:59.350Z</time>
      </trkpt>
      <trkpt lat="44.52753" lon="6.27881">
        <ele>981.40002441406</ele>
        <time>2022-04-23T10:07:05.583Z</time>
      </trkpt>
      <trkpt lat="44.52752" lon="6.27883">
        <ele>981</ele>
        <time>2022-04-23T10:07:11.816Z</time>
      </trkpt>
      <trkpt lat="44.52753" lon="6.27886">
        <ele>980.40002441406</ele>
        <time>2022-04-23T10:07:18.050Z</time>
      </trkpt>
      <trkpt lat="44.52756" lon="6.27893">
        <ele>978.79998779297</ele>
        <time>2022-04-23T10:07:24.286Z</time>
      </trkpt>
      <trkpt lat="44.52761" lon="6.27902">
        <ele>977.59997558594</ele>
        <time>2022-04-23T10:07:30.525Z</time>
      </trkpt>
      <trkpt lat="44.52761" lon="6.27906">
        <ele>976.79998779297</ele>
        <time>2022-04-23T10:07:36.765Z</time>
      </trkpt>
      <trkpt lat="44.5276" lon="6.2791">
        <ele>976</ele>
        <time>2022-04-23T10:07:43.006Z</time>
      </trkpt>
      <trkpt lat="44.5276" lon="6.27916">
        <ele>973.79998779297</ele>
        <time>2022-04-23T10:07:49.248Z</time>
      </trkpt>
      <trkpt lat="44.5276" lon="6.27919">
        <ele>972.59997558594</ele>
        <time>2022-04-23T10:07:55.491Z</time>
      </trkpt>
      <trkpt lat="44.5276" lon="6.27922">
        <ele>971.59997558594</ele>
        <time>2022-04-23T10:08:01.735Z</time>
      </trkpt>
      <trkpt lat="44.52762" lon="6.27927">
        <ele>970.20001220703</ele>
        <time>2022-04-23T10:08:07.980Z</time>
      </trkpt>
      <trkpt lat="44.52764" lon="6.27928">
        <ele>968.59997558594</ele>
        <time>2022-04-23T10:08:14.225Z</time>
      </trkpt>
      <trkpt lat="44.52766" lon="6.27927">
        <ele>967.59997558594</ele>
        <time>2022-04-23T10:08:20.471Z</time>
      </trkpt>
      <trkpt lat="44.52768" lon="6.27928">
        <ele>967</ele>
        <time>2022-04-23T10:08:26.718Z</time>
      </trkpt>
      <trkpt lat="44.5277" lon="6.27929">
        <ele>966.20001220703</ele>
        <time>2022-04-23T10:08:32.966Z</time>
      </trkpt>
      <trkpt lat="44.52771" lon="6.27934">
        <ele>964.79998779297</ele>
        <time>2022-04-23T10:08:39.215Z</time>
      </trkpt>
      <trkpt lat="44.5277" lon="6.27941">
        <ele>962.79998779297</ele>
        <time>2022-04-23T10:08:45.465Z</time>
      </trkpt>
      <trkpt lat="44.52769" lon="6.27946">
        <ele>962</ele>
        <time>2022-04-23T10:08:51.717Z</time>
      </trkpt>
      <trkpt lat="44.52769" lon="6.27949">
        <ele>961</ele>
        <time>2022-04-23T10:08:57.970Z</time>
      </trkpt>
      <trkpt lat="44.5277" lon="6.27953">
        <ele>959.79998779297</ele>
        <time>2022-04-23T10:09:04.223Z</time>
      </trkpt>
      <trkpt lat="44.52771" lon="6.27956">
        <ele>958.79998779297</ele>
        <time>2022-04-23T10:09:10.477Z</time>
      </trkpt>
      <trkpt lat="44.52773" lon="6.27958">
        <ele>957.40002441406</ele>
        <time>2022-04-23T10:09:16.732Z</time>
      </trkpt>
      <trkpt lat="44.52775" lon="6.2796">
        <ele>956.20001220703</ele>
        <time>2022-04-23T10:09:22.988Z</time>
      </trkpt>
      <trkpt lat="44.52779" lon="6.27964">
        <ele>954.79998779297</ele>
        <time>2022-04-23T10:09:29.245Z</time>
      </trkpt>
      <trkpt lat="44.52779" lon="6.27968">
        <ele>954</ele>
        <time>2022-04-23T10:09:35.503Z</time>
      </trkpt>
      <trkpt lat="44.5278" lon="6.27972">
        <ele>953</ele>
        <time>2022-04-23T10:09:41.762Z</time>
      </trkpt>
      <trkpt lat="44.52782" lon="6.27984">
        <ele>951.59997558594</ele>
        <time>2022-04-23T10:09:48.024Z</time>
      </trkpt>
      <trkpt lat="44.52785" lon="6.27989">
        <ele>950.20001220703</ele>
        <time>2022-04-23T10:09:54.288Z</time>
      </trkpt>
      <trkpt lat="44.52786" lon="6.27993">
        <ele>949</ele>
        <time>2022-04-23T10:10:00.553Z</time>
      </trkpt>
      <trkpt lat="44.52786" lon="6.27997">
        <ele>948.40002441406</ele>
        <time>2022-04-23T10:10:06.819Z</time>
      </trkpt>
      <trkpt lat="44.52785" lon="6.27999">
        <ele>947.59997558594</ele>
        <time>2022-04-23T10:10:13.085Z</time>
      </trkpt>
      <trkpt lat="44.52786" lon="6.28009">
        <ele>946.40002441406</ele>
        <time>2022-04-23T10:10:19.354Z</time>
      </trkpt>
      <trkpt lat="44.5279" lon="6.28025">
        <ele>945.40002441406</ele>
        <time>2022-04-23T10:10:25.627Z</time>
      </trkpt>
      <trkpt lat="44.52792" lon="6.28029">
        <ele>945.20001220703</ele>
        <time>2022-04-23T10:10:31.901Z</time>
      </trkpt>
      <trkpt lat="44.52796" lon="6.28043">
        <ele>944.59997558594</ele>
        <time>2022-04-23T10:10:38.178Z</time>
      </trkpt>
      <trkpt lat="44.52796" lon="6.28048">
        <ele>944.40002441406</ele>
        <time>2022-04-23T10:10:44.457Z</time>
      </trkpt>
      <trkpt lat="44.52796" lon="6.28052">
        <ele>944.20001220703</ele>
        <time>2022-04-23T10:10:50.737Z</time>
      </trkpt>
      <trkpt lat="44.52796" lon="6.28058">
        <ele>943.20001220703</ele>
        <time>2022-04-23T10:10:57.018Z</time>
      </trkpt>
      <trkpt lat="44.52796" lon="6.28064">
        <ele>942.79998779297</ele>
        <time>2022-04-23T10:11:03.300Z</time>
      </trkpt>
      <trkpt lat="44.52794" lon="6.28074">
        <ele>942.40002441406</ele>
        <time>2022-04-23T10:11:09.585Z</time>
      </trkpt>
      <trkpt lat="44.52792" lon="6.28079">
        <ele>941.79998779297</ele>
        <time>2022-04-23T10:11:15.871Z</time>
      </trkpt>
      <trkpt lat="44.52787" lon="6.28088">
        <ele>940.40002441406</ele>
        <time>2022-04-23T10:11:22.160Z</time>
      </trkpt>
      <trkpt lat="44.52785" lon="6.28093">
        <ele>939</ele>
        <time>2022-04-23T10:11:28.450Z</time>
      </trkpt>
      <trkpt lat="44.52783" lon="6.28098">
        <ele>938</ele>
        <time>2022-04-23T10:11:34.742Z</time>
      </trkpt>
      <trkpt lat="44.52781" lon="6.28104">
        <ele>937.40002441406</ele>
        <time>2022-04-23T10:11:41.035Z</time>
      </trkpt>
      <trkpt lat="44.52778" lon="6.2811">
        <ele>936</ele>
        <time>2022-04-23T10:11:47.330Z</time>
      </trkpt>
      <trkpt lat="44.52774" lon="6.28113">
        <ele>934.59997558594</ele>
        <time>2022-04-23T10:11:53.626Z</time>
      </trkpt>
      <trkpt lat="44.52771" lon="6.28118">
        <ele>933.40002441406</ele>
        <time>2022-04-23T10:11:59.924Z</time>
      </trkpt>
      <trkpt lat="44.52764" lon="6.28128">
        <ele>931.40002441406</ele>
        <time>2022-04-23T10:12:06.225Z</time>
      </trkpt>
      <trkpt lat="44.5276" lon="6.28133">
        <ele>929.40002441406</ele>
        <time>2022-04-23T10:12:12.528Z</time>
      </trkpt>
      <trkpt lat="44.52756" lon="6.2814">
        <ele>927.40002441406</ele>
        <time>2022-04-23T10:12:18.833Z</time>
      </trkpt>
      <trkpt lat="44.52754" lon="6.28147">
        <ele>925.59997558594</ele>
        <time>2022-04-23T10:12:25.140Z</time>
      </trkpt>
      <trkpt lat="44.52753" lon="6.28154">
        <ele>924</ele>
        <time>2022-04-23T10:12:31.449Z</time>
      </trkpt>
      <trkpt lat="44.52752" lon="6.2816">
        <ele>922.79998779297</ele>
        <time>2022-04-23T10:12:37.759Z</time>
      </trkpt>
      <trkpt lat="44.5275" lon="6.28164">
        <ele>922</ele>
        <time>2022-04-23T10:12:44.070Z</time>
      </trkpt>
      <trkpt lat="44.52749" lon="6.28168">
        <ele>921.20001220703</ele>
        <time>2022-04-23T10:12:50.382Z</time>
      </trkpt>
      <trkpt lat="44.52747" lon="6.28172">
        <ele>920.59997558594</ele>
        <time>2022-04-23T10:12:56.695Z</time>
      </trkpt>
      <trkpt lat="44.52746" lon="6.28178">
        <ele>919.40002441406</ele>
        <time>2022-04-23T10:13:03.010Z</time>
      </trkpt>
      <trkpt lat="44.52746" lon="6.28183">
        <ele>918.40002441406</ele>
        <time>2022-04-23T10:13:09.326Z</time>
      </trkpt>
      <trkpt lat="44.52746" lon="6.2819">
        <ele>917.40002441406</ele>
        <time>2022-04-23T10:13:15.644Z</time>
      </trkpt>
      <trkpt lat="44.52744" lon="6.28195">
        <ele>916.20001220703</ele>
        <time>2022-04-23T10:13:21.963Z</time>
      </trkpt>
      <trkpt lat="44.52741" lon="6.282">
        <ele>915</ele>
        <time>2022-04-23T10:13:28.283Z</time>
      </trkpt>
      <trkpt lat="44.52738" lon="6.28201">
        <ele>913.40002441406</ele>
        <time>2022-04-23T10:13:34.604Z</time>
      </trkpt>
      <trkpt lat="44.52735" lon="6.28202">
        <ele>912.40002441406</ele>
        <time>2022-04-23T10:13:40.926Z</time>
      </trkpt>
      <trkpt lat="44.52728" lon="6.28205">
        <ele>910.59997558594</ele>
        <time>2022-04-23T10:13:47.251Z</time>
      </trkpt>
      <trkpt lat="44.52724" lon="6.2821">
        <ele>910</ele>
        <time>2022-04-23T10:13:53.578Z</time>
      </trkpt>
      <trkpt lat="44.52722" lon="6.28216">
        <ele>909.20001220703</ele>
        <time>2022-04-23T10:13:59.906Z</time>
      </trkpt>
      <trkpt lat="44.52715" lon="6.28224">
        <ele>907.59997558594</ele>
        <time>2022-04-23T10:14:06.237Z</time>
      </trkpt>
      <trkpt lat="44.52712" lon="6.28225">
        <ele>906.40002441406</ele>
        <time>2022-04-23T10:14:12.569Z</time>
      </trkpt>
      <trkpt lat="44.52709" lon="6.28228">
        <ele>905.59997558594</ele>
        <time>2022-04-23T10:14:18.903Z</time>
      </trkpt>
      <trkpt lat="44.52707" lon="6.28232">
        <ele>904.79998779297</ele>
        <time>2022-04-23T10:14:25.238Z</time>
      </trkpt>
      <trkpt lat="44.52706" lon="6.28236">
        <ele>904</ele>
        <time>2022-04-23T10:14:31.574Z</time>
      </trkpt>
      <trkpt lat="44.52699" lon="6.28246">
        <ele>902.40002441406</ele>
        <time>2022-04-23T10:14:37.913Z</time>
      </trkpt>
      <trkpt lat="44.52691" lon="6.28258">
        <ele>900.79998779297</ele>
        <time>2022-04-23T10:14:44.256Z</time>
      </trkpt>
      <trkpt lat="44.52684" lon="6.28269">
        <ele>899.40002441406</ele>
        <time>2022-04-23T10:14:50.602Z</time>
      </trkpt>
      <trkpt lat="44.52676" lon="6.2828">
        <ele>897.40002441406</ele>
        <time>2022-04-23T10:14:56.952Z</time>
      </trkpt>
      <trkpt lat="44.52672" lon="6.28284">
        <ele>896.40002441406</ele>
        <time>2022-04-23T10:15:03.304Z</time>
      </trkpt>
      <trkpt lat="44.52668" lon="6.28288">
        <ele>895.59997558594</ele>
        <time>2022-04-23T10:15:09.657Z</time>
      </trkpt>
      <trkpt lat="44.52663" lon="6.28293">
        <ele>894.79998779297</ele>
        <time>2022-04-23T10:15:16.012Z</time>
      </trkpt>
      <trkpt lat="44.5266" lon="6.28298">
        <ele>893.79998779297</ele>
        <time>2022-04-23T10:15:22.369Z</time>
      </trkpt>
      <trkpt lat="44.52658" lon="6.28305">
        <ele>892.79998779297</ele>
        <time>2022-04-23T10:15:28.728Z</time>
      </trkpt>
      <trkpt lat="44.52656" lon="6.28311">
        <ele>891.79998779297</ele>
        <time>2022-04-23T10:15:35.088Z</time>
      </trkpt>
      <trkpt lat="44.52653" lon="6.28316">
        <ele>891</ele>
        <time>2022-04-23T10:15:41.450Z</time>
      </trkpt>
      <trkpt lat="44.52651" lon="6.2832">
        <ele>890.20001220703</ele>
        <time>2022-04-23T10:15:47.813Z</time>
      </trkpt>
      <trkpt lat="44.52648" lon="6.28323">
        <ele>889.40002441406</ele>
        <time>2022-04-23T10:15:54.177Z</time>
      </trkpt>
      <trkpt lat="44.52646" lon="6.28325">
        <ele>888.79998779297</ele>
        <time>2022-04-23T10:16:00.542Z</time>
      </trkpt>
      <trkpt lat="44.52644" lon="6.28329">
        <ele>888.20001220703</ele>
        <time>2022-04-23T10:16:06.908Z</time>
      </trkpt>
      <trkpt lat="44.52644" lon="6.28331">
        <ele>888</ele>
        <time>2022-04-23T10:16:13.274Z</time>
      </trkpt>
      <trkpt lat="44.52645" lon="6.28332">
        <ele>888</ele>
        <time>2022-04-23T10:16:19.641Z</time>
      </trkpt>
      <trkpt lat="44.52646" lon="6.28333">
        <ele>888</ele>
        <time>2022-04-23T10:16:26.008Z</time>
      </trkpt>
      <trkpt lat="44.52648" lon="6.28336">
        <ele>888.20001220703</ele>
        <time>2022-04-23T10:16:32.376Z</time>
      </trkpt>
      <trkpt lat="44.52657" lon="6.28351">
        <ele>887.59997558594</ele>
        <time>2022-04-23T10:16:38.749Z</time>
      </trkpt>
      <trkpt lat="44.52659" lon="6.28356">
        <ele>887.20001220703</ele>
        <time>2022-04-23T10:16:45.123Z</time>
      </trkpt>
      <trkpt lat="44.52669" lon="6.28385">
        <ele>886.59997558594</ele>
        <time>2022-04-23T10:16:51.505Z</time>
      </trkpt>
      <trkpt lat="44.5267" lon="6.28391">
        <ele>886.40002441406</ele>
        <time>2022-04-23T10:16:57.888Z</time>
      </trkpt>
      <trkpt lat="44.52671" lon="6.28398">
        <ele>886.20001220703</ele>
        <time>2022-04-23T10:17:04.273Z</time>
      </trkpt>
      <trkpt lat="44.52672" lon="6.2843">
        <ele>884.79998779297</ele>
        <time>2022-04-23T10:17:10.665Z</time>
      </trkpt>
      <trkpt lat="44.52674" lon="6.28465">
        <ele>884.20001220703</ele>
        <time>2022-04-23T10:17:17.066Z</time>
      </trkpt>
      <trkpt lat="44.52678" lon="6.28479">
        <ele>884</ele>
        <time>2022-04-23T10:17:23.470Z</time>
      </trkpt>
      <trkpt lat="44.52686" lon="6.28486">
        <ele>884.20001220703</ele>
        <time>2022-04-23T10:17:29.878Z</time>
      </trkpt>
      <trkpt lat="44.52691" lon="6.28496">
        <ele>884.59997558594</ele>
        <time>2022-04-23T10:17:36.289Z</time>
      </trkpt>
      <trkpt lat="44.52688" lon="6.28509">
        <ele>885.20001220703</ele>
        <time>2022-04-23T10:17:42.703Z</time>
      </trkpt>
      <trkpt lat="44.52687" lon="6.28512">
        <ele>885.40002441406</ele>
        <time>2022-04-23T10:17:49.118Z</time>
      </trkpt>
      <trkpt lat="44.52685" lon="6.28522">
        <ele>886.20001220703</ele>
        <time>2022-04-23T10:17:55.535Z</time>
      </trkpt>
      <trkpt lat="44.52681" lon="6.28532">
        <ele>887.20001220703</ele>
        <time>2022-04-23T10:18:01.955Z</time>
      </trkpt>
      <trkpt lat="44.52681" lon="6.28536">
        <ele>887.40002441406</ele>
        <time>2022-04-23T10:18:08.376Z</time>
      </trkpt>
      <trkpt lat="44.52677" lon="6.28553">
        <ele>888.20001220703</ele>
        <time>2022-04-23T10:18:14.801Z</time>
      </trkpt>
      <trkpt lat="44.52676" lon="6.28559">
        <ele>888</ele>
        <time>2022-04-23T10:18:21.227Z</time>
      </trkpt>
      <trkpt lat="44.52666" lon="6.2858">
        <ele>887</ele>
        <time>2022-04-23T10:18:27.659Z</time>
      </trkpt>
      <trkpt lat="44.5266" lon="6.2859">
        <ele>886.79998779297</ele>
        <time>2022-04-23T10:18:34.094Z</time>
      </trkpt>
      <trkpt lat="44.52654" lon="6.28599">
        <ele>886.59997558594</ele>
        <time>2022-04-23T10:18:40.532Z</time>
      </trkpt>
      <trkpt lat="44.52641" lon="6.28615">
        <ele>885.79998779297</ele>
        <time>2022-04-23T10:18:46.976Z</time>
      </trkpt>
      <trkpt lat="44.52631" lon="6.2863">
        <ele>885.79998779297</ele>
        <time>2022-04-23T10:18:53.425Z</time>
      </trkpt>
      <trkpt lat="44.52628" lon="6.28642">
        <ele>885.40002441406</ele>
        <time>2022-04-23T10:18:59.877Z</time>
      </trkpt>
      <trkpt lat="44.52626" lon="6.28656">
        <ele>884.79998779297</ele>
        <time>2022-04-23T10:19:06.332Z</time>
      </trkpt>
      <trkpt lat="44.52625" lon="6.28662">
        <ele>884.20001220703</ele>
        <time>2022-04-23T10:19:12.789Z</time>
      </trkpt>
      <trkpt lat="44.52623" lon="6.2867">
        <ele>883.59997558594</ele>
        <time>2022-04-23T10:19:19.248Z</time>
      </trkpt>
      <trkpt lat="44.52621" lon="6.28678">
        <ele>883</ele>
        <time>2022-04-23T10:19:25.709Z</time>
      </trkpt>
      <trkpt lat="44.5262" lon="6.28686">
        <ele>882.20001220703</ele>
        <time>2022-04-23T10:19:32.172Z</time>
      </trkpt>
      <trkpt lat="44.52619" lon="6.28694">
        <ele>881.59997558594</ele>
        <time>2022-04-23T10:19:38.637Z</time>
      </trkpt>
      <trkpt lat="44.52617" lon="6.28711">
        <ele>879.59997558594</ele>
        <time>2022-04-23T10:19:45.106Z</time>
      </trkpt>
      <trkpt lat="44.52614" lon="6.28716">
        <ele>878.59997558594</ele>
        <time>2022-04-23T10:19:51.576Z</time>
      </trkpt>
      <trkpt lat="44.52609" lon="6.28719">
        <ele>877.20001220703</ele>
        <time>2022-04-23T10:19:58.048Z</time>
      </trkpt>
      <trkpt lat="44.52603" lon="6.28721">
        <ele>876.20001220703</ele>
        <time>2022-04-23T10:20:04.522Z</time>
      </trkpt>
      <trkpt lat="44.52598" lon="6.28724">
        <ele>875.40002441406</ele>
        <time>2022-04-23T10:20:10.998Z</time>
      </trkpt>
      <trkpt lat="44.52593" lon="6.28729">
        <ele>874.59997558594</ele>
        <time>2022-04-23T10:20:17.476Z</time>
      </trkpt>
      <trkpt lat="44.52589" lon="6.28734">
        <ele>873.40002441406</ele>
        <time>2022-04-23T10:20:23.956Z</time>
      </trkpt>
      <trkpt lat="44.52586" lon="6.2874">
        <ele>872.40002441406</ele>
        <time>2022-04-23T10:20:30.437Z</time>
      </trkpt>
      <trkpt lat="44.52586" lon="6.28743">
        <ele>871.20001220703</ele>
        <time>2022-04-23T10:20:36.919Z</time>
      </trkpt>
      <trkpt lat="44.52587" lon="6.2875">
        <ele>869.79998779297</ele>
        <time>2022-04-23T10:20:43.403Z</time>
      </trkpt>
      <trkpt lat="44.52589" lon="6.28758">
        <ele>869.20001220703</ele>
        <time>2022-04-23T10:20:49.889Z</time>
      </trkpt>
      <trkpt lat="44.52589" lon="6.28762">
        <ele>868.59997558594</ele>
        <time>2022-04-23T10:20:56.376Z</time>
      </trkpt>
      <trkpt lat="44.52585" lon="6.28768">
        <ele>867.20001220703</ele>
        <time>2022-04-23T10:21:02.865Z</time>
      </trkpt>
      <trkpt lat="44.52583" lon="6.28772">
        <ele>866.40002441406</ele>
        <time>2022-04-23T10:21:09.355Z</time>
      </trkpt>
      <trkpt lat="44.52582" lon="6.28778">
        <ele>866</ele>
        <time>2022-04-23T10:21:15.846Z</time>
      </trkpt>
      <trkpt lat="44.5258" lon="6.28788">
        <ele>864.59997558594</ele>
        <time>2022-04-23T10:21:22.339Z</time>
      </trkpt>
      <trkpt lat="44.52578" lon="6.28792">
        <ele>863.59997558594</ele>
        <time>2022-04-23T10:21:28.834Z</time>
      </trkpt>
      <trkpt lat="44.52573" lon="6.288">
        <ele>862.79998779297</ele>
        <time>2022-04-23T10:21:35.331Z</time>
      </trkpt>
      <trkpt lat="44.52568" lon="6.28808">
        <ele>861.40002441406</ele>
        <time>2022-04-23T10:21:41.831Z</time>
      </trkpt>
      <trkpt lat="44.52567" lon="6.28813">
        <ele>861</ele>
        <time>2022-04-23T10:21:48.332Z</time>
      </trkpt>
      <trkpt lat="44.52561" lon="6.28825">
        <ele>860</ele>
        <time>2022-04-23T10:21:54.837Z</time>
      </trkpt>
      <trkpt lat="44.52554" lon="6.28838">
        <ele>859.40002441406</ele>
        <time>2022-04-23T10:22:01.345Z</time>
      </trkpt>
      <trkpt lat="44.52548" lon="6.2885">
        <ele>859</ele>
        <time>2022-04-23T10:22:07.857Z</time>
      </trkpt>
      <trkpt lat="44.52545" lon="6.28856">
        <ele>858.59997558594</ele>
        <time>2022-04-23T10:22:14.370Z</time>
      </trkpt>
      <trkpt lat="44.52541" lon="6.28863">
        <ele>857.79998779297</ele>
        <time>2022-04-23T10:22:20.886Z</time>
      </trkpt>
      <trkpt lat="44.52538" lon="6.28871">
        <ele>857.20001220703</ele>
        <time>2022-04-23T10:22:27.404Z</time>
      </trkpt>
      <trkpt lat="44.52534" lon="6.28881">
        <ele>855.79998779297</ele>
        <time>2022-04-23T10:22:33.924Z</time>
      </trkpt>
      <trkpt lat="44.52533" lon="6.28887">
        <ele>855.40002441406</ele>
        <time>2022-04-23T10:22:40.446Z</time>
      </trkpt>
      <trkpt lat="44.52526" lon="6.28904">
        <ele>854.79998779297</ele>
        <time>2022-04-23T10:22:46.972Z</time>
      </trkpt>
      <trkpt lat="44.52524" lon="6.28907">
        <ele>854.40002441406</ele>
        <time>2022-04-23T10:22:53.499Z</time>
      </trkpt>
      <trkpt lat="44.52519" lon="6.28913">
        <ele>853.59997558594</ele>
        <time>2022-04-23T10:23:00.029Z</time>
      </trkpt>
      <trkpt lat="44.52516" lon="6.28916">
        <ele>853.20001220703</ele>
        <time>2022-04-23T10:23:06.560Z</time>
      </trkpt>
      <trkpt lat="44.52515" lon="6.28918">
        <ele>852.59997558594</ele>
        <time>2022-04-23T10:23:13.091Z</time>
      </trkpt>
      <trkpt lat="44.52516" lon="6.28925">
        <ele>851.59997558594</ele>
        <time>2022-04-23T10:23:19.624Z</time>
      </trkpt>
      <trkpt lat="44.52518" lon="6.28926">
        <ele>851.59997558594</ele>
        <time>2022-04-23T10:23:26.158Z</time>
      </trkpt>
      <trkpt lat="44.52525" lon="6.2893">
        <ele>851.59997558594</ele>
        <time>2022-04-23T10:23:32.694Z</time>
      </trkpt>
      <trkpt lat="44.52538" lon="6.28943">
        <ele>850.79998779297</ele>
        <time>2022-04-23T10:23:39.236Z</time>
      </trkpt>
      <trkpt lat="44.5255" lon="6.28937">
        <ele>849.20001220703</ele>
        <time>2022-04-23T10:23:45.782Z</time>
      </trkpt>
      <trkpt lat="44.52554" lon="6.28933">
        <ele>848.59997558594</ele>
        <time>2022-04-23T10:23:52.329Z</time>
      </trkpt>
      <trkpt lat="44.52558" lon="6.2893">
        <ele>848.20001220703</ele>
        <time>2022-04-23T10:23:58.878Z</time>
      </trkpt>
      <trkpt lat="44.52569" lon="6.28921">
        <ele>847.59997558594</ele>
        <time>2022-04-23T10:24:05.431Z</time>
      </trkpt>
      <trkpt lat="44.5258" lon="6.28914">
        <ele>847.40002441406</ele>
        <time>2022-04-23T10:24:11.988Z</time>
      </trkpt>
      <trkpt lat="44.52592" lon="6.28916">
        <ele>847.40002441406</ele>
        <time>2022-04-23T10:24:18.549Z</time>
      </trkpt>
      <trkpt lat="44.52597" lon="6.28922">
        <ele>846.59997558594</ele>
        <time>2022-04-23T10:24:25.112Z</time>
      </trkpt>
      <trkpt lat="44.52598" lon="6.28926">
        <ele>845.40002441406</ele>
        <time>2022-04-23T10:24:31.676Z</time>
      </trkpt>
      <trkpt lat="44.52601" lon="6.28929">
        <ele>844.59997558594</ele>
        <time>2022-04-23T10:24:38.241Z</time>
      </trkpt>
      <trkpt lat="44.52604" lon="6.28928">
        <ele>844.40002441406</ele>
        <time>2022-04-23T10:24:44.807Z</time>
      </trkpt>
      <trkpt lat="44.52611" lon="6.28921">
        <ele>844</ele>
        <time>2022-04-23T10:24:51.376Z</time>
      </trkpt>
      <trkpt lat="44.52623" lon="6.28913">
        <ele>844.40002441406</ele>
        <time>2022-04-23T10:24:57.950Z</time>
      </trkpt>
      <trkpt lat="44.52631" lon="6.28907">
        <ele>844.59997558594</ele>
        <time>2022-04-23T10:25:04.527Z</time>
      </trkpt>
      <trkpt lat="44.52634" lon="6.28899">
        <ele>844.79998779297</ele>
        <time>2022-04-23T10:25:11.106Z</time>
      </trkpt>
      <trkpt lat="44.52641" lon="6.28894">
        <ele>845.59997558594</ele>
        <time>2022-04-23T10:25:17.687Z</time>
      </trkpt>
      <trkpt lat="44.52644" lon="6.28894">
        <ele>845.59997558594</ele>
        <time>2022-04-23T10:25:24.269Z</time>
      </trkpt>
      <trkpt lat="44.52647" lon="6.28893">
        <ele>845.59997558594</ele>
        <time>2022-04-23T10:25:30.852Z</time>
      </trkpt>
      <trkpt lat="44.52658" lon="6.28894">
        <ele>844.59997558594</ele>
        <time>2022-04-23T10:25:37.439Z</time>
      </trkpt>
      <trkpt lat="44.52659" lon="6.28898">
        <ele>844.20001220703</ele>
        <time>2022-04-23T10:25:44.027Z</time>
      </trkpt>
      <trkpt lat="44.52657" lon="6.28902">
        <ele>843.79998779297</ele>
        <time>2022-04-23T10:25:50.616Z</time>
      </trkpt>
      <trkpt lat="44.52655" lon="6.28906">
        <ele>843.20001220703</ele>
        <time>2022-04-23T10:25:57.206Z</time>
      </trkpt>
      <trkpt lat="44.52653" lon="6.2891">
        <ele>842.40002441406</ele>
        <time>2022-04-23T10:26:03.797Z</time>
      </trkpt>
      <trkpt lat="44.52651" lon="6.28913">
        <ele>841.59997558594</ele>
        <time>2022-04-23T10:26:10.389Z</time>
      </trkpt>
      <trkpt lat="44.52649" lon="6.28916">
        <ele>841</ele>
        <time>2022-04-23T10:26:16.982Z</time>
      </trkpt>
      <trkpt lat="44.52647" lon="6.28918">
        <ele>839.79998779297</ele>
        <time>2022-04-23T10:26:23.576Z</time>
      </trkpt>
      <trkpt lat="44.52642" lon="6.28923">
        <ele>838.40002441406</ele>
        <time>2022-04-23T10:26:30.172Z</time>
      </trkpt>
      <trkpt lat="44.52639" lon="6.28924">
        <ele>838.20001220703</ele>
        <time>2022-04-23T10:26:36.769Z</time>
      </trkpt>
      <trkpt lat="44.52632" lon="6.28935">
        <ele>837</ele>
        <time>2022-04-23T10:26:43.369Z</time>
      </trkpt>
      <trkpt lat="44.5263" lon="6.28939">
        <ele>836.79998779297</ele>
        <time>2022-04-23T10:26:49.971Z</time>
      </trkpt>
      <trkpt lat="44.52628" lon="6.28944">
        <ele>836.59997558594</ele>
        <time>2022-04-23T10:26:56.574Z</time>
      </trkpt>
      <trkpt lat="44.52621" lon="6.28955">
        <ele>836.20001220703</ele>
        <time>2022-04-23T10:27:03.181Z</time>
      </trkpt>
      <trkpt lat="44.52617" lon="6.28961">
        <ele>835.79998779297</ele>
        <time>2022-04-23T10:27:09.789Z</time>
      </trkpt>
      <trkpt lat="44.52612" lon="6.28966">
        <ele>835.40002441406</ele>
        <time>2022-04-23T10:27:16.399Z</time>
      </trkpt>
      <trkpt lat="44.52603" lon="6.28976">
        <ele>834.59997558594</ele>
        <time>2022-04-23T10:27:23.013Z</time>
      </trkpt>
      <trkpt lat="44.52599" lon="6.28981">
        <ele>834.40002441406</ele>
        <time>2022-04-23T10:27:29.629Z</time>
      </trkpt>
      <trkpt lat="44.52598" lon="6.28991">
        <ele>833.59997558594</ele>
        <time>2022-04-23T10:27:36.247Z</time>
      </trkpt>
      <trkpt lat="44.52603" lon="6.28996">
        <ele>832.79998779297</ele>
        <time>2022-04-23T10:27:42.868Z</time>
      </trkpt>
      <trkpt lat="44.5261" lon="6.28993">
        <ele>832.40002441406</ele>
        <time>2022-04-23T10:27:49.491Z</time>
      </trkpt>
      <trkpt lat="44.52613" lon="6.28991">
        <ele>832.40002441406</ele>
        <time>2022-04-23T10:27:56.115Z</time>
      </trkpt>
      <trkpt lat="44.52617" lon="6.28989">
        <ele>832.40002441406</ele>
        <time>2022-04-23T10:28:02.740Z</time>
      </trkpt>
      <trkpt lat="44.52628" lon="6.28984">
        <ele>832</ele>
        <time>2022-04-23T10:28:09.369Z</time>
      </trkpt>
      <trkpt lat="44.52637" lon="6.28985">
        <ele>831.79998779297</ele>
        <time>2022-04-23T10:28:16.001Z</time>
      </trkpt>
      <trkpt lat="44.52641" lon="6.28987">
        <ele>831.59997558594</ele>
        <time>2022-04-23T10:28:22.635Z</time>
      </trkpt>
      <trkpt lat="44.52654" lon="6.28992">
        <ele>831.59997558594</ele>
        <time>2022-04-23T10:28:29.273Z</time>
      </trkpt>
      <trkpt lat="44.52664" lon="6.28994">
        <ele>831.59997558594</ele>
        <time>2022-04-23T10:28:35.914Z</time>
      </trkpt>
      <trkpt lat="44.5269" lon="6.28993">
        <ele>831.79998779297</ele>
        <time>2022-04-23T10:28:42.564Z</time>
      </trkpt>
      <trkpt lat="44.52694" lon="6.28991">
        <ele>831.79998779297</ele>
        <time>2022-04-23T10:28:49.216Z</time>
      </trkpt>
      <trkpt lat="44.52701" lon="6.28978">
        <ele>832</ele>
        <time>2022-04-23T10:28:55.871Z</time>
      </trkpt>
      <trkpt lat="44.52701" lon="6.28967">
        <ele>833</ele>
        <time>2022-04-23T10:29:02.529Z</time>
      </trkpt>
      <trkpt lat="44.52703" lon="6.28964">
        <ele>833.20001220703</ele>
        <time>2022-04-23T10:29:09.188Z</time>
      </trkpt>
      <trkpt lat="44.52706" lon="6.28962">
        <ele>833.40002441406</ele>
        <time>2022-04-23T10:29:15.848Z</time>
      </trkpt>
      <trkpt lat="44.52709" lon="6.2896">
        <ele>834.40002441406</ele>
        <time>2022-04-23T10:29:22.509Z</time>
      </trkpt>
      <trkpt lat="44.52719" lon="6.28953">
        <ele>835.79998779297</ele>
        <time>2022-04-23T10:29:29.174Z</time>
      </trkpt>
      <trkpt lat="44.52722" lon="6.28951">
        <ele>836.20001220703</ele>
        <time>2022-04-23T10:29:35.840Z</time>
      </trkpt>
      <trkpt lat="44.52727" lon="6.28946">
        <ele>836.79998779297</ele>
        <time>2022-04-23T10:29:42.508Z</time>
      </trkpt>
      <trkpt lat="44.52731" lon="6.28939">
        <ele>837.79998779297</ele>
        <time>2022-04-23T10:29:49.178Z</time>
      </trkpt>
      <trkpt lat="44.52733" lon="6.28935">
        <ele>838.59997558594</ele>
        <time>2022-04-23T10:29:55.849Z</time>
      </trkpt>
      <trkpt lat="44.52736" lon="6.28932">
        <ele>839.20001220703</ele>
        <time>2022-04-23T10:30:02.521Z</time>
      </trkpt>
      <trkpt lat="44.5274" lon="6.28925">
        <ele>840.20001220703</ele>
        <time>2022-04-23T10:30:09.196Z</time>
      </trkpt>
      <trkpt lat="44.52743" lon="6.28919">
        <ele>841.40002441406</ele>
        <time>2022-04-23T10:30:15.872Z</time>
      </trkpt>
      <trkpt lat="44.52745" lon="6.28917">
        <ele>841.79998779297</ele>
        <time>2022-04-23T10:30:22.549Z</time>
      </trkpt>
      <trkpt lat="44.52748" lon="6.28915">
        <ele>842.40002441406</ele>
        <time>2022-04-23T10:30:29.227Z</time>
      </trkpt>
      <trkpt lat="44.52755" lon="6.28909">
        <ele>843</ele>
        <time>2022-04-23T10:30:35.908Z</time>
      </trkpt>
      <trkpt lat="44.52758" lon="6.28904">
        <ele>843</ele>
        <time>2022-04-23T10:30:42.591Z</time>
      </trkpt>
      <trkpt lat="44.52771" lon="6.28884">
        <ele>843</ele>
        <time>2022-04-23T10:30:49.280Z</time>
      </trkpt>
      <trkpt lat="44.52783" lon="6.28868">
        <ele>843.20001220703</ele>
        <time>2022-04-23T10:30:55.974Z</time>
      </trkpt>
      <trkpt lat="44.5279" lon="6.28853">
        <ele>843.59997558594</ele>
        <time>2022-04-23T10:31:02.673Z</time>
      </trkpt>
      <trkpt lat="44.52792" lon="6.28849">
        <ele>843.59997558594</ele>
        <time>2022-04-23T10:31:09.373Z</time>
      </trkpt>
      <trkpt lat="44.52797" lon="6.28831">
        <ele>843.79998779297</ele>
        <time>2022-04-23T10:31:16.077Z</time>
      </trkpt>
      <trkpt lat="44.52794" lon="6.28813">
        <ele>844.40002441406</ele>
        <time>2022-04-23T10:31:22.786Z</time>
      </trkpt>
      <trkpt lat="44.52793" lon="6.28804">
        <ele>844.59997558594</ele>
        <time>2022-04-23T10:31:29.497Z</time>
      </trkpt>
      <trkpt lat="44.52793" lon="6.28799">
        <ele>844.59997558594</ele>
        <time>2022-04-23T10:31:36.209Z</time>
      </trkpt>
      <trkpt lat="44.52793" lon="6.28789">
        <ele>845</ele>
        <time>2022-04-23T10:31:42.924Z</time>
      </trkpt>
      <trkpt lat="44.52799" lon="6.28772">
        <ele>846</ele>
        <time>2022-04-23T10:31:49.643Z</time>
      </trkpt>
      <trkpt lat="44.52815" lon="6.28759">
        <ele>846.79998779297</ele>
        <time>2022-04-23T10:31:56.368Z</time>
      </trkpt>
      <trkpt lat="44.52817" lon="6.28757">
        <ele>847</ele>
        <time>2022-04-23T10:32:03.094Z</time>
      </trkpt>
      <trkpt lat="44.52831" lon="6.28743">
        <ele>848.20001220703</ele>
        <time>2022-04-23T10:32:09.826Z</time>
      </trkpt>
      <trkpt lat="44.52834" lon="6.28741">
        <ele>848.20001220703</ele>
        <time>2022-04-23T10:32:16.559Z</time>
      </trkpt>
      <trkpt lat="44.52853" lon="6.28722">
        <ele>849.20001220703</ele>
        <time>2022-04-23T10:32:23.300Z</time>
      </trkpt>
      <trkpt lat="44.52856" lon="6.28719">
        <ele>849.40002441406</ele>
        <time>2022-04-23T10:32:30.042Z</time>
      </trkpt>
      <trkpt lat="44.52867" lon="6.28707">
        <ele>850.40002441406</ele>
        <time>2022-04-23T10:32:36.788Z</time>
      </trkpt>
      <trkpt lat="44.52875" lon="6.28699">
        <ele>850.79998779297</ele>
        <time>2022-04-23T10:32:43.538Z</time>
      </trkpt>
      <trkpt lat="44.52891" lon="6.28683">
        <ele>851.40002441406</ele>
        <time>2022-04-23T10:32:50.294Z</time>
      </trkpt>
      <trkpt lat="44.52893" lon="6.28681">
        <ele>851.40002441406</ele>
        <time>2022-04-23T10:32:57.051Z</time>
      </trkpt>
      <trkpt lat="44.52913" lon="6.28665">
        <ele>852.59997558594</ele>
        <time>2022-04-23T10:33:03.816Z</time>
      </trkpt>
      <trkpt lat="44.52936" lon="6.28648">
        <ele>853</ele>
        <time>2022-04-23T10:33:10.589Z</time>
      </trkpt>
      <trkpt lat="44.52951" lon="6.28631">
        <ele>852.59997558594</ele>
        <time>2022-04-23T10:33:17.368Z</time>
      </trkpt>
      <trkpt lat="44.52966" lon="6.28615">
        <ele>852.79998779297</ele>
        <time>2022-04-23T10:33:24.154Z</time>
      </trkpt>
      <trkpt lat="44.52986" lon="6.28593">
        <ele>852.20001220703</ele>
        <time>2022-04-23T10:33:30.948Z</time>
      </trkpt>
      <trkpt lat="44.53004" lon="6.28571">
        <ele>852.40002441406</ele>
        <time>2022-04-23T10:33:37.750Z</time>
      </trkpt>
      <trkpt lat="44.53022" lon="6.28547">
        <ele>851.59997558594</ele>
        <time>2022-04-23T10:33:44.560Z</time>
      </trkpt>
      <trkpt lat="44.53025" lon="6.28543">
        <ele>851.59997558594</ele>
        <time>2022-04-23T10:33:51.372Z</time>
      </trkpt>
      <trkpt lat="44.53037" lon="6.28519">
        <ele>850.40002441406</ele>
        <time>2022-04-23T10:33:58.191Z</time>
      </trkpt>
      <trkpt lat="44.53039" lon="6.28514">
        <ele>850</ele>
        <time>2022-04-23T10:34:05.011Z</time>
      </trkpt>
      <trkpt lat="44.53042" lon="6.28508">
        <ele>849.79998779297</ele>
        <time>2022-04-23T10:34:11.833Z</time>
      </trkpt>
      <trkpt lat="44.53044" lon="6.28503">
        <ele>849.20001220703</ele>
        <time>2022-04-23T10:34:18.656Z</time>
      </trkpt>
      <trkpt lat="44.53045" lon="6.28499">
        <ele>848.79998779297</ele>
        <time>2022-04-23T10:34:25.480Z</time>
      </trkpt>
      <trkpt lat="44.53044" lon="6.28496">
        <ele>848.40002441406</ele>
        <time>2022-04-23T10:34:32.305Z</time>
      </trkpt>
      <trkpt lat="44.53041" lon="6.28485">
        <ele>848.20001220703</ele>
        <time>2022-04-23T10:34:39.132Z</time>
      </trkpt>
      <trkpt lat="44.5304" lon="6.28476">
        <ele>848</ele>
        <time>2022-04-23T10:34:45.962Z</time>
      </trkpt>
      <trkpt lat="44.53037" lon="6.28449">
        <ele>847.20001220703</ele>
        <time>2022-04-23T10:34:52.798Z</time>
      </trkpt>
      <trkpt lat="44.53037" lon="6.28444">
        <ele>847</ele>
        <time>2022-04-23T10:34:59.635Z</time>
      </trkpt>
      <trkpt lat="44.5304" lon="6.28434">
        <ele>846.79998779297</ele>
        <time>2022-04-23T10:35:06.475Z</time>
      </trkpt>
      <trkpt lat="44.53041" lon="6.28429">
        <ele>847</ele>
        <time>2022-04-23T10:35:13.316Z</time>
      </trkpt>
      <trkpt lat="44.53046" lon="6.2841">
        <ele>847.20001220703</ele>
        <time>2022-04-23T10:35:20.162Z</time>
      </trkpt>
      <trkpt lat="44.53046" lon="6.28397">
        <ele>847.20001220703</ele>
        <time>2022-04-23T10:35:27.011Z</time>
      </trkpt>
      <trkpt lat="44.53042" lon="6.28389">
        <ele>847.40002441406</ele>
        <time>2022-04-23T10:35:33.862Z</time>
      </trkpt>
      <trkpt lat="44.53032" lon="6.28387">
        <ele>847.40002441406</ele>
        <time>2022-04-23T10:35:40.717Z</time>
      </trkpt>
      <trkpt lat="44.53015" lon="6.28386">
        <ele>847.40002441406</ele>
        <time>2022-04-23T10:35:47.577Z</time>
      </trkpt>
      <trkpt lat="44.53011" lon="6.28388">
        <ele>847.40002441406</ele>
        <time>2022-04-23T10:35:54.439Z</time>
      </trkpt>
      <trkpt lat="44.53001" lon="6.28394">
        <ele>847.40002441406</ele>
        <time>2022-04-23T10:36:01.304Z</time>
      </trkpt>
      <trkpt lat="44.52988" lon="6.28398">
        <ele>847.59997558594</ele>
        <time>2022-04-23T10:36:08.173Z</time>
      </trkpt>
      <trkpt lat="44.52969" lon="6.28415">
        <ele>847.79998779297</ele>
        <time>2022-04-23T10:36:15.050Z</time>
      </trkpt>
      <trkpt lat="44.52964" lon="6.28418">
        <ele>847.79998779297</ele>
        <time>2022-04-23T10:36:21.929Z</time>
      </trkpt>
      <trkpt lat="44.52957" lon="6.28422">
        <ele>847.79998779297</ele>
        <time>2022-04-23T10:36:28.810Z</time>
      </trkpt>
      <trkpt lat="44.52953" lon="6.28425">
        <ele>848.20001220703</ele>
        <time>2022-04-23T10:36:35.693Z</time>
      </trkpt>
      <trkpt lat="44.52946" lon="6.28423">
        <ele>848.40002441406</ele>
        <time>2022-04-23T10:36:42.578Z</time>
      </trkpt>
      <trkpt lat="44.52946" lon="6.28419">
        <ele>848.59997558594</ele>
        <time>2022-04-23T10:36:49.464Z</time>
      </trkpt>
      <trkpt lat="44.52946" lon="6.28417">
        <ele>848.59997558594</ele>
        <time>2022-04-23T10:36:56.350Z</time>
      </trkpt>
      <trkpt lat="44.52949" lon="6.28414">
        <ele>848.59997558594</ele>
        <time>2022-04-23T10:37:03.238Z</time>
      </trkpt>
      <trkpt lat="44.5296" lon="6.28397">
        <ele>848.79998779297</ele>
        <time>2022-04-23T10:37:10.131Z</time>
      </trkpt>
      <trkpt lat="44.52967" lon="6.28389">
        <ele>848.79998779297</ele>
        <time>2022-04-23T10:37:17.027Z</time>
      </trkpt>
      <trkpt lat="44.52973" lon="6.28376">
        <ele>848.79998779297</ele>
        <time>2022-04-23T10:37:23.927Z</time>
      </trkpt>
      <trkpt lat="44.52974" lon="6.2837">
        <ele>848.79998779297</ele>
        <time>2022-04-23T10:37:30.828Z</time>
      </trkpt>
      <trkpt lat="44.5298" lon="6.28348">
        <ele>849</ele>
        <time>2022-04-23T10:37:37.735Z</time>
      </trkpt>
      <trkpt lat="44.5298" lon="6.28344">
        <ele>849.40002441406</ele>
        <time>2022-04-23T10:37:44.643Z</time>
      </trkpt>
      <trkpt lat="44.52973" lon="6.28334">
        <ele>849.40002441406</ele>
        <time>2022-04-23T10:37:51.554Z</time>
      </trkpt>
      <trkpt lat="44.52969" lon="6.28333">
        <ele>849.40002441406</ele>
        <time>2022-04-23T10:37:58.466Z</time>
      </trkpt>
      <trkpt lat="44.52963" lon="6.28328">
        <ele>849.59997558594</ele>
        <time>2022-04-23T10:38:05.380Z</time>
      </trkpt>
      <trkpt lat="44.52963" lon="6.28326">
        <ele>849.59997558594</ele>
        <time>2022-04-23T10:38:12.295Z</time>
      </trkpt>
      <trkpt lat="44.52967" lon="6.28319">
        <ele>849.59997558594</ele>
        <time>2022-04-23T10:38:19.212Z</time>
      </trkpt>
      <trkpt lat="44.52977" lon="6.28319">
        <ele>850.20001220703</ele>
        <time>2022-04-23T10:38:26.132Z</time>
      </trkpt>
      <trkpt lat="44.5298" lon="6.28318">
        <ele>850.20001220703</ele>
        <time>2022-04-23T10:38:33.053Z</time>
      </trkpt>
      <trkpt lat="44.52989" lon="6.28317">
        <ele>850.40002441406</ele>
        <time>2022-04-23T10:38:39.977Z</time>
      </trkpt>
      <trkpt lat="44.52994" lon="6.28316">
        <ele>850.40002441406</ele>
        <time>2022-04-23T10:38:46.903Z</time>
      </trkpt>
      <trkpt lat="44.53009" lon="6.2831">
        <ele>850.59997558594</ele>
        <time>2022-04-23T10:38:53.834Z</time>
      </trkpt>
      <trkpt lat="44.53014" lon="6.28307">
        <ele>850.59997558594</ele>
        <time>2022-04-23T10:39:00.767Z</time>
      </trkpt>
      <trkpt lat="44.53023" lon="6.28302">
        <ele>850.79998779297</ele>
        <time>2022-04-23T10:39:07.703Z</time>
      </trkpt>
      <trkpt lat="44.53031" lon="6.28294">
        <ele>850.59997558594</ele>
        <time>2022-04-23T10:39:14.642Z</time>
      </trkpt>
      <trkpt lat="44.53037" lon="6.28286">
        <ele>850.40002441406</ele>
        <time>2022-04-23T10:39:21.584Z</time>
      </trkpt>
      <trkpt lat="44.53043" lon="6.28276">
        <ele>850.40002441406</ele>
        <time>2022-04-23T10:39:28.529Z</time>
      </trkpt>
      <trkpt lat="44.53047" lon="6.28269">
        <ele>850.59997558594</ele>
        <time>2022-04-23T10:39:35.477Z</time>
      </trkpt>
      <trkpt lat="44.53049" lon="6.28266">
        <ele>850.59997558594</ele>
        <time>2022-04-23T10:39:42.425Z</time>
      </trkpt>
      <trkpt lat="44.53051" lon="6.28261">
        <ele>850.79998779297</ele>
        <time>2022-04-23T10:39:49.375Z</time>
      </trkpt>
      <trkpt lat="44.53052" lon="6.28256">
        <ele>851</ele>
        <time>2022-04-23T10:39:56.326Z</time>
      </trkpt>
      <trkpt lat="44.53052" lon="6.28252">
        <ele>851</ele>
        <time>2022-04-23T10:40:03.278Z</time>
      </trkpt>
      <trkpt lat="44.53051" lon="6.28246">
        <ele>851.20001220703</ele>
        <time>2022-04-23T10:40:10.231Z</time>
      </trkpt>
      <trkpt lat="44.53051" lon="6.28243">
        <ele>851.20001220703</ele>
        <time>2022-04-23T10:40:17.185Z</time>
      </trkpt>
      <trkpt lat="44.53056" lon="6.28237">
        <ele>851.59997558594</ele>
        <time>2022-04-23T10:40:24.141Z</time>
      </trkpt>
      <trkpt lat="44.53062" lon="6.28233">
        <ele>851.40002441406</ele>
        <time>2022-04-23T10:40:31.099Z</time>
      </trkpt>
      <trkpt lat="44.53069" lon="6.28231">
        <ele>851.20001220703</ele>
        <time>2022-04-23T10:40:38.060Z</time>
      </trkpt>
      <trkpt lat="44.53078" lon="6.28228">
        <ele>851.20001220703</ele>
        <time>2022-04-23T10:40:45.024Z</time>
      </trkpt>
      <trkpt lat="44.53083" lon="6.28223">
        <ele>851.20001220703</ele>
        <time>2022-04-23T10:40:51.990Z</time>
      </trkpt>
      <trkpt lat="44.53103" lon="6.28208">
        <ele>851.59997558594</ele>
        <time>2022-04-23T10:40:58.963Z</time>
      </trkpt>
      <trkpt lat="44.53107" lon="6.28205">
        <ele>851.79998779297</ele>
        <time>2022-04-23T10:41:05.938Z</time>
      </trkpt>
      <trkpt lat="44.53114" lon="6.28198">
        <ele>851.79998779297</ele>
        <time>2022-04-23T10:41:12.916Z</time>
      </trkpt>
      <trkpt lat="44.53121" lon="6.28193">
        <ele>851.79998779297</ele>
        <time>2022-04-23T10:41:19.896Z</time>
      </trkpt>
      <trkpt lat="44.53136" lon="6.28179">
        <ele>851.79998779297</ele>
        <time>2022-04-23T10:41:26.882Z</time>
      </trkpt>
      <trkpt lat="44.5314" lon="6.28176">
        <ele>851.79998779297</ele>
        <time>2022-04-23T10:41:33.870Z</time>
      </trkpt>
      <trkpt lat="44.53152" lon="6.28166">
        <ele>851.40002441406</ele>
        <time>2022-04-23T10:41:40.863Z</time>
      </trkpt>
      <trkpt lat="44.53165" lon="6.28146">
        <ele>851.59997558594</ele>
        <time>2022-04-23T10:41:47.862Z</time>
      </trkpt>
      <trkpt lat="44.53169" lon="6.28135">
        <ele>852</ele>
        <time>2022-04-23T10:41:54.864Z</time>
      </trkpt>
      <trkpt lat="44.5317" lon="6.28129">
        <ele>852.20001220703</ele>
        <time>2022-04-23T10:42:01.867Z</time>
      </trkpt>
      <trkpt lat="44.53172" lon="6.28124">
        <ele>852.40002441406</ele>
        <time>2022-04-23T10:42:08.872Z</time>
      </trkpt>
      <trkpt lat="44.53181" lon="6.28116">
        <ele>852.79998779297</ele>
        <time>2022-04-23T10:42:15.880Z</time>
      </trkpt>
      <trkpt lat="44.532" lon="6.2811">
        <ele>852.40002441406</ele>
        <time>2022-04-23T10:42:22.895Z</time>
      </trkpt>
      <trkpt lat="44.53217" lon="6.28095">
        <ele>851.79998779297</ele>
        <time>2022-04-23T10:42:29.916Z</time>
      </trkpt>
      <trkpt lat="44.53228" lon="6.28077">
        <ele>851.59997558594</ele>
        <time>2022-04-23T10:42:36.943Z</time>
      </trkpt>
      <trkpt lat="44.5323" lon="6.28071">
        <ele>851.59997558594</ele>
        <time>2022-04-23T10:42:43.972Z</time>
      </trkpt>
      <trkpt lat="44.53234" lon="6.2805">
        <ele>851.79998779297</ele>
        <time>2022-04-23T10:42:51.006Z</time>
      </trkpt>
      <trkpt lat="44.53233" lon="6.28042">
        <ele>851.79998779297</ele>
        <time>2022-04-23T10:42:58.042Z</time>
      </trkpt>
      <trkpt lat="44.53226" lon="6.28033">
        <ele>852</ele>
        <time>2022-04-23T10:43:05.081Z</time>
      </trkpt>
      <trkpt lat="44.53217" lon="6.28028">
        <ele>851.59997558594</ele>
        <time>2022-04-23T10:43:12.123Z</time>
      </trkpt>
      <trkpt lat="44.53215" lon="6.2802">
        <ele>851.40002441406</ele>
        <time>2022-04-23T10:43:19.167Z</time>
      </trkpt>
      <trkpt lat="44.53218" lon="6.28015">
        <ele>852</ele>
        <time>2022-04-23T10:43:26.212Z</time>
      </trkpt>
      <trkpt lat="44.53224" lon="6.28008">
        <ele>852.20001220703</ele>
        <time>2022-04-23T10:43:33.260Z</time>
      </trkpt>
      <trkpt lat="44.53233" lon="6.27994">
        <ele>853.20001220703</ele>
        <time>2022-04-23T10:43:40.313Z</time>
      </trkpt>
      <trkpt lat="44.53243" lon="6.27997">
        <ele>853.79998779297</ele>
        <time>2022-04-23T10:43:47.369Z</time>
      </trkpt>
      <trkpt lat="44.53246" lon="6.27998">
        <ele>853.79998779297</ele>
        <time>2022-04-23T10:43:54.426Z</time>
      </trkpt>
      <trkpt lat="44.53248" lon="6.27998">
        <ele>853.59997558594</ele>
        <time>2022-04-23T10:44:01.484Z</time>
      </trkpt>
      <trkpt lat="44.53252" lon="6.27992">
        <ele>853.59997558594</ele>
        <time>2022-04-23T10:44:08.544Z</time>
      </trkpt>
      <trkpt lat="44.53255" lon="6.27987">
        <ele>854</ele>
        <time>2022-04-23T10:44:15.605Z</time>
      </trkpt>
      <trkpt lat="44.53258" lon="6.27985">
        <ele>854.59997558594</ele>
        <time>2022-04-23T10:44:22.667Z</time>
      </trkpt>
      <trkpt lat="44.5327" lon="6.27983">
        <ele>855.40002441406</ele>
        <time>2022-04-23T10:44:29.733Z</time>
      </trkpt>
      <trkpt lat="44.53275" lon="6.27986">
        <ele>855.20001220703</ele>
        <time>2022-04-23T10:44:36.801Z</time>
      </trkpt>
      <trkpt lat="44.53289" lon="6.27993">
        <ele>854.59997558594</ele>
        <time>2022-04-23T10:44:43.874Z</time>
      </trkpt>
      <trkpt lat="44.53297" lon="6.27993">
        <ele>854</ele>
        <time>2022-04-23T10:44:50.950Z</time>
      </trkpt>
      <trkpt lat="44.53307" lon="6.27993">
        <ele>853.40002441406</ele>
        <time>2022-04-23T10:44:58.029Z</time>
      </trkpt>
      <trkpt lat="44.53318" lon="6.27993">
        <ele>853.20001220703</ele>
        <time>2022-04-23T10:45:05.112Z</time>
      </trkpt>
      <trkpt lat="44.53338" lon="6.27988">
        <ele>853.40002441406</ele>
        <time>2022-04-23T10:45:12.202Z</time>
      </trkpt>
      <trkpt lat="44.53357" lon="6.27978">
        <ele>854.20001220703</ele>
        <time>2022-04-23T10:45:19.298Z</time>
      </trkpt>
      <trkpt lat="44.53376" lon="6.27968">
        <ele>854.20001220703</ele>
        <time>2022-04-23T10:45:26.401Z</time>
      </trkpt>
      <trkpt lat="44.53381" lon="6.27964">
        <ele>854.40002441406</ele>
        <time>2022-04-23T10:45:33.506Z</time>
      </trkpt>
      <trkpt lat="44.53394" lon="6.27949">
        <ele>854.40002441406</ele>
        <time>2022-04-23T10:45:40.616Z</time>
      </trkpt>
      <trkpt lat="44.5341" lon="6.27927">
        <ele>854.59997558594</ele>
        <time>2022-04-23T10:45:47.734Z</time>
      </trkpt>
      <trkpt lat="44.53418" lon="6.27918">
        <ele>854.59997558594</ele>
        <time>2022-04-23T10:45:54.855Z</time>
      </trkpt>
      <trkpt lat="44.53422" lon="6.27907">
        <ele>854.59997558594</ele>
        <time>2022-04-23T10:46:01.979Z</time>
      </trkpt>
      <trkpt lat="44.53423" lon="6.27901">
        <ele>854.79998779297</ele>
        <time>2022-04-23T10:46:09.104Z</time>
      </trkpt>
      <trkpt lat="44.5343" lon="6.27888">
        <ele>856.20001220703</ele>
        <time>2022-04-23T10:46:16.233Z</time>
      </trkpt>
      <trkpt lat="44.53436" lon="6.27874">
        <ele>857.59997558594</ele>
        <time>2022-04-23T10:46:23.366Z</time>
      </trkpt>
      <trkpt lat="44.53437" lon="6.27868">
        <ele>858</ele>
        <time>2022-04-23T10:46:30.501Z</time>
      </trkpt>
      <trkpt lat="44.53435" lon="6.27851">
        <ele>859</ele>
        <time>2022-04-23T10:46:37.640Z</time>
      </trkpt>
      <trkpt lat="44.53433" lon="6.27846">
        <ele>859.20001220703</ele>
        <time>2022-04-23T10:46:44.780Z</time>
      </trkpt>
      <trkpt lat="44.53434" lon="6.2784">
        <ele>859.40002441406</ele>
        <time>2022-04-23T10:46:51.921Z</time>
      </trkpt>
      <trkpt lat="44.53436" lon="6.27823">
        <ele>858.59997558594</ele>
        <time>2022-04-23T10:46:59.066Z</time>
      </trkpt>
      <trkpt lat="44.53437" lon="6.27818">
        <ele>857.79998779297</ele>
        <time>2022-04-23T10:47:06.213Z</time>
      </trkpt>
      <trkpt lat="44.53439" lon="6.27813">
        <ele>857.40002441406</ele>
        <time>2022-04-23T10:47:13.361Z</time>
      </trkpt>
      <trkpt lat="44.53441" lon="6.2781">
        <ele>857</ele>
        <time>2022-04-23T10:47:20.510Z</time>
      </trkpt>
      <trkpt lat="44.53443" lon="6.27808">
        <ele>856.59997558594</ele>
        <time>2022-04-23T10:47:27.660Z</time>
      </trkpt>
      <trkpt lat="44.5345" lon="6.27806">
        <ele>856</ele>
        <time>2022-04-23T10:47:34.812Z</time>
      </trkpt>
      <trkpt lat="44.53457" lon="6.27802">
        <ele>855.79998779297</ele>
        <time>2022-04-23T10:47:41.967Z</time>
      </trkpt>
      <trkpt lat="44.53465" lon="6.27795">
        <ele>856.40002441406</ele>
        <time>2022-04-23T10:47:49.125Z</time>
      </trkpt>
      <trkpt lat="44.53468" lon="6.27795">
        <ele>856.40002441406</ele>
        <time>2022-04-23T10:47:56.284Z</time>
      </trkpt>
      <trkpt lat="44.53472" lon="6.27794">
        <ele>856.40002441406</ele>
        <time>2022-04-23T10:48:03.444Z</time>
      </trkpt>
      <trkpt lat="44.53478" lon="6.27789">
        <ele>856.59997558594</ele>
        <time>2022-04-23T10:48:10.606Z</time>
      </trkpt>
      <trkpt lat="44.53491" lon="6.2778">
        <ele>856.79998779297</ele>
        <time>2022-04-23T10:48:17.773Z</time>
      </trkpt>
      <trkpt lat="44.53503" lon="6.27772">
        <ele>857.40002441406</ele>
        <time>2022-04-23T10:48:24.945Z</time>
      </trkpt>
      <trkpt lat="44.53507" lon="6.27768">
        <ele>857.59997558594</ele>
        <time>2022-04-23T10:48:32.118Z</time>
      </trkpt>
      <trkpt lat="44.53526" lon="6.27762">
        <ele>857.59997558594</ele>
        <time>2022-04-23T10:48:39.298Z</time>
      </trkpt>
      <trkpt lat="44.53535" lon="6.27762">
        <ele>857.59997558594</ele>
        <time>2022-04-23T10:48:46.481Z</time>
      </trkpt>
      <trkpt lat="44.53539" lon="6.27761">
        <ele>857.59997558594</ele>
        <time>2022-04-23T10:48:53.665Z</time>
      </trkpt>
      <trkpt lat="44.5355" lon="6.27754">
        <ele>858</ele>
        <time>2022-04-23T10:49:00.853Z</time>
      </trkpt>
      <trkpt lat="44.53554" lon="6.27752">
        <ele>858.40002441406</ele>
        <time>2022-04-23T10:49:08.042Z</time>
      </trkpt>
      <trkpt lat="44.53558" lon="6.27752">
        <ele>858.40002441406</ele>
        <time>2022-04-23T10:49:15.233Z</time>
      </trkpt>
      <trkpt lat="44.53568" lon="6.27755">
        <ele>858.40002441406</ele>
        <time>2022-04-23T10:49:22.427Z</time>
      </trkpt>
      <trkpt lat="44.5358" lon="6.27757">
        <ele>857.79998779297</ele>
        <time>2022-04-23T10:49:29.625Z</time>
      </trkpt>
      <trkpt lat="44.53589" lon="6.27755">
        <ele>857.40002441406</ele>
        <time>2022-04-23T10:49:36.826Z</time>
      </trkpt>
      <trkpt lat="44.53606" lon="6.27744">
        <ele>857</ele>
        <time>2022-04-23T10:49:44.033Z</time>
      </trkpt>
      <trkpt lat="44.53618" lon="6.27741">
        <ele>856.79998779297</ele>
        <time>2022-04-23T10:49:51.244Z</time>
      </trkpt>
      <trkpt lat="44.53636" lon="6.27741">
        <ele>857</ele>
        <time>2022-04-23T10:49:58.461Z</time>
      </trkpt>
      <trkpt lat="44.5365" lon="6.27743">
        <ele>856.79998779297</ele>
        <time>2022-04-23T10:50:05.683Z</time>
      </trkpt>
      <trkpt lat="44.53662" lon="6.27741">
        <ele>857</ele>
        <time>2022-04-23T10:50:12.909Z</time>
      </trkpt>
      <trkpt lat="44.53678" lon="6.27738">
        <ele>856.79998779297</ele>
        <time>2022-04-23T10:50:20.140Z</time>
      </trkpt>
      <trkpt lat="44.53691" lon="6.27743">
        <ele>857</ele>
        <time>2022-04-23T10:50:27.376Z</time>
      </trkpt>
      <trkpt lat="44.53709" lon="6.27748">
        <ele>857</ele>
        <time>2022-04-23T10:50:34.618Z</time>
      </trkpt>
      <trkpt lat="44.53725" lon="6.27754">
        <ele>857</ele>
        <time>2022-04-23T10:50:41.865Z</time>
      </trkpt>
      <trkpt lat="44.53728" lon="6.27755">
        <ele>857.20001220703</ele>
        <time>2022-04-23T10:50:49.114Z</time>
      </trkpt>
      <trkpt lat="44.53737" lon="6.27755">
        <ele>856.79998779297</ele>
        <time>2022-04-23T10:50:56.365Z</time>
      </trkpt>
      <trkpt lat="44.53741" lon="6.27754">
        <ele>856.79998779297</ele>
        <time>2022-04-23T10:51:03.618Z</time>
      </trkpt>
      <trkpt lat="44.53746" lon="6.27755">
        <ele>856.79998779297</ele>
        <time>2022-04-23T10:51:10.872Z</time>
      </trkpt>
      <trkpt lat="44.5376" lon="6.27751">
        <ele>856.79998779297</ele>
        <time>2022-04-23T10:51:18.131Z</time>
      </trkpt>
      <trkpt lat="44.53767" lon="6.2775">
        <ele>857</ele>
        <time>2022-04-23T10:51:25.393Z</time>
      </trkpt>
      <trkpt lat="44.53772" lon="6.2775">
        <ele>856.79998779297</ele>
        <time>2022-04-23T10:51:32.656Z</time>
      </trkpt>
      <trkpt lat="44.53777" lon="6.2775">
        <ele>856.79998779297</ele>
        <time>2022-04-23T10:51:39.921Z</time>
      </trkpt>
      <trkpt lat="44.53784" lon="6.27749">
        <ele>856.79998779297</ele>
        <time>2022-04-23T10:51:47.188Z</time>
      </trkpt>
      <trkpt lat="44.53796" lon="6.27749">
        <ele>856.79998779297</ele>
        <time>2022-04-23T10:51:54.459Z</time>
      </trkpt>
      <trkpt lat="44.53804" lon="6.27759">
        <ele>856.40002441406</ele>
        <time>2022-04-23T10:52:01.734Z</time>
      </trkpt>
      <trkpt lat="44.53819" lon="6.27765">
        <ele>856.59997558594</ele>
        <time>2022-04-23T10:52:09.014Z</time>
      </trkpt>
      <trkpt lat="44.53834" lon="6.27773">
        <ele>856.79998779297</ele>
        <time>2022-04-23T10:52:16.299Z</time>
      </trkpt>
      <trkpt lat="44.53839" lon="6.27774">
        <ele>856.79998779297</ele>
        <time>2022-04-23T10:52:23.586Z</time>
      </trkpt>
      <trkpt lat="44.53844" lon="6.27774">
        <ele>856.79998779297</ele>
        <time>2022-04-23T10:52:30.874Z</time>
      </trkpt>
      <trkpt lat="44.53855" lon="6.27773">
        <ele>857</ele>
        <time>2022-04-23T10:52:38.166Z</time>
      </trkpt>
      <trkpt lat="44.53866" lon="6.27778">
        <ele>856</ele>
        <time>2022-04-23T10:52:45.462Z</time>
      </trkpt>
      <trkpt lat="44.53869" lon="6.27779">
        <ele>855</ele>
        <time>2022-04-23T10:52:52.759Z</time>
      </trkpt>
      <trkpt lat="44.53876" lon="6.27784">
        <ele>854</ele>
        <time>2022-04-23T10:53:00.059Z</time>
      </trkpt>
      <trkpt lat="44.53878" lon="6.27787">
        <ele>853.40002441406</ele>
        <time>2022-04-23T10:53:07.359Z</time>
      </trkpt>
      <trkpt lat="44.53878" lon="6.27788">
        <ele>852.79998779297</ele>
        <time>2022-04-23T10:53:14.660Z</time>
      </trkpt>
      <trkpt lat="44.53875" lon="6.27787">
        <ele>851.59997558594</ele>
        <time>2022-04-23T10:53:21.961Z</time>
      </trkpt>
      <trkpt lat="44.53873" lon="6.27786">
        <ele>850.59997558594</ele>
        <time>2022-04-23T10:53:29.263Z</time>
      </trkpt>
      <trkpt lat="44.53871" lon="6.27789">
        <ele>850.20001220703</ele>
        <time>2022-04-23T10:53:36.566Z</time>
      </trkpt>
      <trkpt lat="44.53867" lon="6.27791">
        <ele>849.59997558594</ele>
        <time>2022-04-23T10:53:43.870Z</time>
      </trkpt>
      <trkpt lat="44.53864" lon="6.27792">
        <ele>849.40002441406</ele>
        <time>2022-04-23T10:53:51.176Z</time>
      </trkpt>
      <trkpt lat="44.5386" lon="6.27794">
        <ele>848.40002441406</ele>
        <time>2022-04-23T10:53:58.483Z</time>
      </trkpt>
      <trkpt lat="44.53858" lon="6.27798">
        <ele>848.20001220703</ele>
        <time>2022-04-23T10:54:05.791Z</time>
      </trkpt>
      <trkpt lat="44.53853" lon="6.27804">
        <ele>848.20001220703</ele>
        <time>2022-04-23T10:54:13.101Z</time>
      </trkpt>
      <trkpt lat="44.5384" lon="6.27814">
        <ele>847.59997558594</ele>
        <time>2022-04-23T10:54:20.416Z</time>
      </trkpt>
      <trkpt lat="44.53835" lon="6.27815">
        <ele>847.40002441406</ele>
        <time>2022-04-23T10:54:27.733Z</time>
      </trkpt>
      <trkpt lat="44.53832" lon="6.27816">
        <ele>847.20001220703</ele>
        <time>2022-04-23T10:54:35.051Z</time>
      </trkpt>
      <trkpt lat="44.5383" lon="6.27818">
        <ele>847.20001220703</ele>
        <time>2022-04-23T10:54:42.370Z</time>
      </trkpt>
      <trkpt lat="44.5382" lon="6.27831">
        <ele>846.79998779297</ele>
        <time>2022-04-23T10:54:49.693Z</time>
      </trkpt>
      <trkpt lat="44.53815" lon="6.27835">
        <ele>846.79998779297</ele>
        <time>2022-04-23T10:54:57.018Z</time>
      </trkpt>
      <trkpt lat="44.5381" lon="6.27838">
        <ele>846.40002441406</ele>
        <time>2022-04-23T10:55:04.345Z</time>
      </trkpt>
      <trkpt lat="44.53802" lon="6.27844">
        <ele>845.79998779297</ele>
        <time>2022-04-23T10:55:11.675Z</time>
      </trkpt>
      <trkpt lat="44.538" lon="6.27845">
        <ele>845.59997558594</ele>
        <time>2022-04-23T10:55:19.006Z</time>
      </trkpt>
      <trkpt lat="44.53797" lon="6.27847">
        <ele>845</ele>
        <time>2022-04-23T10:55:26.338Z</time>
      </trkpt>
      <trkpt lat="44.53791" lon="6.27851">
        <ele>844.40002441406</ele>
        <time>2022-04-23T10:55:33.672Z</time>
      </trkpt>
      <trkpt lat="44.53783" lon="6.27855">
        <ele>844</ele>
        <time>2022-04-23T10:55:41.009Z</time>
      </trkpt>
      <trkpt lat="44.53779" lon="6.27857">
        <ele>843.79998779297</ele>
        <time>2022-04-23T10:55:48.347Z</time>
      </trkpt>
      <trkpt lat="44.53775" lon="6.2786">
        <ele>843.59997558594</ele>
        <time>2022-04-23T10:55:55.687Z</time>
      </trkpt>
      <trkpt lat="44.53768" lon="6.27866">
        <ele>843</ele>
        <time>2022-04-23T10:56:03.029Z</time>
      </trkpt>
      <trkpt lat="44.53759" lon="6.27875">
        <ele>842.79998779297</ele>
        <time>2022-04-23T10:56:10.375Z</time>
      </trkpt>
      <trkpt lat="44.53756" lon="6.27876">
        <ele>842.59997558594</ele>
        <time>2022-04-23T10:56:17.722Z</time>
      </trkpt>
      <trkpt lat="44.53749" lon="6.27876">
        <ele>842.59997558594</ele>
        <time>2022-04-23T10:56:25.071Z</time>
      </trkpt>
      <trkpt lat="44.53746" lon="6.27877">
        <ele>842.20001220703</ele>
        <time>2022-04-23T10:56:32.422Z</time>
      </trkpt>
      <trkpt lat="44.53744" lon="6.27879">
        <ele>841.79998779297</ele>
        <time>2022-04-23T10:56:39.773Z</time>
      </trkpt>
      <trkpt lat="44.53744" lon="6.27885">
        <ele>841.20001220703</ele>
        <time>2022-04-23T10:56:47.126Z</time>
      </trkpt>
      <trkpt lat="44.53745" lon="6.27887">
        <ele>841</ele>
        <time>2022-04-23T10:56:54.479Z</time>
      </trkpt>
      <trkpt lat="44.53747" lon="6.27892">
        <ele>841.20001220703</ele>
        <time>2022-04-23T10:57:01.834Z</time>
      </trkpt>
      <trkpt lat="44.53752" lon="6.27898">
        <ele>841.20001220703</ele>
        <time>2022-04-23T10:57:09.191Z</time>
      </trkpt>
      <trkpt lat="44.53763" lon="6.27899">
        <ele>841.40002441406</ele>
        <time>2022-04-23T10:57:16.551Z</time>
      </trkpt>
      <trkpt lat="44.53767" lon="6.279">
        <ele>841.40002441406</ele>
        <time>2022-04-23T10:57:23.913Z</time>
      </trkpt>
      <trkpt lat="44.53773" lon="6.27899">
        <ele>841.59997558594</ele>
        <time>2022-04-23T10:57:31.277Z</time>
      </trkpt>
      <trkpt lat="44.53776" lon="6.27896">
        <ele>841.59997558594</ele>
        <time>2022-04-23T10:57:38.642Z</time>
      </trkpt>
      <trkpt lat="44.53785" lon="6.27885">
        <ele>842.20001220703</ele>
        <time>2022-04-23T10:57:46.011Z</time>
      </trkpt>
      <trkpt lat="44.53787" lon="6.27883">
        <ele>842.20001220703</ele>
        <time>2022-04-23T10:57:53.381Z</time>
      </trkpt>
      <trkpt lat="44.53795" lon="6.27882">
        <ele>842.59997558594</ele>
        <time>2022-04-23T10:58:00.754Z</time>
      </trkpt>
      <trkpt lat="44.53798" lon="6.27881">
        <ele>842.79998779297</ele>
        <time>2022-04-23T10:58:08.128Z</time>
      </trkpt>
      <trkpt lat="44.53805" lon="6.27879">
        <ele>843.20001220703</ele>
        <time>2022-04-23T10:58:15.504Z</time>
      </trkpt>
      <trkpt lat="44.53813" lon="6.27874">
        <ele>843.40002441406</ele>
        <time>2022-04-23T10:58:22.883Z</time>
      </trkpt>
      <trkpt lat="44.53818" lon="6.27872">
        <ele>843.79998779297</ele>
        <time>2022-04-23T10:58:30.263Z</time>
      </trkpt>
      <trkpt lat="44.53826" lon="6.27867">
        <ele>844.20001220703</ele>
        <time>2022-04-23T10:58:37.646Z</time>
      </trkpt>
      <trkpt lat="44.53832" lon="6.27864">
        <ele>844.40002441406</ele>
        <time>2022-04-23T10:58:45.031Z</time>
      </trkpt>
      <trkpt lat="44.53839" lon="6.27862">
        <ele>844.59997558594</ele>
        <time>2022-04-23T10:58:52.419Z</time>
      </trkpt>
      <trkpt lat="44.53852" lon="6.27856">
        <ele>845</ele>
        <time>2022-04-23T10:58:59.812Z</time>
      </trkpt>
      <trkpt lat="44.53859" lon="6.27853">
        <ele>845</ele>
        <time>2022-04-23T10:59:07.207Z</time>
      </trkpt>
      <trkpt lat="44.53883" lon="6.27848">
        <ele>845</ele>
        <time>2022-04-23T10:59:14.610Z</time>
      </trkpt>
      <trkpt lat="44.53888" lon="6.27847">
        <ele>844.79998779297</ele>
        <time>2022-04-23T10:59:22.014Z</time>
      </trkpt>
      <trkpt lat="44.53893" lon="6.27844">
        <ele>844.79998779297</ele>
        <time>2022-04-23T10:59:29.420Z</time>
      </trkpt>
      <trkpt lat="44.53899" lon="6.27838">
        <ele>845</ele>
        <time>2022-04-23T10:59:36.829Z</time>
      </trkpt>
      <trkpt lat="44.53915" lon="6.27825">
        <ele>845.40002441406</ele>
        <time>2022-04-23T10:59:44.244Z</time>
      </trkpt>
      <trkpt lat="44.53921" lon="6.27821">
        <ele>845.59997558594</ele>
        <time>2022-04-23T10:59:51.661Z</time>
      </trkpt>
      <trkpt lat="44.53927" lon="6.27818">
        <ele>845.79998779297</ele>
        <time>2022-04-23T10:59:59.080Z</time>
      </trkpt>
      <trkpt lat="44.53938" lon="6.27812">
        <ele>846</ele>
        <time>2022-04-23T11:00:06.503Z</time>
      </trkpt>
      <trkpt lat="44.53943" lon="6.27809">
        <ele>846</ele>
        <time>2022-04-23T11:00:13.928Z</time>
      </trkpt>
      <trkpt lat="44.53949" lon="6.27807">
        <ele>846</ele>
        <time>2022-04-23T11:00:21.355Z</time>
      </trkpt>
      <trkpt lat="44.53973" lon="6.27796">
        <ele>846.20001220703</ele>
        <time>2022-04-23T11:00:28.790Z</time>
      </trkpt>
      <trkpt lat="44.53984" lon="6.27791">
        <ele>846.40002441406</ele>
        <time>2022-04-23T11:00:36.229Z</time>
      </trkpt>
      <trkpt lat="44.53994" lon="6.27786">
        <ele>846.20001220703</ele>
        <time>2022-04-23T11:00:43.672Z</time>
      </trkpt>
      <trkpt lat="44.53997" lon="6.27782">
        <ele>846.20001220703</ele>
        <time>2022-04-23T11:00:51.116Z</time>
      </trkpt>
      <trkpt lat="44.54008" lon="6.27768">
        <ele>846.40002441406</ele>
        <time>2022-04-23T11:00:58.565Z</time>
      </trkpt>
      <trkpt lat="44.54013" lon="6.27758">
        <ele>847.20001220703</ele>
        <time>2022-04-23T11:01:06.017Z</time>
      </trkpt>
      <trkpt lat="44.5402" lon="6.27751">
        <ele>848.20001220703</ele>
        <time>2022-04-23T11:01:13.472Z</time>
      </trkpt>
      <trkpt lat="44.54028" lon="6.27744">
        <ele>848.40002441406</ele>
        <time>2022-04-23T11:01:20.930Z</time>
      </trkpt>
      <trkpt lat="44.54041" lon="6.27736">
        <ele>848.40002441406</ele>
        <time>2022-04-23T11:01:28.393Z</time>
      </trkpt>
      <trkpt lat="44.54046" lon="6.27732">
        <ele>848.20001220703</ele>
        <time>2022-04-23T11:01:35.857Z</time>
      </trkpt>
      <trkpt lat="44.54059" lon="6.27715">
        <ele>848.59997558594</ele>
        <time>2022-04-23T11:01:43.327Z</time>
      </trkpt>
      <trkpt lat="44.54073" lon="6.27707">
        <ele>848.79998779297</ele>
        <time>2022-04-23T11:01:50.802Z</time>
      </trkpt>
      <trkpt lat="44.54092" lon="6.27691">
        <ele>849</ele>
        <time>2022-04-23T11:01:58.284Z</time>
      </trkpt>
      <trkpt lat="44.54112" lon="6.2768">
        <ele>849.40002441406</ele>
        <time>2022-04-23T11:02:05.774Z</time>
      </trkpt>
      <trkpt lat="44.54116" lon="6.27678">
        <ele>849.59997558594</ele>
        <time>2022-04-23T11:02:13.265Z</time>
      </trkpt>
      <trkpt lat="44.54119" lon="6.27674">
        <ele>849.79998779297</ele>
        <time>2022-04-23T11:02:20.757Z</time>
      </trkpt>
      <trkpt lat="44.54122" lon="6.27669">
        <ele>850</ele>
        <time>2022-04-23T11:02:28.251Z</time>
      </trkpt>
      <trkpt lat="44.54128" lon="6.27662">
        <ele>850.20001220703</ele>
        <time>2022-04-23T11:02:35.748Z</time>
      </trkpt>
      <trkpt lat="44.54141" lon="6.27651">
        <ele>850.79998779297</ele>
        <time>2022-04-23T11:02:43.250Z</time>
      </trkpt>
      <trkpt lat="44.54146" lon="6.27646">
        <ele>850.79998779297</ele>
        <time>2022-04-23T11:02:50.754Z</time>
      </trkpt>
      <trkpt lat="44.54152" lon="6.27641">
        <ele>851</ele>
        <time>2022-04-23T11:02:58.260Z</time>
      </trkpt>
      <trkpt lat="44.54162" lon="6.27632">
        <ele>851</ele>
        <time>2022-04-23T11:03:05.770Z</time>
      </trkpt>
      <trkpt lat="44.54172" lon="6.27621">
        <ele>851.59997558594</ele>
        <time>2022-04-23T11:03:13.284Z</time>
      </trkpt>
      <trkpt lat="44.54184" lon="6.27615">
        <ele>852</ele>
        <time>2022-04-23T11:03:20.802Z</time>
      </trkpt>
      <trkpt lat="44.54187" lon="6.27615">
        <ele>852</ele>
        <time>2022-04-23T11:03:28.321Z</time>
      </trkpt>
      <trkpt lat="44.542" lon="6.27602">
        <ele>852.40002441406</ele>
        <time>2022-04-23T11:03:35.846Z</time>
      </trkpt>
      <trkpt lat="44.5422" lon="6.27584">
        <ele>853.20001220703</ele>
        <time>2022-04-23T11:03:43.378Z</time>
      </trkpt>
      <trkpt lat="44.54228" lon="6.27582">
        <ele>853.40002441406</ele>
        <time>2022-04-23T11:03:50.913Z</time>
      </trkpt>
      <trkpt lat="44.54231" lon="6.27581">
        <ele>853.59997558594</ele>
        <time>2022-04-23T11:03:58.449Z</time>
      </trkpt>
      <trkpt lat="44.54233" lon="6.27581">
        <ele>853.79998779297</ele>
        <time>2022-04-23T11:04:05.986Z</time>
      </trkpt>
      <trkpt lat="44.54235" lon="6.27583">
        <ele>854</ele>
        <time>2022-04-23T11:04:13.523Z</time>
      </trkpt>
      <trkpt lat="44.54235" lon="6.27582">
        <ele>854.20001220703</ele>
        <time>2022-04-23T11:04:21.061Z</time>
      </trkpt>
      <trkpt lat="44.54238" lon="6.27583">
        <ele>855.40002441406</ele>
        <time>2022-04-23T11:04:28.600Z</time>
      </trkpt>
      <trkpt lat="44.54235" lon="6.27587">
        <ele>855.20001220703</ele>
        <time>2022-04-23T11:04:36.140Z</time>
      </trkpt>
      <trkpt lat="44.5422" lon="6.27605">
        <ele>854.40002441406</ele>
        <time>2022-04-23T11:04:43.686Z</time>
      </trkpt>
      <trkpt lat="44.54215" lon="6.27611">
        <ele>854.20001220703</ele>
        <time>2022-04-23T11:04:51.235Z</time>
      </trkpt>
      <trkpt lat="44.5421" lon="6.2762">
        <ele>853.79998779297</ele>
        <time>2022-04-23T11:04:58.786Z</time>
      </trkpt>
      <trkpt lat="44.5421" lon="6.27624">
        <ele>853.59997558594</ele>
        <time>2022-04-23T11:05:06.338Z</time>
      </trkpt>
      <trkpt lat="44.54214" lon="6.27635">
        <ele>853.20001220703</ele>
        <time>2022-04-23T11:05:13.893Z</time>
      </trkpt>
      <trkpt lat="44.54216" lon="6.27642">
        <ele>852.79998779297</ele>
        <time>2022-04-23T11:05:21.450Z</time>
      </trkpt>
      <trkpt lat="44.54223" lon="6.27653">
        <ele>851.79998779297</ele>
        <time>2022-04-23T11:05:29.010Z</time>
      </trkpt>
      <trkpt lat="44.54234" lon="6.2765">
        <ele>851.40002441406</ele>
        <time>2022-04-23T11:05:36.574Z</time>
      </trkpt>
      <trkpt lat="44.54244" lon="6.27642">
        <ele>851.79998779297</ele>
        <time>2022-04-23T11:05:44.142Z</time>
      </trkpt>
      <trkpt lat="44.54247" lon="6.27639">
        <ele>852</ele>
        <time>2022-04-23T11:05:51.711Z</time>
      </trkpt>
      <trkpt lat="44.54257" lon="6.27621">
        <ele>853.20001220703</ele>
        <time>2022-04-23T11:05:59.285Z</time>
      </trkpt>
      <trkpt lat="44.54258" lon="6.27619">
        <ele>853.40002441406</ele>
        <time>2022-04-23T11:06:06.860Z</time>
      </trkpt>
      <trkpt lat="44.54268" lon="6.27608">
        <ele>854.40002441406</ele>
        <time>2022-04-23T11:06:14.439Z</time>
      </trkpt>
      <trkpt lat="44.54272" lon="6.27603">
        <ele>854.59997558594</ele>
        <time>2022-04-23T11:06:22.020Z</time>
      </trkpt>
      <trkpt lat="44.54283" lon="6.27592">
        <ele>855.40002441406</ele>
        <time>2022-04-23T11:06:29.605Z</time>
      </trkpt>
      <trkpt lat="44.54286" lon="6.27588">
        <ele>855.59997558594</ele>
        <time>2022-04-23T11:06:37.192Z</time>
      </trkpt>
      <trkpt lat="44.54295" lon="6.27576">
        <ele>856.40002441406</ele>
        <time>2022-04-23T11:06:44.783Z</time>
      </trkpt>
      <trkpt lat="44.543" lon="6.27573">
        <ele>856.59997558594</ele>
        <time>2022-04-23T11:06:52.376Z</time>
      </trkpt>
      <trkpt lat="44.5431" lon="6.27569">
        <ele>857.20001220703</ele>
        <time>2022-04-23T11:06:59.972Z</time>
      </trkpt>
      <trkpt lat="44.54315" lon="6.2757">
        <ele>857.40002441406</ele>
        <time>2022-04-23T11:07:07.570Z</time>
      </trkpt>
      <trkpt lat="44.54326" lon="6.27576">
        <ele>858.20001220703</ele>
        <time>2022-04-23T11:07:15.172Z</time>
      </trkpt>
      <trkpt lat="44.5433" lon="6.27579">
        <ele>858.59997558594</ele>
        <time>2022-04-23T11:07:22.775Z</time>
      </trkpt>
      <trkpt lat="44.54341" lon="6.27585">
        <ele>859.20001220703</ele>
        <time>2022-04-23T11:07:30.382Z</time>
      </trkpt>
      <trkpt lat="44.54345" lon="6.27587">
        <ele>859.59997558594</ele>
        <time>2022-04-23T11:07:37.990Z</time>
      </trkpt>
      <trkpt lat="44.54359" lon="6.27597">
        <ele>860.40002441406</ele>
        <time>2022-04-23T11:07:45.604Z</time>
      </trkpt>
      <trkpt lat="44.54365" lon="6.27601">
        <ele>860.59997558594</ele>
        <time>2022-04-23T11:07:53.220Z</time>
      </trkpt>
      <trkpt lat="44.54374" lon="6.2761">
        <ele>861.20001220703</ele>
        <time>2022-04-23T11:08:00.840Z</time>
      </trkpt>
      <trkpt lat="44.5438" lon="6.27614">
        <ele>861.79998779297</ele>
        <time>2022-04-23T11:08:08.462Z</time>
      </trkpt>
      <trkpt lat="44.54388" lon="6.27623">
        <ele>863</ele>
        <time>2022-04-23T11:08:16.087Z</time>
      </trkpt>
      <trkpt lat="44.54391" lon="6.27628">
        <ele>863.20001220703</ele>
        <time>2022-04-23T11:08:23.714Z</time>
      </trkpt>
      <trkpt lat="44.54397" lon="6.27636">
        <ele>864.20001220703</ele>
        <time>2022-04-23T11:08:31.343Z</time>
      </trkpt>
      <trkpt lat="44.54403" lon="6.27646">
        <ele>864.79998779297</ele>
        <time>2022-04-23T11:08:38.976Z</time>
      </trkpt>
      <trkpt lat="44.54404" lon="6.27648">
        <ele>865</ele>
        <time>2022-04-23T11:08:46.609Z</time>
      </trkpt>
      <trkpt lat="44.54404" lon="6.27658">
        <ele>864.79998779297</ele>
        <time>2022-04-23T11:08:54.245Z</time>
      </trkpt>
      <trkpt lat="44.54398" lon="6.27665">
        <ele>864.59997558594</ele>
        <time>2022-04-23T11:09:01.883Z</time>
      </trkpt>
      <trkpt lat="44.5439" lon="6.27675">
        <ele>864.20001220703</ele>
        <time>2022-04-23T11:09:09.524Z</time>
      </trkpt>
      <trkpt lat="44.54374" lon="6.27695">
        <ele>862.79998779297</ele>
        <time>2022-04-23T11:09:17.173Z</time>
      </trkpt>
      <trkpt lat="44.54367" lon="6.27705">
        <ele>862</ele>
        <time>2022-04-23T11:09:24.825Z</time>
      </trkpt>
      <trkpt lat="44.54363" lon="6.27713">
        <ele>861.59997558594</ele>
        <time>2022-04-23T11:09:32.479Z</time>
      </trkpt>
      <trkpt lat="44.54359" lon="6.27721">
        <ele>861.20001220703</ele>
        <time>2022-04-23T11:09:40.135Z</time>
      </trkpt>
      <trkpt lat="44.54347" lon="6.27753">
        <ele>860.40002441406</ele>
        <time>2022-04-23T11:09:47.800Z</time>
      </trkpt>
      <trkpt lat="44.54346" lon="6.27755">
        <ele>860.40002441406</ele>
        <time>2022-04-23T11:09:55.466Z</time>
      </trkpt>
      <trkpt lat="44.54342" lon="6.27755">
        <ele>860</ele>
        <time>2022-04-23T11:10:03.133Z</time>
      </trkpt>
      <trkpt lat="44.54338" lon="6.27758">
        <ele>859.40002441406</ele>
        <time>2022-04-23T11:10:10.802Z</time>
      </trkpt>
      <trkpt lat="44.54336" lon="6.27761">
        <ele>859</ele>
        <time>2022-04-23T11:10:18.472Z</time>
      </trkpt>
      <trkpt lat="44.54334" lon="6.27778">
        <ele>858.59997558594</ele>
        <time>2022-04-23T11:10:26.146Z</time>
      </trkpt>
      <trkpt lat="44.54335" lon="6.27794">
        <ele>858.59997558594</ele>
        <time>2022-04-23T11:10:33.823Z</time>
      </trkpt>
      <trkpt lat="44.54335" lon="6.27797">
        <ele>858.59997558594</ele>
        <time>2022-04-23T11:10:41.501Z</time>
      </trkpt>
      <trkpt lat="44.54336" lon="6.27804">
        <ele>858.59997558594</ele>
        <time>2022-04-23T11:10:49.181Z</time>
      </trkpt>
      <trkpt lat="44.54338" lon="6.27805">
        <ele>858.59997558594</ele>
        <time>2022-04-23T11:10:56.861Z</time>
      </trkpt>
      <trkpt lat="44.54342" lon="6.27801">
        <ele>858.79998779297</ele>
        <time>2022-04-23T11:11:04.543Z</time>
      </trkpt>
      <trkpt lat="44.54342" lon="6.27799">
        <ele>858.79998779297</ele>
        <time>2022-04-23T11:11:12.226Z</time>
      </trkpt>
    </trkseg>
  </trk>
</gpx>